<?xml version="1.0" encoding="UTF-8" standalone="no" ?>
<gpx xmlns="http://www.topografix.com/GPX/1/1" xmlns:xsi="http://www.w3.org/2001/XMLSchema-instance" xsi:schemaLocation="http://www.topografix.com/GPX/1/1 http://www.topografix.com/GPX/1/1/gpx.xsd" version="1.1" creator="VisuGPX - https://www.visugpx.com">
  <metadata>
    <name>RAID VTT ETERLOU 2017</name>
    <desc><![CDATA[1er partie du raid VTT Eterlou (cadets et juniors) 2017 organisé par Oloron O Bearn VTT]]></desc>
  </metadata>
  <trk>
    <name><![CDATA[ETERLOUS DESCENTE TERMY]]></name>
    <trkseg>
      <trkpt lat="43.09434" lon="-0.71613">
        <ele>333.71</ele>
        <time>2017-05-11T06:58:23Z</time>
      </trkpt>
      <trkpt lat="43.09432" lon="-0.71613">
        <ele>333.71</ele>
        <time>2017-05-11T06:58:39Z</time>
      </trkpt>
      <trkpt lat="43.09429" lon="-0.71613">
        <ele>333.71</ele>
        <time>2017-05-11T06:58:42Z</time>
      </trkpt>
      <trkpt lat="43.09425" lon="-0.71625">
        <ele>333.71</ele>
        <time>2017-05-11T06:58:48Z</time>
      </trkpt>
      <trkpt lat="43.09395" lon="-0.71619">
        <ele>334.2</ele>
        <time>2017-05-11T06:58:59Z</time>
      </trkpt>
      <trkpt lat="43.09363" lon="-0.71605">
        <ele>335.16</ele>
        <time>2017-05-11T06:59:10Z</time>
      </trkpt>
      <trkpt lat="43.09342" lon="-0.71598">
        <ele>335.64</ele>
        <time>2017-05-11T06:59:16Z</time>
      </trkpt>
      <trkpt lat="43.0934" lon="-0.71573">
        <ele>336.12</ele>
        <time>2017-05-11T06:59:22Z</time>
      </trkpt>
      <trkpt lat="43.09343" lon="-0.71552">
        <ele>335.64</ele>
        <time>2017-05-11T06:59:26Z</time>
      </trkpt>
      <trkpt lat="43.09348" lon="-0.71531">
        <ele>335.64</ele>
        <time>2017-05-11T06:59:30Z</time>
      </trkpt>
      <trkpt lat="43.09348" lon="-0.71525">
        <ele>336.12</ele>
        <time>2017-05-11T06:59:31Z</time>
      </trkpt>
      <trkpt lat="43.09359" lon="-0.71444">
        <ele>334.68</ele>
        <time>2017-05-11T06:59:46Z</time>
      </trkpt>
      <trkpt lat="43.0936" lon="-0.71439">
        <ele>335.16</ele>
        <time>2017-05-11T06:59:47Z</time>
      </trkpt>
      <trkpt lat="43.09362" lon="-0.71433">
        <ele>334.68</ele>
        <time>2017-05-11T06:59:48Z</time>
      </trkpt>
      <trkpt lat="43.09364" lon="-0.71427">
        <ele>334.68</ele>
        <time>2017-05-11T06:59:49Z</time>
      </trkpt>
      <trkpt lat="43.09366" lon="-0.71422">
        <ele>334.2</ele>
        <time>2017-05-11T06:59:50Z</time>
      </trkpt>
      <trkpt lat="43.09373" lon="-0.71406">
        <ele>334.2</ele>
        <time>2017-05-11T06:59:53Z</time>
      </trkpt>
      <trkpt lat="43.09375" lon="-0.714">
        <ele>334.2</ele>
        <time>2017-05-11T06:59:54Z</time>
      </trkpt>
      <trkpt lat="43.09382" lon="-0.71384">
        <ele>333.71</ele>
        <time>2017-05-11T06:59:57Z</time>
      </trkpt>
      <trkpt lat="43.09401" lon="-0.71349">
        <ele>332.75</ele>
        <time>2017-05-11T07:00:03Z</time>
      </trkpt>
      <trkpt lat="43.09405" lon="-0.71345">
        <ele>333.23</ele>
        <time>2017-05-11T07:00:04Z</time>
      </trkpt>
      <trkpt lat="43.09408" lon="-0.71342">
        <ele>333.23</ele>
        <time>2017-05-11T07:00:05Z</time>
      </trkpt>
      <trkpt lat="43.09411" lon="-0.71338">
        <ele>333.23</ele>
        <time>2017-05-11T07:00:06Z</time>
      </trkpt>
      <trkpt lat="43.09415" lon="-0.71335">
        <ele>333.23</ele>
        <time>2017-05-11T07:00:07Z</time>
      </trkpt>
      <trkpt lat="43.09418" lon="-0.71332">
        <ele>333.71</ele>
        <time>2017-05-11T07:00:08Z</time>
      </trkpt>
      <trkpt lat="43.09449" lon="-0.71298">
        <ele>335.16</ele>
        <time>2017-05-11T07:00:18Z</time>
      </trkpt>
      <trkpt lat="43.09469" lon="-0.71279">
        <ele>337.08</ele>
        <time>2017-05-11T07:00:25Z</time>
      </trkpt>
      <trkpt lat="43.09503" lon="-0.71257">
        <ele>339</ele>
        <time>2017-05-11T07:00:37Z</time>
      </trkpt>
      <trkpt lat="43.09517" lon="-0.71269">
        <ele>338.52</ele>
        <time>2017-05-11T07:00:42Z</time>
      </trkpt>
      <trkpt lat="43.09518" lon="-0.71274">
        <ele>338.04</ele>
        <time>2017-05-11T07:00:44Z</time>
      </trkpt>
      <trkpt lat="43.09513" lon="-0.71291">
        <ele>337.08</ele>
        <time>2017-05-11T07:00:50Z</time>
      </trkpt>
      <trkpt lat="43.09508" lon="-0.71301">
        <ele>336.6</ele>
        <time>2017-05-11T07:00:52Z</time>
      </trkpt>
      <trkpt lat="43.09505" lon="-0.71307">
        <ele>336.12</ele>
        <time>2017-05-11T07:00:53Z</time>
      </trkpt>
      <trkpt lat="43.09494" lon="-0.71335">
        <ele>336.12</ele>
        <time>2017-05-11T07:00:57Z</time>
      </trkpt>
      <trkpt lat="43.09493" lon="-0.71343">
        <ele>335.64</ele>
        <time>2017-05-11T07:00:58Z</time>
      </trkpt>
      <trkpt lat="43.09492" lon="-0.71352">
        <ele>335.64</ele>
        <time>2017-05-11T07:00:59Z</time>
      </trkpt>
      <trkpt lat="43.09493" lon="-0.71361">
        <ele>335.64</ele>
        <time>2017-05-11T07:01:00Z</time>
      </trkpt>
      <trkpt lat="43.09495" lon="-0.71369">
        <ele>335.16</ele>
        <time>2017-05-11T07:01:01Z</time>
      </trkpt>
      <trkpt lat="43.09498" lon="-0.71377">
        <ele>335.16</ele>
        <time>2017-05-11T07:01:02Z</time>
      </trkpt>
      <trkpt lat="43.09501" lon="-0.71384">
        <ele>335.16</ele>
        <time>2017-05-11T07:01:03Z</time>
      </trkpt>
      <trkpt lat="43.09504" lon="-0.71391">
        <ele>335.64</ele>
        <time>2017-05-11T07:01:04Z</time>
      </trkpt>
      <trkpt lat="43.0952" lon="-0.71424">
        <ele>334.2</ele>
        <time>2017-05-11T07:01:09Z</time>
      </trkpt>
      <trkpt lat="43.09523" lon="-0.7143">
        <ele>333.71</ele>
        <time>2017-05-11T07:01:10Z</time>
      </trkpt>
      <trkpt lat="43.09526" lon="-0.71435">
        <ele>333.71</ele>
        <time>2017-05-11T07:01:11Z</time>
      </trkpt>
      <trkpt lat="43.09531" lon="-0.71438">
        <ele>333.23</ele>
        <time>2017-05-11T07:01:12Z</time>
      </trkpt>
      <trkpt lat="43.09535" lon="-0.71439">
        <ele>333.71</ele>
        <time>2017-05-11T07:01:13Z</time>
      </trkpt>
      <trkpt lat="43.09553" lon="-0.71436">
        <ele>337.08</ele>
        <time>2017-05-11T07:01:21Z</time>
      </trkpt>
      <trkpt lat="43.09562" lon="-0.71438">
        <ele>338.52</ele>
        <time>2017-05-11T07:01:26Z</time>
      </trkpt>
      <trkpt lat="43.09565" lon="-0.7144">
        <ele>339.48</ele>
        <time>2017-05-11T07:01:28Z</time>
      </trkpt>
      <trkpt lat="43.09579" lon="-0.71459">
        <ele>339.48</ele>
        <time>2017-05-11T07:01:37Z</time>
      </trkpt>
      <trkpt lat="43.09591" lon="-0.71488">
        <ele>337.56</ele>
        <time>2017-05-11T07:01:42Z</time>
      </trkpt>
      <trkpt lat="43.09595" lon="-0.71496">
        <ele>336.6</ele>
        <time>2017-05-11T07:01:43Z</time>
      </trkpt>
      <trkpt lat="43.0961" lon="-0.71514">
        <ele>336.6</ele>
        <time>2017-05-11T07:01:46Z</time>
      </trkpt>
      <trkpt lat="43.09614" lon="-0.71516">
        <ele>336.6</ele>
        <time>2017-05-11T07:01:47Z</time>
      </trkpt>
      <trkpt lat="43.09617" lon="-0.71516">
        <ele>337.56</ele>
        <time>2017-05-11T07:01:48Z</time>
      </trkpt>
      <trkpt lat="43.09619" lon="-0.71517">
        <ele>338.04</ele>
        <time>2017-05-11T07:01:49Z</time>
      </trkpt>
      <trkpt lat="43.09621" lon="-0.71518">
        <ele>338.52</ele>
        <time>2017-05-11T07:01:50Z</time>
      </trkpt>
      <trkpt lat="43.09628" lon="-0.71519">
        <ele>339</ele>
        <time>2017-05-11T07:01:53Z</time>
      </trkpt>
      <trkpt lat="43.09642" lon="-0.71521">
        <ele>340.92</ele>
        <time>2017-05-11T07:02:01Z</time>
      </trkpt>
      <trkpt lat="43.0965" lon="-0.71522">
        <ele>343.33</ele>
        <time>2017-05-11T07:02:07Z</time>
      </trkpt>
      <trkpt lat="43.09658" lon="-0.71523">
        <ele>343.81</ele>
        <time>2017-05-11T07:02:11Z</time>
      </trkpt>
      <trkpt lat="43.09663" lon="-0.71526">
        <ele>344.77</ele>
        <time>2017-05-11T07:02:14Z</time>
      </trkpt>
      <trkpt lat="43.09682" lon="-0.71533">
        <ele>348.13</ele>
        <time>2017-05-11T07:02:26Z</time>
      </trkpt>
      <trkpt lat="43.09703" lon="-0.71549">
        <ele>349.58</ele>
        <time>2017-05-11T07:02:39Z</time>
      </trkpt>
      <trkpt lat="43.09716" lon="-0.7156">
        <ele>350.06</ele>
        <time>2017-05-11T07:02:47Z</time>
      </trkpt>
      <trkpt lat="43.09722" lon="-0.71562">
        <ele>351.02</ele>
        <time>2017-05-11T07:02:51Z</time>
      </trkpt>
      <trkpt lat="43.09732" lon="-0.71567">
        <ele>352.94</ele>
        <time>2017-05-11T07:02:56Z</time>
      </trkpt>
      <trkpt lat="43.09757" lon="-0.71581">
        <ele>354.38</ele>
        <time>2017-05-11T07:03:08Z</time>
      </trkpt>
      <trkpt lat="43.09771" lon="-0.71581">
        <ele>356.79</ele>
        <time>2017-05-11T07:03:16Z</time>
      </trkpt>
      <trkpt lat="43.09787" lon="-0.71582">
        <ele>358.23</ele>
        <time>2017-05-11T07:03:25Z</time>
      </trkpt>
      <trkpt lat="43.09787" lon="-0.71572">
        <ele>359.19</ele>
        <time>2017-05-11T07:03:32Z</time>
      </trkpt>
      <trkpt lat="43.09782" lon="-0.71567">
        <ele>360.63</ele>
        <time>2017-05-11T07:03:38Z</time>
      </trkpt>
      <trkpt lat="43.09777" lon="-0.7156">
        <ele>361.59</ele>
        <time>2017-05-11T07:03:43Z</time>
      </trkpt>
      <trkpt lat="43.09765" lon="-0.71548">
        <ele>363.04</ele>
        <time>2017-05-11T07:03:51Z</time>
      </trkpt>
      <trkpt lat="43.0975" lon="-0.71536">
        <ele>365.92</ele>
        <time>2017-05-11T07:04:02Z</time>
      </trkpt>
      <trkpt lat="43.09747" lon="-0.71534">
        <ele>365.44</ele>
        <time>2017-05-11T07:04:04Z</time>
      </trkpt>
      <trkpt lat="43.09745" lon="-0.71528">
        <ele>366.4</ele>
        <time>2017-05-11T07:04:08Z</time>
      </trkpt>
      <trkpt lat="43.09744" lon="-0.71525">
        <ele>366.88</ele>
        <time>2017-05-11T07:04:10Z</time>
      </trkpt>
      <trkpt lat="43.09727" lon="-0.71508">
        <ele>369.28</ele>
        <time>2017-05-11T07:04:22Z</time>
      </trkpt>
      <trkpt lat="43.09713" lon="-0.71496">
        <ele>371.21</ele>
        <time>2017-05-11T07:04:33Z</time>
      </trkpt>
      <trkpt lat="43.09706" lon="-0.71487">
        <ele>372.17</ele>
        <time>2017-05-11T07:04:38Z</time>
      </trkpt>
      <trkpt lat="43.09691" lon="-0.71469">
        <ele>373.61</ele>
        <time>2017-05-11T07:04:48Z</time>
      </trkpt>
      <trkpt lat="43.09688" lon="-0.71466">
        <ele>374.09</ele>
        <time>2017-05-11T07:04:50Z</time>
      </trkpt>
      <trkpt lat="43.09673" lon="-0.71448">
        <ele>376.97</ele>
        <time>2017-05-11T07:05:02Z</time>
      </trkpt>
      <trkpt lat="43.09661" lon="-0.71436">
        <ele>378.9</ele>
        <time>2017-05-11T07:05:10Z</time>
      </trkpt>
      <trkpt lat="43.09651" lon="-0.71426">
        <ele>380.82</ele>
        <time>2017-05-11T07:05:17Z</time>
      </trkpt>
      <trkpt lat="43.09637" lon="-0.71414">
        <ele>383.22</ele>
        <time>2017-05-11T07:05:27Z</time>
      </trkpt>
      <trkpt lat="43.09631" lon="-0.71405">
        <ele>383.7</ele>
        <time>2017-05-11T07:05:33Z</time>
      </trkpt>
      <trkpt lat="43.09629" lon="-0.714">
        <ele>384.18</ele>
        <time>2017-05-11T07:05:36Z</time>
      </trkpt>
      <trkpt lat="43.09622" lon="-0.7139">
        <ele>385.15</ele>
        <time>2017-05-11T07:05:43Z</time>
      </trkpt>
      <trkpt lat="43.09605" lon="-0.71368">
        <ele>387.55</ele>
        <time>2017-05-11T07:05:57Z</time>
      </trkpt>
      <trkpt lat="43.09603" lon="-0.71363">
        <ele>386.59</ele>
        <time>2017-05-11T07:06:00Z</time>
      </trkpt>
      <trkpt lat="43.096" lon="-0.71353">
        <ele>387.07</ele>
        <time>2017-05-11T07:06:04Z</time>
      </trkpt>
      <trkpt lat="43.09605" lon="-0.71322">
        <ele>386.11</ele>
        <time>2017-05-11T07:06:14Z</time>
      </trkpt>
      <trkpt lat="43.09629" lon="-0.71298">
        <ele>385.15</ele>
        <time>2017-05-11T07:06:26Z</time>
      </trkpt>
      <trkpt lat="43.09642" lon="-0.71292">
        <ele>383.7</ele>
        <time>2017-05-11T07:06:29Z</time>
      </trkpt>
      <trkpt lat="43.09673" lon="-0.71259">
        <ele>384.18</ele>
        <time>2017-05-11T07:06:38Z</time>
      </trkpt>
      <trkpt lat="43.0968" lon="-0.71219">
        <ele>384.18</ele>
        <time>2017-05-11T07:06:48Z</time>
      </trkpt>
      <trkpt lat="43.09671" lon="-0.71175">
        <ele>386.11</ele>
        <time>2017-05-11T07:06:59Z</time>
      </trkpt>
      <trkpt lat="43.09665" lon="-0.71125">
        <ele>388.03</ele>
        <time>2017-05-11T07:07:13Z</time>
      </trkpt>
      <trkpt lat="43.09658" lon="-0.71096">
        <ele>391.39</ele>
        <time>2017-05-11T07:07:24Z</time>
      </trkpt>
      <trkpt lat="43.09654" lon="-0.71083">
        <ele>392.84</ele>
        <time>2017-05-11T07:07:29Z</time>
      </trkpt>
      <trkpt lat="43.09659" lon="-0.71056">
        <ele>395.24</ele>
        <time>2017-05-11T07:07:38Z</time>
      </trkpt>
      <trkpt lat="43.09666" lon="-0.71044">
        <ele>396.2</ele>
        <time>2017-05-11T07:07:44Z</time>
      </trkpt>
      <trkpt lat="43.0967" lon="-0.7104">
        <ele>396.68</ele>
        <time>2017-05-11T07:07:47Z</time>
      </trkpt>
      <trkpt lat="43.09693" lon="-0.71033">
        <ele>400.05</ele>
        <time>2017-05-11T07:07:59Z</time>
      </trkpt>
      <trkpt lat="43.0971" lon="-0.7103">
        <ele>401.97</ele>
        <time>2017-05-11T07:08:08Z</time>
      </trkpt>
      <trkpt lat="43.09722" lon="-0.71023">
        <ele>403.41</ele>
        <time>2017-05-11T07:08:16Z</time>
      </trkpt>
      <trkpt lat="43.09739" lon="-0.71007">
        <ele>405.81</ele>
        <time>2017-05-11T07:08:27Z</time>
      </trkpt>
      <trkpt lat="43.09745" lon="-0.71005">
        <ele>405.81</ele>
        <time>2017-05-11T07:10:33Z</time>
      </trkpt>
      <trkpt lat="43.09745" lon="-0.71007">
        <ele>405.33</ele>
        <time>2017-05-11T07:10:34Z</time>
      </trkpt>
      <trkpt lat="43.09749" lon="-0.71014">
        <ele>405.81</ele>
        <time>2017-05-11T07:10:38Z</time>
      </trkpt>
      <trkpt lat="43.09751" lon="-0.71014">
        <ele>406.29</ele>
        <time>2017-05-11T07:10:40Z</time>
      </trkpt>
      <trkpt lat="43.09755" lon="-0.71009">
        <ele>406.77</ele>
        <time>2017-05-11T07:10:49Z</time>
      </trkpt>
      <trkpt lat="43.09762" lon="-0.71002">
        <ele>409.18</ele>
        <time>2017-05-11T07:10:58Z</time>
      </trkpt>
      <trkpt lat="43.09765" lon="-0.70997">
        <ele>409.66</ele>
        <time>2017-05-11T07:11:05Z</time>
      </trkpt>
      <trkpt lat="43.09766" lon="-0.7098">
        <ele>412.54</ele>
        <time>2017-05-11T07:11:15Z</time>
      </trkpt>
      <trkpt lat="43.09766" lon="-0.70975">
        <ele>412.54</ele>
        <time>2017-05-11T07:11:18Z</time>
      </trkpt>
      <trkpt lat="43.09765" lon="-0.70963">
        <ele>413.5</ele>
        <time>2017-05-11T07:11:24Z</time>
      </trkpt>
      <trkpt lat="43.09768" lon="-0.70954">
        <ele>414.47</ele>
        <time>2017-05-11T07:11:28Z</time>
      </trkpt>
      <trkpt lat="43.09771" lon="-0.70919">
        <ele>416.39</ele>
        <time>2017-05-11T07:11:44Z</time>
      </trkpt>
      <trkpt lat="43.09756" lon="-0.70884">
        <ele>419.27</ele>
        <time>2017-05-11T07:12:00Z</time>
      </trkpt>
      <trkpt lat="43.09747" lon="-0.70855">
        <ele>422.16</ele>
        <time>2017-05-11T07:12:12Z</time>
      </trkpt>
      <trkpt lat="43.09743" lon="-0.70824">
        <ele>424.56</ele>
        <time>2017-05-11T07:12:24Z</time>
      </trkpt>
      <trkpt lat="43.09748" lon="-0.70788">
        <ele>426</ele>
        <time>2017-05-11T07:12:36Z</time>
      </trkpt>
      <trkpt lat="43.09746" lon="-0.70745">
        <ele>426.96</ele>
        <time>2017-05-11T07:12:48Z</time>
      </trkpt>
      <trkpt lat="43.09736" lon="-0.70696">
        <ele>429.85</ele>
        <time>2017-05-11T07:13:01Z</time>
      </trkpt>
      <trkpt lat="43.09737" lon="-0.7069">
        <ele>430.33</ele>
        <time>2017-05-11T07:13:03Z</time>
      </trkpt>
      <trkpt lat="43.09759" lon="-0.70685">
        <ele>432.73</ele>
        <time>2017-05-11T07:13:13Z</time>
      </trkpt>
      <trkpt lat="43.09783" lon="-0.70682">
        <ele>435.61</ele>
        <time>2017-05-11T07:13:22Z</time>
      </trkpt>
      <trkpt lat="43.09812" lon="-0.70664">
        <ele>436.58</ele>
        <time>2017-05-11T07:13:34Z</time>
      </trkpt>
      <trkpt lat="43.09828" lon="-0.70648">
        <ele>436.1</ele>
        <time>2017-05-11T07:13:39Z</time>
      </trkpt>
      <trkpt lat="43.09833" lon="-0.70645">
        <ele>435.61</ele>
        <time>2017-05-11T07:13:40Z</time>
      </trkpt>
      <trkpt lat="43.09839" lon="-0.70642">
        <ele>434.65</ele>
        <time>2017-05-11T07:13:41Z</time>
      </trkpt>
      <trkpt lat="43.09853" lon="-0.70636">
        <ele>433.21</ele>
        <time>2017-05-11T07:13:43Z</time>
      </trkpt>
      <trkpt lat="43.09859" lon="-0.7063">
        <ele>432.25</ele>
        <time>2017-05-11T07:13:44Z</time>
      </trkpt>
      <trkpt lat="43.09864" lon="-0.70621">
        <ele>432.25</ele>
        <time>2017-05-11T07:13:45Z</time>
      </trkpt>
      <trkpt lat="43.09878" lon="-0.70594">
        <ele>431.77</ele>
        <time>2017-05-11T07:13:48Z</time>
      </trkpt>
      <trkpt lat="43.09882" lon="-0.70588">
        <ele>431.29</ele>
        <time>2017-05-11T07:13:49Z</time>
      </trkpt>
      <trkpt lat="43.09887" lon="-0.70584">
        <ele>430.81</ele>
        <time>2017-05-11T07:13:50Z</time>
      </trkpt>
      <trkpt lat="43.09891" lon="-0.70581">
        <ele>430.81</ele>
        <time>2017-05-11T07:13:51Z</time>
      </trkpt>
      <trkpt lat="43.09893" lon="-0.7058">
        <ele>430.81</ele>
        <time>2017-05-11T07:13:52Z</time>
      </trkpt>
      <trkpt lat="43.09894" lon="-0.70577">
        <ele>430.33</ele>
        <time>2017-05-11T07:14:39Z</time>
      </trkpt>
      <trkpt lat="43.09896" lon="-0.70576">
        <ele>429.85</ele>
        <time>2017-05-11T07:14:40Z</time>
      </trkpt>
      <trkpt lat="43.09898" lon="-0.70576">
        <ele>430.33</ele>
        <time>2017-05-11T07:14:41Z</time>
      </trkpt>
      <trkpt lat="43.09901" lon="-0.70575">
        <ele>430.81</ele>
        <time>2017-05-11T07:14:42Z</time>
      </trkpt>
      <trkpt lat="43.09904" lon="-0.70573">
        <ele>430.33</ele>
        <time>2017-05-11T07:14:43Z</time>
      </trkpt>
      <trkpt lat="43.09907" lon="-0.7057">
        <ele>430.33</ele>
        <time>2017-05-11T07:14:44Z</time>
      </trkpt>
      <trkpt lat="43.0991" lon="-0.70567">
        <ele>430.33</ele>
        <time>2017-05-11T07:14:45Z</time>
      </trkpt>
      <trkpt lat="43.09914" lon="-0.70564">
        <ele>430.33</ele>
        <time>2017-05-11T07:14:46Z</time>
      </trkpt>
      <trkpt lat="43.09929" lon="-0.70549">
        <ele>429.37</ele>
        <time>2017-05-11T07:14:50Z</time>
      </trkpt>
      <trkpt lat="43.09968" lon="-0.7049">
        <ele>427.44</ele>
        <time>2017-05-11T07:15:03Z</time>
      </trkpt>
      <trkpt lat="43.09988" lon="-0.70431">
        <ele>430.81</ele>
        <time>2017-05-11T07:15:16Z</time>
      </trkpt>
      <trkpt lat="43.09988" lon="-0.70428">
        <ele>430.33</ele>
        <time>2017-05-11T07:15:17Z</time>
      </trkpt>
      <trkpt lat="43.09983" lon="-0.70407">
        <ele>433.69</ele>
        <time>2017-05-11T07:15:24Z</time>
      </trkpt>
      <trkpt lat="43.09982" lon="-0.70404">
        <ele>434.65</ele>
        <time>2017-05-11T07:15:25Z</time>
      </trkpt>
      <trkpt lat="43.09981" lon="-0.70401">
        <ele>434.65</ele>
        <time>2017-05-11T07:15:26Z</time>
      </trkpt>
      <trkpt lat="43.0998" lon="-0.70399">
        <ele>435.13</ele>
        <time>2017-05-11T07:15:27Z</time>
      </trkpt>
      <trkpt lat="43.09979" lon="-0.70396">
        <ele>435.61</ele>
        <time>2017-05-11T07:15:28Z</time>
      </trkpt>
      <trkpt lat="43.09978" lon="-0.70394">
        <ele>436.1</ele>
        <time>2017-05-11T07:15:29Z</time>
      </trkpt>
      <trkpt lat="43.09977" lon="-0.70391">
        <ele>436.1</ele>
        <time>2017-05-11T07:15:30Z</time>
      </trkpt>
      <trkpt lat="43.09976" lon="-0.70389">
        <ele>436.58</ele>
        <time>2017-05-11T07:15:31Z</time>
      </trkpt>
      <trkpt lat="43.09975" lon="-0.70387">
        <ele>436.58</ele>
        <time>2017-05-11T07:15:32Z</time>
      </trkpt>
      <trkpt lat="43.09973" lon="-0.70386">
        <ele>437.06</ele>
        <time>2017-05-11T07:15:33Z</time>
      </trkpt>
      <trkpt lat="43.09972" lon="-0.70384">
        <ele>437.54</ele>
        <time>2017-05-11T07:15:34Z</time>
      </trkpt>
      <trkpt lat="43.0997" lon="-0.70383">
        <ele>437.54</ele>
        <time>2017-05-11T07:15:36Z</time>
      </trkpt>
      <trkpt lat="43.09968" lon="-0.70382">
        <ele>438.02</ele>
        <time>2017-05-11T07:15:37Z</time>
      </trkpt>
      <trkpt lat="43.09967" lon="-0.7038">
        <ele>438.5</ele>
        <time>2017-05-11T07:15:38Z</time>
      </trkpt>
      <trkpt lat="43.09965" lon="-0.70378">
        <ele>438.5</ele>
        <time>2017-05-11T07:15:39Z</time>
      </trkpt>
      <trkpt lat="43.09964" lon="-0.70377">
        <ele>438.98</ele>
        <time>2017-05-11T07:15:40Z</time>
      </trkpt>
      <trkpt lat="43.09962" lon="-0.70375">
        <ele>439.46</ele>
        <time>2017-05-11T07:15:41Z</time>
      </trkpt>
      <trkpt lat="43.0996" lon="-0.70373">
        <ele>439.94</ele>
        <time>2017-05-11T07:15:42Z</time>
      </trkpt>
      <trkpt lat="43.09959" lon="-0.70371">
        <ele>439.46</ele>
        <time>2017-05-11T07:15:43Z</time>
      </trkpt>
      <trkpt lat="43.09958" lon="-0.7037">
        <ele>439.94</ele>
        <time>2017-05-11T07:15:44Z</time>
      </trkpt>
      <trkpt lat="43.09956" lon="-0.70368">
        <ele>439.94</ele>
        <time>2017-05-11T07:15:45Z</time>
      </trkpt>
      <trkpt lat="43.09955" lon="-0.70367">
        <ele>440.42</ele>
        <time>2017-05-11T07:15:46Z</time>
      </trkpt>
      <trkpt lat="43.09954" lon="-0.70366">
        <ele>440.42</ele>
        <time>2017-05-11T07:15:47Z</time>
      </trkpt>
      <trkpt lat="43.09946" lon="-0.70356">
        <ele>442.82</ele>
        <time>2017-05-11T07:15:54Z</time>
      </trkpt>
      <trkpt lat="43.09942" lon="-0.7035">
        <ele>443.79</ele>
        <time>2017-05-11T07:15:58Z</time>
      </trkpt>
      <trkpt lat="43.09941" lon="-0.70349">
        <ele>444.75</ele>
        <time>2017-05-11T07:15:59Z</time>
      </trkpt>
      <trkpt lat="43.0994" lon="-0.70347">
        <ele>444.75</ele>
        <time>2017-05-11T07:16:00Z</time>
      </trkpt>
      <trkpt lat="43.09939" lon="-0.70346">
        <ele>445.23</ele>
        <time>2017-05-11T07:16:01Z</time>
      </trkpt>
      <trkpt lat="43.09939" lon="-0.70344">
        <ele>445.71</ele>
        <time>2017-05-11T07:16:02Z</time>
      </trkpt>
      <trkpt lat="43.09938" lon="-0.70341">
        <ele>445.71</ele>
        <time>2017-05-11T07:16:03Z</time>
      </trkpt>
      <trkpt lat="43.09937" lon="-0.70339">
        <ele>446.19</ele>
        <time>2017-05-11T07:16:04Z</time>
      </trkpt>
      <trkpt lat="43.09935" lon="-0.70336">
        <ele>446.19</ele>
        <time>2017-05-11T07:16:05Z</time>
      </trkpt>
      <trkpt lat="43.09934" lon="-0.70333">
        <ele>446.67</ele>
        <time>2017-05-11T07:16:07Z</time>
      </trkpt>
      <trkpt lat="43.09934" lon="-0.70331">
        <ele>446.67</ele>
        <time>2017-05-11T07:16:08Z</time>
      </trkpt>
      <trkpt lat="43.09933" lon="-0.70329">
        <ele>447.15</ele>
        <time>2017-05-11T07:16:09Z</time>
      </trkpt>
      <trkpt lat="43.09933" lon="-0.70326">
        <ele>447.15</ele>
        <time>2017-05-11T07:16:10Z</time>
      </trkpt>
      <trkpt lat="43.09933" lon="-0.70324">
        <ele>447.63</ele>
        <time>2017-05-11T07:16:11Z</time>
      </trkpt>
      <trkpt lat="43.09933" lon="-0.70322">
        <ele>447.63</ele>
        <time>2017-05-11T07:16:12Z</time>
      </trkpt>
      <trkpt lat="43.09934" lon="-0.7032">
        <ele>447.63</ele>
        <time>2017-05-11T07:16:13Z</time>
      </trkpt>
      <trkpt lat="43.09936" lon="-0.70318">
        <ele>448.11</ele>
        <time>2017-05-11T07:16:14Z</time>
      </trkpt>
      <trkpt lat="43.09937" lon="-0.70318">
        <ele>447.63</ele>
        <time>2017-05-11T07:16:15Z</time>
      </trkpt>
      <trkpt lat="43.09939" lon="-0.70318">
        <ele>448.11</ele>
        <time>2017-05-11T07:16:16Z</time>
      </trkpt>
      <trkpt lat="43.09941" lon="-0.70318">
        <ele>448.11</ele>
        <time>2017-05-11T07:16:17Z</time>
      </trkpt>
      <trkpt lat="43.09943" lon="-0.70319">
        <ele>448.59</ele>
        <time>2017-05-11T07:16:18Z</time>
      </trkpt>
      <trkpt lat="43.09945" lon="-0.7032">
        <ele>448.59</ele>
        <time>2017-05-11T07:16:19Z</time>
      </trkpt>
      <trkpt lat="43.09947" lon="-0.7032">
        <ele>448.59</ele>
        <time>2017-05-11T07:16:20Z</time>
      </trkpt>
      <trkpt lat="43.09948" lon="-0.70319">
        <ele>448.59</ele>
        <time>2017-05-11T07:16:21Z</time>
      </trkpt>
      <trkpt lat="43.09951" lon="-0.70319">
        <ele>449.07</ele>
        <time>2017-05-11T07:16:23Z</time>
      </trkpt>
      <trkpt lat="43.09969" lon="-0.7031">
        <ele>451.48</ele>
        <time>2017-05-11T07:16:35Z</time>
      </trkpt>
      <trkpt lat="43.09971" lon="-0.7031">
        <ele>452.44</ele>
        <time>2017-05-11T07:16:36Z</time>
      </trkpt>
      <trkpt lat="43.09972" lon="-0.70309">
        <ele>451.96</ele>
        <time>2017-05-11T07:16:37Z</time>
      </trkpt>
      <trkpt lat="43.09985" lon="-0.70306">
        <ele>452.92</ele>
        <time>2017-05-11T07:16:45Z</time>
      </trkpt>
      <trkpt lat="43.09986" lon="-0.70305">
        <ele>453.88</ele>
        <time>2017-05-11T07:16:46Z</time>
      </trkpt>
      <trkpt lat="43.09988" lon="-0.70304">
        <ele>453.88</ele>
        <time>2017-05-11T07:16:47Z</time>
      </trkpt>
      <trkpt lat="43.09989" lon="-0.70303">
        <ele>453.88</ele>
        <time>2017-05-11T07:16:48Z</time>
      </trkpt>
      <trkpt lat="43.09991" lon="-0.70302">
        <ele>453.88</ele>
        <time>2017-05-11T07:16:49Z</time>
      </trkpt>
      <trkpt lat="43.09992" lon="-0.70301">
        <ele>454.36</ele>
        <time>2017-05-11T07:16:50Z</time>
      </trkpt>
      <trkpt lat="43.09993" lon="-0.703">
        <ele>454.36</ele>
        <time>2017-05-11T07:16:51Z</time>
      </trkpt>
      <trkpt lat="43.09995" lon="-0.70299">
        <ele>453.88</ele>
        <time>2017-05-11T07:16:52Z</time>
      </trkpt>
      <trkpt lat="43.09996" lon="-0.70298">
        <ele>454.84</ele>
        <time>2017-05-11T07:16:53Z</time>
      </trkpt>
      <trkpt lat="43.09997" lon="-0.70297">
        <ele>454.84</ele>
        <time>2017-05-11T07:16:54Z</time>
      </trkpt>
      <trkpt lat="43.09998" lon="-0.70295">
        <ele>455.32</ele>
        <time>2017-05-11T07:16:55Z</time>
      </trkpt>
      <trkpt lat="43.09999" lon="-0.70294">
        <ele>455.32</ele>
        <time>2017-05-11T07:16:56Z</time>
      </trkpt>
      <trkpt lat="43.10019" lon="-0.7028">
        <ele>458.21</ele>
        <time>2017-05-11T07:17:11Z</time>
      </trkpt>
      <trkpt lat="43.10035" lon="-0.70266">
        <ele>461.09</ele>
        <time>2017-05-11T07:17:24Z</time>
      </trkpt>
      <trkpt lat="43.1005" lon="-0.70253">
        <ele>463.97</ele>
        <time>2017-05-11T07:17:37Z</time>
      </trkpt>
      <trkpt lat="43.10071" lon="-0.7024">
        <ele>466.38</ele>
        <time>2017-05-11T07:17:52Z</time>
      </trkpt>
      <trkpt lat="43.10075" lon="-0.70237">
        <ele>466.86</ele>
        <time>2017-05-11T07:17:55Z</time>
      </trkpt>
      <trkpt lat="43.10092" lon="-0.7023">
        <ele>469.74</ele>
        <time>2017-05-11T07:18:06Z</time>
      </trkpt>
      <trkpt lat="43.10106" lon="-0.70221">
        <ele>472.63</ele>
        <time>2017-05-11T07:18:18Z</time>
      </trkpt>
      <trkpt lat="43.10107" lon="-0.7022">
        <ele>473.11</ele>
        <time>2017-05-11T07:18:19Z</time>
      </trkpt>
      <trkpt lat="43.10108" lon="-0.70219">
        <ele>473.11</ele>
        <time>2017-05-11T07:18:20Z</time>
      </trkpt>
      <trkpt lat="43.10109" lon="-0.70219">
        <ele>473.59</ele>
        <time>2017-05-11T07:18:21Z</time>
      </trkpt>
      <trkpt lat="43.1011" lon="-0.70219">
        <ele>473.59</ele>
        <time>2017-05-11T07:18:22Z</time>
      </trkpt>
      <trkpt lat="43.10112" lon="-0.70218">
        <ele>473.59</ele>
        <time>2017-05-11T07:18:23Z</time>
      </trkpt>
      <trkpt lat="43.10113" lon="-0.70218">
        <ele>474.55</ele>
        <time>2017-05-11T07:18:24Z</time>
      </trkpt>
      <trkpt lat="43.10115" lon="-0.70218">
        <ele>474.55</ele>
        <time>2017-05-11T07:18:25Z</time>
      </trkpt>
      <trkpt lat="43.10117" lon="-0.70218">
        <ele>475.51</ele>
        <time>2017-05-11T07:18:27Z</time>
      </trkpt>
      <trkpt lat="43.10118" lon="-0.70218">
        <ele>475.51</ele>
        <time>2017-05-11T07:18:28Z</time>
      </trkpt>
      <trkpt lat="43.10126" lon="-0.7022">
        <ele>476.95</ele>
        <time>2017-05-11T07:18:35Z</time>
      </trkpt>
      <trkpt lat="43.10128" lon="-0.7022">
        <ele>477.91</ele>
        <time>2017-05-11T07:18:37Z</time>
      </trkpt>
      <trkpt lat="43.10142" lon="-0.70228">
        <ele>480.8</ele>
        <time>2017-05-11T07:18:49Z</time>
      </trkpt>
      <trkpt lat="43.10158" lon="-0.70234">
        <ele>482.72</ele>
        <time>2017-05-11T07:19:00Z</time>
      </trkpt>
      <trkpt lat="43.10173" lon="-0.70234">
        <ele>484.16</ele>
        <time>2017-05-11T07:19:08Z</time>
      </trkpt>
      <trkpt lat="43.10174" lon="-0.70233">
        <ele>484.16</ele>
        <time>2017-05-11T07:19:09Z</time>
      </trkpt>
      <trkpt lat="43.10175" lon="-0.70231">
        <ele>484.64</ele>
        <time>2017-05-11T07:19:10Z</time>
      </trkpt>
      <trkpt lat="43.10176" lon="-0.7023">
        <ele>485.12</ele>
        <time>2017-05-11T07:19:11Z</time>
      </trkpt>
      <trkpt lat="43.10177" lon="-0.70229">
        <ele>485.12</ele>
        <time>2017-05-11T07:19:12Z</time>
      </trkpt>
      <trkpt lat="43.10179" lon="-0.70228">
        <ele>485.12</ele>
        <time>2017-05-11T07:19:13Z</time>
      </trkpt>
      <trkpt lat="43.1018" lon="-0.70227">
        <ele>485.12</ele>
        <time>2017-05-11T07:19:14Z</time>
      </trkpt>
      <trkpt lat="43.1018" lon="-0.70226">
        <ele>485.6</ele>
        <time>2017-05-11T07:19:15Z</time>
      </trkpt>
      <trkpt lat="43.10181" lon="-0.70224">
        <ele>486.08</ele>
        <time>2017-05-11T07:19:16Z</time>
      </trkpt>
      <trkpt lat="43.10182" lon="-0.70223">
        <ele>486.56</ele>
        <time>2017-05-11T07:19:17Z</time>
      </trkpt>
      <trkpt lat="43.10183" lon="-0.70221">
        <ele>487.05</ele>
        <time>2017-05-11T07:19:18Z</time>
      </trkpt>
      <trkpt lat="43.10185" lon="-0.7022">
        <ele>487.05</ele>
        <time>2017-05-11T07:19:19Z</time>
      </trkpt>
      <trkpt lat="43.10186" lon="-0.70218">
        <ele>487.05</ele>
        <time>2017-05-11T07:19:20Z</time>
      </trkpt>
      <trkpt lat="43.10187" lon="-0.70217">
        <ele>487.53</ele>
        <time>2017-05-11T07:19:21Z</time>
      </trkpt>
      <trkpt lat="43.10188" lon="-0.70215">
        <ele>487.53</ele>
        <time>2017-05-11T07:19:22Z</time>
      </trkpt>
      <trkpt lat="43.10189" lon="-0.70214">
        <ele>488.01</ele>
        <time>2017-05-11T07:19:23Z</time>
      </trkpt>
      <trkpt lat="43.1019" lon="-0.70213">
        <ele>488.01</ele>
        <time>2017-05-11T07:19:24Z</time>
      </trkpt>
      <trkpt lat="43.10191" lon="-0.70211">
        <ele>488.49</ele>
        <time>2017-05-11T07:19:25Z</time>
      </trkpt>
      <trkpt lat="43.10191" lon="-0.7021">
        <ele>488.49</ele>
        <time>2017-05-11T07:19:26Z</time>
      </trkpt>
      <trkpt lat="43.10193" lon="-0.70208">
        <ele>488.97</ele>
        <time>2017-05-11T07:19:27Z</time>
      </trkpt>
      <trkpt lat="43.10196" lon="-0.70202">
        <ele>489.45</ele>
        <time>2017-05-11T07:19:31Z</time>
      </trkpt>
      <trkpt lat="43.10197" lon="-0.70201">
        <ele>489.45</ele>
        <time>2017-05-11T07:19:32Z</time>
      </trkpt>
      <trkpt lat="43.10198" lon="-0.702">
        <ele>489.93</ele>
        <time>2017-05-11T07:19:33Z</time>
      </trkpt>
      <trkpt lat="43.10199" lon="-0.70199">
        <ele>489.93</ele>
        <time>2017-05-11T07:19:34Z</time>
      </trkpt>
      <trkpt lat="43.10201" lon="-0.70198">
        <ele>489.93</ele>
        <time>2017-05-11T07:19:35Z</time>
      </trkpt>
      <trkpt lat="43.10202" lon="-0.70196">
        <ele>490.41</ele>
        <time>2017-05-11T07:19:36Z</time>
      </trkpt>
      <trkpt lat="43.10203" lon="-0.70195">
        <ele>489.93</ele>
        <time>2017-05-11T07:19:37Z</time>
      </trkpt>
      <trkpt lat="43.10203" lon="-0.70193">
        <ele>490.89</ele>
        <time>2017-05-11T07:19:38Z</time>
      </trkpt>
      <trkpt lat="43.10204" lon="-0.70191">
        <ele>490.89</ele>
        <time>2017-05-11T07:19:39Z</time>
      </trkpt>
      <trkpt lat="43.10205" lon="-0.7019">
        <ele>490.89</ele>
        <time>2017-05-11T07:19:40Z</time>
      </trkpt>
      <trkpt lat="43.10205" lon="-0.70188">
        <ele>491.37</ele>
        <time>2017-05-11T07:19:41Z</time>
      </trkpt>
      <trkpt lat="43.10206" lon="-0.70186">
        <ele>491.37</ele>
        <time>2017-05-11T07:19:42Z</time>
      </trkpt>
      <trkpt lat="43.10211" lon="-0.70176">
        <ele>493.29</ele>
        <time>2017-05-11T07:19:48Z</time>
      </trkpt>
      <trkpt lat="43.10217" lon="-0.70164">
        <ele>494.74</ele>
        <time>2017-05-11T07:19:55Z</time>
      </trkpt>
      <trkpt lat="43.10217" lon="-0.70163">
        <ele>495.22</ele>
        <time>2017-05-11T07:19:56Z</time>
      </trkpt>
      <trkpt lat="43.10218" lon="-0.70161">
        <ele>495.22</ele>
        <time>2017-05-11T07:19:57Z</time>
      </trkpt>
      <trkpt lat="43.10226" lon="-0.70146">
        <ele>498.58</ele>
        <time>2017-05-11T07:20:09Z</time>
      </trkpt>
      <trkpt lat="43.10227" lon="-0.70145">
        <ele>498.1</ele>
        <time>2017-05-11T07:20:10Z</time>
      </trkpt>
      <trkpt lat="43.10228" lon="-0.70143">
        <ele>498.58</ele>
        <time>2017-05-11T07:20:11Z</time>
      </trkpt>
      <trkpt lat="43.10231" lon="-0.70137">
        <ele>500.5</ele>
        <time>2017-05-11T07:20:16Z</time>
      </trkpt>
      <trkpt lat="43.10231" lon="-0.70136">
        <ele>500.02</ele>
        <time>2017-05-11T07:20:17Z</time>
      </trkpt>
      <trkpt lat="43.10232" lon="-0.70135">
        <ele>500.02</ele>
        <time>2017-05-11T07:20:18Z</time>
      </trkpt>
      <trkpt lat="43.10233" lon="-0.70133">
        <ele>500.98</ele>
        <time>2017-05-11T07:20:19Z</time>
      </trkpt>
      <trkpt lat="43.10234" lon="-0.70132">
        <ele>500.02</ele>
        <time>2017-05-11T07:20:20Z</time>
      </trkpt>
      <trkpt lat="43.10235" lon="-0.70131">
        <ele>500.98</ele>
        <time>2017-05-11T07:20:21Z</time>
      </trkpt>
      <trkpt lat="43.10235" lon="-0.70129">
        <ele>500.98</ele>
        <time>2017-05-11T07:20:22Z</time>
      </trkpt>
      <trkpt lat="43.10236" lon="-0.70126">
        <ele>501.46</ele>
        <time>2017-05-11T07:20:24Z</time>
      </trkpt>
      <trkpt lat="43.10237" lon="-0.70125">
        <ele>502.43</ele>
        <time>2017-05-11T07:20:25Z</time>
      </trkpt>
      <trkpt lat="43.10238" lon="-0.70124">
        <ele>501.95</ele>
        <time>2017-05-11T07:20:26Z</time>
      </trkpt>
      <trkpt lat="43.10239" lon="-0.70123">
        <ele>502.43</ele>
        <time>2017-05-11T07:20:27Z</time>
      </trkpt>
      <trkpt lat="43.1024" lon="-0.7012">
        <ele>502.91</ele>
        <time>2017-05-11T07:20:29Z</time>
      </trkpt>
      <trkpt lat="43.10239" lon="-0.70119">
        <ele>503.39</ele>
        <time>2017-05-11T07:20:30Z</time>
      </trkpt>
      <trkpt lat="43.10238" lon="-0.70118">
        <ele>503.87</ele>
        <time>2017-05-11T07:20:31Z</time>
      </trkpt>
      <trkpt lat="43.10237" lon="-0.70117">
        <ele>503.39</ele>
        <time>2017-05-11T07:20:32Z</time>
      </trkpt>
      <trkpt lat="43.10236" lon="-0.70116">
        <ele>503.87</ele>
        <time>2017-05-11T07:20:33Z</time>
      </trkpt>
      <trkpt lat="43.10235" lon="-0.70115">
        <ele>503.87</ele>
        <time>2017-05-11T07:20:34Z</time>
      </trkpt>
      <trkpt lat="43.10234" lon="-0.70113">
        <ele>503.87</ele>
        <time>2017-05-11T07:20:35Z</time>
      </trkpt>
      <trkpt lat="43.10233" lon="-0.70112">
        <ele>503.39</ele>
        <time>2017-05-11T07:20:36Z</time>
      </trkpt>
      <trkpt lat="43.10232" lon="-0.70111">
        <ele>503.87</ele>
        <time>2017-05-11T07:20:37Z</time>
      </trkpt>
      <trkpt lat="43.1023" lon="-0.70109">
        <ele>504.35</ele>
        <time>2017-05-11T07:20:39Z</time>
      </trkpt>
      <trkpt lat="43.10229" lon="-0.70108">
        <ele>504.35</ele>
        <time>2017-05-11T07:20:40Z</time>
      </trkpt>
      <trkpt lat="43.10228" lon="-0.70106">
        <ele>504.35</ele>
        <time>2017-05-11T07:20:41Z</time>
      </trkpt>
      <trkpt lat="43.10226" lon="-0.701">
        <ele>504.83</ele>
        <time>2017-05-11T07:20:44Z</time>
      </trkpt>
      <trkpt lat="43.10226" lon="-0.70098">
        <ele>504.83</ele>
        <time>2017-05-11T07:20:45Z</time>
      </trkpt>
      <trkpt lat="43.10231" lon="-0.70074">
        <ele>507.23</ele>
        <time>2017-05-11T07:21:00Z</time>
      </trkpt>
      <trkpt lat="43.10232" lon="-0.70072">
        <ele>507.71</ele>
        <time>2017-05-11T07:21:01Z</time>
      </trkpt>
      <trkpt lat="43.10233" lon="-0.70071">
        <ele>508.67</ele>
        <time>2017-05-11T07:21:02Z</time>
      </trkpt>
      <trkpt lat="43.10234" lon="-0.70069">
        <ele>508.19</ele>
        <time>2017-05-11T07:21:03Z</time>
      </trkpt>
      <trkpt lat="43.10235" lon="-0.70068">
        <ele>509.16</ele>
        <time>2017-05-11T07:21:04Z</time>
      </trkpt>
      <trkpt lat="43.10236" lon="-0.70066">
        <ele>509.16</ele>
        <time>2017-05-11T07:21:05Z</time>
      </trkpt>
      <trkpt lat="43.10237" lon="-0.70065">
        <ele>509.16</ele>
        <time>2017-05-11T07:21:06Z</time>
      </trkpt>
      <trkpt lat="43.10237" lon="-0.70063">
        <ele>509.16</ele>
        <time>2017-05-11T07:21:07Z</time>
      </trkpt>
      <trkpt lat="43.10238" lon="-0.70062">
        <ele>509.64</ele>
        <time>2017-05-11T07:21:08Z</time>
      </trkpt>
      <trkpt lat="43.10238" lon="-0.7006">
        <ele>509.64</ele>
        <time>2017-05-11T07:21:09Z</time>
      </trkpt>
      <trkpt lat="43.10239" lon="-0.70058">
        <ele>509.64</ele>
        <time>2017-05-11T07:21:10Z</time>
      </trkpt>
      <trkpt lat="43.10252" lon="-0.70039">
        <ele>512.52</ele>
        <time>2017-05-11T07:21:23Z</time>
      </trkpt>
      <trkpt lat="43.10254" lon="-0.70038">
        <ele>512.52</ele>
        <time>2017-05-11T07:21:24Z</time>
      </trkpt>
      <trkpt lat="43.10255" lon="-0.70036">
        <ele>512.52</ele>
        <time>2017-05-11T07:21:25Z</time>
      </trkpt>
      <trkpt lat="43.10256" lon="-0.70035">
        <ele>512.52</ele>
        <time>2017-05-11T07:21:26Z</time>
      </trkpt>
      <trkpt lat="43.10258" lon="-0.70033">
        <ele>513</ele>
        <time>2017-05-11T07:21:27Z</time>
      </trkpt>
      <trkpt lat="43.10259" lon="-0.70032">
        <ele>513</ele>
        <time>2017-05-11T07:21:28Z</time>
      </trkpt>
      <trkpt lat="43.10261" lon="-0.70031">
        <ele>513</ele>
        <time>2017-05-11T07:21:29Z</time>
      </trkpt>
      <trkpt lat="43.10262" lon="-0.70029">
        <ele>513</ele>
        <time>2017-05-11T07:21:30Z</time>
      </trkpt>
      <trkpt lat="43.10264" lon="-0.70028">
        <ele>513</ele>
        <time>2017-05-11T07:21:31Z</time>
      </trkpt>
      <trkpt lat="43.10265" lon="-0.70027">
        <ele>513.48</ele>
        <time>2017-05-11T07:21:32Z</time>
      </trkpt>
      <trkpt lat="43.10267" lon="-0.70025">
        <ele>513</ele>
        <time>2017-05-11T07:21:33Z</time>
      </trkpt>
      <trkpt lat="43.10268" lon="-0.70024">
        <ele>513</ele>
        <time>2017-05-11T07:21:34Z</time>
      </trkpt>
      <trkpt lat="43.10269" lon="-0.70022">
        <ele>513</ele>
        <time>2017-05-11T07:21:35Z</time>
      </trkpt>
      <trkpt lat="43.10271" lon="-0.70021">
        <ele>513</ele>
        <time>2017-05-11T07:21:36Z</time>
      </trkpt>
      <trkpt lat="43.10272" lon="-0.7002">
        <ele>513.96</ele>
        <time>2017-05-11T07:21:37Z</time>
      </trkpt>
      <trkpt lat="43.10273" lon="-0.70018">
        <ele>513.96</ele>
        <time>2017-05-11T07:21:38Z</time>
      </trkpt>
      <trkpt lat="43.10274" lon="-0.70017">
        <ele>513.96</ele>
        <time>2017-05-11T07:21:39Z</time>
      </trkpt>
      <trkpt lat="43.10276" lon="-0.70016">
        <ele>513.96</ele>
        <time>2017-05-11T07:21:40Z</time>
      </trkpt>
      <trkpt lat="43.10278" lon="-0.70015">
        <ele>514.44</ele>
        <time>2017-05-11T07:21:41Z</time>
      </trkpt>
      <trkpt lat="43.1028" lon="-0.70014">
        <ele>514.44</ele>
        <time>2017-05-11T07:21:42Z</time>
      </trkpt>
      <trkpt lat="43.10282" lon="-0.70013">
        <ele>514.44</ele>
        <time>2017-05-11T07:21:43Z</time>
      </trkpt>
      <trkpt lat="43.10295" lon="-0.69993">
        <ele>516.85</ele>
        <time>2017-05-11T07:21:55Z</time>
      </trkpt>
      <trkpt lat="43.10297" lon="-0.69991">
        <ele>517.33</ele>
        <time>2017-05-11T07:21:56Z</time>
      </trkpt>
      <trkpt lat="43.10298" lon="-0.6999">
        <ele>517.81</ele>
        <time>2017-05-11T07:21:57Z</time>
      </trkpt>
      <trkpt lat="43.10299" lon="-0.69988">
        <ele>517.81</ele>
        <time>2017-05-11T07:21:58Z</time>
      </trkpt>
      <trkpt lat="43.103" lon="-0.69985">
        <ele>518.29</ele>
        <time>2017-05-11T07:21:59Z</time>
      </trkpt>
      <trkpt lat="43.10301" lon="-0.69983">
        <ele>518.29</ele>
        <time>2017-05-11T07:22:00Z</time>
      </trkpt>
      <trkpt lat="43.10301" lon="-0.69981">
        <ele>518.77</ele>
        <time>2017-05-11T07:22:01Z</time>
      </trkpt>
      <trkpt lat="43.10301" lon="-0.69979">
        <ele>518.29</ele>
        <time>2017-05-11T07:22:02Z</time>
      </trkpt>
      <trkpt lat="43.10302" lon="-0.69976">
        <ele>518.29</ele>
        <time>2017-05-11T07:22:03Z</time>
      </trkpt>
      <trkpt lat="43.10303" lon="-0.69974">
        <ele>518.77</ele>
        <time>2017-05-11T07:22:04Z</time>
      </trkpt>
      <trkpt lat="43.10304" lon="-0.69972">
        <ele>518.77</ele>
        <time>2017-05-11T07:22:05Z</time>
      </trkpt>
      <trkpt lat="43.10304" lon="-0.6997">
        <ele>519.25</ele>
        <time>2017-05-11T07:22:06Z</time>
      </trkpt>
      <trkpt lat="43.10305" lon="-0.69968">
        <ele>519.25</ele>
        <time>2017-05-11T07:22:07Z</time>
      </trkpt>
      <trkpt lat="43.10312" lon="-0.69931">
        <ele>520.21</ele>
        <time>2017-05-11T07:22:21Z</time>
      </trkpt>
      <trkpt lat="43.10324" lon="-0.69895">
        <ele>518.77</ele>
        <time>2017-05-11T07:22:31Z</time>
      </trkpt>
      <trkpt lat="43.10326" lon="-0.69889">
        <ele>518.77</ele>
        <time>2017-05-11T07:22:32Z</time>
      </trkpt>
      <trkpt lat="43.10327" lon="-0.69882">
        <ele>518.29</ele>
        <time>2017-05-11T07:22:33Z</time>
      </trkpt>
      <trkpt lat="43.10328" lon="-0.69874">
        <ele>518.29</ele>
        <time>2017-05-11T07:22:34Z</time>
      </trkpt>
      <trkpt lat="43.10328" lon="-0.69867">
        <ele>517.81</ele>
        <time>2017-05-11T07:22:35Z</time>
      </trkpt>
      <trkpt lat="43.10328" lon="-0.69861">
        <ele>518.29</ele>
        <time>2017-05-11T07:22:36Z</time>
      </trkpt>
      <trkpt lat="43.10329" lon="-0.69815">
        <ele>520.21</ele>
        <time>2017-05-11T07:22:47Z</time>
      </trkpt>
      <trkpt lat="43.10334" lon="-0.69765">
        <ele>520.69</ele>
        <time>2017-05-11T07:23:01Z</time>
      </trkpt>
      <trkpt lat="43.10354" lon="-0.69734">
        <ele>518.77</ele>
        <time>2017-05-11T07:23:10Z</time>
      </trkpt>
      <trkpt lat="43.10362" lon="-0.6973">
        <ele>518.29</ele>
        <time>2017-05-11T07:23:12Z</time>
      </trkpt>
      <trkpt lat="43.10373" lon="-0.69726">
        <ele>517.33</ele>
        <time>2017-05-11T07:23:14Z</time>
      </trkpt>
      <trkpt lat="43.10379" lon="-0.69722">
        <ele>516.85</ele>
        <time>2017-05-11T07:23:15Z</time>
      </trkpt>
      <trkpt lat="43.10385" lon="-0.6972">
        <ele>516.37</ele>
        <time>2017-05-11T07:23:16Z</time>
      </trkpt>
      <trkpt lat="43.10391" lon="-0.69718">
        <ele>516.37</ele>
        <time>2017-05-11T07:23:17Z</time>
      </trkpt>
      <trkpt lat="43.10398" lon="-0.69717">
        <ele>515.4</ele>
        <time>2017-05-11T07:23:18Z</time>
      </trkpt>
      <trkpt lat="43.10405" lon="-0.69716">
        <ele>514.92</ele>
        <time>2017-05-11T07:23:19Z</time>
      </trkpt>
      <trkpt lat="43.10412" lon="-0.69713">
        <ele>514.92</ele>
        <time>2017-05-11T07:23:20Z</time>
      </trkpt>
      <trkpt lat="43.10418" lon="-0.69709">
        <ele>514.92</ele>
        <time>2017-05-11T07:23:21Z</time>
      </trkpt>
      <trkpt lat="43.10422" lon="-0.69704">
        <ele>514.92</ele>
        <time>2017-05-11T07:23:22Z</time>
      </trkpt>
      <trkpt lat="43.10426" lon="-0.69699">
        <ele>514.92</ele>
        <time>2017-05-11T07:23:23Z</time>
      </trkpt>
      <trkpt lat="43.10429" lon="-0.69695">
        <ele>514.92</ele>
        <time>2017-05-11T07:23:24Z</time>
      </trkpt>
      <trkpt lat="43.10432" lon="-0.69692">
        <ele>514.92</ele>
        <time>2017-05-11T07:23:25Z</time>
      </trkpt>
      <trkpt lat="43.10446" lon="-0.69677">
        <ele>516.85</ele>
        <time>2017-05-11T07:23:31Z</time>
      </trkpt>
      <trkpt lat="43.10447" lon="-0.69674">
        <ele>517.33</ele>
        <time>2017-05-11T07:23:32Z</time>
      </trkpt>
      <trkpt lat="43.10449" lon="-0.69672">
        <ele>517.33</ele>
        <time>2017-05-11T07:23:33Z</time>
      </trkpt>
      <trkpt lat="43.10463" lon="-0.69656">
        <ele>519.25</ele>
        <time>2017-05-11T07:23:42Z</time>
      </trkpt>
      <trkpt lat="43.10465" lon="-0.69654">
        <ele>519.25</ele>
        <time>2017-05-11T07:23:43Z</time>
      </trkpt>
      <trkpt lat="43.10466" lon="-0.69652">
        <ele>519.73</ele>
        <time>2017-05-11T07:23:44Z</time>
      </trkpt>
      <trkpt lat="43.10467" lon="-0.6965">
        <ele>520.69</ele>
        <time>2017-05-11T07:23:45Z</time>
      </trkpt>
      <trkpt lat="43.10467" lon="-0.69647">
        <ele>520.69</ele>
        <time>2017-05-11T07:23:46Z</time>
      </trkpt>
      <trkpt lat="43.10468" lon="-0.69645">
        <ele>521.17</ele>
        <time>2017-05-11T07:23:47Z</time>
      </trkpt>
      <trkpt lat="43.10469" lon="-0.69643">
        <ele>521.17</ele>
        <time>2017-05-11T07:23:48Z</time>
      </trkpt>
      <trkpt lat="43.10469" lon="-0.69641">
        <ele>520.69</ele>
        <time>2017-05-11T07:23:49Z</time>
      </trkpt>
      <trkpt lat="43.1047" lon="-0.69639">
        <ele>521.65</ele>
        <time>2017-05-11T07:23:50Z</time>
      </trkpt>
      <trkpt lat="43.1047" lon="-0.69636">
        <ele>521.17</ele>
        <time>2017-05-11T07:23:51Z</time>
      </trkpt>
      <trkpt lat="43.1047" lon="-0.69634">
        <ele>521.17</ele>
        <time>2017-05-11T07:23:52Z</time>
      </trkpt>
      <trkpt lat="43.10479" lon="-0.69609">
        <ele>524.54</ele>
        <time>2017-05-11T07:24:04Z</time>
      </trkpt>
      <trkpt lat="43.10491" lon="-0.69598">
        <ele>526.46</ele>
        <time>2017-05-11T07:24:12Z</time>
      </trkpt>
      <trkpt lat="43.10493" lon="-0.69598">
        <ele>526.46</ele>
        <time>2017-05-11T07:24:13Z</time>
      </trkpt>
      <trkpt lat="43.10497" lon="-0.69595">
        <ele>527.42</ele>
        <time>2017-05-11T07:24:16Z</time>
      </trkpt>
      <trkpt lat="43.10498" lon="-0.69595">
        <ele>527.42</ele>
        <time>2017-05-11T07:24:17Z</time>
      </trkpt>
      <trkpt lat="43.10516" lon="-0.69599">
        <ele>528.86</ele>
        <time>2017-05-11T07:24:27Z</time>
      </trkpt>
      <trkpt lat="43.10517" lon="-0.69599">
        <ele>529.34</ele>
        <time>2017-05-11T07:24:28Z</time>
      </trkpt>
      <trkpt lat="43.10519" lon="-0.696">
        <ele>528.86</ele>
        <time>2017-05-11T07:24:29Z</time>
      </trkpt>
      <trkpt lat="43.10521" lon="-0.696">
        <ele>529.34</ele>
        <time>2017-05-11T07:24:30Z</time>
      </trkpt>
      <trkpt lat="43.10523" lon="-0.696">
        <ele>529.82</ele>
        <time>2017-05-11T07:24:31Z</time>
      </trkpt>
      <trkpt lat="43.10526" lon="-0.696">
        <ele>529.82</ele>
        <time>2017-05-11T07:24:32Z</time>
      </trkpt>
      <trkpt lat="43.10528" lon="-0.696">
        <ele>530.3</ele>
        <time>2017-05-11T07:24:33Z</time>
      </trkpt>
      <trkpt lat="43.10558" lon="-0.69599">
        <ele>531.27</ele>
        <time>2017-05-11T07:24:46Z</time>
      </trkpt>
      <trkpt lat="43.1059" lon="-0.69591">
        <ele>533.19</ele>
        <time>2017-05-11T07:25:00Z</time>
      </trkpt>
      <trkpt lat="43.1061" lon="-0.69568">
        <ele>534.15</ele>
        <time>2017-05-11T07:25:11Z</time>
      </trkpt>
      <trkpt lat="43.10615" lon="-0.69534">
        <ele>536.07</ele>
        <time>2017-05-11T07:25:24Z</time>
      </trkpt>
      <trkpt lat="43.10621" lon="-0.6952">
        <ele>537.51</ele>
        <time>2017-05-11T07:25:30Z</time>
      </trkpt>
      <trkpt lat="43.10622" lon="-0.69518">
        <ele>537.99</ele>
        <time>2017-05-11T07:25:31Z</time>
      </trkpt>
      <trkpt lat="43.10623" lon="-0.69516">
        <ele>537.99</ele>
        <time>2017-05-11T07:25:32Z</time>
      </trkpt>
      <trkpt lat="43.10625" lon="-0.69514">
        <ele>537.99</ele>
        <time>2017-05-11T07:25:33Z</time>
      </trkpt>
      <trkpt lat="43.10626" lon="-0.69513">
        <ele>537.99</ele>
        <time>2017-05-11T07:25:34Z</time>
      </trkpt>
      <trkpt lat="43.10645" lon="-0.69498">
        <ele>541.36</ele>
        <time>2017-05-11T07:25:46Z</time>
      </trkpt>
      <trkpt lat="43.10673" lon="-0.69486">
        <ele>540.4</ele>
        <time>2017-05-11T07:25:58Z</time>
      </trkpt>
      <trkpt lat="43.10678" lon="-0.69485">
        <ele>539.92</ele>
        <time>2017-05-11T07:25:59Z</time>
      </trkpt>
      <trkpt lat="43.10683" lon="-0.69485">
        <ele>539.92</ele>
        <time>2017-05-11T07:26:00Z</time>
      </trkpt>
      <trkpt lat="43.107" lon="-0.69488">
        <ele>538.96</ele>
        <time>2017-05-11T07:26:03Z</time>
      </trkpt>
      <trkpt lat="43.10706" lon="-0.69487">
        <ele>538.48</ele>
        <time>2017-05-11T07:26:04Z</time>
      </trkpt>
      <trkpt lat="43.10752" lon="-0.69488">
        <ele>537.51</ele>
        <time>2017-05-11T07:26:12Z</time>
      </trkpt>
      <trkpt lat="43.10793" lon="-0.69486">
        <ele>536.55</ele>
        <time>2017-05-11T07:26:19Z</time>
      </trkpt>
      <trkpt lat="43.10809" lon="-0.69481">
        <ele>536.07</ele>
        <time>2017-05-11T07:26:22Z</time>
      </trkpt>
      <trkpt lat="43.10814" lon="-0.69476">
        <ele>536.07</ele>
        <time>2017-05-11T07:26:23Z</time>
      </trkpt>
      <trkpt lat="43.10817" lon="-0.6947">
        <ele>536.55</ele>
        <time>2017-05-11T07:26:24Z</time>
      </trkpt>
      <trkpt lat="43.10819" lon="-0.69464">
        <ele>537.03</ele>
        <time>2017-05-11T07:26:25Z</time>
      </trkpt>
      <trkpt lat="43.10821" lon="-0.69457">
        <ele>537.03</ele>
        <time>2017-05-11T07:26:26Z</time>
      </trkpt>
      <trkpt lat="43.10822" lon="-0.69451">
        <ele>537.51</ele>
        <time>2017-05-11T07:26:27Z</time>
      </trkpt>
      <trkpt lat="43.10823" lon="-0.69444">
        <ele>537.99</ele>
        <time>2017-05-11T07:26:28Z</time>
      </trkpt>
      <trkpt lat="43.10822" lon="-0.69438">
        <ele>537.51</ele>
        <time>2017-05-11T07:26:29Z</time>
      </trkpt>
      <trkpt lat="43.10822" lon="-0.69404">
        <ele>540.88</ele>
        <time>2017-05-11T07:26:37Z</time>
      </trkpt>
      <trkpt lat="43.10824" lon="-0.69373">
        <ele>543.28</ele>
        <time>2017-05-11T07:26:47Z</time>
      </trkpt>
      <trkpt lat="43.10828" lon="-0.69343">
        <ele>545.69</ele>
        <time>2017-05-11T07:26:57Z</time>
      </trkpt>
      <trkpt lat="43.10833" lon="-0.69316">
        <ele>547.13</ele>
        <time>2017-05-11T07:27:06Z</time>
      </trkpt>
      <trkpt lat="43.1085" lon="-0.69267">
        <ele>546.65</ele>
        <time>2017-05-11T07:27:20Z</time>
      </trkpt>
      <trkpt lat="43.10856" lon="-0.69245">
        <ele>546.65</ele>
        <time>2017-05-11T07:27:25Z</time>
      </trkpt>
      <trkpt lat="43.10854" lon="-0.69209">
        <ele>545.2</ele>
        <time>2017-05-11T07:27:32Z</time>
      </trkpt>
      <trkpt lat="43.10852" lon="-0.69204">
        <ele>544.72</ele>
        <time>2017-05-11T07:27:33Z</time>
      </trkpt>
      <trkpt lat="43.1084" lon="-0.69153">
        <ele>546.17</ele>
        <time>2017-05-11T07:27:44Z</time>
      </trkpt>
      <trkpt lat="43.10838" lon="-0.69128">
        <ele>549.53</ele>
        <time>2017-05-11T07:27:51Z</time>
      </trkpt>
      <trkpt lat="43.10837" lon="-0.69123">
        <ele>550.01</ele>
        <time>2017-05-11T07:27:53Z</time>
      </trkpt>
      <trkpt lat="43.10834" lon="-0.69081">
        <ele>553.38</ele>
        <time>2017-05-11T07:28:07Z</time>
      </trkpt>
      <trkpt lat="43.10833" lon="-0.69064">
        <ele>553.38</ele>
        <time>2017-05-11T07:28:21Z</time>
      </trkpt>
      <trkpt lat="43.10834" lon="-0.69063">
        <ele>553.38</ele>
        <time>2017-05-11T07:28:46Z</time>
      </trkpt>
      <trkpt lat="43.10833" lon="-0.69064">
        <ele>553.38</ele>
        <time>2017-05-11T07:29:12Z</time>
      </trkpt>
      <trkpt lat="43.10833" lon="-0.69064">
        <ele>553.38</ele>
        <time>2017-05-11T07:29:38Z</time>
      </trkpt>
      <trkpt lat="43.10833" lon="-0.69064">
        <ele>553.38</ele>
        <time>2017-05-11T07:30:06Z</time>
      </trkpt>
      <trkpt lat="43.10831" lon="-0.69038">
        <ele>551.93</ele>
        <time>2017-05-11T07:30:19Z</time>
      </trkpt>
      <trkpt lat="43.10831" lon="-0.69027">
        <ele>550.97</ele>
        <time>2017-05-11T07:30:21Z</time>
      </trkpt>
      <trkpt lat="43.10831" lon="-0.6902">
        <ele>550.49</ele>
        <time>2017-05-11T07:30:22Z</time>
      </trkpt>
      <trkpt lat="43.10831" lon="-0.69014">
        <ele>550.49</ele>
        <time>2017-05-11T07:30:23Z</time>
      </trkpt>
      <trkpt lat="43.10831" lon="-0.69007">
        <ele>550.49</ele>
        <time>2017-05-11T07:30:24Z</time>
      </trkpt>
      <trkpt lat="43.1083" lon="-0.68959">
        <ele>552.41</ele>
        <time>2017-05-11T07:30:35Z</time>
      </trkpt>
      <trkpt lat="43.10831" lon="-0.68944">
        <ele>553.86</ele>
        <time>2017-05-11T07:30:39Z</time>
      </trkpt>
      <trkpt lat="43.10826" lon="-0.68911">
        <ele>556.74</ele>
        <time>2017-05-11T07:30:49Z</time>
      </trkpt>
      <trkpt lat="43.10823" lon="-0.68897">
        <ele>558.18</ele>
        <time>2017-05-11T07:30:54Z</time>
      </trkpt>
      <trkpt lat="43.1082" lon="-0.68859">
        <ele>556.26</ele>
        <time>2017-05-11T07:31:05Z</time>
      </trkpt>
      <trkpt lat="43.1082" lon="-0.68852">
        <ele>555.78</ele>
        <time>2017-05-11T07:31:06Z</time>
      </trkpt>
      <trkpt lat="43.10821" lon="-0.68837">
        <ele>553.86</ele>
        <time>2017-05-11T07:31:08Z</time>
      </trkpt>
      <trkpt lat="43.1083" lon="-0.68786">
        <ele>550.97</ele>
        <time>2017-05-11T07:31:13Z</time>
      </trkpt>
      <trkpt lat="43.10833" lon="-0.68764">
        <ele>549.05</ele>
        <time>2017-05-11T07:31:15Z</time>
      </trkpt>
      <trkpt lat="43.10836" lon="-0.68752">
        <ele>548.57</ele>
        <time>2017-05-11T07:31:16Z</time>
      </trkpt>
      <trkpt lat="43.10851" lon="-0.68705">
        <ele>545.2</ele>
        <time>2017-05-11T07:31:20Z</time>
      </trkpt>
      <trkpt lat="43.10853" lon="-0.68694">
        <ele>545.2</ele>
        <time>2017-05-11T07:31:21Z</time>
      </trkpt>
      <trkpt lat="43.10862" lon="-0.68655">
        <ele>544.72</ele>
        <time>2017-05-11T07:31:25Z</time>
      </trkpt>
      <trkpt lat="43.10864" lon="-0.68647">
        <ele>544.72</ele>
        <time>2017-05-11T07:31:26Z</time>
      </trkpt>
      <trkpt lat="43.10866" lon="-0.68641">
        <ele>545.2</ele>
        <time>2017-05-11T07:31:27Z</time>
      </trkpt>
      <trkpt lat="43.10868" lon="-0.68636">
        <ele>545.69</ele>
        <time>2017-05-11T07:31:28Z</time>
      </trkpt>
      <trkpt lat="43.1087" lon="-0.68632">
        <ele>545.69</ele>
        <time>2017-05-11T07:31:29Z</time>
      </trkpt>
      <trkpt lat="43.10884" lon="-0.68596">
        <ele>549.05</ele>
        <time>2017-05-11T07:31:39Z</time>
      </trkpt>
      <trkpt lat="43.10885" lon="-0.68594">
        <ele>549.05</ele>
        <time>2017-05-11T07:31:40Z</time>
      </trkpt>
      <trkpt lat="43.10887" lon="-0.68591">
        <ele>548.57</ele>
        <time>2017-05-11T07:31:41Z</time>
      </trkpt>
      <trkpt lat="43.10889" lon="-0.68589">
        <ele>547.61</ele>
        <time>2017-05-11T07:31:42Z</time>
      </trkpt>
      <trkpt lat="43.10914" lon="-0.6857">
        <ele>545.69</ele>
        <time>2017-05-11T07:31:48Z</time>
      </trkpt>
      <trkpt lat="43.10918" lon="-0.68565">
        <ele>545.2</ele>
        <time>2017-05-11T07:31:49Z</time>
      </trkpt>
      <trkpt lat="43.10923" lon="-0.6856">
        <ele>544.72</ele>
        <time>2017-05-11T07:31:50Z</time>
      </trkpt>
      <trkpt lat="43.10944" lon="-0.68536">
        <ele>541.36</ele>
        <time>2017-05-11T07:31:54Z</time>
      </trkpt>
      <trkpt lat="43.10951" lon="-0.68532">
        <ele>540.4</ele>
        <time>2017-05-11T07:31:55Z</time>
      </trkpt>
      <trkpt lat="43.10957" lon="-0.68527">
        <ele>539.92</ele>
        <time>2017-05-11T07:31:56Z</time>
      </trkpt>
      <trkpt lat="43.10964" lon="-0.68523">
        <ele>539.44</ele>
        <time>2017-05-11T07:31:57Z</time>
      </trkpt>
      <trkpt lat="43.10971" lon="-0.6852">
        <ele>538.96</ele>
        <time>2017-05-11T07:31:58Z</time>
      </trkpt>
      <trkpt lat="43.10977" lon="-0.68517">
        <ele>539.44</ele>
        <time>2017-05-11T07:31:59Z</time>
      </trkpt>
      <trkpt lat="43.10994" lon="-0.68505">
        <ele>538.48</ele>
        <time>2017-05-11T07:32:02Z</time>
      </trkpt>
      <trkpt lat="43.11003" lon="-0.68495">
        <ele>537.99</ele>
        <time>2017-05-11T07:32:04Z</time>
      </trkpt>
      <trkpt lat="43.11007" lon="-0.68489">
        <ele>537.99</ele>
        <time>2017-05-11T07:32:05Z</time>
      </trkpt>
      <trkpt lat="43.11009" lon="-0.68482">
        <ele>537.99</ele>
        <time>2017-05-11T07:32:06Z</time>
      </trkpt>
      <trkpt lat="43.11016" lon="-0.6845">
        <ele>538.48</ele>
        <time>2017-05-11T07:32:11Z</time>
      </trkpt>
      <trkpt lat="43.11016" lon="-0.68443">
        <ele>538.48</ele>
        <time>2017-05-11T07:32:12Z</time>
      </trkpt>
      <trkpt lat="43.1102" lon="-0.68421">
        <ele>537.99</ele>
        <time>2017-05-11T07:32:16Z</time>
      </trkpt>
      <trkpt lat="43.11021" lon="-0.68416">
        <ele>537.99</ele>
        <time>2017-05-11T07:32:17Z</time>
      </trkpt>
      <trkpt lat="43.11022" lon="-0.6841">
        <ele>537.51</ele>
        <time>2017-05-11T07:32:18Z</time>
      </trkpt>
      <trkpt lat="43.11023" lon="-0.68405">
        <ele>537.99</ele>
        <time>2017-05-11T07:32:19Z</time>
      </trkpt>
      <trkpt lat="43.11024" lon="-0.684">
        <ele>537.99</ele>
        <time>2017-05-11T07:32:20Z</time>
      </trkpt>
      <trkpt lat="43.11025" lon="-0.68396">
        <ele>538.48</ele>
        <time>2017-05-11T07:32:21Z</time>
      </trkpt>
      <trkpt lat="43.11027" lon="-0.68343">
        <ele>538.48</ele>
        <time>2017-05-11T07:32:32Z</time>
      </trkpt>
      <trkpt lat="43.11025" lon="-0.68277">
        <ele>539.92</ele>
        <time>2017-05-11T07:32:45Z</time>
      </trkpt>
      <trkpt lat="43.11028" lon="-0.68255">
        <ele>541.36</ele>
        <time>2017-05-11T07:32:50Z</time>
      </trkpt>
      <trkpt lat="43.11037" lon="-0.6821">
        <ele>544.24</ele>
        <time>2017-05-11T07:33:02Z</time>
      </trkpt>
      <trkpt lat="43.11044" lon="-0.68158">
        <ele>544.72</ele>
        <time>2017-05-11T07:33:15Z</time>
      </trkpt>
      <trkpt lat="43.11049" lon="-0.68112">
        <ele>546.65</ele>
        <time>2017-05-11T07:33:27Z</time>
      </trkpt>
      <trkpt lat="43.11052" lon="-0.6809">
        <ele>547.61</ele>
        <time>2017-05-11T07:33:33Z</time>
      </trkpt>
      <trkpt lat="43.11064" lon="-0.68044">
        <ele>548.09</ele>
        <time>2017-05-11T07:33:46Z</time>
      </trkpt>
      <trkpt lat="43.11087" lon="-0.67993">
        <ele>546.65</ele>
        <time>2017-05-11T07:33:59Z</time>
      </trkpt>
      <trkpt lat="43.11108" lon="-0.67948">
        <ele>544.72</ele>
        <time>2017-05-11T07:34:09Z</time>
      </trkpt>
      <trkpt lat="43.11127" lon="-0.67917">
        <ele>546.17</ele>
        <time>2017-05-11T07:34:18Z</time>
      </trkpt>
      <trkpt lat="43.11152" lon="-0.67874">
        <ele>547.61</ele>
        <time>2017-05-11T07:34:31Z</time>
      </trkpt>
      <trkpt lat="43.11165" lon="-0.67852">
        <ele>549.53</ele>
        <time>2017-05-11T07:34:39Z</time>
      </trkpt>
      <trkpt lat="43.11176" lon="-0.67825">
        <ele>551.93</ele>
        <time>2017-05-11T07:34:50Z</time>
      </trkpt>
      <trkpt lat="43.11183" lon="-0.67805">
        <ele>554.82</ele>
        <time>2017-05-11T07:34:59Z</time>
      </trkpt>
      <trkpt lat="43.11184" lon="-0.67801">
        <ele>555.78</ele>
        <time>2017-05-11T07:35:01Z</time>
      </trkpt>
      <trkpt lat="43.11185" lon="-0.678">
        <ele>555.78</ele>
        <time>2017-05-11T07:35:02Z</time>
      </trkpt>
      <trkpt lat="43.11185" lon="-0.67798">
        <ele>556.26</ele>
        <time>2017-05-11T07:35:03Z</time>
      </trkpt>
      <trkpt lat="43.11187" lon="-0.67794">
        <ele>556.74</ele>
        <time>2017-05-11T07:35:05Z</time>
      </trkpt>
      <trkpt lat="43.11188" lon="-0.67792">
        <ele>556.74</ele>
        <time>2017-05-11T07:35:06Z</time>
      </trkpt>
      <trkpt lat="43.11188" lon="-0.6779">
        <ele>556.74</ele>
        <time>2017-05-11T07:35:07Z</time>
      </trkpt>
      <trkpt lat="43.11188" lon="-0.67788">
        <ele>557.22</ele>
        <time>2017-05-11T07:35:08Z</time>
      </trkpt>
      <trkpt lat="43.11189" lon="-0.67787">
        <ele>557.22</ele>
        <time>2017-05-11T07:35:09Z</time>
      </trkpt>
      <trkpt lat="43.11189" lon="-0.67784">
        <ele>557.7</ele>
        <time>2017-05-11T07:35:10Z</time>
      </trkpt>
      <trkpt lat="43.1119" lon="-0.67782">
        <ele>557.7</ele>
        <time>2017-05-11T07:35:11Z</time>
      </trkpt>
      <trkpt lat="43.11191" lon="-0.6778">
        <ele>557.7</ele>
        <time>2017-05-11T07:35:12Z</time>
      </trkpt>
      <trkpt lat="43.11192" lon="-0.67777">
        <ele>558.18</ele>
        <time>2017-05-11T07:35:13Z</time>
      </trkpt>
      <trkpt lat="43.11192" lon="-0.67775">
        <ele>558.66</ele>
        <time>2017-05-11T07:35:14Z</time>
      </trkpt>
      <trkpt lat="43.11191" lon="-0.67748">
        <ele>560.59</ele>
        <time>2017-05-11T07:35:26Z</time>
      </trkpt>
      <trkpt lat="43.11191" lon="-0.67738">
        <ele>561.55</ele>
        <time>2017-05-11T07:35:30Z</time>
      </trkpt>
      <trkpt lat="43.11192" lon="-0.67735">
        <ele>561.55</ele>
        <time>2017-05-11T07:35:31Z</time>
      </trkpt>
      <trkpt lat="43.11192" lon="-0.67733">
        <ele>561.55</ele>
        <time>2017-05-11T07:35:32Z</time>
      </trkpt>
      <trkpt lat="43.11191" lon="-0.6773">
        <ele>562.03</ele>
        <time>2017-05-11T07:35:33Z</time>
      </trkpt>
      <trkpt lat="43.11191" lon="-0.67728">
        <ele>562.03</ele>
        <time>2017-05-11T07:35:34Z</time>
      </trkpt>
      <trkpt lat="43.11191" lon="-0.67725">
        <ele>562.51</ele>
        <time>2017-05-11T07:35:35Z</time>
      </trkpt>
      <trkpt lat="43.11191" lon="-0.67722">
        <ele>562.51</ele>
        <time>2017-05-11T07:35:36Z</time>
      </trkpt>
      <trkpt lat="43.1119" lon="-0.67719">
        <ele>562.51</ele>
        <time>2017-05-11T07:35:37Z</time>
      </trkpt>
      <trkpt lat="43.11191" lon="-0.67716">
        <ele>562.51</ele>
        <time>2017-05-11T07:35:38Z</time>
      </trkpt>
      <trkpt lat="43.11193" lon="-0.67697">
        <ele>562.99</ele>
        <time>2017-05-11T07:35:45Z</time>
      </trkpt>
      <trkpt lat="43.11195" lon="-0.67668">
        <ele>564.91</ele>
        <time>2017-05-11T07:35:56Z</time>
      </trkpt>
      <trkpt lat="43.112" lon="-0.67636">
        <ele>566.35</ele>
        <time>2017-05-11T07:36:08Z</time>
      </trkpt>
      <trkpt lat="43.11206" lon="-0.67608">
        <ele>569.24</ele>
        <time>2017-05-11T07:36:19Z</time>
      </trkpt>
      <trkpt lat="43.11207" lon="-0.67606">
        <ele>569.24</ele>
        <time>2017-05-11T07:36:20Z</time>
      </trkpt>
      <trkpt lat="43.11207" lon="-0.67603">
        <ele>569.24</ele>
        <time>2017-05-11T07:36:21Z</time>
      </trkpt>
      <trkpt lat="43.11206" lon="-0.67584">
        <ele>572.6</ele>
        <time>2017-05-11T07:36:31Z</time>
      </trkpt>
      <trkpt lat="43.11205" lon="-0.67577">
        <ele>573.56</ele>
        <time>2017-05-11T07:36:35Z</time>
      </trkpt>
      <trkpt lat="43.11206" lon="-0.67576">
        <ele>573.56</ele>
        <time>2017-05-11T07:36:36Z</time>
      </trkpt>
      <trkpt lat="43.11208" lon="-0.67573">
        <ele>574.04</ele>
        <time>2017-05-11T07:36:38Z</time>
      </trkpt>
      <trkpt lat="43.11209" lon="-0.67572">
        <ele>573.56</ele>
        <time>2017-05-11T07:36:39Z</time>
      </trkpt>
      <trkpt lat="43.1121" lon="-0.67571">
        <ele>574.04</ele>
        <time>2017-05-11T07:36:40Z</time>
      </trkpt>
      <trkpt lat="43.11217" lon="-0.67562">
        <ele>575.01</ele>
        <time>2017-05-11T07:36:49Z</time>
      </trkpt>
      <trkpt lat="43.11218" lon="-0.6756">
        <ele>575.01</ele>
        <time>2017-05-11T07:36:50Z</time>
      </trkpt>
      <trkpt lat="43.1122" lon="-0.67558">
        <ele>575.49</ele>
        <time>2017-05-11T07:36:51Z</time>
      </trkpt>
      <trkpt lat="43.11222" lon="-0.67557">
        <ele>575.01</ele>
        <time>2017-05-11T07:36:52Z</time>
      </trkpt>
      <trkpt lat="43.11224" lon="-0.67554">
        <ele>575.01</ele>
        <time>2017-05-11T07:36:53Z</time>
      </trkpt>
      <trkpt lat="43.11227" lon="-0.67552">
        <ele>574.53</ele>
        <time>2017-05-11T07:36:54Z</time>
      </trkpt>
      <trkpt lat="43.11229" lon="-0.67549">
        <ele>574.53</ele>
        <time>2017-05-11T07:36:55Z</time>
      </trkpt>
      <trkpt lat="43.11239" lon="-0.67536">
        <ele>573.56</ele>
        <time>2017-05-11T07:36:59Z</time>
      </trkpt>
      <trkpt lat="43.11254" lon="-0.675">
        <ele>573.08</ele>
        <time>2017-05-11T07:37:10Z</time>
      </trkpt>
      <trkpt lat="43.11272" lon="-0.67452">
        <ele>573.56</ele>
        <time>2017-05-11T07:37:22Z</time>
      </trkpt>
      <trkpt lat="43.11279" lon="-0.6744">
        <ele>573.56</ele>
        <time>2017-05-11T07:37:25Z</time>
      </trkpt>
      <trkpt lat="43.11283" lon="-0.67437">
        <ele>573.08</ele>
        <time>2017-05-11T07:37:26Z</time>
      </trkpt>
      <trkpt lat="43.11287" lon="-0.67434">
        <ele>572.6</ele>
        <time>2017-05-11T07:37:27Z</time>
      </trkpt>
      <trkpt lat="43.11292" lon="-0.67429">
        <ele>572.12</ele>
        <time>2017-05-11T07:37:28Z</time>
      </trkpt>
      <trkpt lat="43.11297" lon="-0.67424">
        <ele>571.16</ele>
        <time>2017-05-11T07:37:29Z</time>
      </trkpt>
      <trkpt lat="43.11303" lon="-0.67419">
        <ele>570.68</ele>
        <time>2017-05-11T07:37:30Z</time>
      </trkpt>
      <trkpt lat="43.11309" lon="-0.67413">
        <ele>570.2</ele>
        <time>2017-05-11T07:37:31Z</time>
      </trkpt>
      <trkpt lat="43.11322" lon="-0.67402">
        <ele>569.24</ele>
        <time>2017-05-11T07:37:33Z</time>
      </trkpt>
      <trkpt lat="43.11329" lon="-0.67397">
        <ele>568.76</ele>
        <time>2017-05-11T07:37:34Z</time>
      </trkpt>
      <trkpt lat="43.11335" lon="-0.67392">
        <ele>568.76</ele>
        <time>2017-05-11T07:37:35Z</time>
      </trkpt>
      <trkpt lat="43.11341" lon="-0.67387">
        <ele>567.8</ele>
        <time>2017-05-11T07:37:36Z</time>
      </trkpt>
      <trkpt lat="43.11346" lon="-0.67383">
        <ele>566.35</ele>
        <time>2017-05-11T07:37:37Z</time>
      </trkpt>
      <trkpt lat="43.11352" lon="-0.67378">
        <ele>566.83</ele>
        <time>2017-05-11T07:37:38Z</time>
      </trkpt>
      <trkpt lat="43.11373" lon="-0.67359">
        <ele>564.91</ele>
        <time>2017-05-11T07:37:42Z</time>
      </trkpt>
      <trkpt lat="43.11379" lon="-0.67354">
        <ele>564.91</ele>
        <time>2017-05-11T07:37:43Z</time>
      </trkpt>
      <trkpt lat="43.11396" lon="-0.67342">
        <ele>563.95</ele>
        <time>2017-05-11T07:37:46Z</time>
      </trkpt>
      <trkpt lat="43.11403" lon="-0.67338">
        <ele>562.99</ele>
        <time>2017-05-11T07:37:47Z</time>
      </trkpt>
      <trkpt lat="43.1141" lon="-0.67335">
        <ele>562.51</ele>
        <time>2017-05-11T07:37:48Z</time>
      </trkpt>
      <trkpt lat="43.11433" lon="-0.67326">
        <ele>560.59</ele>
        <time>2017-05-11T07:37:51Z</time>
      </trkpt>
      <trkpt lat="43.11501" lon="-0.67306">
        <ele>559.14</ele>
        <time>2017-05-11T07:38:02Z</time>
      </trkpt>
      <trkpt lat="43.11517" lon="-0.67305">
        <ele>558.66</ele>
        <time>2017-05-11T07:38:05Z</time>
      </trkpt>
      <trkpt lat="43.11535" lon="-0.67305">
        <ele>558.18</ele>
        <time>2017-05-11T07:38:08Z</time>
      </trkpt>
      <trkpt lat="43.11546" lon="-0.67307">
        <ele>558.66</ele>
        <time>2017-05-11T07:38:10Z</time>
      </trkpt>
      <trkpt lat="43.11556" lon="-0.67306">
        <ele>558.18</ele>
        <time>2017-05-11T07:38:12Z</time>
      </trkpt>
      <trkpt lat="43.11561" lon="-0.67306">
        <ele>558.66</ele>
        <time>2017-05-11T07:38:13Z</time>
      </trkpt>
      <trkpt lat="43.11565" lon="-0.67305">
        <ele>558.66</ele>
        <time>2017-05-11T07:38:14Z</time>
      </trkpt>
      <trkpt lat="43.11569" lon="-0.67305">
        <ele>559.14</ele>
        <time>2017-05-11T07:38:15Z</time>
      </trkpt>
      <trkpt lat="43.11572" lon="-0.67304">
        <ele>559.14</ele>
        <time>2017-05-11T07:38:16Z</time>
      </trkpt>
      <trkpt lat="43.11575" lon="-0.67303">
        <ele>560.11</ele>
        <time>2017-05-11T07:38:17Z</time>
      </trkpt>
      <trkpt lat="43.11578" lon="-0.67303">
        <ele>559.62</ele>
        <time>2017-05-11T07:38:18Z</time>
      </trkpt>
      <trkpt lat="43.11581" lon="-0.67301">
        <ele>560.11</ele>
        <time>2017-05-11T07:38:19Z</time>
      </trkpt>
      <trkpt lat="43.11584" lon="-0.67299">
        <ele>560.59</ele>
        <time>2017-05-11T07:38:20Z</time>
      </trkpt>
      <trkpt lat="43.11586" lon="-0.67296">
        <ele>560.59</ele>
        <time>2017-05-11T07:38:21Z</time>
      </trkpt>
      <trkpt lat="43.11588" lon="-0.67294">
        <ele>561.55</ele>
        <time>2017-05-11T07:38:22Z</time>
      </trkpt>
      <trkpt lat="43.11601" lon="-0.67279">
        <ele>562.51</ele>
        <time>2017-05-11T07:38:29Z</time>
      </trkpt>
      <trkpt lat="43.11601" lon="-0.67276">
        <ele>562.51</ele>
        <time>2017-05-11T07:38:30Z</time>
      </trkpt>
      <trkpt lat="43.11599" lon="-0.67273">
        <ele>562.51</ele>
        <time>2017-05-11T07:38:31Z</time>
      </trkpt>
      <trkpt lat="43.11598" lon="-0.67271">
        <ele>562.51</ele>
        <time>2017-05-11T07:38:32Z</time>
      </trkpt>
      <trkpt lat="43.11596" lon="-0.67268">
        <ele>562.51</ele>
        <time>2017-05-11T07:38:33Z</time>
      </trkpt>
      <trkpt lat="43.11593" lon="-0.67266">
        <ele>563.47</ele>
        <time>2017-05-11T07:38:34Z</time>
      </trkpt>
      <trkpt lat="43.11591" lon="-0.67264">
        <ele>562.99</ele>
        <time>2017-05-11T07:38:35Z</time>
      </trkpt>
      <trkpt lat="43.11589" lon="-0.67262">
        <ele>562.51</ele>
        <time>2017-05-11T07:38:36Z</time>
      </trkpt>
      <trkpt lat="43.11588" lon="-0.6726">
        <ele>562.99</ele>
        <time>2017-05-11T07:38:37Z</time>
      </trkpt>
      <trkpt lat="43.11584" lon="-0.67253">
        <ele>563.47</ele>
        <time>2017-05-11T07:38:40Z</time>
      </trkpt>
      <trkpt lat="43.11583" lon="-0.6725">
        <ele>563.47</ele>
        <time>2017-05-11T07:38:41Z</time>
      </trkpt>
      <trkpt lat="43.11582" lon="-0.67248">
        <ele>563.95</ele>
        <time>2017-05-11T07:38:42Z</time>
      </trkpt>
      <trkpt lat="43.11576" lon="-0.67201">
        <ele>563.95</ele>
        <time>2017-05-11T07:38:56Z</time>
      </trkpt>
      <trkpt lat="43.11583" lon="-0.67159">
        <ele>564.43</ele>
        <time>2017-05-11T07:39:08Z</time>
      </trkpt>
      <trkpt lat="43.11596" lon="-0.6712">
        <ele>565.39</ele>
        <time>2017-05-11T07:39:20Z</time>
      </trkpt>
      <trkpt lat="43.11612" lon="-0.67087">
        <ele>566.83</ele>
        <time>2017-05-11T07:39:33Z</time>
      </trkpt>
      <trkpt lat="43.11613" lon="-0.67086">
        <ele>567.32</ele>
        <time>2017-05-11T07:39:45Z</time>
      </trkpt>
      <trkpt lat="43.11614" lon="-0.67085">
        <ele>567.32</ele>
        <time>2017-05-11T07:40:06Z</time>
      </trkpt>
      <trkpt lat="43.11616" lon="-0.67084">
        <ele>566.83</ele>
        <time>2017-05-11T07:40:07Z</time>
      </trkpt>
      <trkpt lat="43.11618" lon="-0.67083">
        <ele>565.87</ele>
        <time>2017-05-11T07:40:08Z</time>
      </trkpt>
      <trkpt lat="43.11622" lon="-0.67081">
        <ele>565.87</ele>
        <time>2017-05-11T07:40:09Z</time>
      </trkpt>
      <trkpt lat="43.11626" lon="-0.6708">
        <ele>564.91</ele>
        <time>2017-05-11T07:40:10Z</time>
      </trkpt>
      <trkpt lat="43.1163" lon="-0.67079">
        <ele>564.43</ele>
        <time>2017-05-11T07:40:11Z</time>
      </trkpt>
      <trkpt lat="43.11639" lon="-0.67077">
        <ele>562.51</ele>
        <time>2017-05-11T07:40:13Z</time>
      </trkpt>
      <trkpt lat="43.11644" lon="-0.67075">
        <ele>562.03</ele>
        <time>2017-05-11T07:40:14Z</time>
      </trkpt>
      <trkpt lat="43.11649" lon="-0.67073">
        <ele>561.55</ele>
        <time>2017-05-11T07:40:15Z</time>
      </trkpt>
      <trkpt lat="43.11653" lon="-0.67069">
        <ele>560.59</ele>
        <time>2017-05-11T07:40:16Z</time>
      </trkpt>
      <trkpt lat="43.11656" lon="-0.67066">
        <ele>559.62</ele>
        <time>2017-05-11T07:40:17Z</time>
      </trkpt>
      <trkpt lat="43.11663" lon="-0.67059">
        <ele>558.18</ele>
        <time>2017-05-11T07:40:19Z</time>
      </trkpt>
      <trkpt lat="43.11667" lon="-0.67054">
        <ele>557.22</ele>
        <time>2017-05-11T07:40:20Z</time>
      </trkpt>
      <trkpt lat="43.11669" lon="-0.67047">
        <ele>557.22</ele>
        <time>2017-05-11T07:40:21Z</time>
      </trkpt>
      <trkpt lat="43.11672" lon="-0.67034">
        <ele>555.78</ele>
        <time>2017-05-11T07:40:23Z</time>
      </trkpt>
      <trkpt lat="43.11673" lon="-0.67027">
        <ele>555.3</ele>
        <time>2017-05-11T07:40:24Z</time>
      </trkpt>
      <trkpt lat="43.11675" lon="-0.67021">
        <ele>553.86</ele>
        <time>2017-05-11T07:40:25Z</time>
      </trkpt>
      <trkpt lat="43.11677" lon="-0.67015">
        <ele>552.9</ele>
        <time>2017-05-11T07:40:26Z</time>
      </trkpt>
      <trkpt lat="43.11681" lon="-0.6701">
        <ele>551.93</ele>
        <time>2017-05-11T07:40:27Z</time>
      </trkpt>
      <trkpt lat="43.11685" lon="-0.67007">
        <ele>551.45</ele>
        <time>2017-05-11T07:40:28Z</time>
      </trkpt>
      <trkpt lat="43.11688" lon="-0.67003">
        <ele>551.45</ele>
        <time>2017-05-11T07:40:29Z</time>
      </trkpt>
      <trkpt lat="43.11691" lon="-0.66999">
        <ele>551.93</ele>
        <time>2017-05-11T07:40:30Z</time>
      </trkpt>
      <trkpt lat="43.11693" lon="-0.66997">
        <ele>551.93</ele>
        <time>2017-05-11T07:40:31Z</time>
      </trkpt>
      <trkpt lat="43.11695" lon="-0.66994">
        <ele>551.93</ele>
        <time>2017-05-11T07:40:32Z</time>
      </trkpt>
      <trkpt lat="43.11698" lon="-0.66991">
        <ele>551.93</ele>
        <time>2017-05-11T07:40:33Z</time>
      </trkpt>
      <trkpt lat="43.11701" lon="-0.66987">
        <ele>550.97</ele>
        <time>2017-05-11T07:40:34Z</time>
      </trkpt>
      <trkpt lat="43.11706" lon="-0.66983">
        <ele>550.49</ele>
        <time>2017-05-11T07:40:35Z</time>
      </trkpt>
      <trkpt lat="43.1171" lon="-0.6698">
        <ele>549.53</ele>
        <time>2017-05-11T07:40:36Z</time>
      </trkpt>
      <trkpt lat="43.11725" lon="-0.66974">
        <ele>547.13</ele>
        <time>2017-05-11T07:40:40Z</time>
      </trkpt>
      <trkpt lat="43.1173" lon="-0.66973">
        <ele>545.2</ele>
        <time>2017-05-11T07:40:43Z</time>
      </trkpt>
      <trkpt lat="43.11735" lon="-0.66973">
        <ele>544.24</ele>
        <time>2017-05-11T07:40:48Z</time>
      </trkpt>
      <trkpt lat="43.11738" lon="-0.66972">
        <ele>542.8</ele>
        <time>2017-05-11T07:40:49Z</time>
      </trkpt>
      <trkpt lat="43.1174" lon="-0.66971">
        <ele>542.8</ele>
        <time>2017-05-11T07:40:50Z</time>
      </trkpt>
      <trkpt lat="43.11743" lon="-0.66971">
        <ele>541.84</ele>
        <time>2017-05-11T07:40:51Z</time>
      </trkpt>
      <trkpt lat="43.11746" lon="-0.6697">
        <ele>541.36</ele>
        <time>2017-05-11T07:40:52Z</time>
      </trkpt>
      <trkpt lat="43.11749" lon="-0.66968">
        <ele>540.88</ele>
        <time>2017-05-11T07:40:53Z</time>
      </trkpt>
      <trkpt lat="43.11753" lon="-0.66967">
        <ele>539.92</ele>
        <time>2017-05-11T07:40:54Z</time>
      </trkpt>
      <trkpt lat="43.11756" lon="-0.66967">
        <ele>538.48</ele>
        <time>2017-05-11T07:40:55Z</time>
      </trkpt>
      <trkpt lat="43.11759" lon="-0.66966">
        <ele>537.99</ele>
        <time>2017-05-11T07:40:56Z</time>
      </trkpt>
      <trkpt lat="43.11762" lon="-0.66966">
        <ele>537.03</ele>
        <time>2017-05-11T07:40:57Z</time>
      </trkpt>
      <trkpt lat="43.11766" lon="-0.66965">
        <ele>535.59</ele>
        <time>2017-05-11T07:40:58Z</time>
      </trkpt>
      <trkpt lat="43.11777" lon="-0.66961">
        <ele>532.23</ele>
        <time>2017-05-11T07:41:01Z</time>
      </trkpt>
      <trkpt lat="43.11788" lon="-0.66957">
        <ele>529.34</ele>
        <time>2017-05-11T07:41:04Z</time>
      </trkpt>
      <trkpt lat="43.118" lon="-0.66955">
        <ele>525.98</ele>
        <time>2017-05-11T07:41:08Z</time>
      </trkpt>
      <trkpt lat="43.11809" lon="-0.66954">
        <ele>524.06</ele>
        <time>2017-05-11T07:41:10Z</time>
      </trkpt>
      <trkpt lat="43.11825" lon="-0.66949">
        <ele>519.73</ele>
        <time>2017-05-11T07:41:13Z</time>
      </trkpt>
      <trkpt lat="43.1183" lon="-0.66946">
        <ele>518.77</ele>
        <time>2017-05-11T07:41:14Z</time>
      </trkpt>
      <trkpt lat="43.11851" lon="-0.66934">
        <ele>514.92</ele>
        <time>2017-05-11T07:41:18Z</time>
      </trkpt>
      <trkpt lat="43.11872" lon="-0.6692">
        <ele>511.56</ele>
        <time>2017-05-11T07:41:23Z</time>
      </trkpt>
      <trkpt lat="43.11882" lon="-0.66912">
        <ele>509.16</ele>
        <time>2017-05-11T07:41:25Z</time>
      </trkpt>
      <trkpt lat="43.11888" lon="-0.66911">
        <ele>508.67</ele>
        <time>2017-05-11T07:41:26Z</time>
      </trkpt>
      <trkpt lat="43.11901" lon="-0.66908">
        <ele>507.23</ele>
        <time>2017-05-11T07:41:28Z</time>
      </trkpt>
      <trkpt lat="43.11908" lon="-0.66906">
        <ele>506.27</ele>
        <time>2017-05-11T07:41:29Z</time>
      </trkpt>
      <trkpt lat="43.11914" lon="-0.66903">
        <ele>505.31</ele>
        <time>2017-05-11T07:41:30Z</time>
      </trkpt>
      <trkpt lat="43.1192" lon="-0.66899">
        <ele>504.83</ele>
        <time>2017-05-11T07:41:31Z</time>
      </trkpt>
      <trkpt lat="43.11928" lon="-0.66892">
        <ele>504.35</ele>
        <time>2017-05-11T07:41:33Z</time>
      </trkpt>
      <trkpt lat="43.11933" lon="-0.66891">
        <ele>503.39</ele>
        <time>2017-05-11T07:41:34Z</time>
      </trkpt>
      <trkpt lat="43.11945" lon="-0.6689">
        <ele>502.43</ele>
        <time>2017-05-11T07:41:36Z</time>
      </trkpt>
      <trkpt lat="43.11952" lon="-0.66889">
        <ele>500.5</ele>
        <time>2017-05-11T07:41:37Z</time>
      </trkpt>
      <trkpt lat="43.11968" lon="-0.66888">
        <ele>497.62</ele>
        <time>2017-05-11T07:41:40Z</time>
      </trkpt>
      <trkpt lat="43.11973" lon="-0.66887">
        <ele>497.14</ele>
        <time>2017-05-11T07:41:41Z</time>
      </trkpt>
      <trkpt lat="43.11997" lon="-0.66883">
        <ele>493.77</ele>
        <time>2017-05-11T07:41:45Z</time>
      </trkpt>
      <trkpt lat="43.12011" lon="-0.66881">
        <ele>492.81</ele>
        <time>2017-05-11T07:41:47Z</time>
      </trkpt>
      <trkpt lat="43.12034" lon="-0.66877">
        <ele>489.93</ele>
        <time>2017-05-11T07:41:51Z</time>
      </trkpt>
      <trkpt lat="43.12039" lon="-0.66877">
        <ele>488.49</ele>
        <time>2017-05-11T07:41:52Z</time>
      </trkpt>
      <trkpt lat="43.12043" lon="-0.66878">
        <ele>488.01</ele>
        <time>2017-05-11T07:41:53Z</time>
      </trkpt>
      <trkpt lat="43.12048" lon="-0.66879">
        <ele>487.53</ele>
        <time>2017-05-11T07:41:54Z</time>
      </trkpt>
      <trkpt lat="43.12053" lon="-0.66881">
        <ele>487.05</ele>
        <time>2017-05-11T07:41:55Z</time>
      </trkpt>
      <trkpt lat="43.12057" lon="-0.66884">
        <ele>486.08</ele>
        <time>2017-05-11T07:41:56Z</time>
      </trkpt>
      <trkpt lat="43.12061" lon="-0.66888">
        <ele>485.6</ele>
        <time>2017-05-11T07:41:57Z</time>
      </trkpt>
      <trkpt lat="43.12073" lon="-0.66899">
        <ele>483.2</ele>
        <time>2017-05-11T07:42:00Z</time>
      </trkpt>
      <trkpt lat="43.12088" lon="-0.6691">
        <ele>479.84</ele>
        <time>2017-05-11T07:42:04Z</time>
      </trkpt>
      <trkpt lat="43.12093" lon="-0.66914">
        <ele>478.39</ele>
        <time>2017-05-11T07:42:05Z</time>
      </trkpt>
      <trkpt lat="43.12098" lon="-0.66917">
        <ele>477.91</ele>
        <time>2017-05-11T07:42:06Z</time>
      </trkpt>
      <trkpt lat="43.12105" lon="-0.66919">
        <ele>476.47</ele>
        <time>2017-05-11T07:42:07Z</time>
      </trkpt>
      <trkpt lat="43.12111" lon="-0.66921">
        <ele>476.95</ele>
        <time>2017-05-11T07:42:08Z</time>
      </trkpt>
      <trkpt lat="43.12115" lon="-0.66924">
        <ele>475.51</ele>
        <time>2017-05-11T07:42:09Z</time>
      </trkpt>
      <trkpt lat="43.12123" lon="-0.66926">
        <ele>475.03</ele>
        <time>2017-05-11T07:42:16Z</time>
      </trkpt>
      <trkpt lat="43.12125" lon="-0.66925">
        <ele>474.07</ele>
        <time>2017-05-11T07:42:30Z</time>
      </trkpt>
      <trkpt lat="43.12127" lon="-0.66924">
        <ele>474.07</ele>
        <time>2017-05-11T07:42:31Z</time>
      </trkpt>
      <trkpt lat="43.1213" lon="-0.66921">
        <ele>473.11</ele>
        <time>2017-05-11T07:42:32Z</time>
      </trkpt>
      <trkpt lat="43.12133" lon="-0.6691">
        <ele>471.66</ele>
        <time>2017-05-11T07:42:34Z</time>
      </trkpt>
      <trkpt lat="43.1213" lon="-0.66905">
        <ele>471.66</ele>
        <time>2017-05-11T07:42:35Z</time>
      </trkpt>
      <trkpt lat="43.12127" lon="-0.669">
        <ele>471.66</ele>
        <time>2017-05-11T07:42:36Z</time>
      </trkpt>
      <trkpt lat="43.12122" lon="-0.66896">
        <ele>470.7</ele>
        <time>2017-05-11T07:42:37Z</time>
      </trkpt>
      <trkpt lat="43.12117" lon="-0.66892">
        <ele>469.26</ele>
        <time>2017-05-11T07:42:38Z</time>
      </trkpt>
      <trkpt lat="43.12111" lon="-0.66888">
        <ele>468.78</ele>
        <time>2017-05-11T07:42:39Z</time>
      </trkpt>
      <trkpt lat="43.12105" lon="-0.66886">
        <ele>467.82</ele>
        <time>2017-05-11T07:42:40Z</time>
      </trkpt>
      <trkpt lat="43.121" lon="-0.66882">
        <ele>467.82</ele>
        <time>2017-05-11T07:42:41Z</time>
      </trkpt>
      <trkpt lat="43.12096" lon="-0.66879">
        <ele>469.26</ele>
        <time>2017-05-11T07:42:42Z</time>
      </trkpt>
      <trkpt lat="43.12094" lon="-0.66874">
        <ele>469.26</ele>
        <time>2017-05-11T07:42:43Z</time>
      </trkpt>
      <trkpt lat="43.12094" lon="-0.66869">
        <ele>469.74</ele>
        <time>2017-05-11T07:42:44Z</time>
      </trkpt>
      <trkpt lat="43.12093" lon="-0.66865">
        <ele>468.78</ele>
        <time>2017-05-11T07:42:45Z</time>
      </trkpt>
      <trkpt lat="43.12093" lon="-0.6686">
        <ele>469.26</ele>
        <time>2017-05-11T07:42:46Z</time>
      </trkpt>
      <trkpt lat="43.12092" lon="-0.66856">
        <ele>469.26</ele>
        <time>2017-05-11T07:42:47Z</time>
      </trkpt>
      <trkpt lat="43.12092" lon="-0.66851">
        <ele>469.26</ele>
        <time>2017-05-11T07:42:48Z</time>
      </trkpt>
      <trkpt lat="43.12092" lon="-0.66848">
        <ele>468.3</ele>
        <time>2017-05-11T07:42:49Z</time>
      </trkpt>
      <trkpt lat="43.12092" lon="-0.66845">
        <ele>468.78</ele>
        <time>2017-05-11T07:42:50Z</time>
      </trkpt>
      <trkpt lat="43.12092" lon="-0.66842">
        <ele>468.3</ele>
        <time>2017-05-11T07:42:51Z</time>
      </trkpt>
      <trkpt lat="43.12087" lon="-0.66805">
        <ele>466.86</ele>
        <time>2017-05-11T07:43:00Z</time>
      </trkpt>
      <trkpt lat="43.12071" lon="-0.66779">
        <ele>466.38</ele>
        <time>2017-05-11T07:43:07Z</time>
      </trkpt>
      <trkpt lat="43.12067" lon="-0.66776">
        <ele>465.42</ele>
        <time>2017-05-11T07:43:08Z</time>
      </trkpt>
      <trkpt lat="43.12063" lon="-0.66774">
        <ele>464.93</ele>
        <time>2017-05-11T07:43:09Z</time>
      </trkpt>
      <trkpt lat="43.12058" lon="-0.66772">
        <ele>463.97</ele>
        <time>2017-05-11T07:43:10Z</time>
      </trkpt>
      <trkpt lat="43.12054" lon="-0.66771">
        <ele>463.97</ele>
        <time>2017-05-11T07:43:11Z</time>
      </trkpt>
      <trkpt lat="43.12048" lon="-0.66771">
        <ele>463.49</ele>
        <time>2017-05-11T07:43:12Z</time>
      </trkpt>
      <trkpt lat="43.12037" lon="-0.66772">
        <ele>461.09</ele>
        <time>2017-05-11T07:43:14Z</time>
      </trkpt>
      <trkpt lat="43.12024" lon="-0.66773">
        <ele>460.61</ele>
        <time>2017-05-11T07:43:16Z</time>
      </trkpt>
      <trkpt lat="43.11998" lon="-0.66769">
        <ele>459.17</ele>
        <time>2017-05-11T07:43:20Z</time>
      </trkpt>
      <trkpt lat="43.11967" lon="-0.66771">
        <ele>455.32</ele>
        <time>2017-05-11T07:43:25Z</time>
      </trkpt>
      <trkpt lat="43.11961" lon="-0.66772">
        <ele>455.32</ele>
        <time>2017-05-11T07:43:26Z</time>
      </trkpt>
      <trkpt lat="43.11945" lon="-0.66771">
        <ele>453.4</ele>
        <time>2017-05-11T07:43:29Z</time>
      </trkpt>
      <trkpt lat="43.11935" lon="-0.66771">
        <ele>452.44</ele>
        <time>2017-05-11T07:43:31Z</time>
      </trkpt>
      <trkpt lat="43.11929" lon="-0.66772">
        <ele>450.52</ele>
        <time>2017-05-11T07:43:32Z</time>
      </trkpt>
      <trkpt lat="43.11915" lon="-0.66773">
        <ele>448.59</ele>
        <time>2017-05-11T07:43:35Z</time>
      </trkpt>
      <trkpt lat="43.11911" lon="-0.66771">
        <ele>449.07</ele>
        <time>2017-05-11T07:43:36Z</time>
      </trkpt>
      <trkpt lat="43.11909" lon="-0.66768">
        <ele>449.55</ele>
        <time>2017-05-11T07:43:37Z</time>
      </trkpt>
      <trkpt lat="43.11906" lon="-0.66764">
        <ele>449.55</ele>
        <time>2017-05-11T07:43:38Z</time>
      </trkpt>
      <trkpt lat="43.11903" lon="-0.66762">
        <ele>450.52</ele>
        <time>2017-05-11T07:43:39Z</time>
      </trkpt>
      <trkpt lat="43.119" lon="-0.66759">
        <ele>450.03</ele>
        <time>2017-05-11T07:43:40Z</time>
      </trkpt>
      <trkpt lat="43.11897" lon="-0.66759">
        <ele>450.52</ele>
        <time>2017-05-11T07:43:41Z</time>
      </trkpt>
      <trkpt lat="43.11894" lon="-0.66758">
        <ele>451</ele>
        <time>2017-05-11T07:43:42Z</time>
      </trkpt>
      <trkpt lat="43.11891" lon="-0.66758">
        <ele>451</ele>
        <time>2017-05-11T07:43:43Z</time>
      </trkpt>
      <trkpt lat="43.11888" lon="-0.66757">
        <ele>451</ele>
        <time>2017-05-11T07:43:44Z</time>
      </trkpt>
      <trkpt lat="43.11885" lon="-0.66757">
        <ele>451.48</ele>
        <time>2017-05-11T07:43:45Z</time>
      </trkpt>
      <trkpt lat="43.11854" lon="-0.66754">
        <ele>453.4</ele>
        <time>2017-05-11T07:43:56Z</time>
      </trkpt>
      <trkpt lat="43.11843" lon="-0.66732">
        <ele>454.36</ele>
        <time>2017-05-11T07:44:04Z</time>
      </trkpt>
      <trkpt lat="43.11843" lon="-0.66727">
        <ele>454.84</ele>
        <time>2017-05-11T07:44:05Z</time>
      </trkpt>
      <trkpt lat="43.11844" lon="-0.66724">
        <ele>454.84</ele>
        <time>2017-05-11T07:44:06Z</time>
      </trkpt>
      <trkpt lat="43.11846" lon="-0.66722">
        <ele>455.32</ele>
        <time>2017-05-11T07:44:07Z</time>
      </trkpt>
      <trkpt lat="43.11848" lon="-0.66719">
        <ele>456.28</ele>
        <time>2017-05-11T07:44:08Z</time>
      </trkpt>
      <trkpt lat="43.11848" lon="-0.66715">
        <ele>456.28</ele>
        <time>2017-05-11T07:44:09Z</time>
      </trkpt>
      <trkpt lat="43.11849" lon="-0.66712">
        <ele>456.28</ele>
        <time>2017-05-11T07:44:10Z</time>
      </trkpt>
      <trkpt lat="43.1185" lon="-0.6671">
        <ele>456.76</ele>
        <time>2017-05-11T07:44:11Z</time>
      </trkpt>
      <trkpt lat="43.11862" lon="-0.66677">
        <ele>456.28</ele>
        <time>2017-05-11T07:44:20Z</time>
      </trkpt>
      <trkpt lat="43.11863" lon="-0.6667">
        <ele>457.24</ele>
        <time>2017-05-11T07:44:22Z</time>
      </trkpt>
      <trkpt lat="43.11865" lon="-0.66668">
        <ele>457.24</ele>
        <time>2017-05-11T07:44:23Z</time>
      </trkpt>
      <trkpt lat="43.11866" lon="-0.66665">
        <ele>457.72</ele>
        <time>2017-05-11T07:44:24Z</time>
      </trkpt>
      <trkpt lat="43.11866" lon="-0.66662">
        <ele>457.72</ele>
        <time>2017-05-11T07:44:25Z</time>
      </trkpt>
      <trkpt lat="43.11866" lon="-0.66659">
        <ele>457.72</ele>
        <time>2017-05-11T07:44:26Z</time>
      </trkpt>
      <trkpt lat="43.11866" lon="-0.66656">
        <ele>458.21</ele>
        <time>2017-05-11T07:44:27Z</time>
      </trkpt>
      <trkpt lat="43.11866" lon="-0.66652">
        <ele>458.21</ele>
        <time>2017-05-11T07:44:28Z</time>
      </trkpt>
      <trkpt lat="43.11859" lon="-0.66628">
        <ele>459.17</ele>
        <time>2017-05-11T07:44:36Z</time>
      </trkpt>
      <trkpt lat="43.11857" lon="-0.66625">
        <ele>459.17</ele>
        <time>2017-05-11T07:44:37Z</time>
      </trkpt>
      <trkpt lat="43.11836" lon="-0.66595">
        <ele>459.65</ele>
        <time>2017-05-11T07:44:48Z</time>
      </trkpt>
      <trkpt lat="43.11812" lon="-0.66587">
        <ele>460.61</ele>
        <time>2017-05-11T07:44:59Z</time>
      </trkpt>
      <trkpt lat="43.11796" lon="-0.66578">
        <ele>460.61</ele>
        <time>2017-05-11T07:45:06Z</time>
      </trkpt>
      <trkpt lat="43.11796" lon="-0.66575">
        <ele>460.61</ele>
        <time>2017-05-11T07:45:07Z</time>
      </trkpt>
      <trkpt lat="43.11796" lon="-0.66572">
        <ele>461.09</ele>
        <time>2017-05-11T07:45:08Z</time>
      </trkpt>
      <trkpt lat="43.11795" lon="-0.66527">
        <ele>462.05</ele>
        <time>2017-05-11T07:45:21Z</time>
      </trkpt>
      <trkpt lat="43.11789" lon="-0.66509">
        <ele>464.93</ele>
        <time>2017-05-11T07:45:30Z</time>
      </trkpt>
      <trkpt lat="43.11778" lon="-0.66481">
        <ele>467.82</ele>
        <time>2017-05-11T07:45:44Z</time>
      </trkpt>
      <trkpt lat="43.11774" lon="-0.66454">
        <ele>471.18</ele>
        <time>2017-05-11T07:45:57Z</time>
      </trkpt>
      <trkpt lat="43.1177" lon="-0.6642">
        <ele>474.07</ele>
        <time>2017-05-11T07:46:13Z</time>
      </trkpt>
      <trkpt lat="43.11771" lon="-0.66405">
        <ele>475.03</ele>
        <time>2017-05-11T07:46:20Z</time>
      </trkpt>
      <trkpt lat="43.11772" lon="-0.66404">
        <ele>475.51</ele>
        <time>2017-05-11T07:46:21Z</time>
      </trkpt>
      <trkpt lat="43.11772" lon="-0.66402">
        <ele>475.51</ele>
        <time>2017-05-11T07:46:22Z</time>
      </trkpt>
      <trkpt lat="43.11772" lon="-0.66399">
        <ele>475.99</ele>
        <time>2017-05-11T07:46:23Z</time>
      </trkpt>
      <trkpt lat="43.11772" lon="-0.66397">
        <ele>476.47</ele>
        <time>2017-05-11T07:46:24Z</time>
      </trkpt>
      <trkpt lat="43.11771" lon="-0.66395">
        <ele>476.47</ele>
        <time>2017-05-11T07:46:25Z</time>
      </trkpt>
      <trkpt lat="43.11772" lon="-0.66393">
        <ele>475.99</ele>
        <time>2017-05-11T07:46:26Z</time>
      </trkpt>
      <trkpt lat="43.11772" lon="-0.66391">
        <ele>476.47</ele>
        <time>2017-05-11T07:46:27Z</time>
      </trkpt>
      <trkpt lat="43.11772" lon="-0.66389">
        <ele>476.47</ele>
        <time>2017-05-11T07:46:28Z</time>
      </trkpt>
      <trkpt lat="43.11777" lon="-0.66362">
        <ele>478.39</ele>
        <time>2017-05-11T07:46:41Z</time>
      </trkpt>
      <trkpt lat="43.11777" lon="-0.66359">
        <ele>478.87</ele>
        <time>2017-05-11T07:46:43Z</time>
      </trkpt>
      <trkpt lat="43.11778" lon="-0.66357">
        <ele>479.84</ele>
        <time>2017-05-11T07:46:44Z</time>
      </trkpt>
      <trkpt lat="43.11779" lon="-0.66356">
        <ele>479.84</ele>
        <time>2017-05-11T07:46:45Z</time>
      </trkpt>
      <trkpt lat="43.1178" lon="-0.66354">
        <ele>480.32</ele>
        <time>2017-05-11T07:46:46Z</time>
      </trkpt>
      <trkpt lat="43.11781" lon="-0.66347">
        <ele>481.28</ele>
        <time>2017-05-11T07:46:51Z</time>
      </trkpt>
      <trkpt lat="43.11781" lon="-0.66346">
        <ele>481.28</ele>
        <time>2017-05-11T07:46:52Z</time>
      </trkpt>
      <trkpt lat="43.11782" lon="-0.66344">
        <ele>481.28</ele>
        <time>2017-05-11T07:46:53Z</time>
      </trkpt>
      <trkpt lat="43.11783" lon="-0.66342">
        <ele>481.76</ele>
        <time>2017-05-11T07:46:54Z</time>
      </trkpt>
      <trkpt lat="43.11784" lon="-0.66337">
        <ele>482.72</ele>
        <time>2017-05-11T07:46:57Z</time>
      </trkpt>
      <trkpt lat="43.11785" lon="-0.66335">
        <ele>482.72</ele>
        <time>2017-05-11T07:46:58Z</time>
      </trkpt>
      <trkpt lat="43.11785" lon="-0.66333">
        <ele>482.72</ele>
        <time>2017-05-11T07:46:59Z</time>
      </trkpt>
      <trkpt lat="43.11786" lon="-0.66332">
        <ele>483.2</ele>
        <time>2017-05-11T07:47:00Z</time>
      </trkpt>
      <trkpt lat="43.11786" lon="-0.6633">
        <ele>482.72</ele>
        <time>2017-05-11T07:47:01Z</time>
      </trkpt>
      <trkpt lat="43.11786" lon="-0.66329">
        <ele>483.2</ele>
        <time>2017-05-11T07:47:02Z</time>
      </trkpt>
      <trkpt lat="43.11785" lon="-0.66323">
        <ele>483.68</ele>
        <time>2017-05-11T07:47:05Z</time>
      </trkpt>
      <trkpt lat="43.11784" lon="-0.66321">
        <ele>484.16</ele>
        <time>2017-05-11T07:47:06Z</time>
      </trkpt>
      <trkpt lat="43.11784" lon="-0.66319">
        <ele>484.16</ele>
        <time>2017-05-11T07:47:07Z</time>
      </trkpt>
      <trkpt lat="43.11783" lon="-0.66318">
        <ele>484.16</ele>
        <time>2017-05-11T07:47:08Z</time>
      </trkpt>
      <trkpt lat="43.11782" lon="-0.66316">
        <ele>484.64</ele>
        <time>2017-05-11T07:47:09Z</time>
      </trkpt>
      <trkpt lat="43.11781" lon="-0.66313">
        <ele>484.64</ele>
        <time>2017-05-11T07:47:10Z</time>
      </trkpt>
      <trkpt lat="43.1178" lon="-0.66312">
        <ele>485.12</ele>
        <time>2017-05-11T07:47:11Z</time>
      </trkpt>
      <trkpt lat="43.11779" lon="-0.6631">
        <ele>485.6</ele>
        <time>2017-05-11T07:47:12Z</time>
      </trkpt>
      <trkpt lat="43.11779" lon="-0.66309">
        <ele>486.08</ele>
        <time>2017-05-11T07:47:13Z</time>
      </trkpt>
      <trkpt lat="43.11775" lon="-0.66292">
        <ele>488.97</ele>
        <time>2017-05-11T07:47:22Z</time>
      </trkpt>
      <trkpt lat="43.11774" lon="-0.66291">
        <ele>489.45</ele>
        <time>2017-05-11T07:47:23Z</time>
      </trkpt>
      <trkpt lat="43.11772" lon="-0.66288">
        <ele>489.93</ele>
        <time>2017-05-11T07:47:26Z</time>
      </trkpt>
      <trkpt lat="43.11771" lon="-0.66286">
        <ele>490.41</ele>
        <time>2017-05-11T07:47:27Z</time>
      </trkpt>
      <trkpt lat="43.11769" lon="-0.66281">
        <ele>490.41</ele>
        <time>2017-05-11T07:47:30Z</time>
      </trkpt>
      <trkpt lat="43.11768" lon="-0.6628">
        <ele>489.93</ele>
        <time>2017-05-11T07:47:31Z</time>
      </trkpt>
      <trkpt lat="43.11759" lon="-0.66265">
        <ele>491.85</ele>
        <time>2017-05-11T07:47:41Z</time>
      </trkpt>
      <trkpt lat="43.11759" lon="-0.66264">
        <ele>491.37</ele>
        <time>2017-05-11T07:47:42Z</time>
      </trkpt>
      <trkpt lat="43.11759" lon="-0.66262">
        <ele>491.37</ele>
        <time>2017-05-11T07:47:43Z</time>
      </trkpt>
      <trkpt lat="43.11758" lon="-0.66261">
        <ele>491.85</ele>
        <time>2017-05-11T07:47:44Z</time>
      </trkpt>
      <trkpt lat="43.1175" lon="-0.66242">
        <ele>493.77</ele>
        <time>2017-05-11T07:47:56Z</time>
      </trkpt>
      <trkpt lat="43.11749" lon="-0.66238">
        <ele>493.77</ele>
        <time>2017-05-11T07:47:58Z</time>
      </trkpt>
      <trkpt lat="43.11749" lon="-0.66236">
        <ele>494.26</ele>
        <time>2017-05-11T07:47:59Z</time>
      </trkpt>
      <trkpt lat="43.11749" lon="-0.66234">
        <ele>494.74</ele>
        <time>2017-05-11T07:48:00Z</time>
      </trkpt>
      <trkpt lat="43.11748" lon="-0.66232">
        <ele>495.22</ele>
        <time>2017-05-11T07:48:01Z</time>
      </trkpt>
      <trkpt lat="43.11748" lon="-0.66231">
        <ele>495.22</ele>
        <time>2017-05-11T07:48:02Z</time>
      </trkpt>
      <trkpt lat="43.11747" lon="-0.66227">
        <ele>496.66</ele>
        <time>2017-05-11T07:48:05Z</time>
      </trkpt>
      <trkpt lat="43.11743" lon="-0.66221">
        <ele>497.14</ele>
        <time>2017-05-11T07:48:14Z</time>
      </trkpt>
      <trkpt lat="43.1174" lon="-0.66213">
        <ele>498.58</ele>
        <time>2017-05-11T07:48:27Z</time>
      </trkpt>
      <trkpt lat="43.11739" lon="-0.66212">
        <ele>499.06</ele>
        <time>2017-05-11T07:48:28Z</time>
      </trkpt>
      <trkpt lat="43.11738" lon="-0.6621">
        <ele>498.58</ele>
        <time>2017-05-11T07:48:29Z</time>
      </trkpt>
      <trkpt lat="43.11737" lon="-0.66209">
        <ele>499.06</ele>
        <time>2017-05-11T07:48:30Z</time>
      </trkpt>
      <trkpt lat="43.11737" lon="-0.66207">
        <ele>498.58</ele>
        <time>2017-05-11T07:48:31Z</time>
      </trkpt>
      <trkpt lat="43.11736" lon="-0.66206">
        <ele>499.54</ele>
        <time>2017-05-11T07:48:32Z</time>
      </trkpt>
      <trkpt lat="43.11734" lon="-0.66194">
        <ele>500.5</ele>
        <time>2017-05-11T07:48:38Z</time>
      </trkpt>
      <trkpt lat="43.11733" lon="-0.66192">
        <ele>500.98</ele>
        <time>2017-05-11T07:48:39Z</time>
      </trkpt>
      <trkpt lat="43.11733" lon="-0.6619">
        <ele>500.5</ele>
        <time>2017-05-11T07:48:40Z</time>
      </trkpt>
      <trkpt lat="43.11732" lon="-0.66188">
        <ele>500.5</ele>
        <time>2017-05-11T07:48:41Z</time>
      </trkpt>
      <trkpt lat="43.11732" lon="-0.66186">
        <ele>501.46</ele>
        <time>2017-05-11T07:48:42Z</time>
      </trkpt>
      <trkpt lat="43.11732" lon="-0.66184">
        <ele>501.46</ele>
        <time>2017-05-11T07:48:43Z</time>
      </trkpt>
      <trkpt lat="43.11731" lon="-0.66182">
        <ele>501.46</ele>
        <time>2017-05-11T07:48:44Z</time>
      </trkpt>
      <trkpt lat="43.1173" lon="-0.66181">
        <ele>501.46</ele>
        <time>2017-05-11T07:48:45Z</time>
      </trkpt>
      <trkpt lat="43.1173" lon="-0.66178">
        <ele>501.46</ele>
        <time>2017-05-11T07:48:46Z</time>
      </trkpt>
      <trkpt lat="43.11729" lon="-0.66176">
        <ele>501.95</ele>
        <time>2017-05-11T07:48:47Z</time>
      </trkpt>
      <trkpt lat="43.11729" lon="-0.66175">
        <ele>501.95</ele>
        <time>2017-05-11T07:48:48Z</time>
      </trkpt>
      <trkpt lat="43.11728" lon="-0.66168">
        <ele>502.43</ele>
        <time>2017-05-11T07:48:52Z</time>
      </trkpt>
      <trkpt lat="43.11727" lon="-0.66166">
        <ele>502.91</ele>
        <time>2017-05-11T07:48:53Z</time>
      </trkpt>
      <trkpt lat="43.11727" lon="-0.66163">
        <ele>502.91</ele>
        <time>2017-05-11T07:48:54Z</time>
      </trkpt>
      <trkpt lat="43.11727" lon="-0.66161">
        <ele>503.39</ele>
        <time>2017-05-11T07:48:55Z</time>
      </trkpt>
      <trkpt lat="43.11727" lon="-0.66159">
        <ele>503.39</ele>
        <time>2017-05-11T07:48:56Z</time>
      </trkpt>
      <trkpt lat="43.11726" lon="-0.66157">
        <ele>502.91</ele>
        <time>2017-05-11T07:48:57Z</time>
      </trkpt>
      <trkpt lat="43.11725" lon="-0.66155">
        <ele>502.91</ele>
        <time>2017-05-11T07:48:58Z</time>
      </trkpt>
      <trkpt lat="43.11726" lon="-0.66152">
        <ele>503.87</ele>
        <time>2017-05-11T07:48:59Z</time>
      </trkpt>
      <trkpt lat="43.11728" lon="-0.66138">
        <ele>504.83</ele>
        <time>2017-05-11T07:49:06Z</time>
      </trkpt>
      <trkpt lat="43.11728" lon="-0.66136">
        <ele>505.31</ele>
        <time>2017-05-11T07:49:07Z</time>
      </trkpt>
      <trkpt lat="43.11733" lon="-0.66117">
        <ele>506.75</ele>
        <time>2017-05-11T07:49:18Z</time>
      </trkpt>
      <trkpt lat="43.11741" lon="-0.66092">
        <ele>510.12</ele>
        <time>2017-05-11T07:49:32Z</time>
      </trkpt>
      <trkpt lat="43.11745" lon="-0.66083">
        <ele>510.6</ele>
        <time>2017-05-11T07:49:37Z</time>
      </trkpt>
      <trkpt lat="43.11745" lon="-0.66081">
        <ele>511.56</ele>
        <time>2017-05-11T07:49:38Z</time>
      </trkpt>
      <trkpt lat="43.11745" lon="-0.66079">
        <ele>511.08</ele>
        <time>2017-05-11T07:49:39Z</time>
      </trkpt>
      <trkpt lat="43.11745" lon="-0.66077">
        <ele>511.56</ele>
        <time>2017-05-11T07:49:40Z</time>
      </trkpt>
      <trkpt lat="43.11746" lon="-0.66075">
        <ele>511.56</ele>
        <time>2017-05-11T07:49:41Z</time>
      </trkpt>
      <trkpt lat="43.11746" lon="-0.66073">
        <ele>512.04</ele>
        <time>2017-05-11T07:49:42Z</time>
      </trkpt>
      <trkpt lat="43.11753" lon="-0.66053">
        <ele>514.44</ele>
        <time>2017-05-11T07:49:54Z</time>
      </trkpt>
      <trkpt lat="43.11754" lon="-0.66051">
        <ele>514.92</ele>
        <time>2017-05-11T07:49:56Z</time>
      </trkpt>
      <trkpt lat="43.11754" lon="-0.66048">
        <ele>515.4</ele>
        <time>2017-05-11T07:49:57Z</time>
      </trkpt>
      <trkpt lat="43.11754" lon="-0.66046">
        <ele>515.4</ele>
        <time>2017-05-11T07:49:58Z</time>
      </trkpt>
      <trkpt lat="43.11756" lon="-0.66028">
        <ele>517.81</ele>
        <time>2017-05-11T07:50:09Z</time>
      </trkpt>
      <trkpt lat="43.11748" lon="-0.66014">
        <ele>521.17</ele>
        <time>2017-05-11T07:50:21Z</time>
      </trkpt>
      <trkpt lat="43.11743" lon="-0.66008">
        <ele>521.65</ele>
        <time>2017-05-11T07:50:26Z</time>
      </trkpt>
      <trkpt lat="43.11737" lon="-0.65989">
        <ele>525.02</ele>
        <time>2017-05-11T07:50:39Z</time>
      </trkpt>
      <trkpt lat="43.11737" lon="-0.65989">
        <ele>525.02</ele>
        <time>2017-05-11T07:50:40Z</time>
      </trkpt>
      <trkpt lat="43.11746" lon="-0.65988">
        <ele>527.42</ele>
        <time>2017-05-11T07:50:51Z</time>
      </trkpt>
      <trkpt lat="43.11748" lon="-0.65987">
        <ele>527.42</ele>
        <time>2017-05-11T07:50:53Z</time>
      </trkpt>
      <trkpt lat="43.11755" lon="-0.65988">
        <ele>529.34</ele>
        <time>2017-05-11T07:51:00Z</time>
      </trkpt>
      <trkpt lat="43.11759" lon="-0.65984">
        <ele>531.27</ele>
        <time>2017-05-11T07:51:04Z</time>
      </trkpt>
      <trkpt lat="43.11764" lon="-0.65984">
        <ele>531.75</ele>
        <time>2017-05-11T07:51:08Z</time>
      </trkpt>
      <trkpt lat="43.11768" lon="-0.65983">
        <ele>532.23</ele>
        <time>2017-05-11T07:51:11Z</time>
      </trkpt>
      <trkpt lat="43.11775" lon="-0.65981">
        <ele>533.19</ele>
        <time>2017-05-11T07:51:19Z</time>
      </trkpt>
      <trkpt lat="43.11782" lon="-0.65977">
        <ele>534.15</ele>
        <time>2017-05-11T07:51:26Z</time>
      </trkpt>
      <trkpt lat="43.1179" lon="-0.65973">
        <ele>536.07</ele>
        <time>2017-05-11T07:51:32Z</time>
      </trkpt>
      <trkpt lat="43.11806" lon="-0.65964">
        <ele>538.96</ele>
        <time>2017-05-11T07:51:45Z</time>
      </trkpt>
      <trkpt lat="43.11819" lon="-0.65952">
        <ele>541.36</ele>
        <time>2017-05-11T07:51:57Z</time>
      </trkpt>
      <trkpt lat="43.11828" lon="-0.65947">
        <ele>543.76</ele>
        <time>2017-05-11T07:52:07Z</time>
      </trkpt>
      <trkpt lat="43.11835" lon="-0.65944">
        <ele>544.72</ele>
        <time>2017-05-11T07:52:15Z</time>
      </trkpt>
      <trkpt lat="43.11838" lon="-0.65941">
        <ele>545.2</ele>
        <time>2017-05-11T07:52:17Z</time>
      </trkpt>
      <trkpt lat="43.11847" lon="-0.65932">
        <ele>548.09</ele>
        <time>2017-05-11T07:52:27Z</time>
      </trkpt>
      <trkpt lat="43.11858" lon="-0.65923">
        <ele>550.97</ele>
        <time>2017-05-11T07:52:40Z</time>
      </trkpt>
      <trkpt lat="43.11873" lon="-0.65907">
        <ele>551.93</ele>
        <time>2017-05-11T07:52:54Z</time>
      </trkpt>
      <trkpt lat="43.11881" lon="-0.6589">
        <ele>553.86</ele>
        <time>2017-05-11T07:53:03Z</time>
      </trkpt>
      <trkpt lat="43.11886" lon="-0.65871">
        <ele>555.78</ele>
        <time>2017-05-11T07:53:15Z</time>
      </trkpt>
      <trkpt lat="43.11887" lon="-0.65867">
        <ele>556.26</ele>
        <time>2017-05-11T07:53:18Z</time>
      </trkpt>
      <trkpt lat="43.11892" lon="-0.65851">
        <ele>558.18</ele>
        <time>2017-05-11T07:53:27Z</time>
      </trkpt>
      <trkpt lat="43.11895" lon="-0.65845">
        <ele>557.7</ele>
        <time>2017-05-11T07:53:31Z</time>
      </trkpt>
      <trkpt lat="43.11897" lon="-0.65837">
        <ele>559.14</ele>
        <time>2017-05-11T07:53:36Z</time>
      </trkpt>
      <trkpt lat="43.119" lon="-0.6583">
        <ele>558.66</ele>
        <time>2017-05-11T07:53:39Z</time>
      </trkpt>
      <trkpt lat="43.119" lon="-0.65825">
        <ele>559.14</ele>
        <time>2017-05-11T07:53:42Z</time>
      </trkpt>
      <trkpt lat="43.11901" lon="-0.65821">
        <ele>560.11</ele>
        <time>2017-05-11T07:53:45Z</time>
      </trkpt>
      <trkpt lat="43.11909" lon="-0.65797">
        <ele>561.55</ele>
        <time>2017-05-11T07:53:57Z</time>
      </trkpt>
      <trkpt lat="43.11921" lon="-0.65774">
        <ele>563.47</ele>
        <time>2017-05-11T07:54:09Z</time>
      </trkpt>
      <trkpt lat="43.11922" lon="-0.65773">
        <ele>563.95</ele>
        <time>2017-05-11T07:54:10Z</time>
      </trkpt>
      <trkpt lat="43.11927" lon="-0.65756">
        <ele>564.91</ele>
        <time>2017-05-11T07:54:20Z</time>
      </trkpt>
      <trkpt lat="43.11944" lon="-0.65733">
        <ele>566.35</ele>
        <time>2017-05-11T07:54:32Z</time>
      </trkpt>
      <trkpt lat="43.11957" lon="-0.65715">
        <ele>566.35</ele>
        <time>2017-05-11T07:54:42Z</time>
      </trkpt>
      <trkpt lat="43.11958" lon="-0.65706">
        <ele>566.35</ele>
        <time>2017-05-11T07:54:46Z</time>
      </trkpt>
      <trkpt lat="43.11957" lon="-0.65698">
        <ele>566.35</ele>
        <time>2017-05-11T07:54:51Z</time>
      </trkpt>
      <trkpt lat="43.11964" lon="-0.65684">
        <ele>566.83</ele>
        <time>2017-05-11T07:54:58Z</time>
      </trkpt>
      <trkpt lat="43.11969" lon="-0.65677">
        <ele>566.35</ele>
        <time>2017-05-11T07:55:01Z</time>
      </trkpt>
      <trkpt lat="43.1198" lon="-0.65657">
        <ele>567.32</ele>
        <time>2017-05-11T07:55:10Z</time>
      </trkpt>
      <trkpt lat="43.1198" lon="-0.65652">
        <ele>567.32</ele>
        <time>2017-05-11T07:55:14Z</time>
      </trkpt>
      <trkpt lat="43.11986" lon="-0.6564">
        <ele>566.83</ele>
        <time>2017-05-11T07:55:17Z</time>
      </trkpt>
      <trkpt lat="43.12" lon="-0.6561">
        <ele>566.83</ele>
        <time>2017-05-11T07:55:28Z</time>
      </trkpt>
      <trkpt lat="43.12006" lon="-0.65578">
        <ele>566.83</ele>
        <time>2017-05-11T07:55:38Z</time>
      </trkpt>
      <trkpt lat="43.12013" lon="-0.65565">
        <ele>566.83</ele>
        <time>2017-05-11T07:55:43Z</time>
      </trkpt>
      <trkpt lat="43.12022" lon="-0.65523">
        <ele>568.28</ele>
        <time>2017-05-11T07:55:56Z</time>
      </trkpt>
      <trkpt lat="43.12022" lon="-0.65521">
        <ele>568.76</ele>
        <time>2017-05-11T07:55:57Z</time>
      </trkpt>
      <trkpt lat="43.1202" lon="-0.65508">
        <ele>569.24</ele>
        <time>2017-05-11T07:56:01Z</time>
      </trkpt>
      <trkpt lat="43.1202" lon="-0.65484">
        <ele>571.16</ele>
        <time>2017-05-11T07:56:09Z</time>
      </trkpt>
      <trkpt lat="43.12019" lon="-0.65473">
        <ele>571.64</ele>
        <time>2017-05-11T07:56:14Z</time>
      </trkpt>
      <trkpt lat="43.12019" lon="-0.65446">
        <ele>571.64</ele>
        <time>2017-05-11T07:56:24Z</time>
      </trkpt>
      <trkpt lat="43.12019" lon="-0.65403">
        <ele>571.64</ele>
        <time>2017-05-11T07:56:37Z</time>
      </trkpt>
      <trkpt lat="43.1202" lon="-0.65404">
        <ele>571.64</ele>
        <time>2017-05-11T07:56:48Z</time>
      </trkpt>
      <trkpt lat="43.1202" lon="-0.65404">
        <ele>571.64</ele>
        <time>2017-05-11T07:57:03Z</time>
      </trkpt>
      <trkpt lat="43.12021" lon="-0.65402">
        <ele>571.64</ele>
        <time>2017-05-11T07:57:26Z</time>
      </trkpt>
      <trkpt lat="43.12021" lon="-0.65401">
        <ele>570.2</ele>
        <time>2017-05-11T07:57:52Z</time>
      </trkpt>
      <trkpt lat="43.12021" lon="-0.65401">
        <ele>570.68</ele>
        <time>2017-05-11T07:58:03Z</time>
      </trkpt>
      <trkpt lat="43.12029" lon="-0.65406">
        <ele>569.24</ele>
        <time>2017-05-11T07:58:07Z</time>
      </trkpt>
      <trkpt lat="43.12032" lon="-0.65407">
        <ele>567.32</ele>
        <time>2017-05-11T07:58:08Z</time>
      </trkpt>
      <trkpt lat="43.12038" lon="-0.65407">
        <ele>565.39</ele>
        <time>2017-05-11T07:58:10Z</time>
      </trkpt>
      <trkpt lat="43.12052" lon="-0.65405">
        <ele>561.07</ele>
        <time>2017-05-11T07:58:14Z</time>
      </trkpt>
      <trkpt lat="43.12068" lon="-0.65411">
        <ele>556.26</ele>
        <time>2017-05-11T07:58:18Z</time>
      </trkpt>
      <trkpt lat="43.1208" lon="-0.65423">
        <ele>551.93</ele>
        <time>2017-05-11T07:58:22Z</time>
      </trkpt>
      <trkpt lat="43.12086" lon="-0.65425">
        <ele>550.01</ele>
        <time>2017-05-11T07:58:24Z</time>
      </trkpt>
      <trkpt lat="43.12091" lon="-0.65419">
        <ele>548.57</ele>
        <time>2017-05-11T07:58:27Z</time>
      </trkpt>
      <trkpt lat="43.12097" lon="-0.65412">
        <ele>547.61</ele>
        <time>2017-05-11T07:58:30Z</time>
      </trkpt>
      <trkpt lat="43.12109" lon="-0.6541">
        <ele>543.76</ele>
        <time>2017-05-11T07:58:35Z</time>
      </trkpt>
      <trkpt lat="43.12111" lon="-0.65412">
        <ele>543.28</ele>
        <time>2017-05-11T07:58:36Z</time>
      </trkpt>
      <trkpt lat="43.12124" lon="-0.6543">
        <ele>538.96</ele>
        <time>2017-05-11T07:58:41Z</time>
      </trkpt>
      <trkpt lat="43.12127" lon="-0.65433">
        <ele>538.96</ele>
        <time>2017-05-11T07:58:42Z</time>
      </trkpt>
      <trkpt lat="43.12135" lon="-0.6544">
        <ele>536.07</ele>
        <time>2017-05-11T07:58:45Z</time>
      </trkpt>
      <trkpt lat="43.12139" lon="-0.65451">
        <ele>535.11</ele>
        <time>2017-05-11T07:58:47Z</time>
      </trkpt>
      <trkpt lat="43.12149" lon="-0.65471">
        <ele>532.71</ele>
        <time>2017-05-11T07:58:50Z</time>
      </trkpt>
      <trkpt lat="43.12165" lon="-0.65483">
        <ele>528.38</ele>
        <time>2017-05-11T07:58:55Z</time>
      </trkpt>
      <trkpt lat="43.12175" lon="-0.65488">
        <ele>524.54</ele>
        <time>2017-05-11T07:58:58Z</time>
      </trkpt>
      <trkpt lat="43.12194" lon="-0.65484">
        <ele>521.17</ele>
        <time>2017-05-11T07:59:03Z</time>
      </trkpt>
      <trkpt lat="43.122" lon="-0.65477">
        <ele>519.73</ele>
        <time>2017-05-11T07:59:05Z</time>
      </trkpt>
      <trkpt lat="43.12218" lon="-0.65471">
        <ele>516.37</ele>
        <time>2017-05-11T07:59:10Z</time>
      </trkpt>
      <trkpt lat="43.12239" lon="-0.65477">
        <ele>512.52</ele>
        <time>2017-05-11T07:59:15Z</time>
      </trkpt>
      <trkpt lat="43.12243" lon="-0.65477">
        <ele>511.08</ele>
        <time>2017-05-11T07:59:16Z</time>
      </trkpt>
      <trkpt lat="43.12249" lon="-0.65473">
        <ele>510.12</ele>
        <time>2017-05-11T07:59:18Z</time>
      </trkpt>
      <trkpt lat="43.12262" lon="-0.65453">
        <ele>508.67</ele>
        <time>2017-05-11T07:59:23Z</time>
      </trkpt>
      <trkpt lat="43.12268" lon="-0.65446">
        <ele>507.71</ele>
        <time>2017-05-11T07:59:25Z</time>
      </trkpt>
      <trkpt lat="43.1227" lon="-0.65444">
        <ele>506.75</ele>
        <time>2017-05-11T07:59:26Z</time>
      </trkpt>
      <trkpt lat="43.12281" lon="-0.65433">
        <ele>503.39</ele>
        <time>2017-05-11T07:59:29Z</time>
      </trkpt>
      <trkpt lat="43.12285" lon="-0.65425">
        <ele>502.43</ele>
        <time>2017-05-11T07:59:31Z</time>
      </trkpt>
      <trkpt lat="43.12289" lon="-0.65423">
        <ele>500.98</ele>
        <time>2017-05-11T07:59:33Z</time>
      </trkpt>
      <trkpt lat="43.123" lon="-0.65431">
        <ele>499.54</ele>
        <time>2017-05-11T07:59:36Z</time>
      </trkpt>
      <trkpt lat="43.12313" lon="-0.65444">
        <ele>498.58</ele>
        <time>2017-05-11T07:59:39Z</time>
      </trkpt>
      <trkpt lat="43.12328" lon="-0.65455">
        <ele>496.18</ele>
        <time>2017-05-11T07:59:43Z</time>
      </trkpt>
      <trkpt lat="43.12349" lon="-0.65473">
        <ele>492.81</ele>
        <time>2017-05-11T07:59:49Z</time>
      </trkpt>
      <trkpt lat="43.12374" lon="-0.65497">
        <ele>491.85</ele>
        <time>2017-05-11T07:59:55Z</time>
      </trkpt>
      <trkpt lat="43.12402" lon="-0.65512">
        <ele>491.37</ele>
        <time>2017-05-11T08:00:03Z</time>
      </trkpt>
      <trkpt lat="43.1241" lon="-0.65514">
        <ele>489.45</ele>
        <time>2017-05-11T08:00:06Z</time>
      </trkpt>
      <trkpt lat="43.12422" lon="-0.65524">
        <ele>488.49</ele>
        <time>2017-05-11T08:00:17Z</time>
      </trkpt>
      <trkpt lat="43.12423" lon="-0.65525">
        <ele>488.49</ele>
        <time>2017-05-11T08:00:18Z</time>
      </trkpt>
      <trkpt lat="43.1243" lon="-0.65526">
        <ele>488.01</ele>
        <time>2017-05-11T08:00:32Z</time>
      </trkpt>
      <trkpt lat="43.12432" lon="-0.65529">
        <ele>488.49</ele>
        <time>2017-05-11T08:00:35Z</time>
      </trkpt>
      <trkpt lat="43.12433" lon="-0.6554">
        <ele>489.93</ele>
        <time>2017-05-11T08:00:41Z</time>
      </trkpt>
      <trkpt lat="43.12435" lon="-0.65544">
        <ele>490.41</ele>
        <time>2017-05-11T08:00:43Z</time>
      </trkpt>
      <trkpt lat="43.12437" lon="-0.65548">
        <ele>489.93</ele>
        <time>2017-05-11T08:00:45Z</time>
      </trkpt>
      <trkpt lat="43.1245" lon="-0.65558">
        <ele>487.05</ele>
        <time>2017-05-11T08:00:51Z</time>
      </trkpt>
      <trkpt lat="43.12456" lon="-0.65578">
        <ele>486.56</ele>
        <time>2017-05-11T08:00:58Z</time>
      </trkpt>
      <trkpt lat="43.12461" lon="-0.65585">
        <ele>485.6</ele>
        <time>2017-05-11T08:01:02Z</time>
      </trkpt>
      <trkpt lat="43.12468" lon="-0.65588">
        <ele>483.68</ele>
        <time>2017-05-11T08:01:04Z</time>
      </trkpt>
      <trkpt lat="43.12485" lon="-0.65583">
        <ele>481.76</ele>
        <time>2017-05-11T08:01:08Z</time>
      </trkpt>
      <trkpt lat="43.12491" lon="-0.65579">
        <ele>480.8</ele>
        <time>2017-05-11T08:01:10Z</time>
      </trkpt>
      <trkpt lat="43.12503" lon="-0.65569">
        <ele>476.47</ele>
        <time>2017-05-11T08:01:14Z</time>
      </trkpt>
      <trkpt lat="43.12508" lon="-0.65566">
        <ele>475.03</ele>
        <time>2017-05-11T08:01:16Z</time>
      </trkpt>
      <trkpt lat="43.12513" lon="-0.65565">
        <ele>473.59</ele>
        <time>2017-05-11T08:01:18Z</time>
      </trkpt>
      <trkpt lat="43.12526" lon="-0.65571">
        <ele>470.7</ele>
        <time>2017-05-11T08:01:22Z</time>
      </trkpt>
      <trkpt lat="43.12538" lon="-0.65577">
        <ele>468.3</ele>
        <time>2017-05-11T08:01:26Z</time>
      </trkpt>
      <trkpt lat="43.12542" lon="-0.65578">
        <ele>466.86</ele>
        <time>2017-05-11T08:01:28Z</time>
      </trkpt>
      <trkpt lat="43.12556" lon="-0.65585">
        <ele>463.01</ele>
        <time>2017-05-11T08:01:32Z</time>
      </trkpt>
      <trkpt lat="43.12559" lon="-0.65587">
        <ele>462.05</ele>
        <time>2017-05-11T08:01:33Z</time>
      </trkpt>
      <trkpt lat="43.12575" lon="-0.65601">
        <ele>458.21</ele>
        <time>2017-05-11T08:01:39Z</time>
      </trkpt>
      <trkpt lat="43.12583" lon="-0.65613">
        <ele>455.32</ele>
        <time>2017-05-11T08:01:42Z</time>
      </trkpt>
      <trkpt lat="43.12585" lon="-0.65617">
        <ele>454.84</ele>
        <time>2017-05-11T08:01:43Z</time>
      </trkpt>
      <trkpt lat="43.12589" lon="-0.65634">
        <ele>452.92</ele>
        <time>2017-05-11T08:01:46Z</time>
      </trkpt>
      <trkpt lat="43.12588" lon="-0.65668">
        <ele>447.63</ele>
        <time>2017-05-11T08:01:52Z</time>
      </trkpt>
      <trkpt lat="43.12588" lon="-0.65672">
        <ele>447.63</ele>
        <time>2017-05-11T08:01:53Z</time>
      </trkpt>
      <trkpt lat="43.12589" lon="-0.65679">
        <ele>446.19</ele>
        <time>2017-05-11T08:01:55Z</time>
      </trkpt>
      <trkpt lat="43.12592" lon="-0.65687">
        <ele>443.79</ele>
        <time>2017-05-11T08:01:58Z</time>
      </trkpt>
      <trkpt lat="43.12599" lon="-0.6569">
        <ele>440.42</ele>
        <time>2017-05-11T08:02:01Z</time>
      </trkpt>
      <trkpt lat="43.12606" lon="-0.65686">
        <ele>438.5</ele>
        <time>2017-05-11T08:02:04Z</time>
      </trkpt>
      <trkpt lat="43.12616" lon="-0.65677">
        <ele>435.13</ele>
        <time>2017-05-11T08:02:07Z</time>
      </trkpt>
      <trkpt lat="43.12618" lon="-0.65673">
        <ele>434.17</ele>
        <time>2017-05-11T08:02:08Z</time>
      </trkpt>
      <trkpt lat="43.12627" lon="-0.65657">
        <ele>432.25</ele>
        <time>2017-05-11T08:02:12Z</time>
      </trkpt>
      <trkpt lat="43.12629" lon="-0.65652">
        <ele>431.29</ele>
        <time>2017-05-11T08:02:13Z</time>
      </trkpt>
      <trkpt lat="43.1263" lon="-0.65649">
        <ele>430.81</ele>
        <time>2017-05-11T08:02:14Z</time>
      </trkpt>
      <trkpt lat="43.12632" lon="-0.65647">
        <ele>429.37</ele>
        <time>2017-05-11T08:02:15Z</time>
      </trkpt>
      <trkpt lat="43.12635" lon="-0.65644">
        <ele>428.89</ele>
        <time>2017-05-11T08:02:16Z</time>
      </trkpt>
      <trkpt lat="43.12637" lon="-0.6564">
        <ele>427.92</ele>
        <time>2017-05-11T08:02:17Z</time>
      </trkpt>
      <trkpt lat="43.12639" lon="-0.65636">
        <ele>427.44</ele>
        <time>2017-05-11T08:02:18Z</time>
      </trkpt>
      <trkpt lat="43.1264" lon="-0.65631">
        <ele>426</ele>
        <time>2017-05-11T08:02:19Z</time>
      </trkpt>
      <trkpt lat="43.12641" lon="-0.65627">
        <ele>425.52</ele>
        <time>2017-05-11T08:02:20Z</time>
      </trkpt>
      <trkpt lat="43.12643" lon="-0.65622">
        <ele>424.56</ele>
        <time>2017-05-11T08:02:21Z</time>
      </trkpt>
      <trkpt lat="43.12645" lon="-0.65617">
        <ele>423.6</ele>
        <time>2017-05-11T08:02:22Z</time>
      </trkpt>
      <trkpt lat="43.12647" lon="-0.65614">
        <ele>423.6</ele>
        <time>2017-05-11T08:02:23Z</time>
      </trkpt>
      <trkpt lat="43.12648" lon="-0.65613">
        <ele>423.12</ele>
        <time>2017-05-11T08:02:24Z</time>
      </trkpt>
      <trkpt lat="43.12653" lon="-0.65609">
        <ele>423.12</ele>
        <time>2017-05-11T08:02:37Z</time>
      </trkpt>
      <trkpt lat="43.12648" lon="-0.65604">
        <ele>422.64</ele>
        <time>2017-05-11T08:03:04Z</time>
      </trkpt>
      <trkpt lat="43.12645" lon="-0.65602">
        <ele>423.6</ele>
        <time>2017-05-11T08:03:21Z</time>
      </trkpt>
      <trkpt lat="43.12648" lon="-0.65597">
        <ele>422.16</ele>
        <time>2017-05-11T08:03:23Z</time>
      </trkpt>
      <trkpt lat="43.1265" lon="-0.65594">
        <ele>421.19</ele>
        <time>2017-05-11T08:03:24Z</time>
      </trkpt>
      <trkpt lat="43.12651" lon="-0.65591">
        <ele>420.71</ele>
        <time>2017-05-11T08:03:25Z</time>
      </trkpt>
      <trkpt lat="43.12651" lon="-0.65589">
        <ele>418.79</ele>
        <time>2017-05-11T08:03:26Z</time>
      </trkpt>
      <trkpt lat="43.12652" lon="-0.65587">
        <ele>418.31</ele>
        <time>2017-05-11T08:03:27Z</time>
      </trkpt>
      <trkpt lat="43.12652" lon="-0.65584">
        <ele>417.35</ele>
        <time>2017-05-11T08:03:28Z</time>
      </trkpt>
      <trkpt lat="43.12654" lon="-0.65581">
        <ele>415.43</ele>
        <time>2017-05-11T08:03:29Z</time>
      </trkpt>
      <trkpt lat="43.12656" lon="-0.65573">
        <ele>413.98</ele>
        <time>2017-05-11T08:03:31Z</time>
      </trkpt>
      <trkpt lat="43.12658" lon="-0.65567">
        <ele>412.54</ele>
        <time>2017-05-11T08:03:32Z</time>
      </trkpt>
      <trkpt lat="43.1266" lon="-0.65562">
        <ele>411.1</ele>
        <time>2017-05-11T08:03:33Z</time>
      </trkpt>
      <trkpt lat="43.12667" lon="-0.65541">
        <ele>407.74</ele>
        <time>2017-05-11T08:03:37Z</time>
      </trkpt>
      <trkpt lat="43.12669" lon="-0.65535">
        <ele>406.77</ele>
        <time>2017-05-11T08:03:38Z</time>
      </trkpt>
      <trkpt lat="43.12675" lon="-0.65516">
        <ele>403.89</ele>
        <time>2017-05-11T08:03:41Z</time>
      </trkpt>
      <trkpt lat="43.12678" lon="-0.65492">
        <ele>399.57</ele>
        <time>2017-05-11T08:03:45Z</time>
      </trkpt>
      <trkpt lat="43.12678" lon="-0.65487">
        <ele>399.08</ele>
        <time>2017-05-11T08:03:46Z</time>
      </trkpt>
      <trkpt lat="43.1268" lon="-0.65475">
        <ele>397.16</ele>
        <time>2017-05-11T08:03:48Z</time>
      </trkpt>
      <trkpt lat="43.1269" lon="-0.65466">
        <ele>394.76</ele>
        <time>2017-05-11T08:03:51Z</time>
      </trkpt>
      <trkpt lat="43.12694" lon="-0.65466">
        <ele>394.28</ele>
        <time>2017-05-11T08:03:52Z</time>
      </trkpt>
      <trkpt lat="43.12704" lon="-0.65471">
        <ele>392.36</ele>
        <time>2017-05-11T08:03:54Z</time>
      </trkpt>
      <trkpt lat="43.12711" lon="-0.65475">
        <ele>389.47</ele>
        <time>2017-05-11T08:03:56Z</time>
      </trkpt>
      <trkpt lat="43.12723" lon="-0.6547">
        <ele>388.51</ele>
        <time>2017-05-11T08:03:59Z</time>
      </trkpt>
      <trkpt lat="43.12737" lon="-0.6546">
        <ele>386.11</ele>
        <time>2017-05-11T08:04:02Z</time>
      </trkpt>
      <trkpt lat="43.12762" lon="-0.6544">
        <ele>382.74</ele>
        <time>2017-05-11T08:04:07Z</time>
      </trkpt>
      <trkpt lat="43.12775" lon="-0.65431">
        <ele>381.3</ele>
        <time>2017-05-11T08:04:10Z</time>
      </trkpt>
      <trkpt lat="43.1279" lon="-0.65421">
        <ele>380.34</ele>
        <time>2017-05-11T08:04:13Z</time>
      </trkpt>
      <trkpt lat="43.12804" lon="-0.65406">
        <ele>378.42</ele>
        <time>2017-05-11T08:04:16Z</time>
      </trkpt>
      <trkpt lat="43.12823" lon="-0.65379">
        <ele>375.53</ele>
        <time>2017-05-11T08:04:20Z</time>
      </trkpt>
      <trkpt lat="43.12831" lon="-0.65369">
        <ele>372.65</ele>
        <time>2017-05-11T08:04:22Z</time>
      </trkpt>
      <trkpt lat="43.12853" lon="-0.6537">
        <ele>368.8</ele>
        <time>2017-05-11T08:04:27Z</time>
      </trkpt>
      <trkpt lat="43.12865" lon="-0.65369">
        <ele>366.4</ele>
        <time>2017-05-11T08:04:30Z</time>
      </trkpt>
      <trkpt lat="43.12889" lon="-0.65358">
        <ele>361.11</ele>
        <time>2017-05-11T08:04:36Z</time>
      </trkpt>
      <trkpt lat="43.12894" lon="-0.65353">
        <ele>359.67</ele>
        <time>2017-05-11T08:04:38Z</time>
      </trkpt>
      <trkpt lat="43.12912" lon="-0.6535">
        <ele>355.34</ele>
        <time>2017-05-11T08:04:43Z</time>
      </trkpt>
      <trkpt lat="43.12916" lon="-0.65351">
        <ele>355.34</ele>
        <time>2017-05-11T08:04:44Z</time>
      </trkpt>
      <trkpt lat="43.12928" lon="-0.65345">
        <ele>352.94</ele>
        <time>2017-05-11T08:04:47Z</time>
      </trkpt>
      <trkpt lat="43.12957" lon="-0.65319">
        <ele>349.1</ele>
        <time>2017-05-11T08:04:54Z</time>
      </trkpt>
      <trkpt lat="43.12965" lon="-0.65315">
        <ele>347.17</ele>
        <time>2017-05-11T08:04:56Z</time>
      </trkpt>
      <trkpt lat="43.12972" lon="-0.65315">
        <ele>346.21</ele>
        <time>2017-05-11T08:04:58Z</time>
      </trkpt>
      <trkpt lat="43.12993" lon="-0.65309">
        <ele>341.89</ele>
        <time>2017-05-11T08:05:03Z</time>
      </trkpt>
      <trkpt lat="43.12996" lon="-0.65307">
        <ele>341.89</ele>
        <time>2017-05-11T08:05:04Z</time>
      </trkpt>
      <trkpt lat="43.13017" lon="-0.65325">
        <ele>338.52</ele>
        <time>2017-05-11T08:05:10Z</time>
      </trkpt>
      <trkpt lat="43.13027" lon="-0.65349">
        <ele>334.2</ele>
        <time>2017-05-11T08:05:15Z</time>
      </trkpt>
      <trkpt lat="43.13034" lon="-0.65355">
        <ele>333.23</ele>
        <time>2017-05-11T08:05:17Z</time>
      </trkpt>
      <trkpt lat="43.1306" lon="-0.65344">
        <ele>333.23</ele>
        <time>2017-05-11T08:05:26Z</time>
      </trkpt>
      <trkpt lat="43.13065" lon="-0.65337">
        <ele>331.31</ele>
        <time>2017-05-11T08:05:28Z</time>
      </trkpt>
      <trkpt lat="43.13082" lon="-0.65334">
        <ele>328.91</ele>
        <time>2017-05-11T08:05:32Z</time>
      </trkpt>
      <trkpt lat="43.13091" lon="-0.65339">
        <ele>326.99</ele>
        <time>2017-05-11T08:05:35Z</time>
      </trkpt>
      <trkpt lat="43.13108" lon="-0.65332">
        <ele>323.62</ele>
        <time>2017-05-11T08:05:40Z</time>
      </trkpt>
      <trkpt lat="43.13115" lon="-0.65333">
        <ele>322.66</ele>
        <time>2017-05-11T08:05:42Z</time>
      </trkpt>
      <trkpt lat="43.1313" lon="-0.65321">
        <ele>321.22</ele>
        <time>2017-05-11T08:05:48Z</time>
      </trkpt>
      <trkpt lat="43.13148" lon="-0.65331">
        <ele>318.81</ele>
        <time>2017-05-11T08:05:55Z</time>
      </trkpt>
      <trkpt lat="43.13171" lon="-0.65307">
        <ele>315.93</ele>
        <time>2017-05-11T08:06:01Z</time>
      </trkpt>
      <trkpt lat="43.13174" lon="-0.65301">
        <ele>315.45</ele>
        <time>2017-05-11T08:06:02Z</time>
      </trkpt>
      <trkpt lat="43.13185" lon="-0.65279">
        <ele>314.49</ele>
        <time>2017-05-11T08:06:05Z</time>
      </trkpt>
      <trkpt lat="43.13193" lon="-0.65265">
        <ele>313.53</ele>
        <time>2017-05-11T08:06:07Z</time>
      </trkpt>
      <trkpt lat="43.13197" lon="-0.6526">
        <ele>313.05</ele>
        <time>2017-05-11T08:06:08Z</time>
      </trkpt>
      <trkpt lat="43.13212" lon="-0.65241">
        <ele>311.6</ele>
        <time>2017-05-11T08:06:11Z</time>
      </trkpt>
      <trkpt lat="43.13223" lon="-0.65231">
        <ele>309.68</ele>
        <time>2017-05-11T08:06:13Z</time>
      </trkpt>
      <trkpt lat="43.13233" lon="-0.6523">
        <ele>308.24</ele>
        <time>2017-05-11T08:06:15Z</time>
      </trkpt>
      <trkpt lat="43.13243" lon="-0.65229">
        <ele>307.76</ele>
        <time>2017-05-11T08:06:23Z</time>
      </trkpt>
      <trkpt lat="43.13242" lon="-0.65227">
        <ele>308.24</ele>
        <time>2017-05-11T08:06:50Z</time>
      </trkpt>
      <trkpt lat="43.13241" lon="-0.65228">
        <ele>307.76</ele>
        <time>2017-05-11T08:07:11Z</time>
      </trkpt>
      <trkpt lat="43.13241" lon="-0.65229">
        <ele>308.24</ele>
        <time>2017-05-11T08:07:25Z</time>
      </trkpt>
      <trkpt lat="43.13242" lon="-0.65245">
        <ele>308.24</ele>
        <time>2017-05-11T08:07:40Z</time>
      </trkpt>
      <trkpt lat="43.13243" lon="-0.6528">
        <ele>307.76</ele>
        <time>2017-05-11T08:07:49Z</time>
      </trkpt>
      <trkpt lat="43.13243" lon="-0.65328">
        <ele>307.28</ele>
        <time>2017-05-11T08:08:00Z</time>
      </trkpt>
      <trkpt lat="43.13245" lon="-0.65387">
        <ele>306.8</ele>
        <time>2017-05-11T08:08:11Z</time>
      </trkpt>
      <trkpt lat="43.1324" lon="-0.65442">
        <ele>307.76</ele>
        <time>2017-05-11T08:08:22Z</time>
      </trkpt>
      <trkpt lat="43.13235" lon="-0.6548">
        <ele>307.76</ele>
        <time>2017-05-11T08:08:31Z</time>
      </trkpt>
      <trkpt lat="43.13228" lon="-0.65502">
        <ele>308.72</ele>
        <time>2017-05-11T08:08:37Z</time>
      </trkpt>
      <trkpt lat="43.13235" lon="-0.65566">
        <ele>309.68</ele>
        <time>2017-05-11T08:08:49Z</time>
      </trkpt>
      <trkpt lat="43.13239" lon="-0.65597">
        <ele>309.68</ele>
        <time>2017-05-11T08:08:56Z</time>
      </trkpt>
      <trkpt lat="43.1324" lon="-0.65602">
        <ele>309.2</ele>
        <time>2017-05-11T08:08:57Z</time>
      </trkpt>
      <trkpt lat="43.13242" lon="-0.65607">
        <ele>309.2</ele>
        <time>2017-05-11T08:08:58Z</time>
      </trkpt>
      <trkpt lat="43.13243" lon="-0.65612">
        <ele>309.68</ele>
        <time>2017-05-11T08:08:59Z</time>
      </trkpt>
      <trkpt lat="43.13244" lon="-0.65617">
        <ele>310.16</ele>
        <time>2017-05-11T08:09:00Z</time>
      </trkpt>
      <trkpt lat="43.13246" lon="-0.65622">
        <ele>309.68</ele>
        <time>2017-05-11T08:09:01Z</time>
      </trkpt>
      <trkpt lat="43.13247" lon="-0.65626">
        <ele>309.2</ele>
        <time>2017-05-11T08:09:02Z</time>
      </trkpt>
      <trkpt lat="43.13249" lon="-0.65632">
        <ele>309.68</ele>
        <time>2017-05-11T08:09:03Z</time>
      </trkpt>
      <trkpt lat="43.13262" lon="-0.65687">
        <ele>309.68</ele>
        <time>2017-05-11T08:09:13Z</time>
      </trkpt>
      <trkpt lat="43.13271" lon="-0.65726">
        <ele>310.64</ele>
        <time>2017-05-11T08:09:20Z</time>
      </trkpt>
      <trkpt lat="43.13271" lon="-0.65731">
        <ele>310.16</ele>
        <time>2017-05-11T08:09:21Z</time>
      </trkpt>
      <trkpt lat="43.13272" lon="-0.65736">
        <ele>310.64</ele>
        <time>2017-05-11T08:09:22Z</time>
      </trkpt>
      <trkpt lat="43.13273" lon="-0.65742">
        <ele>311.12</ele>
        <time>2017-05-11T08:09:23Z</time>
      </trkpt>
      <trkpt lat="43.13274" lon="-0.65747">
        <ele>311.12</ele>
        <time>2017-05-11T08:09:24Z</time>
      </trkpt>
      <trkpt lat="43.13286" lon="-0.65785">
        <ele>311.12</ele>
        <time>2017-05-11T08:09:32Z</time>
      </trkpt>
      <trkpt lat="43.13288" lon="-0.65789">
        <ele>311.12</ele>
        <time>2017-05-11T08:09:33Z</time>
      </trkpt>
      <trkpt lat="43.13289" lon="-0.65793">
        <ele>311.6</ele>
        <time>2017-05-11T08:09:34Z</time>
      </trkpt>
      <trkpt lat="43.1329" lon="-0.65798">
        <ele>311.6</ele>
        <time>2017-05-11T08:09:35Z</time>
      </trkpt>
      <trkpt lat="43.13292" lon="-0.65804">
        <ele>311.6</ele>
        <time>2017-05-11T08:09:36Z</time>
      </trkpt>
      <trkpt lat="43.13314" lon="-0.65858">
        <ele>312.57</ele>
        <time>2017-05-11T08:09:48Z</time>
      </trkpt>
      <trkpt lat="43.13332" lon="-0.65891">
        <ele>314.01</ele>
        <time>2017-05-11T08:09:57Z</time>
      </trkpt>
      <trkpt lat="43.13361" lon="-0.65929">
        <ele>315.45</ele>
        <time>2017-05-11T08:10:09Z</time>
      </trkpt>
      <trkpt lat="43.13388" lon="-0.65969">
        <ele>316.89</ele>
        <time>2017-05-11T08:10:21Z</time>
      </trkpt>
      <trkpt lat="43.13404" lon="-0.66001">
        <ele>318.33</ele>
        <time>2017-05-11T08:10:31Z</time>
      </trkpt>
      <trkpt lat="43.13401" lon="-0.66033">
        <ele>317.85</ele>
        <time>2017-05-11T08:10:42Z</time>
      </trkpt>
      <trkpt lat="43.13396" lon="-0.66063">
        <ele>316.89</ele>
        <time>2017-05-11T08:10:49Z</time>
      </trkpt>
      <trkpt lat="43.13394" lon="-0.66066">
        <ele>316.41</ele>
        <time>2017-05-11T08:10:50Z</time>
      </trkpt>
      <trkpt lat="43.13391" lon="-0.66068">
        <ele>316.89</ele>
        <time>2017-05-11T08:10:51Z</time>
      </trkpt>
      <trkpt lat="43.13389" lon="-0.66071">
        <ele>317.37</ele>
        <time>2017-05-11T08:10:52Z</time>
      </trkpt>
      <trkpt lat="43.13386" lon="-0.66073">
        <ele>317.85</ele>
        <time>2017-05-11T08:10:53Z</time>
      </trkpt>
      <trkpt lat="43.13377" lon="-0.66106">
        <ele>320.26</ele>
        <time>2017-05-11T08:11:04Z</time>
      </trkpt>
      <trkpt lat="43.13375" lon="-0.6613">
        <ele>322.18</ele>
        <time>2017-05-11T08:11:12Z</time>
      </trkpt>
      <trkpt lat="43.13374" lon="-0.66133">
        <ele>322.18</ele>
        <time>2017-05-11T08:11:13Z</time>
      </trkpt>
      <trkpt lat="43.13374" lon="-0.66136">
        <ele>322.66</ele>
        <time>2017-05-11T08:11:14Z</time>
      </trkpt>
      <trkpt lat="43.13374" lon="-0.66138">
        <ele>322.66</ele>
        <time>2017-05-11T08:11:15Z</time>
      </trkpt>
      <trkpt lat="43.13373" lon="-0.66141">
        <ele>322.66</ele>
        <time>2017-05-11T08:11:16Z</time>
      </trkpt>
      <trkpt lat="43.13373" lon="-0.66144">
        <ele>323.14</ele>
        <time>2017-05-11T08:11:17Z</time>
      </trkpt>
      <trkpt lat="43.13372" lon="-0.66146">
        <ele>323.14</ele>
        <time>2017-05-11T08:11:18Z</time>
      </trkpt>
      <trkpt lat="43.13364" lon="-0.66184">
        <ele>325.54</ele>
        <time>2017-05-11T08:11:32Z</time>
      </trkpt>
      <trkpt lat="43.13346" lon="-0.66208">
        <ele>328.43</ele>
        <time>2017-05-11T08:11:47Z</time>
      </trkpt>
      <trkpt lat="43.13331" lon="-0.6622">
        <ele>331.31</ele>
        <time>2017-05-11T08:11:58Z</time>
      </trkpt>
      <trkpt lat="43.13321" lon="-0.66232">
        <ele>332.75</ele>
        <time>2017-05-11T08:12:07Z</time>
      </trkpt>
      <trkpt lat="43.13319" lon="-0.66233">
        <ele>333.23</ele>
        <time>2017-05-11T08:12:08Z</time>
      </trkpt>
      <trkpt lat="43.13318" lon="-0.66234">
        <ele>333.71</ele>
        <time>2017-05-11T08:12:09Z</time>
      </trkpt>
      <trkpt lat="43.13317" lon="-0.66235">
        <ele>333.71</ele>
        <time>2017-05-11T08:12:10Z</time>
      </trkpt>
      <trkpt lat="43.13316" lon="-0.66236">
        <ele>333.23</ele>
        <time>2017-05-11T08:12:11Z</time>
      </trkpt>
      <trkpt lat="43.13312" lon="-0.66239">
        <ele>334.68</ele>
        <time>2017-05-11T08:12:14Z</time>
      </trkpt>
      <trkpt lat="43.13311" lon="-0.6624">
        <ele>334.2</ele>
        <time>2017-05-11T08:12:15Z</time>
      </trkpt>
      <trkpt lat="43.1331" lon="-0.66241">
        <ele>334.68</ele>
        <time>2017-05-11T08:12:16Z</time>
      </trkpt>
      <trkpt lat="43.13309" lon="-0.66242">
        <ele>334.68</ele>
        <time>2017-05-11T08:12:17Z</time>
      </trkpt>
      <trkpt lat="43.13307" lon="-0.66243">
        <ele>335.16</ele>
        <time>2017-05-11T08:12:18Z</time>
      </trkpt>
      <trkpt lat="43.13306" lon="-0.66245">
        <ele>335.64</ele>
        <time>2017-05-11T08:12:19Z</time>
      </trkpt>
      <trkpt lat="43.13305" lon="-0.66246">
        <ele>335.64</ele>
        <time>2017-05-11T08:12:20Z</time>
      </trkpt>
      <trkpt lat="43.13304" lon="-0.66248">
        <ele>336.12</ele>
        <time>2017-05-11T08:12:21Z</time>
      </trkpt>
      <trkpt lat="43.13296" lon="-0.66257">
        <ele>337.08</ele>
        <time>2017-05-11T08:12:27Z</time>
      </trkpt>
      <trkpt lat="43.13289" lon="-0.66281">
        <ele>340.44</ele>
        <time>2017-05-11T08:12:40Z</time>
      </trkpt>
      <trkpt lat="43.13288" lon="-0.66285">
        <ele>341.41</ele>
        <time>2017-05-11T08:12:42Z</time>
      </trkpt>
      <trkpt lat="43.13288" lon="-0.66287">
        <ele>341.41</ele>
        <time>2017-05-11T08:12:43Z</time>
      </trkpt>
      <trkpt lat="43.13288" lon="-0.66288">
        <ele>341.89</ele>
        <time>2017-05-11T08:12:44Z</time>
      </trkpt>
      <trkpt lat="43.13288" lon="-0.6629">
        <ele>341.41</ele>
        <time>2017-05-11T08:12:45Z</time>
      </trkpt>
      <trkpt lat="43.13288" lon="-0.66291">
        <ele>341.89</ele>
        <time>2017-05-11T08:12:46Z</time>
      </trkpt>
      <trkpt lat="43.13287" lon="-0.66293">
        <ele>341.89</ele>
        <time>2017-05-11T08:12:47Z</time>
      </trkpt>
      <trkpt lat="43.13287" lon="-0.66294">
        <ele>342.37</ele>
        <time>2017-05-11T08:12:48Z</time>
      </trkpt>
      <trkpt lat="43.13286" lon="-0.66296">
        <ele>342.85</ele>
        <time>2017-05-11T08:12:49Z</time>
      </trkpt>
      <trkpt lat="43.13286" lon="-0.66298">
        <ele>342.85</ele>
        <time>2017-05-11T08:12:50Z</time>
      </trkpt>
      <trkpt lat="43.13286" lon="-0.66299">
        <ele>343.33</ele>
        <time>2017-05-11T08:12:51Z</time>
      </trkpt>
      <trkpt lat="43.13284" lon="-0.66307">
        <ele>344.29</ele>
        <time>2017-05-11T08:12:56Z</time>
      </trkpt>
      <trkpt lat="43.13284" lon="-0.66309">
        <ele>344.29</ele>
        <time>2017-05-11T08:12:57Z</time>
      </trkpt>
      <trkpt lat="43.13282" lon="-0.66329">
        <ele>347.65</ele>
        <time>2017-05-11T08:13:10Z</time>
      </trkpt>
      <trkpt lat="43.13281" lon="-0.66333">
        <ele>347.65</ele>
        <time>2017-05-11T08:13:13Z</time>
      </trkpt>
      <trkpt lat="43.13281" lon="-0.6635">
        <ele>350.06</ele>
        <time>2017-05-11T08:13:23Z</time>
      </trkpt>
      <trkpt lat="43.13283" lon="-0.66355">
        <ele>350.54</ele>
        <time>2017-05-11T08:13:27Z</time>
      </trkpt>
      <trkpt lat="43.13283" lon="-0.66357">
        <ele>350.54</ele>
        <time>2017-05-11T08:13:28Z</time>
      </trkpt>
      <trkpt lat="43.13284" lon="-0.66363">
        <ele>351.02</ele>
        <time>2017-05-11T08:13:32Z</time>
      </trkpt>
      <trkpt lat="43.13284" lon="-0.66364">
        <ele>351.02</ele>
        <time>2017-05-11T08:13:33Z</time>
      </trkpt>
      <trkpt lat="43.13285" lon="-0.66366">
        <ele>351.98</ele>
        <time>2017-05-11T08:13:34Z</time>
      </trkpt>
      <trkpt lat="43.13285" lon="-0.66368">
        <ele>351.5</ele>
        <time>2017-05-11T08:13:35Z</time>
      </trkpt>
      <trkpt lat="43.13286" lon="-0.6637">
        <ele>351.98</ele>
        <time>2017-05-11T08:13:36Z</time>
      </trkpt>
      <trkpt lat="43.13286" lon="-0.66371">
        <ele>351.98</ele>
        <time>2017-05-11T08:13:37Z</time>
      </trkpt>
      <trkpt lat="43.13286" lon="-0.66373">
        <ele>352.46</ele>
        <time>2017-05-11T08:13:38Z</time>
      </trkpt>
      <trkpt lat="43.13287" lon="-0.66375">
        <ele>351.98</ele>
        <time>2017-05-11T08:13:39Z</time>
      </trkpt>
      <trkpt lat="43.13287" lon="-0.66376">
        <ele>352.46</ele>
        <time>2017-05-11T08:13:40Z</time>
      </trkpt>
      <trkpt lat="43.13287" lon="-0.6638">
        <ele>352.94</ele>
        <time>2017-05-11T08:13:42Z</time>
      </trkpt>
      <trkpt lat="43.1329" lon="-0.66408">
        <ele>355.34</ele>
        <time>2017-05-11T08:13:57Z</time>
      </trkpt>
      <trkpt lat="43.13283" lon="-0.6643">
        <ele>356.79</ele>
        <time>2017-05-11T08:14:09Z</time>
      </trkpt>
      <trkpt lat="43.13283" lon="-0.66432">
        <ele>356.79</ele>
        <time>2017-05-11T08:14:10Z</time>
      </trkpt>
      <trkpt lat="43.13282" lon="-0.66434">
        <ele>357.27</ele>
        <time>2017-05-11T08:14:11Z</time>
      </trkpt>
      <trkpt lat="43.13281" lon="-0.66436">
        <ele>357.27</ele>
        <time>2017-05-11T08:14:12Z</time>
      </trkpt>
      <trkpt lat="43.1328" lon="-0.66438">
        <ele>357.75</ele>
        <time>2017-05-11T08:14:13Z</time>
      </trkpt>
      <trkpt lat="43.13279" lon="-0.66439">
        <ele>357.75</ele>
        <time>2017-05-11T08:14:14Z</time>
      </trkpt>
      <trkpt lat="43.13275" lon="-0.66446">
        <ele>358.23</ele>
        <time>2017-05-11T08:14:18Z</time>
      </trkpt>
      <trkpt lat="43.13275" lon="-0.66448">
        <ele>358.23</ele>
        <time>2017-05-11T08:14:19Z</time>
      </trkpt>
      <trkpt lat="43.13275" lon="-0.6645">
        <ele>358.71</ele>
        <time>2017-05-11T08:14:20Z</time>
      </trkpt>
      <trkpt lat="43.13274" lon="-0.66452">
        <ele>358.71</ele>
        <time>2017-05-11T08:14:21Z</time>
      </trkpt>
      <trkpt lat="43.13273" lon="-0.66454">
        <ele>358.71</ele>
        <time>2017-05-11T08:14:22Z</time>
      </trkpt>
      <trkpt lat="43.1326" lon="-0.66478">
        <ele>361.11</ele>
        <time>2017-05-11T08:14:37Z</time>
      </trkpt>
      <trkpt lat="43.13259" lon="-0.66495">
        <ele>363.52</ele>
        <time>2017-05-11T08:14:47Z</time>
      </trkpt>
      <trkpt lat="43.13259" lon="-0.66496">
        <ele>363.52</ele>
        <time>2017-05-11T08:14:48Z</time>
      </trkpt>
      <trkpt lat="43.13261" lon="-0.66498">
        <ele>364.48</ele>
        <time>2017-05-11T08:14:49Z</time>
      </trkpt>
      <trkpt lat="43.13262" lon="-0.66499">
        <ele>364</ele>
        <time>2017-05-11T08:14:50Z</time>
      </trkpt>
      <trkpt lat="43.13263" lon="-0.665">
        <ele>364.48</ele>
        <time>2017-05-11T08:14:51Z</time>
      </trkpt>
      <trkpt lat="43.13266" lon="-0.66504">
        <ele>364.96</ele>
        <time>2017-05-11T08:14:54Z</time>
      </trkpt>
      <trkpt lat="43.13267" lon="-0.66504">
        <ele>365.44</ele>
        <time>2017-05-11T08:14:55Z</time>
      </trkpt>
      <trkpt lat="43.13268" lon="-0.66504">
        <ele>365.44</ele>
        <time>2017-05-11T08:14:56Z</time>
      </trkpt>
      <trkpt lat="43.13269" lon="-0.66503">
        <ele>365.92</ele>
        <time>2017-05-11T08:14:57Z</time>
      </trkpt>
      <trkpt lat="43.1327" lon="-0.66503">
        <ele>365.92</ele>
        <time>2017-05-11T08:14:58Z</time>
      </trkpt>
      <trkpt lat="43.13271" lon="-0.66503">
        <ele>365.92</ele>
        <time>2017-05-11T08:14:59Z</time>
      </trkpt>
      <trkpt lat="43.13272" lon="-0.66502">
        <ele>366.4</ele>
        <time>2017-05-11T08:15:00Z</time>
      </trkpt>
      <trkpt lat="43.13273" lon="-0.66502">
        <ele>366.88</ele>
        <time>2017-05-11T08:15:01Z</time>
      </trkpt>
      <trkpt lat="43.13275" lon="-0.66503">
        <ele>366.88</ele>
        <time>2017-05-11T08:15:02Z</time>
      </trkpt>
      <trkpt lat="43.13276" lon="-0.66503">
        <ele>366.88</ele>
        <time>2017-05-11T08:15:03Z</time>
      </trkpt>
      <trkpt lat="43.13278" lon="-0.66503">
        <ele>366.88</ele>
        <time>2017-05-11T08:15:04Z</time>
      </trkpt>
      <trkpt lat="43.13279" lon="-0.66503">
        <ele>366.88</ele>
        <time>2017-05-11T08:15:05Z</time>
      </trkpt>
      <trkpt lat="43.13284" lon="-0.66506">
        <ele>367.36</ele>
        <time>2017-05-11T08:15:09Z</time>
      </trkpt>
      <trkpt lat="43.13285" lon="-0.66507">
        <ele>367.84</ele>
        <time>2017-05-11T08:15:10Z</time>
      </trkpt>
      <trkpt lat="43.13286" lon="-0.66509">
        <ele>367.84</ele>
        <time>2017-05-11T08:15:11Z</time>
      </trkpt>
      <trkpt lat="43.13288" lon="-0.6651">
        <ele>368.32</ele>
        <time>2017-05-11T08:15:12Z</time>
      </trkpt>
      <trkpt lat="43.13289" lon="-0.6651">
        <ele>368.32</ele>
        <time>2017-05-11T08:15:13Z</time>
      </trkpt>
      <trkpt lat="43.13291" lon="-0.66511">
        <ele>368.8</ele>
        <time>2017-05-11T08:15:14Z</time>
      </trkpt>
      <trkpt lat="43.13292" lon="-0.66512">
        <ele>368.8</ele>
        <time>2017-05-11T08:15:15Z</time>
      </trkpt>
      <trkpt lat="43.13294" lon="-0.66513">
        <ele>369.28</ele>
        <time>2017-05-11T08:15:16Z</time>
      </trkpt>
      <trkpt lat="43.13295" lon="-0.66513">
        <ele>369.28</ele>
        <time>2017-05-11T08:15:17Z</time>
      </trkpt>
      <trkpt lat="43.13296" lon="-0.66514">
        <ele>369.28</ele>
        <time>2017-05-11T08:15:18Z</time>
      </trkpt>
      <trkpt lat="43.13303" lon="-0.66518">
        <ele>370.73</ele>
        <time>2017-05-11T08:15:24Z</time>
      </trkpt>
      <trkpt lat="43.13305" lon="-0.66518">
        <ele>370.73</ele>
        <time>2017-05-11T08:15:25Z</time>
      </trkpt>
      <trkpt lat="43.13306" lon="-0.66518">
        <ele>370.73</ele>
        <time>2017-05-11T08:15:26Z</time>
      </trkpt>
      <trkpt lat="43.13307" lon="-0.66518">
        <ele>371.21</ele>
        <time>2017-05-11T08:15:27Z</time>
      </trkpt>
      <trkpt lat="43.13308" lon="-0.66519">
        <ele>371.21</ele>
        <time>2017-05-11T08:15:28Z</time>
      </trkpt>
      <trkpt lat="43.13309" lon="-0.66519">
        <ele>371.21</ele>
        <time>2017-05-11T08:15:29Z</time>
      </trkpt>
      <trkpt lat="43.1331" lon="-0.6652">
        <ele>371.69</ele>
        <time>2017-05-11T08:15:30Z</time>
      </trkpt>
      <trkpt lat="43.13311" lon="-0.66522">
        <ele>371.69</ele>
        <time>2017-05-11T08:15:31Z</time>
      </trkpt>
      <trkpt lat="43.13312" lon="-0.66523">
        <ele>371.69</ele>
        <time>2017-05-11T08:15:32Z</time>
      </trkpt>
      <trkpt lat="43.13313" lon="-0.66525">
        <ele>372.17</ele>
        <time>2017-05-11T08:15:33Z</time>
      </trkpt>
      <trkpt lat="43.13314" lon="-0.66525">
        <ele>372.17</ele>
        <time>2017-05-11T08:15:34Z</time>
      </trkpt>
      <trkpt lat="43.13315" lon="-0.66526">
        <ele>372.17</ele>
        <time>2017-05-11T08:15:35Z</time>
      </trkpt>
      <trkpt lat="43.13316" lon="-0.66526">
        <ele>372.65</ele>
        <time>2017-05-11T08:15:36Z</time>
      </trkpt>
      <trkpt lat="43.13318" lon="-0.66528">
        <ele>372.65</ele>
        <time>2017-05-11T08:15:37Z</time>
      </trkpt>
      <trkpt lat="43.1332" lon="-0.66528">
        <ele>373.13</ele>
        <time>2017-05-11T08:15:38Z</time>
      </trkpt>
      <trkpt lat="43.13321" lon="-0.66528">
        <ele>373.13</ele>
        <time>2017-05-11T08:15:39Z</time>
      </trkpt>
      <trkpt lat="43.13326" lon="-0.66533">
        <ele>374.09</ele>
        <time>2017-05-11T08:15:44Z</time>
      </trkpt>
      <trkpt lat="43.13327" lon="-0.66533">
        <ele>374.09</ele>
        <time>2017-05-11T08:15:45Z</time>
      </trkpt>
      <trkpt lat="43.13334" lon="-0.66537">
        <ele>375.53</ele>
        <time>2017-05-11T08:15:51Z</time>
      </trkpt>
      <trkpt lat="43.13335" lon="-0.66538">
        <ele>375.53</ele>
        <time>2017-05-11T08:15:52Z</time>
      </trkpt>
      <trkpt lat="43.13338" lon="-0.66538">
        <ele>376.49</ele>
        <time>2017-05-11T08:15:54Z</time>
      </trkpt>
      <trkpt lat="43.13352" lon="-0.66546">
        <ele>378.9</ele>
        <time>2017-05-11T08:16:06Z</time>
      </trkpt>
      <trkpt lat="43.13353" lon="-0.66545">
        <ele>379.38</ele>
        <time>2017-05-11T08:16:07Z</time>
      </trkpt>
      <trkpt lat="43.13355" lon="-0.66545">
        <ele>379.38</ele>
        <time>2017-05-11T08:16:08Z</time>
      </trkpt>
      <trkpt lat="43.13356" lon="-0.66545">
        <ele>378.9</ele>
        <time>2017-05-11T08:16:09Z</time>
      </trkpt>
      <trkpt lat="43.13358" lon="-0.66544">
        <ele>379.38</ele>
        <time>2017-05-11T08:16:10Z</time>
      </trkpt>
      <trkpt lat="43.13359" lon="-0.66544">
        <ele>379.38</ele>
        <time>2017-05-11T08:16:11Z</time>
      </trkpt>
      <trkpt lat="43.13376" lon="-0.66546">
        <ele>382.74</ele>
        <time>2017-05-11T08:16:25Z</time>
      </trkpt>
      <trkpt lat="43.13385" lon="-0.66549">
        <ele>384.66</ele>
        <time>2017-05-11T08:16:33Z</time>
      </trkpt>
      <trkpt lat="43.13386" lon="-0.6655">
        <ele>385.15</ele>
        <time>2017-05-11T08:16:34Z</time>
      </trkpt>
      <trkpt lat="43.13387" lon="-0.66551">
        <ele>385.15</ele>
        <time>2017-05-11T08:16:35Z</time>
      </trkpt>
      <trkpt lat="43.13398" lon="-0.66553">
        <ele>387.55</ele>
        <time>2017-05-11T08:16:44Z</time>
      </trkpt>
      <trkpt lat="43.13404" lon="-0.66554">
        <ele>388.99</ele>
        <time>2017-05-11T08:16:50Z</time>
      </trkpt>
      <trkpt lat="43.13406" lon="-0.66554">
        <ele>388.99</ele>
        <time>2017-05-11T08:16:51Z</time>
      </trkpt>
      <trkpt lat="43.13407" lon="-0.66555">
        <ele>389.47</ele>
        <time>2017-05-11T08:16:52Z</time>
      </trkpt>
      <trkpt lat="43.13419" lon="-0.66556">
        <ele>390.91</ele>
        <time>2017-05-11T08:17:02Z</time>
      </trkpt>
      <trkpt lat="43.13437" lon="-0.6656">
        <ele>393.8</ele>
        <time>2017-05-11T08:17:16Z</time>
      </trkpt>
      <trkpt lat="43.13438" lon="-0.66559">
        <ele>393.8</ele>
        <time>2017-05-11T08:17:17Z</time>
      </trkpt>
      <trkpt lat="43.1344" lon="-0.66559">
        <ele>394.28</ele>
        <time>2017-05-11T08:17:18Z</time>
      </trkpt>
      <trkpt lat="43.13459" lon="-0.66566">
        <ele>396.2</ele>
        <time>2017-05-11T08:17:33Z</time>
      </trkpt>
      <trkpt lat="43.13468" lon="-0.66572">
        <ele>397.64</ele>
        <time>2017-05-11T08:17:40Z</time>
      </trkpt>
      <trkpt lat="43.13469" lon="-0.66572">
        <ele>397.64</ele>
        <time>2017-05-11T08:17:41Z</time>
      </trkpt>
      <trkpt lat="43.1347" lon="-0.66573">
        <ele>397.64</ele>
        <time>2017-05-11T08:17:42Z</time>
      </trkpt>
      <trkpt lat="43.13472" lon="-0.66574">
        <ele>397.16</ele>
        <time>2017-05-11T08:17:43Z</time>
      </trkpt>
      <trkpt lat="43.13475" lon="-0.66575">
        <ele>396.68</ele>
        <time>2017-05-11T08:17:44Z</time>
      </trkpt>
      <trkpt lat="43.13478" lon="-0.66575">
        <ele>396.2</ele>
        <time>2017-05-11T08:17:45Z</time>
      </trkpt>
      <trkpt lat="43.13482" lon="-0.66575">
        <ele>395.72</ele>
        <time>2017-05-11T08:17:46Z</time>
      </trkpt>
      <trkpt lat="43.13485" lon="-0.66575">
        <ele>394.76</ele>
        <time>2017-05-11T08:17:47Z</time>
      </trkpt>
      <trkpt lat="43.13495" lon="-0.66576">
        <ele>394.28</ele>
        <time>2017-05-11T08:17:56Z</time>
      </trkpt>
      <trkpt lat="43.13495" lon="-0.66576">
        <ele>393.8</ele>
        <time>2017-05-11T08:18:09Z</time>
      </trkpt>
      <trkpt lat="43.13496" lon="-0.6658">
        <ele>393.8</ele>
        <time>2017-05-11T08:18:34Z</time>
      </trkpt>
      <trkpt lat="43.13498" lon="-0.66577">
        <ele>393.32</ele>
        <time>2017-05-11T08:19:05Z</time>
      </trkpt>
      <trkpt lat="43.13505" lon="-0.66583">
        <ele>392.36</ele>
        <time>2017-05-11T08:19:18Z</time>
      </trkpt>
      <trkpt lat="43.13508" lon="-0.66585">
        <ele>391.87</ele>
        <time>2017-05-11T08:19:19Z</time>
      </trkpt>
      <trkpt lat="43.13533" lon="-0.66593">
        <ele>389.47</ele>
        <time>2017-05-11T08:19:25Z</time>
      </trkpt>
      <trkpt lat="43.13537" lon="-0.66594">
        <ele>388.99</ele>
        <time>2017-05-11T08:19:26Z</time>
      </trkpt>
      <trkpt lat="43.13541" lon="-0.66595">
        <ele>388.03</ele>
        <time>2017-05-11T08:19:27Z</time>
      </trkpt>
      <trkpt lat="43.13551" lon="-0.66599">
        <ele>387.07</ele>
        <time>2017-05-11T08:19:29Z</time>
      </trkpt>
      <trkpt lat="43.13556" lon="-0.66603">
        <ele>386.59</ele>
        <time>2017-05-11T08:19:30Z</time>
      </trkpt>
      <trkpt lat="43.1356" lon="-0.66607">
        <ele>385.63</ele>
        <time>2017-05-11T08:19:31Z</time>
      </trkpt>
      <trkpt lat="43.13564" lon="-0.66613">
        <ele>385.63</ele>
        <time>2017-05-11T08:19:32Z</time>
      </trkpt>
      <trkpt lat="43.13567" lon="-0.66618">
        <ele>384.66</ele>
        <time>2017-05-11T08:19:33Z</time>
      </trkpt>
      <trkpt lat="43.13571" lon="-0.66624">
        <ele>384.18</ele>
        <time>2017-05-11T08:19:34Z</time>
      </trkpt>
      <trkpt lat="43.13574" lon="-0.6663">
        <ele>383.7</ele>
        <time>2017-05-11T08:19:35Z</time>
      </trkpt>
      <trkpt lat="43.13576" lon="-0.66637">
        <ele>383.22</ele>
        <time>2017-05-11T08:19:36Z</time>
      </trkpt>
      <trkpt lat="43.13579" lon="-0.66643">
        <ele>383.22</ele>
        <time>2017-05-11T08:19:37Z</time>
      </trkpt>
      <trkpt lat="43.13587" lon="-0.66655">
        <ele>381.78</ele>
        <time>2017-05-11T08:19:41Z</time>
      </trkpt>
      <trkpt lat="43.13587" lon="-0.66657">
        <ele>382.26</ele>
        <time>2017-05-11T08:19:42Z</time>
      </trkpt>
      <trkpt lat="43.13597" lon="-0.66691">
        <ele>383.22</ele>
        <time>2017-05-11T08:19:54Z</time>
      </trkpt>
      <trkpt lat="43.13602" lon="-0.66696">
        <ele>384.18</ele>
        <time>2017-05-11T08:19:58Z</time>
      </trkpt>
      <trkpt lat="43.13605" lon="-0.66698">
        <ele>384.66</ele>
        <time>2017-05-11T08:20:01Z</time>
      </trkpt>
      <trkpt lat="43.13611" lon="-0.66699">
        <ele>387.55</ele>
        <time>2017-05-11T08:20:11Z</time>
      </trkpt>
      <trkpt lat="43.13618" lon="-0.66698">
        <ele>388.99</ele>
        <time>2017-05-11T08:20:20Z</time>
      </trkpt>
      <trkpt lat="43.13624" lon="-0.66695">
        <ele>390.43</ele>
        <time>2017-05-11T08:20:24Z</time>
      </trkpt>
      <trkpt lat="43.13625" lon="-0.66694">
        <ele>390.91</ele>
        <time>2017-05-11T08:20:25Z</time>
      </trkpt>
      <trkpt lat="43.13626" lon="-0.66692">
        <ele>390.91</ele>
        <time>2017-05-11T08:20:26Z</time>
      </trkpt>
      <trkpt lat="43.13627" lon="-0.66691">
        <ele>391.39</ele>
        <time>2017-05-11T08:20:27Z</time>
      </trkpt>
      <trkpt lat="43.13639" lon="-0.66679">
        <ele>392.84</ele>
        <time>2017-05-11T08:20:36Z</time>
      </trkpt>
      <trkpt lat="43.1364" lon="-0.66678">
        <ele>393.32</ele>
        <time>2017-05-11T08:20:37Z</time>
      </trkpt>
      <trkpt lat="43.13645" lon="-0.66673">
        <ele>394.76</ele>
        <time>2017-05-11T08:20:41Z</time>
      </trkpt>
      <trkpt lat="43.13647" lon="-0.66671">
        <ele>394.76</ele>
        <time>2017-05-11T08:20:42Z</time>
      </trkpt>
      <trkpt lat="43.1365" lon="-0.66668">
        <ele>395.24</ele>
        <time>2017-05-11T08:20:45Z</time>
      </trkpt>
      <trkpt lat="43.13651" lon="-0.66667">
        <ele>396.2</ele>
        <time>2017-05-11T08:20:46Z</time>
      </trkpt>
      <trkpt lat="43.13656" lon="-0.66655">
        <ele>398.12</ele>
        <time>2017-05-11T08:20:56Z</time>
      </trkpt>
      <trkpt lat="43.13665" lon="-0.66644">
        <ele>401.01</ele>
        <time>2017-05-11T08:21:08Z</time>
      </trkpt>
      <trkpt lat="43.13674" lon="-0.66636">
        <ele>403.41</ele>
        <time>2017-05-11T08:21:19Z</time>
      </trkpt>
      <trkpt lat="43.13684" lon="-0.66627">
        <ele>406.29</ele>
        <time>2017-05-11T08:21:34Z</time>
      </trkpt>
      <trkpt lat="43.13693" lon="-0.66619">
        <ele>407.26</ele>
        <time>2017-05-11T08:21:44Z</time>
      </trkpt>
      <trkpt lat="43.13695" lon="-0.66616">
        <ele>407.74</ele>
        <time>2017-05-11T08:21:46Z</time>
      </trkpt>
      <trkpt lat="43.13696" lon="-0.66615">
        <ele>407.74</ele>
        <time>2017-05-11T08:21:47Z</time>
      </trkpt>
      <trkpt lat="43.13713" lon="-0.66601">
        <ele>410.14</ele>
        <time>2017-05-11T08:22:00Z</time>
      </trkpt>
      <trkpt lat="43.13719" lon="-0.6659">
        <ele>412.06</ele>
        <time>2017-05-11T08:22:10Z</time>
      </trkpt>
      <trkpt lat="43.1373" lon="-0.6658">
        <ele>415.91</ele>
        <time>2017-05-11T08:22:23Z</time>
      </trkpt>
      <trkpt lat="43.13734" lon="-0.66578">
        <ele>416.39</ele>
        <time>2017-05-11T08:22:26Z</time>
      </trkpt>
      <trkpt lat="43.13741" lon="-0.66576">
        <ele>416.87</ele>
        <time>2017-05-11T08:22:30Z</time>
      </trkpt>
      <trkpt lat="43.13746" lon="-0.66574">
        <ele>418.79</ele>
        <time>2017-05-11T08:22:36Z</time>
      </trkpt>
      <trkpt lat="43.1375" lon="-0.66571">
        <ele>420.23</ele>
        <time>2017-05-11T08:22:46Z</time>
      </trkpt>
      <trkpt lat="43.13753" lon="-0.6657">
        <ele>420.71</ele>
        <time>2017-05-11T08:22:49Z</time>
      </trkpt>
      <trkpt lat="43.13759" lon="-0.66567">
        <ele>421.19</ele>
        <time>2017-05-11T08:22:53Z</time>
      </trkpt>
      <trkpt lat="43.13767" lon="-0.66565">
        <ele>421.68</ele>
        <time>2017-05-11T08:22:58Z</time>
      </trkpt>
      <trkpt lat="43.13772" lon="-0.66561">
        <ele>423.12</ele>
        <time>2017-05-11T08:23:02Z</time>
      </trkpt>
      <trkpt lat="43.1378" lon="-0.66549">
        <ele>425.52</ele>
        <time>2017-05-11T08:23:11Z</time>
      </trkpt>
      <trkpt lat="43.13786" lon="-0.66543">
        <ele>426.96</ele>
        <time>2017-05-11T08:23:15Z</time>
      </trkpt>
      <trkpt lat="43.13789" lon="-0.66537">
        <ele>427.44</ele>
        <time>2017-05-11T08:23:18Z</time>
      </trkpt>
      <trkpt lat="43.13792" lon="-0.66532">
        <ele>427.92</ele>
        <time>2017-05-11T08:23:21Z</time>
      </trkpt>
      <trkpt lat="43.13797" lon="-0.66528">
        <ele>428.89</ele>
        <time>2017-05-11T08:23:25Z</time>
      </trkpt>
      <trkpt lat="43.13802" lon="-0.66523">
        <ele>429.37</ele>
        <time>2017-05-11T08:23:29Z</time>
      </trkpt>
      <trkpt lat="43.13803" lon="-0.6652">
        <ele>429.85</ele>
        <time>2017-05-11T08:23:31Z</time>
      </trkpt>
      <trkpt lat="43.1381" lon="-0.66508">
        <ele>431.29</ele>
        <time>2017-05-11T08:23:40Z</time>
      </trkpt>
      <trkpt lat="43.13817" lon="-0.665">
        <ele>434.17</ele>
        <time>2017-05-11T08:23:51Z</time>
      </trkpt>
      <trkpt lat="43.13828" lon="-0.66491">
        <ele>436.58</ele>
        <time>2017-05-11T08:24:02Z</time>
      </trkpt>
      <trkpt lat="43.13836" lon="-0.66487">
        <ele>438.02</ele>
        <time>2017-05-11T08:24:09Z</time>
      </trkpt>
      <trkpt lat="43.13842" lon="-0.66483">
        <ele>440.42</ele>
        <time>2017-05-11T08:24:20Z</time>
      </trkpt>
      <trkpt lat="43.13851" lon="-0.66481">
        <ele>442.82</ele>
        <time>2017-05-11T08:24:31Z</time>
      </trkpt>
      <trkpt lat="43.13861" lon="-0.6648">
        <ele>443.79</ele>
        <time>2017-05-11T08:24:37Z</time>
      </trkpt>
      <trkpt lat="43.13868" lon="-0.6648">
        <ele>445.71</ele>
        <time>2017-05-11T08:24:43Z</time>
      </trkpt>
      <trkpt lat="43.13878" lon="-0.66481">
        <ele>447.63</ele>
        <time>2017-05-11T08:24:55Z</time>
      </trkpt>
      <trkpt lat="43.13892" lon="-0.66486">
        <ele>449.07</ele>
        <time>2017-05-11T08:25:07Z</time>
      </trkpt>
      <trkpt lat="43.13908" lon="-0.66493">
        <ele>450.52</ele>
        <time>2017-05-11T08:25:18Z</time>
      </trkpt>
      <trkpt lat="43.13925" lon="-0.66496">
        <ele>451.96</ele>
        <time>2017-05-11T08:25:26Z</time>
      </trkpt>
      <trkpt lat="43.13943" lon="-0.66488">
        <ele>452.44</ele>
        <time>2017-05-11T08:25:36Z</time>
      </trkpt>
      <trkpt lat="43.13954" lon="-0.66475">
        <ele>454.36</ele>
        <time>2017-05-11T08:25:44Z</time>
      </trkpt>
      <trkpt lat="43.13963" lon="-0.66461">
        <ele>456.76</ele>
        <time>2017-05-11T08:25:54Z</time>
      </trkpt>
      <trkpt lat="43.13966" lon="-0.66444">
        <ele>458.21</ele>
        <time>2017-05-11T08:26:02Z</time>
      </trkpt>
      <trkpt lat="43.1397" lon="-0.66436">
        <ele>458.69</ele>
        <time>2017-05-11T08:26:06Z</time>
      </trkpt>
      <trkpt lat="43.1398" lon="-0.66415">
        <ele>459.65</ele>
        <time>2017-05-11T08:26:16Z</time>
      </trkpt>
      <trkpt lat="43.13989" lon="-0.66395">
        <ele>462.05</ele>
        <time>2017-05-11T08:26:29Z</time>
      </trkpt>
      <trkpt lat="43.14003" lon="-0.66366">
        <ele>463.97</ele>
        <time>2017-05-11T08:26:43Z</time>
      </trkpt>
      <trkpt lat="43.14008" lon="-0.66353">
        <ele>465.42</ele>
        <time>2017-05-11T08:26:49Z</time>
      </trkpt>
      <trkpt lat="43.14015" lon="-0.66339">
        <ele>465.9</ele>
        <time>2017-05-11T08:26:57Z</time>
      </trkpt>
      <trkpt lat="43.1402" lon="-0.66331">
        <ele>466.38</ele>
        <time>2017-05-11T08:27:01Z</time>
      </trkpt>
      <trkpt lat="43.14026" lon="-0.6632">
        <ele>467.34</ele>
        <time>2017-05-11T08:27:07Z</time>
      </trkpt>
      <trkpt lat="43.14028" lon="-0.66317">
        <ele>467.34</ele>
        <time>2017-05-11T08:27:09Z</time>
      </trkpt>
      <trkpt lat="43.14035" lon="-0.66306">
        <ele>468.78</ele>
        <time>2017-05-11T08:27:17Z</time>
      </trkpt>
      <trkpt lat="43.14039" lon="-0.66303">
        <ele>468.78</ele>
        <time>2017-05-11T08:27:28Z</time>
      </trkpt>
      <trkpt lat="43.14037" lon="-0.66302">
        <ele>468.3</ele>
        <time>2017-05-11T08:28:01Z</time>
      </trkpt>
      <trkpt lat="43.14037" lon="-0.663">
        <ele>468.3</ele>
        <time>2017-05-11T08:28:28Z</time>
      </trkpt>
      <trkpt lat="43.14036" lon="-0.66298">
        <ele>468.3</ele>
        <time>2017-05-11T08:28:30Z</time>
      </trkpt>
      <trkpt lat="43.14034" lon="-0.66285">
        <ele>466.86</ele>
        <time>2017-05-11T08:28:39Z</time>
      </trkpt>
      <trkpt lat="43.14024" lon="-0.66273">
        <ele>464.93</ele>
        <time>2017-05-11T08:29:00Z</time>
      </trkpt>
      <trkpt lat="43.14012" lon="-0.66208">
        <ele>468.3</ele>
        <time>2017-05-11T08:32:36Z</time>
      </trkpt>
      <trkpt lat="43.14014" lon="-0.66204">
        <ele>469.74</ele>
        <time>2017-05-11T08:32:47Z</time>
      </trkpt>
      <trkpt lat="43.14017" lon="-0.66194">
        <ele>470.7</ele>
        <time>2017-05-11T08:33:00Z</time>
      </trkpt>
      <trkpt lat="43.14017" lon="-0.66194">
        <ele>471.18</ele>
        <time>2017-05-11T08:33:01Z</time>
      </trkpt>
      <trkpt lat="43.14017" lon="-0.6619">
        <ele>473.11</ele>
        <time>2017-05-11T08:33:11Z</time>
      </trkpt>
      <trkpt lat="43.14018" lon="-0.66183">
        <ele>475.03</ele>
        <time>2017-05-11T08:33:20Z</time>
      </trkpt>
      <trkpt lat="43.1402" lon="-0.66173">
        <ele>476.47</ele>
        <time>2017-05-11T08:33:31Z</time>
      </trkpt>
      <trkpt lat="43.14023" lon="-0.6616">
        <ele>478.39</ele>
        <time>2017-05-11T08:33:42Z</time>
      </trkpt>
      <trkpt lat="43.14028" lon="-0.66146">
        <ele>480.32</ele>
        <time>2017-05-11T08:33:53Z</time>
      </trkpt>
      <trkpt lat="43.14028" lon="-0.66135">
        <ele>483.2</ele>
        <time>2017-05-11T08:34:08Z</time>
      </trkpt>
      <trkpt lat="43.14028" lon="-0.66131">
        <ele>484.64</ele>
        <time>2017-05-11T08:34:18Z</time>
      </trkpt>
      <trkpt lat="43.14026" lon="-0.66117">
        <ele>487.53</ele>
        <time>2017-05-11T08:34:30Z</time>
      </trkpt>
      <trkpt lat="43.14023" lon="-0.66104">
        <ele>488.01</ele>
        <time>2017-05-11T08:34:42Z</time>
      </trkpt>
      <trkpt lat="43.14025" lon="-0.66094">
        <ele>488.97</ele>
        <time>2017-05-11T08:34:56Z</time>
      </trkpt>
      <trkpt lat="43.14026" lon="-0.66085">
        <ele>490.41</ele>
        <time>2017-05-11T08:35:08Z</time>
      </trkpt>
      <trkpt lat="43.14027" lon="-0.6608">
        <ele>491.37</ele>
        <time>2017-05-11T08:35:11Z</time>
      </trkpt>
      <trkpt lat="43.14025" lon="-0.66057">
        <ele>494.26</ele>
        <time>2017-05-11T08:35:23Z</time>
      </trkpt>
      <trkpt lat="43.14027" lon="-0.66039">
        <ele>495.7</ele>
        <time>2017-05-11T08:35:33Z</time>
      </trkpt>
      <trkpt lat="43.14029" lon="-0.66036">
        <ele>496.66</ele>
        <time>2017-05-11T08:35:36Z</time>
      </trkpt>
      <trkpt lat="43.1403" lon="-0.66028">
        <ele>496.66</ele>
        <time>2017-05-11T08:35:40Z</time>
      </trkpt>
      <trkpt lat="43.14027" lon="-0.65999">
        <ele>499.06</ele>
        <time>2017-05-11T08:35:55Z</time>
      </trkpt>
      <trkpt lat="43.14028" lon="-0.65977">
        <ele>500.5</ele>
        <time>2017-05-11T08:36:04Z</time>
      </trkpt>
      <trkpt lat="43.14013" lon="-0.65943">
        <ele>500.02</ele>
        <time>2017-05-11T08:36:18Z</time>
      </trkpt>
      <trkpt lat="43.14" lon="-0.65915">
        <ele>500.02</ele>
        <time>2017-05-11T08:36:30Z</time>
      </trkpt>
      <trkpt lat="43.13992" lon="-0.65888">
        <ele>500.5</ele>
        <time>2017-05-11T08:36:41Z</time>
      </trkpt>
      <trkpt lat="43.1398" lon="-0.65873">
        <ele>500.98</ele>
        <time>2017-05-11T08:36:47Z</time>
      </trkpt>
      <trkpt lat="43.13968" lon="-0.65862">
        <ele>501.46</ele>
        <time>2017-05-11T08:36:58Z</time>
      </trkpt>
      <trkpt lat="43.13964" lon="-0.6586">
        <ele>500.98</ele>
        <time>2017-05-11T08:37:11Z</time>
      </trkpt>
      <trkpt lat="43.13959" lon="-0.65859">
        <ele>500.5</ele>
        <time>2017-05-11T08:37:15Z</time>
      </trkpt>
      <trkpt lat="43.1395" lon="-0.65853">
        <ele>500.5</ele>
        <time>2017-05-11T08:37:30Z</time>
      </trkpt>
      <trkpt lat="43.1395" lon="-0.65853">
        <ele>500.5</ele>
        <time>2017-05-11T08:37:32Z</time>
      </trkpt>
      <trkpt lat="43.13942" lon="-0.65856">
        <ele>500.5</ele>
        <time>2017-05-11T08:37:37Z</time>
      </trkpt>
      <trkpt lat="43.1393" lon="-0.65873">
        <ele>498.1</ele>
        <time>2017-05-11T08:37:44Z</time>
      </trkpt>
      <trkpt lat="43.13929" lon="-0.65878">
        <ele>497.14</ele>
        <time>2017-05-11T08:37:46Z</time>
      </trkpt>
      <trkpt lat="43.13925" lon="-0.65883">
        <ele>496.18</ele>
        <time>2017-05-11T08:37:48Z</time>
      </trkpt>
      <trkpt lat="43.13924" lon="-0.65885">
        <ele>495.7</ele>
        <time>2017-05-11T08:37:49Z</time>
      </trkpt>
      <trkpt lat="43.13904" lon="-0.65887">
        <ele>491.37</ele>
        <time>2017-05-11T08:37:55Z</time>
      </trkpt>
      <trkpt lat="43.13892" lon="-0.65895">
        <ele>487.53</ele>
        <time>2017-05-11T08:37:59Z</time>
      </trkpt>
      <trkpt lat="43.13875" lon="-0.65913">
        <ele>483.2</ele>
        <time>2017-05-11T08:38:04Z</time>
      </trkpt>
      <trkpt lat="43.1387" lon="-0.6592">
        <ele>479.84</ele>
        <time>2017-05-11T08:38:09Z</time>
      </trkpt>
      <trkpt lat="43.13864" lon="-0.65924">
        <ele>475.99</ele>
        <time>2017-05-11T08:38:13Z</time>
      </trkpt>
      <trkpt lat="43.13862" lon="-0.65928">
        <ele>475.03</ele>
        <time>2017-05-11T08:38:15Z</time>
      </trkpt>
      <trkpt lat="43.13859" lon="-0.65932">
        <ele>473.59</ele>
        <time>2017-05-11T08:38:17Z</time>
      </trkpt>
      <trkpt lat="43.13856" lon="-0.6594">
        <ele>470.22</ele>
        <time>2017-05-11T08:38:21Z</time>
      </trkpt>
      <trkpt lat="43.1385" lon="-0.65946">
        <ele>468.3</ele>
        <time>2017-05-11T08:38:24Z</time>
      </trkpt>
      <trkpt lat="43.13848" lon="-0.65952">
        <ele>466.86</ele>
        <time>2017-05-11T08:38:28Z</time>
      </trkpt>
      <trkpt lat="43.13848" lon="-0.6596">
        <ele>464.45</ele>
        <time>2017-05-11T08:38:39Z</time>
      </trkpt>
      <trkpt lat="43.13846" lon="-0.65964">
        <ele>464.45</ele>
        <time>2017-05-11T08:39:08Z</time>
      </trkpt>
      <trkpt lat="43.13846" lon="-0.65964">
        <ele>464.93</ele>
        <time>2017-05-11T08:39:37Z</time>
      </trkpt>
      <trkpt lat="43.13845" lon="-0.65964">
        <ele>464.45</ele>
        <time>2017-05-11T08:39:53Z</time>
      </trkpt>
      <trkpt lat="43.13841" lon="-0.65969">
        <ele>460.13</ele>
        <time>2017-05-11T08:39:56Z</time>
      </trkpt>
      <trkpt lat="43.13836" lon="-0.65971">
        <ele>458.69</ele>
        <time>2017-05-11T08:40:03Z</time>
      </trkpt>
      <trkpt lat="43.13831" lon="-0.65972">
        <ele>457.24</ele>
        <time>2017-05-11T08:40:06Z</time>
      </trkpt>
      <trkpt lat="43.1383" lon="-0.65973">
        <ele>456.28</ele>
        <time>2017-05-11T08:40:07Z</time>
      </trkpt>
      <trkpt lat="43.13826" lon="-0.65977">
        <ele>454.36</ele>
        <time>2017-05-11T08:40:10Z</time>
      </trkpt>
      <trkpt lat="43.13816" lon="-0.65991">
        <ele>450.03</ele>
        <time>2017-05-11T08:40:14Z</time>
      </trkpt>
      <trkpt lat="43.13809" lon="-0.66003">
        <ele>444.75</ele>
        <time>2017-05-11T08:40:20Z</time>
      </trkpt>
      <trkpt lat="43.13805" lon="-0.66008">
        <ele>442.34</ele>
        <time>2017-05-11T08:40:24Z</time>
      </trkpt>
      <trkpt lat="43.13804" lon="-0.6601">
        <ele>441.86</ele>
        <time>2017-05-11T08:40:25Z</time>
      </trkpt>
      <trkpt lat="43.13803" lon="-0.66017">
        <ele>440.9</ele>
        <time>2017-05-11T08:40:27Z</time>
      </trkpt>
      <trkpt lat="43.13804" lon="-0.6603">
        <ele>438.5</ele>
        <time>2017-05-11T08:40:30Z</time>
      </trkpt>
      <trkpt lat="43.13794" lon="-0.66045">
        <ele>434.65</ele>
        <time>2017-05-11T08:40:38Z</time>
      </trkpt>
      <trkpt lat="43.13791" lon="-0.66046">
        <ele>433.21</ele>
        <time>2017-05-11T08:40:39Z</time>
      </trkpt>
      <trkpt lat="43.13786" lon="-0.66046">
        <ele>431.77</ele>
        <time>2017-05-11T08:40:41Z</time>
      </trkpt>
      <trkpt lat="43.13781" lon="-0.66047">
        <ele>430.33</ele>
        <time>2017-05-11T08:40:43Z</time>
      </trkpt>
      <trkpt lat="43.13771" lon="-0.66056">
        <ele>426.48</ele>
        <time>2017-05-11T08:40:49Z</time>
      </trkpt>
      <trkpt lat="43.13761" lon="-0.66063">
        <ele>423.12</ele>
        <time>2017-05-11T08:40:53Z</time>
      </trkpt>
      <trkpt lat="43.13758" lon="-0.66067">
        <ele>421.68</ele>
        <time>2017-05-11T08:40:55Z</time>
      </trkpt>
      <trkpt lat="43.13755" lon="-0.66072">
        <ele>420.71</ele>
        <time>2017-05-11T08:40:57Z</time>
      </trkpt>
      <trkpt lat="43.13749" lon="-0.66091">
        <ele>416.39</ele>
        <time>2017-05-11T08:41:01Z</time>
      </trkpt>
      <trkpt lat="43.13749" lon="-0.66098">
        <ele>415.43</ele>
        <time>2017-05-11T08:41:03Z</time>
      </trkpt>
      <trkpt lat="43.1375" lon="-0.66103">
        <ele>414.47</ele>
        <time>2017-05-11T08:41:05Z</time>
      </trkpt>
      <trkpt lat="43.13745" lon="-0.66109">
        <ele>412.06</ele>
        <time>2017-05-11T08:41:09Z</time>
      </trkpt>
      <trkpt lat="43.13738" lon="-0.66113">
        <ele>409.66</ele>
        <time>2017-05-11T08:41:13Z</time>
      </trkpt>
      <trkpt lat="43.13736" lon="-0.66114">
        <ele>409.18</ele>
        <time>2017-05-11T08:41:14Z</time>
      </trkpt>
      <trkpt lat="43.13729" lon="-0.66124">
        <ele>406.77</ele>
        <time>2017-05-11T08:41:18Z</time>
      </trkpt>
      <trkpt lat="43.13727" lon="-0.66129">
        <ele>406.29</ele>
        <time>2017-05-11T08:41:20Z</time>
      </trkpt>
      <trkpt lat="43.13726" lon="-0.66131">
        <ele>405.81</ele>
        <time>2017-05-11T08:41:21Z</time>
      </trkpt>
      <trkpt lat="43.13726" lon="-0.66138">
        <ele>404.37</ele>
        <time>2017-05-11T08:41:24Z</time>
      </trkpt>
      <trkpt lat="43.13724" lon="-0.6614">
        <ele>402.93</ele>
        <time>2017-05-11T08:41:26Z</time>
      </trkpt>
      <trkpt lat="43.13733" lon="-0.66156">
        <ele>400.53</ele>
        <time>2017-05-11T08:41:35Z</time>
      </trkpt>
      <trkpt lat="43.13735" lon="-0.66159">
        <ele>400.53</ele>
        <time>2017-05-11T08:41:36Z</time>
      </trkpt>
      <trkpt lat="43.13745" lon="-0.66163">
        <ele>398.12</ele>
        <time>2017-05-11T08:41:40Z</time>
      </trkpt>
      <trkpt lat="43.13747" lon="-0.66164">
        <ele>397.64</ele>
        <time>2017-05-11T08:41:42Z</time>
      </trkpt>
      <trkpt lat="43.13745" lon="-0.6617">
        <ele>394.76</ele>
        <time>2017-05-11T08:41:45Z</time>
      </trkpt>
      <trkpt lat="43.13736" lon="-0.66179">
        <ele>393.32</ele>
        <time>2017-05-11T08:41:48Z</time>
      </trkpt>
      <trkpt lat="43.13722" lon="-0.66186">
        <ele>391.87</ele>
        <time>2017-05-11T08:41:51Z</time>
      </trkpt>
      <trkpt lat="43.13705" lon="-0.66189">
        <ele>388.99</ele>
        <time>2017-05-11T08:41:55Z</time>
      </trkpt>
      <trkpt lat="43.13695" lon="-0.66197">
        <ele>384.18</ele>
        <time>2017-05-11T08:42:00Z</time>
      </trkpt>
      <trkpt lat="43.13695" lon="-0.66197">
        <ele>384.18</ele>
        <time>2017-05-11T08:42:01Z</time>
      </trkpt>
      <trkpt lat="43.13679" lon="-0.66191">
        <ele>381.78</ele>
        <time>2017-05-11T08:42:11Z</time>
      </trkpt>
      <trkpt lat="43.13671" lon="-0.66191">
        <ele>380.82</ele>
        <time>2017-05-11T08:42:24Z</time>
      </trkpt>
      <trkpt lat="43.13657" lon="-0.66182">
        <ele>377.45</ele>
        <time>2017-05-11T08:42:32Z</time>
      </trkpt>
      <trkpt lat="43.13657" lon="-0.66182">
        <ele>377.45</ele>
        <time>2017-05-11T08:42:34Z</time>
      </trkpt>
      <trkpt lat="43.13652" lon="-0.66178">
        <ele>376.97</ele>
        <time>2017-05-11T08:42:37Z</time>
      </trkpt>
      <trkpt lat="43.13645" lon="-0.66182">
        <ele>374.09</ele>
        <time>2017-05-11T08:42:42Z</time>
      </trkpt>
      <trkpt lat="43.13648" lon="-0.66199">
        <ele>371.21</ele>
        <time>2017-05-11T08:42:47Z</time>
      </trkpt>
      <trkpt lat="43.13662" lon="-0.66222">
        <ele>367.84</ele>
        <time>2017-05-11T08:42:54Z</time>
      </trkpt>
      <trkpt lat="43.13666" lon="-0.66226">
        <ele>366.88</ele>
        <time>2017-05-11T08:42:56Z</time>
      </trkpt>
      <trkpt lat="43.13667" lon="-0.66228">
        <ele>366.4</ele>
        <time>2017-05-11T08:42:57Z</time>
      </trkpt>
      <trkpt lat="43.13663" lon="-0.66237">
        <ele>362.55</ele>
        <time>2017-05-11T08:43:01Z</time>
      </trkpt>
      <trkpt lat="43.13657" lon="-0.66242">
        <ele>359.67</ele>
        <time>2017-05-11T08:43:05Z</time>
      </trkpt>
      <trkpt lat="43.13653" lon="-0.66243">
        <ele>360.63</ele>
        <time>2017-05-11T08:43:08Z</time>
      </trkpt>
      <trkpt lat="43.13635" lon="-0.66236">
        <ele>357.27</ele>
        <time>2017-05-11T08:43:16Z</time>
      </trkpt>
      <trkpt lat="43.13617" lon="-0.66217">
        <ele>353.42</ele>
        <time>2017-05-11T08:43:25Z</time>
      </trkpt>
      <trkpt lat="43.13615" lon="-0.66215">
        <ele>352.94</ele>
        <time>2017-05-11T08:43:26Z</time>
      </trkpt>
      <trkpt lat="43.13597" lon="-0.66199">
        <ele>349.58</ele>
        <time>2017-05-11T08:43:32Z</time>
      </trkpt>
      <trkpt lat="43.13593" lon="-0.66198">
        <ele>348.62</ele>
        <time>2017-05-11T08:43:33Z</time>
      </trkpt>
      <trkpt lat="43.13584" lon="-0.6619">
        <ele>347.17</ele>
        <time>2017-05-11T08:43:35Z</time>
      </trkpt>
      <trkpt lat="43.13576" lon="-0.66182">
        <ele>345.73</ele>
        <time>2017-05-11T08:43:42Z</time>
      </trkpt>
      <trkpt lat="43.13577" lon="-0.66182">
        <ele>345.73</ele>
        <time>2017-05-11T08:43:43Z</time>
      </trkpt>
      <trkpt lat="43.13575" lon="-0.6619">
        <ele>343.33</ele>
        <time>2017-05-11T08:43:47Z</time>
      </trkpt>
      <trkpt lat="43.1357" lon="-0.66191">
        <ele>341.41</ele>
        <time>2017-05-11T08:43:50Z</time>
      </trkpt>
      <trkpt lat="43.13569" lon="-0.66189">
        <ele>340.92</ele>
        <time>2017-05-11T08:43:51Z</time>
      </trkpt>
      <trkpt lat="43.13556" lon="-0.66181">
        <ele>338.52</ele>
        <time>2017-05-11T08:43:57Z</time>
      </trkpt>
      <trkpt lat="43.1355" lon="-0.66175">
        <ele>336.12</ele>
        <time>2017-05-11T08:44:01Z</time>
      </trkpt>
      <trkpt lat="43.13544" lon="-0.66172">
        <ele>335.16</ele>
        <time>2017-05-11T08:44:03Z</time>
      </trkpt>
      <trkpt lat="43.13531" lon="-0.66175">
        <ele>332.75</ele>
        <time>2017-05-11T08:44:07Z</time>
      </trkpt>
      <trkpt lat="43.13517" lon="-0.66177">
        <ele>329.39</ele>
        <time>2017-05-11T08:44:10Z</time>
      </trkpt>
      <trkpt lat="43.13509" lon="-0.66177">
        <ele>327.95</ele>
        <time>2017-05-11T08:44:19Z</time>
      </trkpt>
      <trkpt lat="43.13504" lon="-0.66175">
        <ele>327.47</ele>
        <time>2017-05-11T08:44:32Z</time>
      </trkpt>
      <trkpt lat="43.13503" lon="-0.66174">
        <ele>326.99</ele>
        <time>2017-05-11T08:44:39Z</time>
      </trkpt>
      <trkpt lat="43.13484" lon="-0.66138">
        <ele>327.47</ele>
        <time>2017-05-11T08:44:51Z</time>
      </trkpt>
      <trkpt lat="43.13453" lon="-0.66082">
        <ele>326.5</ele>
        <time>2017-05-11T08:45:04Z</time>
      </trkpt>
      <trkpt lat="43.13442" lon="-0.66064">
        <ele>326.02</ele>
        <time>2017-05-11T08:45:08Z</time>
      </trkpt>
      <trkpt lat="43.1344" lon="-0.66059">
        <ele>326.02</ele>
        <time>2017-05-11T08:45:09Z</time>
      </trkpt>
      <trkpt lat="43.13437" lon="-0.66054">
        <ele>326.02</ele>
        <time>2017-05-11T08:45:10Z</time>
      </trkpt>
      <trkpt lat="43.13413" lon="-0.66021">
        <ele>324.58</ele>
        <time>2017-05-11T08:45:17Z</time>
      </trkpt>
      <trkpt lat="43.13403" lon="-0.66003">
        <ele>324.1</ele>
        <time>2017-05-11T08:45:20Z</time>
      </trkpt>
      <trkpt lat="43.13358" lon="-0.65926">
        <ele>321.7</ele>
        <time>2017-05-11T08:45:32Z</time>
      </trkpt>
      <trkpt lat="43.13348" lon="-0.65914">
        <ele>320.74</ele>
        <time>2017-05-11T08:45:34Z</time>
      </trkpt>
      <trkpt lat="43.13342" lon="-0.65907">
        <ele>320.26</ele>
        <time>2017-05-11T08:45:35Z</time>
      </trkpt>
      <trkpt lat="43.13327" lon="-0.65889">
        <ele>319.3</ele>
        <time>2017-05-11T08:45:38Z</time>
      </trkpt>
      <trkpt lat="43.13317" lon="-0.65876">
        <ele>319.3</ele>
        <time>2017-05-11T08:45:40Z</time>
      </trkpt>
      <trkpt lat="43.13312" lon="-0.65869">
        <ele>318.81</ele>
        <time>2017-05-11T08:45:41Z</time>
      </trkpt>
      <trkpt lat="43.13308" lon="-0.65862">
        <ele>318.81</ele>
        <time>2017-05-11T08:45:42Z</time>
      </trkpt>
      <trkpt lat="43.13304" lon="-0.65854">
        <ele>318.33</ele>
        <time>2017-05-11T08:45:43Z</time>
      </trkpt>
      <trkpt lat="43.13301" lon="-0.65846">
        <ele>317.85</ele>
        <time>2017-05-11T08:45:44Z</time>
      </trkpt>
      <trkpt lat="43.13268" lon="-0.65764">
        <ele>315.93</ele>
        <time>2017-05-11T08:45:56Z</time>
      </trkpt>
      <trkpt lat="43.13264" lon="-0.65751">
        <ele>314.49</ele>
        <time>2017-05-11T08:45:58Z</time>
      </trkpt>
      <trkpt lat="43.13257" lon="-0.65716">
        <ele>315.45</ele>
        <time>2017-05-11T08:46:04Z</time>
      </trkpt>
      <trkpt lat="43.13256" lon="-0.6571">
        <ele>314.97</ele>
        <time>2017-05-11T08:46:05Z</time>
      </trkpt>
      <trkpt lat="43.13254" lon="-0.65705">
        <ele>314.97</ele>
        <time>2017-05-11T08:46:06Z</time>
      </trkpt>
      <trkpt lat="43.13239" lon="-0.65657">
        <ele>314.97</ele>
        <time>2017-05-11T08:46:15Z</time>
      </trkpt>
      <trkpt lat="43.13223" lon="-0.65595">
        <ele>314.49</ele>
        <time>2017-05-11T08:46:26Z</time>
      </trkpt>
      <trkpt lat="43.13221" lon="-0.65589">
        <ele>314.49</ele>
        <time>2017-05-11T08:46:27Z</time>
      </trkpt>
      <trkpt lat="43.13219" lon="-0.65582">
        <ele>314.01</ele>
        <time>2017-05-11T08:46:28Z</time>
      </trkpt>
      <trkpt lat="43.13212" lon="-0.65556">
        <ele>313.53</ele>
        <time>2017-05-11T08:46:32Z</time>
      </trkpt>
      <trkpt lat="43.13212" lon="-0.6555">
        <ele>314.49</ele>
        <time>2017-05-11T08:46:33Z</time>
      </trkpt>
      <trkpt lat="43.13211" lon="-0.65544">
        <ele>314.01</ele>
        <time>2017-05-11T08:46:34Z</time>
      </trkpt>
      <trkpt lat="43.1321" lon="-0.65529">
        <ele>313.53</ele>
        <time>2017-05-11T08:46:36Z</time>
      </trkpt>
      <trkpt lat="43.13211" lon="-0.65522">
        <ele>313.05</ele>
        <time>2017-05-11T08:46:37Z</time>
      </trkpt>
      <trkpt lat="43.13212" lon="-0.65516">
        <ele>313.05</ele>
        <time>2017-05-11T08:46:38Z</time>
      </trkpt>
      <trkpt lat="43.13214" lon="-0.65509">
        <ele>313.05</ele>
        <time>2017-05-11T08:46:39Z</time>
      </trkpt>
      <trkpt lat="43.13216" lon="-0.65502">
        <ele>313.05</ele>
        <time>2017-05-11T08:46:40Z</time>
      </trkpt>
      <trkpt lat="43.13219" lon="-0.65488">
        <ele>312.57</ele>
        <time>2017-05-11T08:46:42Z</time>
      </trkpt>
      <trkpt lat="43.13221" lon="-0.6548">
        <ele>312.57</ele>
        <time>2017-05-11T08:46:43Z</time>
      </trkpt>
      <trkpt lat="43.13231" lon="-0.65433">
        <ele>311.6</ele>
        <time>2017-05-11T08:46:49Z</time>
      </trkpt>
      <trkpt lat="43.1323" lon="-0.65362">
        <ele>310.64</ele>
        <time>2017-05-11T08:46:59Z</time>
      </trkpt>
      <trkpt lat="43.1323" lon="-0.65341">
        <ele>311.12</ele>
        <time>2017-05-11T08:47:02Z</time>
      </trkpt>
      <trkpt lat="43.13231" lon="-0.65334">
        <ele>311.12</ele>
        <time>2017-05-11T08:47:03Z</time>
      </trkpt>
      <trkpt lat="43.13231" lon="-0.65328">
        <ele>311.12</ele>
        <time>2017-05-11T08:47:04Z</time>
      </trkpt>
      <trkpt lat="43.13233" lon="-0.65309">
        <ele>311.12</ele>
        <time>2017-05-11T08:47:07Z</time>
      </trkpt>
      <trkpt lat="43.13234" lon="-0.65302">
        <ele>311.6</ele>
        <time>2017-05-11T08:47:08Z</time>
      </trkpt>
      <trkpt lat="43.13235" lon="-0.65296">
        <ele>311.12</ele>
        <time>2017-05-11T08:47:09Z</time>
      </trkpt>
      <trkpt lat="43.13235" lon="-0.65289">
        <ele>311.12</ele>
        <time>2017-05-11T08:47:10Z</time>
      </trkpt>
      <trkpt lat="43.13234" lon="-0.65282">
        <ele>311.12</ele>
        <time>2017-05-11T08:47:11Z</time>
      </trkpt>
      <trkpt lat="43.13236" lon="-0.65243">
        <ele>311.6</ele>
        <time>2017-05-11T08:47:17Z</time>
      </trkpt>
      <trkpt lat="43.13238" lon="-0.65236">
        <ele>311.6</ele>
        <time>2017-05-11T08:47:18Z</time>
      </trkpt>
      <trkpt lat="43.13239" lon="-0.6523">
        <ele>311.6</ele>
        <time>2017-05-11T08:47:19Z</time>
      </trkpt>
      <trkpt lat="43.1324" lon="-0.65223">
        <ele>311.12</ele>
        <time>2017-05-11T08:47:20Z</time>
      </trkpt>
      <trkpt lat="43.13241" lon="-0.65217">
        <ele>311.12</ele>
        <time>2017-05-11T08:47:21Z</time>
      </trkpt>
      <trkpt lat="43.1326" lon="-0.65129">
        <ele>309.68</ele>
        <time>2017-05-11T08:47:34Z</time>
      </trkpt>
      <trkpt lat="43.13279" lon="-0.65014">
        <ele>306.8</ele>
        <time>2017-05-11T08:47:47Z</time>
      </trkpt>
      <trkpt lat="43.13279" lon="-0.64974">
        <ele>306.32</ele>
        <time>2017-05-11T08:47:51Z</time>
      </trkpt>
      <trkpt lat="43.13253" lon="-0.64884">
        <ele>304.39</ele>
        <time>2017-05-11T08:48:02Z</time>
      </trkpt>
      <trkpt lat="43.13251" lon="-0.64877">
        <ele>304.39</ele>
        <time>2017-05-11T08:48:03Z</time>
      </trkpt>
      <trkpt lat="43.13251" lon="-0.64871">
        <ele>304.88</ele>
        <time>2017-05-11T08:48:04Z</time>
      </trkpt>
      <trkpt lat="43.13247" lon="-0.64797">
        <ele>306.8</ele>
        <time>2017-05-11T08:48:16Z</time>
      </trkpt>
      <trkpt lat="43.13259" lon="-0.64752">
        <ele>306.32</ele>
        <time>2017-05-11T08:48:25Z</time>
      </trkpt>
      <trkpt lat="43.13273" lon="-0.64731">
        <ele>306.32</ele>
        <time>2017-05-11T08:48:30Z</time>
      </trkpt>
      <trkpt lat="43.13301" lon="-0.64708">
        <ele>306.8</ele>
        <time>2017-05-11T08:48:36Z</time>
      </trkpt>
      <trkpt lat="43.13305" lon="-0.64703">
        <ele>306.8</ele>
        <time>2017-05-11T08:48:37Z</time>
      </trkpt>
      <trkpt lat="43.13307" lon="-0.64698">
        <ele>306.32</ele>
        <time>2017-05-11T08:48:38Z</time>
      </trkpt>
      <trkpt lat="43.1331" lon="-0.64693">
        <ele>306.8</ele>
        <time>2017-05-11T08:48:39Z</time>
      </trkpt>
      <trkpt lat="43.13311" lon="-0.64687">
        <ele>306.8</ele>
        <time>2017-05-11T08:48:40Z</time>
      </trkpt>
      <trkpt lat="43.13313" lon="-0.64681">
        <ele>306.8</ele>
        <time>2017-05-11T08:48:41Z</time>
      </trkpt>
      <trkpt lat="43.1332" lon="-0.64646">
        <ele>305.84</ele>
        <time>2017-05-11T08:48:47Z</time>
      </trkpt>
      <trkpt lat="43.1332" lon="-0.64642">
        <ele>304.88</ele>
        <time>2017-05-11T08:48:48Z</time>
      </trkpt>
      <trkpt lat="43.1332" lon="-0.64638">
        <ele>304.88</ele>
        <time>2017-05-11T08:48:49Z</time>
      </trkpt>
      <trkpt lat="43.13319" lon="-0.64635">
        <ele>304.88</ele>
        <time>2017-05-11T08:48:50Z</time>
      </trkpt>
      <trkpt lat="43.13319" lon="-0.64632">
        <ele>304.88</ele>
        <time>2017-05-11T08:48:51Z</time>
      </trkpt>
      <trkpt lat="43.1332" lon="-0.64629">
        <ele>304.39</ele>
        <time>2017-05-11T08:48:52Z</time>
      </trkpt>
      <trkpt lat="43.13321" lon="-0.64627">
        <ele>304.39</ele>
        <time>2017-05-11T08:48:53Z</time>
      </trkpt>
      <trkpt lat="43.13323" lon="-0.64625">
        <ele>304.39</ele>
        <time>2017-05-11T08:48:54Z</time>
      </trkpt>
      <trkpt lat="43.13326" lon="-0.64624">
        <ele>304.39</ele>
        <time>2017-05-11T08:49:03Z</time>
      </trkpt>
      <trkpt lat="43.13328" lon="-0.64624">
        <ele>304.88</ele>
        <time>2017-05-11T08:49:14Z</time>
      </trkpt>
      <trkpt lat="43.13328" lon="-0.64624">
        <ele>303.91</ele>
        <time>2017-05-11T08:49:25Z</time>
      </trkpt>
      <trkpt lat="43.13334" lon="-0.64622">
        <ele>303.91</ele>
        <time>2017-05-11T08:49:55Z</time>
      </trkpt>
      <trkpt lat="43.13331" lon="-0.64621">
        <ele>303.91</ele>
        <time>2017-05-11T08:50:27Z</time>
      </trkpt>
      <trkpt lat="43.13332" lon="-0.64621">
        <ele>304.39</ele>
        <time>2017-05-11T08:51:03Z</time>
      </trkpt>
      <trkpt lat="43.13331" lon="-0.6462">
        <ele>304.39</ele>
        <time>2017-05-11T08:51:19Z</time>
      </trkpt>
      <trkpt lat="43.1333" lon="-0.64619">
        <ele>304.39</ele>
        <time>2017-05-11T08:51:20Z</time>
      </trkpt>
      <trkpt lat="43.13329" lon="-0.64618">
        <ele>304.88</ele>
        <time>2017-05-11T08:51:21Z</time>
      </trkpt>
      <trkpt lat="43.13329" lon="-0.64615">
        <ele>304.88</ele>
        <time>2017-05-11T08:51:22Z</time>
      </trkpt>
      <trkpt lat="43.13329" lon="-0.64613">
        <ele>304.88</ele>
        <time>2017-05-11T08:51:23Z</time>
      </trkpt>
      <trkpt lat="43.13329" lon="-0.64609">
        <ele>304.88</ele>
        <time>2017-05-11T08:51:24Z</time>
      </trkpt>
      <trkpt lat="43.13319" lon="-0.64557">
        <ele>304.39</ele>
        <time>2017-05-11T08:51:34Z</time>
      </trkpt>
      <trkpt lat="43.13316" lon="-0.64539">
        <ele>304.39</ele>
        <time>2017-05-11T08:51:37Z</time>
      </trkpt>
      <trkpt lat="43.13314" lon="-0.64533">
        <ele>303.91</ele>
        <time>2017-05-11T08:51:38Z</time>
      </trkpt>
      <trkpt lat="43.13309" lon="-0.64519">
        <ele>302.95</ele>
        <time>2017-05-11T08:51:40Z</time>
      </trkpt>
      <trkpt lat="43.13308" lon="-0.6451">
        <ele>302.95</ele>
        <time>2017-05-11T08:51:41Z</time>
      </trkpt>
      <trkpt lat="43.13305" lon="-0.64484">
        <ele>301.51</ele>
        <time>2017-05-11T08:51:44Z</time>
      </trkpt>
      <trkpt lat="43.13305" lon="-0.64464">
        <ele>300.55</ele>
        <time>2017-05-11T08:51:46Z</time>
      </trkpt>
      <trkpt lat="43.1331" lon="-0.64395">
        <ele>298.63</ele>
        <time>2017-05-11T08:51:54Z</time>
      </trkpt>
      <trkpt lat="43.13313" lon="-0.64387">
        <ele>298.63</ele>
        <time>2017-05-11T08:51:55Z</time>
      </trkpt>
      <trkpt lat="43.13319" lon="-0.64361">
        <ele>298.15</ele>
        <time>2017-05-11T08:51:58Z</time>
      </trkpt>
      <trkpt lat="43.13325" lon="-0.64323">
        <ele>298.15</ele>
        <time>2017-05-11T08:52:02Z</time>
      </trkpt>
      <trkpt lat="43.13326" lon="-0.64315">
        <ele>297.67</ele>
        <time>2017-05-11T08:52:03Z</time>
      </trkpt>
      <trkpt lat="43.13326" lon="-0.64306">
        <ele>297.67</ele>
        <time>2017-05-11T08:52:04Z</time>
      </trkpt>
      <trkpt lat="43.13322" lon="-0.64283">
        <ele>298.15</ele>
        <time>2017-05-11T08:52:07Z</time>
      </trkpt>
      <trkpt lat="43.1332" lon="-0.64277">
        <ele>298.15</ele>
        <time>2017-05-11T08:52:08Z</time>
      </trkpt>
      <trkpt lat="43.13319" lon="-0.64272">
        <ele>298.15</ele>
        <time>2017-05-11T08:52:09Z</time>
      </trkpt>
      <trkpt lat="43.13314" lon="-0.6426">
        <ele>298.63</ele>
        <time>2017-05-11T08:52:11Z</time>
      </trkpt>
      <trkpt lat="43.13313" lon="-0.64255">
        <ele>299.59</ele>
        <time>2017-05-11T08:52:12Z</time>
      </trkpt>
      <trkpt lat="43.13313" lon="-0.64249">
        <ele>299.11</ele>
        <time>2017-05-11T08:52:13Z</time>
      </trkpt>
      <trkpt lat="43.13314" lon="-0.64244">
        <ele>299.59</ele>
        <time>2017-05-11T08:52:14Z</time>
      </trkpt>
      <trkpt lat="43.13314" lon="-0.6424">
        <ele>299.59</ele>
        <time>2017-05-11T08:52:15Z</time>
      </trkpt>
      <trkpt lat="43.13317" lon="-0.64235">
        <ele>299.59</ele>
        <time>2017-05-11T08:52:16Z</time>
      </trkpt>
      <trkpt lat="43.13361" lon="-0.64191">
        <ele>300.07</ele>
        <time>2017-05-11T08:52:17Z</time>
      </trkpt>
      <trkpt lat="43.13375" lon="-0.64172">
        <ele>300.07</ele>
        <time>2017-05-11T08:52:22Z</time>
      </trkpt>
      <trkpt lat="43.13378" lon="-0.64167">
        <ele>300.07</ele>
        <time>2017-05-11T08:52:23Z</time>
      </trkpt>
      <trkpt lat="43.13388" lon="-0.64147">
        <ele>300.07</ele>
        <time>2017-05-11T08:52:27Z</time>
      </trkpt>
      <trkpt lat="43.13391" lon="-0.64141">
        <ele>300.07</ele>
        <time>2017-05-11T08:52:28Z</time>
      </trkpt>
      <trkpt lat="43.13411" lon="-0.64093">
        <ele>298.63</ele>
        <time>2017-05-11T08:52:35Z</time>
      </trkpt>
      <trkpt lat="43.13417" lon="-0.64061">
        <ele>298.63</ele>
        <time>2017-05-11T08:52:39Z</time>
      </trkpt>
      <trkpt lat="43.13421" lon="-0.64045">
        <ele>298.15</ele>
        <time>2017-05-11T08:52:41Z</time>
      </trkpt>
      <trkpt lat="43.13428" lon="-0.63999">
        <ele>297.67</ele>
        <time>2017-05-11T08:52:47Z</time>
      </trkpt>
      <trkpt lat="43.13431" lon="-0.63992">
        <ele>297.67</ele>
        <time>2017-05-11T08:52:48Z</time>
      </trkpt>
      <trkpt lat="43.13434" lon="-0.63985">
        <ele>297.67</ele>
        <time>2017-05-11T08:52:49Z</time>
      </trkpt>
      <trkpt lat="43.13441" lon="-0.63973">
        <ele>296.22</ele>
        <time>2017-05-11T08:52:51Z</time>
      </trkpt>
      <trkpt lat="43.13446" lon="-0.63967">
        <ele>296.7</ele>
        <time>2017-05-11T08:52:52Z</time>
      </trkpt>
      <trkpt lat="43.13451" lon="-0.63962">
        <ele>295.74</ele>
        <time>2017-05-11T08:52:53Z</time>
      </trkpt>
      <trkpt lat="43.13455" lon="-0.63959">
        <ele>295.74</ele>
        <time>2017-05-11T08:52:54Z</time>
      </trkpt>
      <trkpt lat="43.13461" lon="-0.63956">
        <ele>295.74</ele>
        <time>2017-05-11T08:52:55Z</time>
      </trkpt>
      <trkpt lat="43.13468" lon="-0.63955">
        <ele>294.78</ele>
        <time>2017-05-11T08:52:56Z</time>
      </trkpt>
      <trkpt lat="43.13475" lon="-0.63954">
        <ele>294.3</ele>
        <time>2017-05-11T08:52:57Z</time>
      </trkpt>
      <trkpt lat="43.13482" lon="-0.63955">
        <ele>294.78</ele>
        <time>2017-05-11T08:52:58Z</time>
      </trkpt>
      <trkpt lat="43.13488" lon="-0.63955">
        <ele>293.82</ele>
        <time>2017-05-11T08:52:59Z</time>
      </trkpt>
      <trkpt lat="43.13534" lon="-0.63963">
        <ele>293.34</ele>
        <time>2017-05-11T08:53:06Z</time>
      </trkpt>
      <trkpt lat="43.1354" lon="-0.63962">
        <ele>292.86</ele>
        <time>2017-05-11T08:53:07Z</time>
      </trkpt>
      <trkpt lat="43.13552" lon="-0.6396">
        <ele>292.86</ele>
        <time>2017-05-11T08:53:09Z</time>
      </trkpt>
      <trkpt lat="43.13558" lon="-0.63957">
        <ele>292.86</ele>
        <time>2017-05-11T08:53:10Z</time>
      </trkpt>
      <trkpt lat="43.13564" lon="-0.63954">
        <ele>292.38</ele>
        <time>2017-05-11T08:53:11Z</time>
      </trkpt>
      <trkpt lat="43.13569" lon="-0.6395">
        <ele>292.38</ele>
        <time>2017-05-11T08:53:12Z</time>
      </trkpt>
      <trkpt lat="43.13574" lon="-0.63945">
        <ele>292.38</ele>
        <time>2017-05-11T08:53:13Z</time>
      </trkpt>
      <trkpt lat="43.13578" lon="-0.63942">
        <ele>291.9</ele>
        <time>2017-05-11T08:53:14Z</time>
      </trkpt>
      <trkpt lat="43.1359" lon="-0.63936">
        <ele>290.94</ele>
        <time>2017-05-11T08:53:17Z</time>
      </trkpt>
      <trkpt lat="43.13594" lon="-0.63936">
        <ele>290.94</ele>
        <time>2017-05-11T08:53:27Z</time>
      </trkpt>
      <trkpt lat="43.13596" lon="-0.63933">
        <ele>290.94</ele>
        <time>2017-05-11T08:53:35Z</time>
      </trkpt>
      <trkpt lat="43.13597" lon="-0.6393">
        <ele>291.42</ele>
        <time>2017-05-11T08:53:36Z</time>
      </trkpt>
      <trkpt lat="43.13604" lon="-0.6389">
        <ele>290.94</ele>
        <time>2017-05-11T08:53:47Z</time>
      </trkpt>
      <trkpt lat="43.13606" lon="-0.63833">
        <ele>291.42</ele>
        <time>2017-05-11T08:53:58Z</time>
      </trkpt>
      <trkpt lat="43.13606" lon="-0.63794">
        <ele>290.94</ele>
        <time>2017-05-11T08:54:06Z</time>
      </trkpt>
      <trkpt lat="43.13606" lon="-0.63788">
        <ele>290.46</ele>
        <time>2017-05-11T08:54:07Z</time>
      </trkpt>
      <trkpt lat="43.13606" lon="-0.63783">
        <ele>290.94</ele>
        <time>2017-05-11T08:54:08Z</time>
      </trkpt>
      <trkpt lat="43.13607" lon="-0.63777">
        <ele>290.46</ele>
        <time>2017-05-11T08:54:09Z</time>
      </trkpt>
      <trkpt lat="43.13609" lon="-0.63771">
        <ele>290.94</ele>
        <time>2017-05-11T08:54:10Z</time>
      </trkpt>
      <trkpt lat="43.13612" lon="-0.63746">
        <ele>289.97</ele>
        <time>2017-05-11T08:54:14Z</time>
      </trkpt>
      <trkpt lat="43.13612" lon="-0.63726">
        <ele>289.49</ele>
        <time>2017-05-11T08:54:17Z</time>
      </trkpt>
      <trkpt lat="43.13618" lon="-0.63675">
        <ele>289.01</ele>
        <time>2017-05-11T08:54:24Z</time>
      </trkpt>
      <trkpt lat="43.13628" lon="-0.63642">
        <ele>288.53</ele>
        <time>2017-05-11T08:54:29Z</time>
      </trkpt>
      <trkpt lat="43.13632" lon="-0.63631">
        <ele>289.01</ele>
        <time>2017-05-11T08:54:31Z</time>
      </trkpt>
      <trkpt lat="43.13634" lon="-0.63624">
        <ele>289.01</ele>
        <time>2017-05-11T08:54:32Z</time>
      </trkpt>
      <trkpt lat="43.13635" lon="-0.63618">
        <ele>289.01</ele>
        <time>2017-05-11T08:54:33Z</time>
      </trkpt>
      <trkpt lat="43.13638" lon="-0.63599">
        <ele>289.01</ele>
        <time>2017-05-11T08:54:36Z</time>
      </trkpt>
      <trkpt lat="43.13636" lon="-0.63582">
        <ele>289.97</ele>
        <time>2017-05-11T08:54:39Z</time>
      </trkpt>
      <trkpt lat="43.13636" lon="-0.63576">
        <ele>289.49</ele>
        <time>2017-05-11T08:54:40Z</time>
      </trkpt>
      <trkpt lat="43.13635" lon="-0.63569">
        <ele>290.46</ele>
        <time>2017-05-11T08:54:41Z</time>
      </trkpt>
      <trkpt lat="43.13634" lon="-0.63562">
        <ele>289.49</ele>
        <time>2017-05-11T08:54:42Z</time>
      </trkpt>
      <trkpt lat="43.13633" lon="-0.63556">
        <ele>289.49</ele>
        <time>2017-05-11T08:54:43Z</time>
      </trkpt>
      <trkpt lat="43.13627" lon="-0.63527">
        <ele>289.01</ele>
        <time>2017-05-11T08:54:47Z</time>
      </trkpt>
      <trkpt lat="43.13625" lon="-0.63519">
        <ele>289.01</ele>
        <time>2017-05-11T08:54:48Z</time>
      </trkpt>
      <trkpt lat="43.13624" lon="-0.63503">
        <ele>289.01</ele>
        <time>2017-05-11T08:54:50Z</time>
      </trkpt>
      <trkpt lat="43.13625" lon="-0.63496">
        <ele>288.53</ele>
        <time>2017-05-11T08:54:51Z</time>
      </trkpt>
      <trkpt lat="43.13626" lon="-0.63489">
        <ele>287.57</ele>
        <time>2017-05-11T08:54:52Z</time>
      </trkpt>
      <trkpt lat="43.13628" lon="-0.63481">
        <ele>288.53</ele>
        <time>2017-05-11T08:54:53Z</time>
      </trkpt>
      <trkpt lat="43.13631" lon="-0.63475">
        <ele>288.05</ele>
        <time>2017-05-11T08:54:54Z</time>
      </trkpt>
      <trkpt lat="43.13636" lon="-0.63461">
        <ele>288.53</ele>
        <time>2017-05-11T08:54:56Z</time>
      </trkpt>
      <trkpt lat="43.1364" lon="-0.63449">
        <ele>288.53</ele>
        <time>2017-05-11T08:54:58Z</time>
      </trkpt>
      <trkpt lat="43.13642" lon="-0.63442">
        <ele>288.53</ele>
        <time>2017-05-11T08:54:59Z</time>
      </trkpt>
      <trkpt lat="43.13644" lon="-0.63436">
        <ele>289.49</ele>
        <time>2017-05-11T08:55:00Z</time>
      </trkpt>
      <trkpt lat="43.13645" lon="-0.63431">
        <ele>289.01</ele>
        <time>2017-05-11T08:55:01Z</time>
      </trkpt>
      <trkpt lat="43.13647" lon="-0.63426">
        <ele>289.01</ele>
        <time>2017-05-11T08:55:02Z</time>
      </trkpt>
      <trkpt lat="43.1365" lon="-0.63421">
        <ele>289.01</ele>
        <time>2017-05-11T08:55:03Z</time>
      </trkpt>
      <trkpt lat="43.13652" lon="-0.63417">
        <ele>289.49</ele>
        <time>2017-05-11T08:55:04Z</time>
      </trkpt>
      <trkpt lat="43.13655" lon="-0.63412">
        <ele>289.97</ele>
        <time>2017-05-11T08:55:05Z</time>
      </trkpt>
      <trkpt lat="43.13659" lon="-0.63407">
        <ele>289.49</ele>
        <time>2017-05-11T08:55:06Z</time>
      </trkpt>
      <trkpt lat="43.13674" lon="-0.63388">
        <ele>289.97</ele>
        <time>2017-05-11T08:55:10Z</time>
      </trkpt>
      <trkpt lat="43.13678" lon="-0.63384">
        <ele>289.97</ele>
        <time>2017-05-11T08:55:11Z</time>
      </trkpt>
      <trkpt lat="43.13681" lon="-0.6338">
        <ele>289.49</ele>
        <time>2017-05-11T08:55:12Z</time>
      </trkpt>
      <trkpt lat="43.13684" lon="-0.63377">
        <ele>289.49</ele>
        <time>2017-05-11T08:55:13Z</time>
      </trkpt>
      <trkpt lat="43.13687" lon="-0.63373">
        <ele>289.49</ele>
        <time>2017-05-11T08:55:14Z</time>
      </trkpt>
      <trkpt lat="43.1369" lon="-0.63369">
        <ele>289.49</ele>
        <time>2017-05-11T08:55:15Z</time>
      </trkpt>
      <trkpt lat="43.13694" lon="-0.63365">
        <ele>289.49</ele>
        <time>2017-05-11T08:55:16Z</time>
      </trkpt>
      <trkpt lat="43.13697" lon="-0.63361">
        <ele>289.01</ele>
        <time>2017-05-11T08:55:17Z</time>
      </trkpt>
      <trkpt lat="43.13722" lon="-0.63336">
        <ele>288.53</ele>
        <time>2017-05-11T08:55:24Z</time>
      </trkpt>
      <trkpt lat="43.1379" lon="-0.63289">
        <ele>289.01</ele>
        <time>2017-05-11T08:55:37Z</time>
      </trkpt>
      <trkpt lat="43.13827" lon="-0.63258">
        <ele>288.05</ele>
        <time>2017-05-11T08:55:45Z</time>
      </trkpt>
      <trkpt lat="43.13834" lon="-0.63247">
        <ele>287.57</ele>
        <time>2017-05-11T08:55:47Z</time>
      </trkpt>
      <trkpt lat="43.13838" lon="-0.6324">
        <ele>287.57</ele>
        <time>2017-05-11T08:55:48Z</time>
      </trkpt>
      <trkpt lat="43.13848" lon="-0.63219">
        <ele>288.05</ele>
        <time>2017-05-11T08:55:51Z</time>
      </trkpt>
      <trkpt lat="43.13853" lon="-0.63213">
        <ele>287.09</ele>
        <time>2017-05-11T08:55:52Z</time>
      </trkpt>
      <trkpt lat="43.13858" lon="-0.63208">
        <ele>287.09</ele>
        <time>2017-05-11T08:55:53Z</time>
      </trkpt>
      <trkpt lat="43.13864" lon="-0.63203">
        <ele>286.61</ele>
        <time>2017-05-11T08:55:54Z</time>
      </trkpt>
      <trkpt lat="43.1387" lon="-0.632">
        <ele>286.61</ele>
        <time>2017-05-11T08:55:55Z</time>
      </trkpt>
      <trkpt lat="43.13876" lon="-0.63198">
        <ele>286.13</ele>
        <time>2017-05-11T08:55:56Z</time>
      </trkpt>
      <trkpt lat="43.13939" lon="-0.6318">
        <ele>286.61</ele>
        <time>2017-05-11T08:56:08Z</time>
      </trkpt>
      <trkpt lat="43.13944" lon="-0.63178">
        <ele>286.61</ele>
        <time>2017-05-11T08:56:09Z</time>
      </trkpt>
      <trkpt lat="43.13993" lon="-0.63138">
        <ele>284.21</ele>
        <time>2017-05-11T08:56:18Z</time>
      </trkpt>
      <trkpt lat="43.14034" lon="-0.63119">
        <ele>282.77</ele>
        <time>2017-05-11T08:56:24Z</time>
      </trkpt>
      <trkpt lat="43.14064" lon="-0.63095">
        <ele>282.77</ele>
        <time>2017-05-11T08:56:29Z</time>
      </trkpt>
      <trkpt lat="43.14071" lon="-0.63092">
        <ele>282.77</ele>
        <time>2017-05-11T08:56:30Z</time>
      </trkpt>
      <trkpt lat="43.14077" lon="-0.63089">
        <ele>282.77</ele>
        <time>2017-05-11T08:56:31Z</time>
      </trkpt>
      <trkpt lat="43.14084" lon="-0.63087">
        <ele>282.28</ele>
        <time>2017-05-11T08:56:32Z</time>
      </trkpt>
      <trkpt lat="43.14091" lon="-0.63086">
        <ele>282.77</ele>
        <time>2017-05-11T08:56:33Z</time>
      </trkpt>
      <trkpt lat="43.14165" lon="-0.63056">
        <ele>280.84</ele>
        <time>2017-05-11T08:56:44Z</time>
      </trkpt>
      <trkpt lat="43.14172" lon="-0.63051">
        <ele>279.88</ele>
        <time>2017-05-11T08:56:45Z</time>
      </trkpt>
      <trkpt lat="43.14214" lon="-0.62999">
        <ele>279.4</ele>
        <time>2017-05-11T08:56:53Z</time>
      </trkpt>
      <trkpt lat="43.14217" lon="-0.62991">
        <ele>278.92</ele>
        <time>2017-05-11T08:56:54Z</time>
      </trkpt>
      <trkpt lat="43.1422" lon="-0.62982">
        <ele>279.4</ele>
        <time>2017-05-11T08:56:55Z</time>
      </trkpt>
      <trkpt lat="43.14246" lon="-0.62878">
        <ele>278.92</ele>
        <time>2017-05-11T08:57:08Z</time>
      </trkpt>
      <trkpt lat="43.14248" lon="-0.62871">
        <ele>278.92</ele>
        <time>2017-05-11T08:57:09Z</time>
      </trkpt>
      <trkpt lat="43.14251" lon="-0.62864">
        <ele>278.92</ele>
        <time>2017-05-11T08:57:10Z</time>
      </trkpt>
      <trkpt lat="43.14256" lon="-0.62858">
        <ele>278.44</ele>
        <time>2017-05-11T08:57:11Z</time>
      </trkpt>
      <trkpt lat="43.1426" lon="-0.62852">
        <ele>279.4</ele>
        <time>2017-05-11T08:57:12Z</time>
      </trkpt>
      <trkpt lat="43.14265" lon="-0.62846">
        <ele>278.92</ele>
        <time>2017-05-11T08:57:13Z</time>
      </trkpt>
      <trkpt lat="43.1427" lon="-0.62842">
        <ele>278.92</ele>
        <time>2017-05-11T08:57:14Z</time>
      </trkpt>
      <trkpt lat="43.14276" lon="-0.62838">
        <ele>280.84</ele>
        <time>2017-05-11T08:57:15Z</time>
      </trkpt>
      <trkpt lat="43.14281" lon="-0.62834">
        <ele>277.48</ele>
        <time>2017-05-11T08:57:16Z</time>
      </trkpt>
      <trkpt lat="43.14287" lon="-0.62831">
        <ele>277.48</ele>
        <time>2017-05-11T08:57:17Z</time>
      </trkpt>
      <trkpt lat="43.14309" lon="-0.62819">
        <ele>278.92</ele>
        <time>2017-05-11T08:57:21Z</time>
      </trkpt>
      <trkpt lat="43.14322" lon="-0.62804">
        <ele>279.4</ele>
        <time>2017-05-11T08:57:24Z</time>
      </trkpt>
      <trkpt lat="43.14326" lon="-0.62798">
        <ele>279.4</ele>
        <time>2017-05-11T08:57:25Z</time>
      </trkpt>
      <trkpt lat="43.14329" lon="-0.62792">
        <ele>280.84</ele>
        <time>2017-05-11T08:57:26Z</time>
      </trkpt>
      <trkpt lat="43.14333" lon="-0.62787">
        <ele>280.84</ele>
        <time>2017-05-11T08:57:27Z</time>
      </trkpt>
      <trkpt lat="43.14335" lon="-0.62781">
        <ele>280.36</ele>
        <time>2017-05-11T08:57:28Z</time>
      </trkpt>
      <trkpt lat="43.14337" lon="-0.62776">
        <ele>281.32</ele>
        <time>2017-05-11T08:57:29Z</time>
      </trkpt>
      <trkpt lat="43.1434" lon="-0.62772">
        <ele>281.32</ele>
        <time>2017-05-11T08:57:30Z</time>
      </trkpt>
      <trkpt lat="43.14342" lon="-0.62768">
        <ele>282.28</ele>
        <time>2017-05-11T08:57:31Z</time>
      </trkpt>
      <trkpt lat="43.14345" lon="-0.62765">
        <ele>282.28</ele>
        <time>2017-05-11T08:57:32Z</time>
      </trkpt>
      <trkpt lat="43.14374" lon="-0.62738">
        <ele>284.21</ele>
        <time>2017-05-11T08:57:41Z</time>
      </trkpt>
      <trkpt lat="43.14377" lon="-0.62735">
        <ele>284.21</ele>
        <time>2017-05-11T08:57:42Z</time>
      </trkpt>
      <trkpt lat="43.14381" lon="-0.62729">
        <ele>284.69</ele>
        <time>2017-05-11T08:57:44Z</time>
      </trkpt>
      <trkpt lat="43.14401" lon="-0.62689">
        <ele>287.09</ele>
        <time>2017-05-11T08:57:55Z</time>
      </trkpt>
      <trkpt lat="43.14418" lon="-0.62665">
        <ele>288.53</ele>
        <time>2017-05-11T08:58:02Z</time>
      </trkpt>
      <trkpt lat="43.14419" lon="-0.62661">
        <ele>288.53</ele>
        <time>2017-05-11T08:58:03Z</time>
      </trkpt>
      <trkpt lat="43.1444" lon="-0.62605">
        <ele>289.97</ele>
        <time>2017-05-11T08:58:15Z</time>
      </trkpt>
      <trkpt lat="43.1448" lon="-0.62578">
        <ele>291.42</ele>
        <time>2017-05-11T08:58:25Z</time>
      </trkpt>
      <trkpt lat="43.14517" lon="-0.6256">
        <ele>291.42</ele>
        <time>2017-05-11T08:58:35Z</time>
      </trkpt>
      <trkpt lat="43.14556" lon="-0.62546">
        <ele>290.46</ele>
        <time>2017-05-11T08:58:43Z</time>
      </trkpt>
      <trkpt lat="43.14582" lon="-0.62539">
        <ele>288.53</ele>
        <time>2017-05-11T08:58:47Z</time>
      </trkpt>
      <trkpt lat="43.14597" lon="-0.62535">
        <ele>287.09</ele>
        <time>2017-05-11T08:58:49Z</time>
      </trkpt>
      <trkpt lat="43.14605" lon="-0.62533">
        <ele>286.13</ele>
        <time>2017-05-11T08:58:50Z</time>
      </trkpt>
      <trkpt lat="43.14658" lon="-0.62517">
        <ele>283.73</ele>
        <time>2017-05-11T08:58:56Z</time>
      </trkpt>
      <trkpt lat="43.14667" lon="-0.62511">
        <ele>283.25</ele>
        <time>2017-05-11T08:58:57Z</time>
      </trkpt>
      <trkpt lat="43.14674" lon="-0.62503">
        <ele>282.77</ele>
        <time>2017-05-11T08:58:58Z</time>
      </trkpt>
      <trkpt lat="43.14679" lon="-0.62492">
        <ele>282.28</ele>
        <time>2017-05-11T08:58:59Z</time>
      </trkpt>
      <trkpt lat="43.14681" lon="-0.6248">
        <ele>281.32</ele>
        <time>2017-05-11T08:59:00Z</time>
      </trkpt>
      <trkpt lat="43.1468" lon="-0.62468">
        <ele>281.32</ele>
        <time>2017-05-11T08:59:01Z</time>
      </trkpt>
      <trkpt lat="43.14678" lon="-0.62456">
        <ele>280.36</ele>
        <time>2017-05-11T08:59:02Z</time>
      </trkpt>
      <trkpt lat="43.14674" lon="-0.62444">
        <ele>279.4</ele>
        <time>2017-05-11T08:59:03Z</time>
      </trkpt>
      <trkpt lat="43.1467" lon="-0.62433">
        <ele>279.4</ele>
        <time>2017-05-11T08:59:04Z</time>
      </trkpt>
      <trkpt lat="43.14665" lon="-0.62423">
        <ele>279.4</ele>
        <time>2017-05-11T08:59:05Z</time>
      </trkpt>
      <trkpt lat="43.14659" lon="-0.62412">
        <ele>278.44</ele>
        <time>2017-05-11T08:59:06Z</time>
      </trkpt>
      <trkpt lat="43.14636" lon="-0.62372">
        <ele>277.48</ele>
        <time>2017-05-11T08:59:10Z</time>
      </trkpt>
      <trkpt lat="43.14635" lon="-0.62363">
        <ele>277</ele>
        <time>2017-05-11T08:59:11Z</time>
      </trkpt>
      <trkpt lat="43.14636" lon="-0.62355">
        <ele>276.52</ele>
        <time>2017-05-11T08:59:12Z</time>
      </trkpt>
      <trkpt lat="43.1464" lon="-0.62348">
        <ele>275.07</ele>
        <time>2017-05-11T08:59:13Z</time>
      </trkpt>
      <trkpt lat="43.14646" lon="-0.62344">
        <ele>273.15</ele>
        <time>2017-05-11T08:59:14Z</time>
      </trkpt>
      <trkpt lat="43.14653" lon="-0.62343">
        <ele>273.63</ele>
        <time>2017-05-11T08:59:15Z</time>
      </trkpt>
      <trkpt lat="43.1466" lon="-0.62344">
        <ele>273.63</ele>
        <time>2017-05-11T08:59:16Z</time>
      </trkpt>
      <trkpt lat="43.14667" lon="-0.62347">
        <ele>274.11</ele>
        <time>2017-05-11T08:59:17Z</time>
      </trkpt>
      <trkpt lat="43.14759" lon="-0.62391">
        <ele>274.11</ele>
        <time>2017-05-11T08:59:32Z</time>
      </trkpt>
      <trkpt lat="43.14765" lon="-0.62394">
        <ele>274.11</ele>
        <time>2017-05-11T08:59:33Z</time>
      </trkpt>
      <trkpt lat="43.14776" lon="-0.624">
        <ele>274.59</ele>
        <time>2017-05-11T08:59:35Z</time>
      </trkpt>
      <trkpt lat="43.14848" lon="-0.62435">
        <ele>275.56</ele>
        <time>2017-05-11T08:59:49Z</time>
      </trkpt>
      <trkpt lat="43.14858" lon="-0.62438">
        <ele>275.56</ele>
        <time>2017-05-11T08:59:51Z</time>
      </trkpt>
      <trkpt lat="43.14863" lon="-0.62439">
        <ele>275.56</ele>
        <time>2017-05-11T08:59:52Z</time>
      </trkpt>
      <trkpt lat="43.14868" lon="-0.62439">
        <ele>276.04</ele>
        <time>2017-05-11T08:59:53Z</time>
      </trkpt>
      <trkpt lat="43.14878" lon="-0.62437">
        <ele>276.04</ele>
        <time>2017-05-11T08:59:55Z</time>
      </trkpt>
      <trkpt lat="43.14882" lon="-0.62436">
        <ele>276.04</ele>
        <time>2017-05-11T08:59:56Z</time>
      </trkpt>
      <trkpt lat="43.14896" lon="-0.62428">
        <ele>275.56</ele>
        <time>2017-05-11T09:00:00Z</time>
      </trkpt>
      <trkpt lat="43.14898" lon="-0.62432">
        <ele>275.56</ele>
        <time>2017-05-11T09:00:01Z</time>
      </trkpt>
      <trkpt lat="43.149" lon="-0.62439">
        <ele>274.59</ele>
        <time>2017-05-11T09:00:03Z</time>
      </trkpt>
      <trkpt lat="43.14901" lon="-0.62445">
        <ele>274.11</ele>
        <time>2017-05-11T09:00:04Z</time>
      </trkpt>
      <trkpt lat="43.14902" lon="-0.62453">
        <ele>272.67</ele>
        <time>2017-05-11T09:00:05Z</time>
      </trkpt>
      <trkpt lat="43.14902" lon="-0.62463">
        <ele>271.71</ele>
        <time>2017-05-11T09:00:06Z</time>
      </trkpt>
      <trkpt lat="43.14904" lon="-0.62473">
        <ele>271.71</ele>
        <time>2017-05-11T09:00:07Z</time>
      </trkpt>
      <trkpt lat="43.14906" lon="-0.62483">
        <ele>271.71</ele>
        <time>2017-05-11T09:00:08Z</time>
      </trkpt>
      <trkpt lat="43.14909" lon="-0.62492">
        <ele>271.23</ele>
        <time>2017-05-11T09:00:09Z</time>
      </trkpt>
      <trkpt lat="43.14912" lon="-0.625">
        <ele>271.23</ele>
        <time>2017-05-11T09:00:10Z</time>
      </trkpt>
      <trkpt lat="43.14916" lon="-0.62507">
        <ele>270.75</ele>
        <time>2017-05-11T09:00:11Z</time>
      </trkpt>
      <trkpt lat="43.1492" lon="-0.62514">
        <ele>270.75</ele>
        <time>2017-05-11T09:00:12Z</time>
      </trkpt>
      <trkpt lat="43.14925" lon="-0.6252">
        <ele>271.23</ele>
        <time>2017-05-11T09:00:13Z</time>
      </trkpt>
      <trkpt lat="43.1493" lon="-0.62525">
        <ele>270.75</ele>
        <time>2017-05-11T09:00:14Z</time>
      </trkpt>
      <trkpt lat="43.14934" lon="-0.6253">
        <ele>270.27</ele>
        <time>2017-05-11T09:00:15Z</time>
      </trkpt>
      <trkpt lat="43.1494" lon="-0.62555">
        <ele>270.27</ele>
        <time>2017-05-11T09:00:20Z</time>
      </trkpt>
      <trkpt lat="43.1494" lon="-0.62562">
        <ele>269.79</ele>
        <time>2017-05-11T09:00:21Z</time>
      </trkpt>
      <trkpt lat="43.14939" lon="-0.62569">
        <ele>269.31</ele>
        <time>2017-05-11T09:00:22Z</time>
      </trkpt>
      <trkpt lat="43.14939" lon="-0.62575">
        <ele>269.79</ele>
        <time>2017-05-11T09:00:23Z</time>
      </trkpt>
      <trkpt lat="43.1494" lon="-0.62581">
        <ele>269.79</ele>
        <time>2017-05-11T09:00:24Z</time>
      </trkpt>
      <trkpt lat="43.14947" lon="-0.62605">
        <ele>271.71</ele>
        <time>2017-05-11T09:00:29Z</time>
      </trkpt>
      <trkpt lat="43.14963" lon="-0.6262">
        <ele>271.23</ele>
        <time>2017-05-11T09:00:37Z</time>
      </trkpt>
      <trkpt lat="43.14978" lon="-0.62652">
        <ele>274.59</ele>
        <time>2017-05-11T09:00:48Z</time>
      </trkpt>
      <trkpt lat="43.14987" lon="-0.6269">
        <ele>276.52</ele>
        <time>2017-05-11T09:01:01Z</time>
      </trkpt>
      <trkpt lat="43.15009" lon="-0.62734">
        <ele>279.4</ele>
        <time>2017-05-11T09:01:16Z</time>
      </trkpt>
      <trkpt lat="43.15037" lon="-0.62769">
        <ele>281.8</ele>
        <time>2017-05-11T09:01:30Z</time>
      </trkpt>
      <trkpt lat="43.15053" lon="-0.628">
        <ele>282.28</ele>
        <time>2017-05-11T09:01:41Z</time>
      </trkpt>
      <trkpt lat="43.15062" lon="-0.6282">
        <ele>283.73</ele>
        <time>2017-05-11T09:01:48Z</time>
      </trkpt>
      <trkpt lat="43.15076" lon="-0.62832">
        <ele>285.65</ele>
        <time>2017-05-11T09:01:55Z</time>
      </trkpt>
      <trkpt lat="43.15103" lon="-0.62876">
        <ele>288.53</ele>
        <time>2017-05-11T09:02:11Z</time>
      </trkpt>
      <trkpt lat="43.15132" lon="-0.62909">
        <ele>290.94</ele>
        <time>2017-05-11T09:02:26Z</time>
      </trkpt>
      <trkpt lat="43.15164" lon="-0.62942">
        <ele>292.86</ele>
        <time>2017-05-11T09:02:41Z</time>
      </trkpt>
      <trkpt lat="43.15196" lon="-0.62975">
        <ele>292.86</ele>
        <time>2017-05-11T09:02:55Z</time>
      </trkpt>
      <trkpt lat="43.15237" lon="-0.6301">
        <ele>291.9</ele>
        <time>2017-05-11T09:03:09Z</time>
      </trkpt>
      <trkpt lat="43.15257" lon="-0.63024">
        <ele>291.42</ele>
        <time>2017-05-11T09:03:15Z</time>
      </trkpt>
      <trkpt lat="43.1526" lon="-0.63026">
        <ele>291.42</ele>
        <time>2017-05-11T09:03:16Z</time>
      </trkpt>
      <trkpt lat="43.15305" lon="-0.63053">
        <ele>292.38</ele>
        <time>2017-05-11T09:03:31Z</time>
      </trkpt>
      <trkpt lat="43.15333" lon="-0.6307">
        <ele>294.78</ele>
        <time>2017-05-11T09:03:43Z</time>
      </trkpt>
      <trkpt lat="43.15334" lon="-0.63073">
        <ele>295.74</ele>
        <time>2017-05-11T09:03:44Z</time>
      </trkpt>
      <trkpt lat="43.15335" lon="-0.63076">
        <ele>296.22</ele>
        <time>2017-05-11T09:03:45Z</time>
      </trkpt>
      <trkpt lat="43.15336" lon="-0.63079">
        <ele>296.22</ele>
        <time>2017-05-11T09:03:46Z</time>
      </trkpt>
      <trkpt lat="43.15338" lon="-0.63082">
        <ele>295.74</ele>
        <time>2017-05-11T09:03:47Z</time>
      </trkpt>
      <trkpt lat="43.15355" lon="-0.63109">
        <ele>299.59</ele>
        <time>2017-05-11T09:03:58Z</time>
      </trkpt>
      <trkpt lat="43.15369" lon="-0.63126">
        <ele>301.51</ele>
        <time>2017-05-11T09:04:08Z</time>
      </trkpt>
      <trkpt lat="43.15371" lon="-0.63126">
        <ele>301.99</ele>
        <time>2017-05-11T09:04:09Z</time>
      </trkpt>
      <trkpt lat="43.15372" lon="-0.63126">
        <ele>301.99</ele>
        <time>2017-05-11T09:04:10Z</time>
      </trkpt>
      <trkpt lat="43.15374" lon="-0.63126">
        <ele>302.47</ele>
        <time>2017-05-11T09:04:11Z</time>
      </trkpt>
      <trkpt lat="43.15375" lon="-0.63126">
        <ele>302.47</ele>
        <time>2017-05-11T09:04:12Z</time>
      </trkpt>
      <trkpt lat="43.15377" lon="-0.63126">
        <ele>302.95</ele>
        <time>2017-05-11T09:04:13Z</time>
      </trkpt>
      <trkpt lat="43.15378" lon="-0.63124">
        <ele>302.47</ele>
        <time>2017-05-11T09:04:14Z</time>
      </trkpt>
      <trkpt lat="43.15378" lon="-0.63122">
        <ele>302.95</ele>
        <time>2017-05-11T09:04:15Z</time>
      </trkpt>
      <trkpt lat="43.15378" lon="-0.6312">
        <ele>302.95</ele>
        <time>2017-05-11T09:04:16Z</time>
      </trkpt>
      <trkpt lat="43.15377" lon="-0.63118">
        <ele>302.95</ele>
        <time>2017-05-11T09:04:17Z</time>
      </trkpt>
      <trkpt lat="43.15377" lon="-0.63114">
        <ele>302.47</ele>
        <time>2017-05-11T09:04:18Z</time>
      </trkpt>
      <trkpt lat="43.15377" lon="-0.63109">
        <ele>302.95</ele>
        <time>2017-05-11T09:04:19Z</time>
      </trkpt>
      <trkpt lat="43.15379" lon="-0.63102">
        <ele>301.51</ele>
        <time>2017-05-11T09:04:21Z</time>
      </trkpt>
      <trkpt lat="43.15382" lon="-0.63099">
        <ele>301.51</ele>
        <time>2017-05-11T09:04:22Z</time>
      </trkpt>
      <trkpt lat="43.15384" lon="-0.63097">
        <ele>301.51</ele>
        <time>2017-05-11T09:04:23Z</time>
      </trkpt>
      <trkpt lat="43.15386" lon="-0.63095">
        <ele>301.51</ele>
        <time>2017-05-11T09:04:24Z</time>
      </trkpt>
      <trkpt lat="43.15387" lon="-0.63092">
        <ele>301.99</ele>
        <time>2017-05-11T09:04:25Z</time>
      </trkpt>
      <trkpt lat="43.15388" lon="-0.63089">
        <ele>301.99</ele>
        <time>2017-05-11T09:04:26Z</time>
      </trkpt>
      <trkpt lat="43.15389" lon="-0.63086">
        <ele>301.99</ele>
        <time>2017-05-11T09:04:29Z</time>
      </trkpt>
      <trkpt lat="43.15391" lon="-0.63085">
        <ele>302.47</ele>
        <time>2017-05-11T09:04:30Z</time>
      </trkpt>
      <trkpt lat="43.15392" lon="-0.63083">
        <ele>302.47</ele>
        <time>2017-05-11T09:04:31Z</time>
      </trkpt>
      <trkpt lat="43.15392" lon="-0.63079">
        <ele>301.51</ele>
        <time>2017-05-11T09:04:32Z</time>
      </trkpt>
      <trkpt lat="43.15393" lon="-0.63075">
        <ele>301.51</ele>
        <time>2017-05-11T09:04:33Z</time>
      </trkpt>
      <trkpt lat="43.15393" lon="-0.63072">
        <ele>301.99</ele>
        <time>2017-05-11T09:04:34Z</time>
      </trkpt>
      <trkpt lat="43.15392" lon="-0.63068">
        <ele>301.99</ele>
        <time>2017-05-11T09:04:35Z</time>
      </trkpt>
      <trkpt lat="43.15393" lon="-0.63061">
        <ele>301.03</ele>
        <time>2017-05-11T09:04:36Z</time>
      </trkpt>
      <trkpt lat="43.15394" lon="-0.63057">
        <ele>300.55</ele>
        <time>2017-05-11T09:04:37Z</time>
      </trkpt>
      <trkpt lat="43.15396" lon="-0.63054">
        <ele>301.03</ele>
        <time>2017-05-11T09:04:38Z</time>
      </trkpt>
      <trkpt lat="43.15398" lon="-0.63051">
        <ele>300.55</ele>
        <time>2017-05-11T09:04:39Z</time>
      </trkpt>
      <trkpt lat="43.15403" lon="-0.63044">
        <ele>300.55</ele>
        <time>2017-05-11T09:04:41Z</time>
      </trkpt>
      <trkpt lat="43.15405" lon="-0.63042">
        <ele>300.55</ele>
        <time>2017-05-11T09:04:42Z</time>
      </trkpt>
      <trkpt lat="43.15411" lon="-0.63036">
        <ele>300.07</ele>
        <time>2017-05-11T09:04:44Z</time>
      </trkpt>
      <trkpt lat="43.15417" lon="-0.63013">
        <ele>298.63</ele>
        <time>2017-05-11T09:04:49Z</time>
      </trkpt>
      <trkpt lat="43.15423" lon="-0.62996">
        <ele>295.74</ele>
        <time>2017-05-11T09:04:53Z</time>
      </trkpt>
      <trkpt lat="43.15426" lon="-0.62991">
        <ele>294.78</ele>
        <time>2017-05-11T09:04:54Z</time>
      </trkpt>
      <trkpt lat="43.15427" lon="-0.62989">
        <ele>294.78</ele>
        <time>2017-05-11T09:04:55Z</time>
      </trkpt>
      <trkpt lat="43.15429" lon="-0.62971">
        <ele>292.38</ele>
        <time>2017-05-11T09:04:58Z</time>
      </trkpt>
      <trkpt lat="43.15425" lon="-0.62958">
        <ele>293.34</ele>
        <time>2017-05-11T09:05:02Z</time>
      </trkpt>
      <trkpt lat="43.15417" lon="-0.62929">
        <ele>293.34</ele>
        <time>2017-05-11T09:05:10Z</time>
      </trkpt>
      <trkpt lat="43.15411" lon="-0.62904">
        <ele>290.94</ele>
        <time>2017-05-11T09:05:16Z</time>
      </trkpt>
      <trkpt lat="43.15415" lon="-0.62882">
        <ele>286.13</ele>
        <time>2017-05-11T09:05:22Z</time>
      </trkpt>
      <trkpt lat="43.15417" lon="-0.62874">
        <ele>285.65</ele>
        <time>2017-05-11T09:05:24Z</time>
      </trkpt>
      <trkpt lat="43.15414" lon="-0.62865">
        <ele>286.61</ele>
        <time>2017-05-11T09:05:26Z</time>
      </trkpt>
      <trkpt lat="43.15418" lon="-0.62832">
        <ele>285.65</ele>
        <time>2017-05-11T09:05:34Z</time>
      </trkpt>
      <trkpt lat="43.15426" lon="-0.62812">
        <ele>282.77</ele>
        <time>2017-05-11T09:05:39Z</time>
      </trkpt>
      <trkpt lat="43.15433" lon="-0.628">
        <ele>281.32</ele>
        <time>2017-05-11T09:05:42Z</time>
      </trkpt>
      <trkpt lat="43.15448" lon="-0.62766">
        <ele>277</ele>
        <time>2017-05-11T09:05:52Z</time>
      </trkpt>
      <trkpt lat="43.15448" lon="-0.62753">
        <ele>275.56</ele>
        <time>2017-05-11T09:05:56Z</time>
      </trkpt>
      <trkpt lat="43.15452" lon="-0.62724">
        <ele>274.11</ele>
        <time>2017-05-11T09:06:03Z</time>
      </trkpt>
      <trkpt lat="43.15454" lon="-0.6269">
        <ele>272.67</ele>
        <time>2017-05-11T09:06:12Z</time>
      </trkpt>
      <trkpt lat="43.15455" lon="-0.6268">
        <ele>272.19</ele>
        <time>2017-05-11T09:06:15Z</time>
      </trkpt>
      <trkpt lat="43.15449" lon="-0.62664">
        <ele>272.19</ele>
        <time>2017-05-11T09:06:19Z</time>
      </trkpt>
      <trkpt lat="43.15448" lon="-0.6263">
        <ele>270.75</ele>
        <time>2017-05-11T09:06:28Z</time>
      </trkpt>
      <trkpt lat="43.15445" lon="-0.62615">
        <ele>270.75</ele>
        <time>2017-05-11T09:06:32Z</time>
      </trkpt>
      <trkpt lat="43.15443" lon="-0.62588">
        <ele>269.79</ele>
        <time>2017-05-11T09:06:39Z</time>
      </trkpt>
      <trkpt lat="43.15455" lon="-0.62578">
        <ele>269.79</ele>
        <time>2017-05-11T09:06:47Z</time>
      </trkpt>
      <trkpt lat="43.15475" lon="-0.62564">
        <ele>268.35</ele>
        <time>2017-05-11T09:07:03Z</time>
      </trkpt>
      <trkpt lat="43.15484" lon="-0.62559">
        <ele>268.35</ele>
        <time>2017-05-11T09:07:28Z</time>
      </trkpt>
      <trkpt lat="43.15485" lon="-0.6256">
        <ele>268.35</ele>
        <time>2017-05-11T09:07:30Z</time>
      </trkpt>
      <trkpt lat="43.15489" lon="-0.62568">
        <ele>269.31</ele>
        <time>2017-05-11T09:07:36Z</time>
      </trkpt>
      <trkpt lat="43.15494" lon="-0.62573">
        <ele>270.27</ele>
        <time>2017-05-11T09:07:40Z</time>
      </trkpt>
      <trkpt lat="43.15501" lon="-0.62605">
        <ele>272.67</ele>
        <time>2017-05-11T09:07:52Z</time>
      </trkpt>
      <trkpt lat="43.15501" lon="-0.62618">
        <ele>273.15</ele>
        <time>2017-05-11T09:07:56Z</time>
      </trkpt>
      <trkpt lat="43.15504" lon="-0.62646">
        <ele>275.56</ele>
        <time>2017-05-11T09:08:07Z</time>
      </trkpt>
      <trkpt lat="43.15505" lon="-0.62665">
        <ele>277</ele>
        <time>2017-05-11T09:08:13Z</time>
      </trkpt>
      <trkpt lat="43.15505" lon="-0.6268">
        <ele>277.96</ele>
        <time>2017-05-11T09:08:19Z</time>
      </trkpt>
      <trkpt lat="43.15507" lon="-0.62693">
        <ele>279.4</ele>
        <time>2017-05-11T09:08:24Z</time>
      </trkpt>
      <trkpt lat="43.1551" lon="-0.62706">
        <ele>279.88</ele>
        <time>2017-05-11T09:08:30Z</time>
      </trkpt>
      <trkpt lat="43.1551" lon="-0.62739">
        <ele>281.8</ele>
        <time>2017-05-11T09:08:41Z</time>
      </trkpt>
      <trkpt lat="43.15512" lon="-0.62757">
        <ele>282.77</ele>
        <time>2017-05-11T09:08:48Z</time>
      </trkpt>
      <trkpt lat="43.15514" lon="-0.62777">
        <ele>284.69</ele>
        <time>2017-05-11T09:08:56Z</time>
      </trkpt>
      <trkpt lat="43.15515" lon="-0.62781">
        <ele>285.17</ele>
        <time>2017-05-11T09:08:58Z</time>
      </trkpt>
      <trkpt lat="43.15513" lon="-0.62813">
        <ele>283.73</ele>
        <time>2017-05-11T09:09:08Z</time>
      </trkpt>
      <trkpt lat="43.15523" lon="-0.6284">
        <ele>284.69</ele>
        <time>2017-05-11T09:09:16Z</time>
      </trkpt>
      <trkpt lat="43.15527" lon="-0.62846">
        <ele>285.17</ele>
        <time>2017-05-11T09:09:18Z</time>
      </trkpt>
      <trkpt lat="43.15537" lon="-0.62858">
        <ele>286.13</ele>
        <time>2017-05-11T09:09:24Z</time>
      </trkpt>
      <trkpt lat="43.1554" lon="-0.62861">
        <ele>286.61</ele>
        <time>2017-05-11T09:09:26Z</time>
      </trkpt>
      <trkpt lat="43.15548" lon="-0.62865">
        <ele>287.09</ele>
        <time>2017-05-11T09:09:30Z</time>
      </trkpt>
      <trkpt lat="43.15558" lon="-0.62871">
        <ele>288.05</ele>
        <time>2017-05-11T09:09:35Z</time>
      </trkpt>
      <trkpt lat="43.15586" lon="-0.62865">
        <ele>287.57</ele>
        <time>2017-05-11T09:09:45Z</time>
      </trkpt>
      <trkpt lat="43.15616" lon="-0.62863">
        <ele>287.57</ele>
        <time>2017-05-11T09:09:56Z</time>
      </trkpt>
      <trkpt lat="43.15623" lon="-0.62864">
        <ele>288.53</ele>
        <time>2017-05-11T09:09:58Z</time>
      </trkpt>
      <trkpt lat="43.15636" lon="-0.62868">
        <ele>288.53</ele>
        <time>2017-05-11T09:10:02Z</time>
      </trkpt>
      <trkpt lat="43.15646" lon="-0.62878">
        <ele>289.01</ele>
        <time>2017-05-11T09:10:05Z</time>
      </trkpt>
      <trkpt lat="43.15657" lon="-0.62901">
        <ele>291.9</ele>
        <time>2017-05-11T09:10:15Z</time>
      </trkpt>
      <trkpt lat="43.15649" lon="-0.62915">
        <ele>293.82</ele>
        <time>2017-05-11T09:10:23Z</time>
      </trkpt>
      <trkpt lat="43.15632" lon="-0.6293">
        <ele>296.7</ele>
        <time>2017-05-11T09:10:35Z</time>
      </trkpt>
      <trkpt lat="43.15629" lon="-0.62933">
        <ele>297.18</ele>
        <time>2017-05-11T09:10:37Z</time>
      </trkpt>
      <trkpt lat="43.15619" lon="-0.6294">
        <ele>297.18</ele>
        <time>2017-05-11T09:10:43Z</time>
      </trkpt>
      <trkpt lat="43.15598" lon="-0.62954">
        <ele>299.59</ele>
        <time>2017-05-11T09:10:55Z</time>
      </trkpt>
      <trkpt lat="43.15595" lon="-0.62957">
        <ele>300.55</ele>
        <time>2017-05-11T09:10:57Z</time>
      </trkpt>
      <trkpt lat="43.15587" lon="-0.62963">
        <ele>301.51</ele>
        <time>2017-05-11T09:11:03Z</time>
      </trkpt>
      <trkpt lat="43.15581" lon="-0.62967">
        <ele>302.47</ele>
        <time>2017-05-11T09:11:07Z</time>
      </trkpt>
      <trkpt lat="43.15578" lon="-0.6297">
        <ele>303.43</ele>
        <time>2017-05-11T09:11:10Z</time>
      </trkpt>
      <trkpt lat="43.15569" lon="-0.62978">
        <ele>306.32</ele>
        <time>2017-05-11T09:11:19Z</time>
      </trkpt>
      <trkpt lat="43.15557" lon="-0.62994">
        <ele>308.72</ele>
        <time>2017-05-11T09:11:29Z</time>
      </trkpt>
      <trkpt lat="43.15549" lon="-0.63011">
        <ele>310.64</ele>
        <time>2017-05-11T09:11:39Z</time>
      </trkpt>
      <trkpt lat="43.15546" lon="-0.63016">
        <ele>311.12</ele>
        <time>2017-05-11T09:11:42Z</time>
      </trkpt>
      <trkpt lat="43.15544" lon="-0.63024">
        <ele>312.57</ele>
        <time>2017-05-11T09:11:46Z</time>
      </trkpt>
      <trkpt lat="43.15538" lon="-0.63043">
        <ele>314.49</ele>
        <time>2017-05-11T09:11:56Z</time>
      </trkpt>
      <trkpt lat="43.15532" lon="-0.63058">
        <ele>315.45</ele>
        <time>2017-05-11T09:12:05Z</time>
      </trkpt>
      <trkpt lat="43.15523" lon="-0.63075">
        <ele>316.41</ele>
        <time>2017-05-11T09:12:14Z</time>
      </trkpt>
      <trkpt lat="43.15515" lon="-0.63094">
        <ele>317.85</ele>
        <time>2017-05-11T09:12:23Z</time>
      </trkpt>
      <trkpt lat="43.15513" lon="-0.63103">
        <ele>319.3</ele>
        <time>2017-05-11T09:12:27Z</time>
      </trkpt>
      <trkpt lat="43.1551" lon="-0.63113">
        <ele>319.78</ele>
        <time>2017-05-11T09:12:31Z</time>
      </trkpt>
      <trkpt lat="43.15509" lon="-0.63139">
        <ele>322.66</ele>
        <time>2017-05-11T09:12:42Z</time>
      </trkpt>
      <trkpt lat="43.15512" lon="-0.63158">
        <ele>324.1</ele>
        <time>2017-05-11T09:12:50Z</time>
      </trkpt>
      <trkpt lat="43.15524" lon="-0.63191">
        <ele>326.99</ele>
        <time>2017-05-11T09:13:06Z</time>
      </trkpt>
      <trkpt lat="43.15528" lon="-0.63202">
        <ele>327.95</ele>
        <time>2017-05-11T09:13:11Z</time>
      </trkpt>
      <trkpt lat="43.15541" lon="-0.63232">
        <ele>329.39</ele>
        <time>2017-05-11T09:13:23Z</time>
      </trkpt>
      <trkpt lat="43.15542" lon="-0.63234">
        <ele>329.39</ele>
        <time>2017-05-11T09:13:24Z</time>
      </trkpt>
      <trkpt lat="43.15556" lon="-0.63274">
        <ele>327.95</ele>
        <time>2017-05-11T09:13:37Z</time>
      </trkpt>
      <trkpt lat="43.15557" lon="-0.6328">
        <ele>327.47</ele>
        <time>2017-05-11T09:13:38Z</time>
      </trkpt>
      <trkpt lat="43.15558" lon="-0.63286">
        <ele>327.47</ele>
        <time>2017-05-11T09:13:39Z</time>
      </trkpt>
      <trkpt lat="43.15567" lon="-0.63312">
        <ele>326.99</ele>
        <time>2017-05-11T09:13:43Z</time>
      </trkpt>
      <trkpt lat="43.15581" lon="-0.63338">
        <ele>328.43</ele>
        <time>2017-05-11T09:13:52Z</time>
      </trkpt>
      <trkpt lat="43.15587" lon="-0.63346">
        <ele>328.91</ele>
        <time>2017-05-11T09:13:56Z</time>
      </trkpt>
      <trkpt lat="43.15587" lon="-0.63349">
        <ele>329.39</ele>
        <time>2017-05-11T09:13:57Z</time>
      </trkpt>
      <trkpt lat="43.15588" lon="-0.63352">
        <ele>329.39</ele>
        <time>2017-05-11T09:13:58Z</time>
      </trkpt>
      <trkpt lat="43.15596" lon="-0.63384">
        <ele>332.75</ele>
        <time>2017-05-11T09:14:10Z</time>
      </trkpt>
      <trkpt lat="43.15596" lon="-0.63389">
        <ele>333.71</ele>
        <time>2017-05-11T09:14:13Z</time>
      </trkpt>
      <trkpt lat="43.15595" lon="-0.63392">
        <ele>333.71</ele>
        <time>2017-05-11T09:14:14Z</time>
      </trkpt>
      <trkpt lat="43.15595" lon="-0.63394">
        <ele>333.71</ele>
        <time>2017-05-11T09:14:15Z</time>
      </trkpt>
      <trkpt lat="43.15594" lon="-0.63396">
        <ele>334.2</ele>
        <time>2017-05-11T09:14:16Z</time>
      </trkpt>
      <trkpt lat="43.15592" lon="-0.63398">
        <ele>334.2</ele>
        <time>2017-05-11T09:14:17Z</time>
      </trkpt>
      <trkpt lat="43.15591" lon="-0.63401">
        <ele>334.2</ele>
        <time>2017-05-11T09:14:18Z</time>
      </trkpt>
      <trkpt lat="43.15591" lon="-0.63404">
        <ele>334.2</ele>
        <time>2017-05-11T09:14:19Z</time>
      </trkpt>
      <trkpt lat="43.15589" lon="-0.63406">
        <ele>334.68</ele>
        <time>2017-05-11T09:14:20Z</time>
      </trkpt>
      <trkpt lat="43.15588" lon="-0.63408">
        <ele>335.16</ele>
        <time>2017-05-11T09:14:21Z</time>
      </trkpt>
      <trkpt lat="43.15586" lon="-0.6341">
        <ele>335.64</ele>
        <time>2017-05-11T09:14:22Z</time>
      </trkpt>
      <trkpt lat="43.15586" lon="-0.63412">
        <ele>335.16</ele>
        <time>2017-05-11T09:14:23Z</time>
      </trkpt>
      <trkpt lat="43.15585" lon="-0.63415">
        <ele>336.12</ele>
        <time>2017-05-11T09:14:24Z</time>
      </trkpt>
      <trkpt lat="43.15584" lon="-0.63417">
        <ele>335.64</ele>
        <time>2017-05-11T09:14:25Z</time>
      </trkpt>
      <trkpt lat="43.15584" lon="-0.63419">
        <ele>336.12</ele>
        <time>2017-05-11T09:14:26Z</time>
      </trkpt>
      <trkpt lat="43.15583" lon="-0.63422">
        <ele>336.12</ele>
        <time>2017-05-11T09:14:27Z</time>
      </trkpt>
      <trkpt lat="43.15582" lon="-0.63424">
        <ele>336.6</ele>
        <time>2017-05-11T09:14:28Z</time>
      </trkpt>
      <trkpt lat="43.15581" lon="-0.63427">
        <ele>336.6</ele>
        <time>2017-05-11T09:14:29Z</time>
      </trkpt>
      <trkpt lat="43.15581" lon="-0.63436">
        <ele>338.04</ele>
        <time>2017-05-11T09:14:33Z</time>
      </trkpt>
      <trkpt lat="43.15582" lon="-0.63438">
        <ele>337.56</ele>
        <time>2017-05-11T09:14:34Z</time>
      </trkpt>
      <trkpt lat="43.15582" lon="-0.63441">
        <ele>338.04</ele>
        <time>2017-05-11T09:14:35Z</time>
      </trkpt>
      <trkpt lat="43.15584" lon="-0.63449">
        <ele>339</ele>
        <time>2017-05-11T09:14:39Z</time>
      </trkpt>
      <trkpt lat="43.15587" lon="-0.6346">
        <ele>339.96</ele>
        <time>2017-05-11T09:14:45Z</time>
      </trkpt>
      <trkpt lat="43.15592" lon="-0.63468">
        <ele>341.89</ele>
        <time>2017-05-11T09:14:52Z</time>
      </trkpt>
      <trkpt lat="43.15593" lon="-0.63469">
        <ele>341.89</ele>
        <time>2017-05-11T09:14:53Z</time>
      </trkpt>
      <trkpt lat="43.15596" lon="-0.63471">
        <ele>342.37</ele>
        <time>2017-05-11T09:14:55Z</time>
      </trkpt>
      <trkpt lat="43.15597" lon="-0.63472">
        <ele>342.85</ele>
        <time>2017-05-11T09:14:56Z</time>
      </trkpt>
      <trkpt lat="43.15598" lon="-0.63474">
        <ele>342.85</ele>
        <time>2017-05-11T09:14:57Z</time>
      </trkpt>
      <trkpt lat="43.15599" lon="-0.63476">
        <ele>343.33</ele>
        <time>2017-05-11T09:14:58Z</time>
      </trkpt>
      <trkpt lat="43.15605" lon="-0.63486">
        <ele>344.77</ele>
        <time>2017-05-11T09:15:04Z</time>
      </trkpt>
      <trkpt lat="43.15607" lon="-0.63487">
        <ele>345.25</ele>
        <time>2017-05-11T09:15:05Z</time>
      </trkpt>
      <trkpt lat="43.15613" lon="-0.6349">
        <ele>346.21</ele>
        <time>2017-05-11T09:15:10Z</time>
      </trkpt>
      <trkpt lat="43.15614" lon="-0.6349">
        <ele>346.69</ele>
        <time>2017-05-11T09:15:11Z</time>
      </trkpt>
      <trkpt lat="43.15615" lon="-0.63491">
        <ele>346.69</ele>
        <time>2017-05-11T09:15:12Z</time>
      </trkpt>
      <trkpt lat="43.15616" lon="-0.63493">
        <ele>347.65</ele>
        <time>2017-05-11T09:15:13Z</time>
      </trkpt>
      <trkpt lat="43.15617" lon="-0.63496">
        <ele>347.17</ele>
        <time>2017-05-11T09:15:14Z</time>
      </trkpt>
      <trkpt lat="43.15618" lon="-0.63499">
        <ele>347.17</ele>
        <time>2017-05-11T09:15:15Z</time>
      </trkpt>
      <trkpt lat="43.1562" lon="-0.63503">
        <ele>348.62</ele>
        <time>2017-05-11T09:15:17Z</time>
      </trkpt>
      <trkpt lat="43.15623" lon="-0.63505">
        <ele>348.62</ele>
        <time>2017-05-11T09:15:19Z</time>
      </trkpt>
      <trkpt lat="43.15624" lon="-0.63506">
        <ele>348.62</ele>
        <time>2017-05-11T09:15:20Z</time>
      </trkpt>
      <trkpt lat="43.15628" lon="-0.6351">
        <ele>349.58</ele>
        <time>2017-05-11T09:15:23Z</time>
      </trkpt>
      <trkpt lat="43.15631" lon="-0.63515">
        <ele>350.06</ele>
        <time>2017-05-11T09:15:26Z</time>
      </trkpt>
      <trkpt lat="43.15631" lon="-0.63518">
        <ele>350.06</ele>
        <time>2017-05-11T09:15:27Z</time>
      </trkpt>
      <trkpt lat="43.15632" lon="-0.63519">
        <ele>350.06</ele>
        <time>2017-05-11T09:15:28Z</time>
      </trkpt>
      <trkpt lat="43.15637" lon="-0.63528">
        <ele>350.06</ele>
        <time>2017-05-11T09:15:32Z</time>
      </trkpt>
      <trkpt lat="43.1565" lon="-0.63554">
        <ele>350.54</ele>
        <time>2017-05-11T09:15:43Z</time>
      </trkpt>
      <trkpt lat="43.15657" lon="-0.63577">
        <ele>350.54</ele>
        <time>2017-05-11T09:15:50Z</time>
      </trkpt>
      <trkpt lat="43.15659" lon="-0.6358">
        <ele>350.54</ele>
        <time>2017-05-11T09:15:51Z</time>
      </trkpt>
      <trkpt lat="43.1566" lon="-0.63583">
        <ele>351.02</ele>
        <time>2017-05-11T09:15:52Z</time>
      </trkpt>
      <trkpt lat="43.15665" lon="-0.63593">
        <ele>350.06</ele>
        <time>2017-05-11T09:15:56Z</time>
      </trkpt>
      <trkpt lat="43.15666" lon="-0.63595">
        <ele>350.06</ele>
        <time>2017-05-11T09:15:57Z</time>
      </trkpt>
      <trkpt lat="43.15667" lon="-0.63597">
        <ele>349.58</ele>
        <time>2017-05-11T09:15:58Z</time>
      </trkpt>
      <trkpt lat="43.15669" lon="-0.63602">
        <ele>349.58</ele>
        <time>2017-05-11T09:15:59Z</time>
      </trkpt>
      <trkpt lat="43.1567" lon="-0.63607">
        <ele>349.58</ele>
        <time>2017-05-11T09:16:00Z</time>
      </trkpt>
      <trkpt lat="43.15672" lon="-0.6361">
        <ele>349.58</ele>
        <time>2017-05-11T09:16:01Z</time>
      </trkpt>
      <trkpt lat="43.15674" lon="-0.63612">
        <ele>349.58</ele>
        <time>2017-05-11T09:16:02Z</time>
      </trkpt>
      <trkpt lat="43.15675" lon="-0.63615">
        <ele>349.58</ele>
        <time>2017-05-11T09:16:03Z</time>
      </trkpt>
      <trkpt lat="43.15677" lon="-0.63617">
        <ele>349.58</ele>
        <time>2017-05-11T09:16:04Z</time>
      </trkpt>
      <trkpt lat="43.15688" lon="-0.63634">
        <ele>349.58</ele>
        <time>2017-05-11T09:16:12Z</time>
      </trkpt>
      <trkpt lat="43.1569" lon="-0.63637">
        <ele>350.06</ele>
        <time>2017-05-11T09:16:13Z</time>
      </trkpt>
      <trkpt lat="43.15691" lon="-0.63639">
        <ele>349.58</ele>
        <time>2017-05-11T09:16:14Z</time>
      </trkpt>
      <trkpt lat="43.15692" lon="-0.63643">
        <ele>349.58</ele>
        <time>2017-05-11T09:16:15Z</time>
      </trkpt>
      <trkpt lat="43.15693" lon="-0.63645">
        <ele>350.06</ele>
        <time>2017-05-11T09:16:16Z</time>
      </trkpt>
      <trkpt lat="43.15702" lon="-0.63662">
        <ele>350.06</ele>
        <time>2017-05-11T09:16:22Z</time>
      </trkpt>
      <trkpt lat="43.15703" lon="-0.63664">
        <ele>351.02</ele>
        <time>2017-05-11T09:16:23Z</time>
      </trkpt>
      <trkpt lat="43.15701" lon="-0.63651">
        <ele>352.46</ele>
        <time>2017-05-11T09:16:31Z</time>
      </trkpt>
      <trkpt lat="43.15701" lon="-0.63649">
        <ele>352.94</ele>
        <time>2017-05-11T09:16:32Z</time>
      </trkpt>
      <trkpt lat="43.1569" lon="-0.6362">
        <ele>355.83</ele>
        <time>2017-05-11T09:16:45Z</time>
      </trkpt>
      <trkpt lat="43.15683" lon="-0.63591">
        <ele>358.23</ele>
        <time>2017-05-11T09:16:58Z</time>
      </trkpt>
      <trkpt lat="43.15681" lon="-0.63585">
        <ele>358.71</ele>
        <time>2017-05-11T09:17:01Z</time>
      </trkpt>
      <trkpt lat="43.15679" lon="-0.63558">
        <ele>361.11</ele>
        <time>2017-05-11T09:17:13Z</time>
      </trkpt>
      <trkpt lat="43.15676" lon="-0.6354">
        <ele>362.55</ele>
        <time>2017-05-11T09:17:21Z</time>
      </trkpt>
      <trkpt lat="43.15675" lon="-0.63533">
        <ele>364</ele>
        <time>2017-05-11T09:17:24Z</time>
      </trkpt>
      <trkpt lat="43.15668" lon="-0.63497">
        <ele>365.44</ele>
        <time>2017-05-11T09:17:39Z</time>
      </trkpt>
      <trkpt lat="43.15668" lon="-0.63463">
        <ele>368.8</ele>
        <time>2017-05-11T09:17:52Z</time>
      </trkpt>
      <trkpt lat="43.15669" lon="-0.6345">
        <ele>370.24</ele>
        <time>2017-05-11T09:17:58Z</time>
      </trkpt>
      <trkpt lat="43.15674" lon="-0.63418">
        <ele>372.65</ele>
        <time>2017-05-11T09:18:11Z</time>
      </trkpt>
      <trkpt lat="43.15675" lon="-0.63413">
        <ele>373.13</ele>
        <time>2017-05-11T09:18:13Z</time>
      </trkpt>
      <trkpt lat="43.15679" lon="-0.63404">
        <ele>374.09</ele>
        <time>2017-05-11T09:18:17Z</time>
      </trkpt>
      <trkpt lat="43.15681" lon="-0.63395">
        <ele>374.57</ele>
        <time>2017-05-11T09:18:21Z</time>
      </trkpt>
      <trkpt lat="43.15684" lon="-0.63389">
        <ele>376.01</ele>
        <time>2017-05-11T09:18:25Z</time>
      </trkpt>
      <trkpt lat="43.15692" lon="-0.63368">
        <ele>379.86</ele>
        <time>2017-05-11T09:18:36Z</time>
      </trkpt>
      <trkpt lat="43.15698" lon="-0.63349">
        <ele>381.3</ele>
        <time>2017-05-11T09:18:46Z</time>
      </trkpt>
      <trkpt lat="43.15699" lon="-0.63347">
        <ele>382.26</ele>
        <time>2017-05-11T09:18:47Z</time>
      </trkpt>
      <trkpt lat="43.15701" lon="-0.63341">
        <ele>382.26</ele>
        <time>2017-05-11T09:18:50Z</time>
      </trkpt>
      <trkpt lat="43.15705" lon="-0.63331">
        <ele>382.74</ele>
        <time>2017-05-11T09:18:55Z</time>
      </trkpt>
      <trkpt lat="43.15708" lon="-0.63329">
        <ele>383.22</ele>
        <time>2017-05-11T09:18:58Z</time>
      </trkpt>
      <trkpt lat="43.15713" lon="-0.63338">
        <ele>385.15</ele>
        <time>2017-05-11T09:19:04Z</time>
      </trkpt>
      <trkpt lat="43.15717" lon="-0.63354">
        <ele>386.59</ele>
        <time>2017-05-11T09:19:12Z</time>
      </trkpt>
      <trkpt lat="43.1572" lon="-0.63361">
        <ele>386.11</ele>
        <time>2017-05-11T09:19:15Z</time>
      </trkpt>
      <trkpt lat="43.1572" lon="-0.63375">
        <ele>386.11</ele>
        <time>2017-05-11T09:19:20Z</time>
      </trkpt>
      <trkpt lat="43.15727" lon="-0.63412">
        <ele>388.03</ele>
        <time>2017-05-11T09:19:34Z</time>
      </trkpt>
      <trkpt lat="43.15739" lon="-0.63439">
        <ele>389.95</ele>
        <time>2017-05-11T09:19:46Z</time>
      </trkpt>
      <trkpt lat="43.15742" lon="-0.63446">
        <ele>390.43</ele>
        <time>2017-05-11T09:19:49Z</time>
      </trkpt>
      <trkpt lat="43.15743" lon="-0.63451">
        <ele>390.43</ele>
        <time>2017-05-11T09:19:51Z</time>
      </trkpt>
      <trkpt lat="43.15755" lon="-0.6347">
        <ele>391.87</ele>
        <time>2017-05-11T09:19:59Z</time>
      </trkpt>
      <trkpt lat="43.15766" lon="-0.63487">
        <ele>393.8</ele>
        <time>2017-05-11T09:20:07Z</time>
      </trkpt>
      <trkpt lat="43.15776" lon="-0.63505">
        <ele>394.28</ele>
        <time>2017-05-11T09:20:14Z</time>
      </trkpt>
      <trkpt lat="43.15785" lon="-0.63516">
        <ele>394.28</ele>
        <time>2017-05-11T09:20:19Z</time>
      </trkpt>
      <trkpt lat="43.15802" lon="-0.63548">
        <ele>396.2</ele>
        <time>2017-05-11T09:20:31Z</time>
      </trkpt>
      <trkpt lat="43.15813" lon="-0.63585">
        <ele>397.64</ele>
        <time>2017-05-11T09:20:44Z</time>
      </trkpt>
      <trkpt lat="43.15824" lon="-0.63619">
        <ele>400.05</ele>
        <time>2017-05-11T09:20:57Z</time>
      </trkpt>
      <trkpt lat="43.15835" lon="-0.63655">
        <ele>401.97</ele>
        <time>2017-05-11T09:21:08Z</time>
      </trkpt>
      <trkpt lat="43.15846" lon="-0.63693">
        <ele>403.89</ele>
        <time>2017-05-11T09:21:20Z</time>
      </trkpt>
      <trkpt lat="43.15857" lon="-0.63725">
        <ele>405.81</ele>
        <time>2017-05-11T09:21:32Z</time>
      </trkpt>
      <trkpt lat="43.15866" lon="-0.63752">
        <ele>407.74</ele>
        <time>2017-05-11T09:21:44Z</time>
      </trkpt>
      <trkpt lat="43.15875" lon="-0.63781">
        <ele>408.22</ele>
        <time>2017-05-11T09:21:58Z</time>
      </trkpt>
      <trkpt lat="43.15877" lon="-0.63786">
        <ele>408.22</ele>
        <time>2017-05-11T09:22:00Z</time>
      </trkpt>
      <trkpt lat="43.15886" lon="-0.63799">
        <ele>410.14</ele>
        <time>2017-05-11T09:22:07Z</time>
      </trkpt>
      <trkpt lat="43.159" lon="-0.63804">
        <ele>412.06</ele>
        <time>2017-05-11T09:22:15Z</time>
      </trkpt>
      <trkpt lat="43.15911" lon="-0.63812">
        <ele>413.5</ele>
        <time>2017-05-11T09:22:23Z</time>
      </trkpt>
      <trkpt lat="43.15929" lon="-0.63821">
        <ele>413.5</ele>
        <time>2017-05-11T09:22:35Z</time>
      </trkpt>
      <trkpt lat="43.15931" lon="-0.63824">
        <ele>413.98</ele>
        <time>2017-05-11T09:22:48Z</time>
      </trkpt>
      <trkpt lat="43.15933" lon="-0.63828">
        <ele>413.02</ele>
        <time>2017-05-11T09:22:58Z</time>
      </trkpt>
      <trkpt lat="43.15928" lon="-0.63857">
        <ele>411.1</ele>
        <time>2017-05-11T09:23:03Z</time>
      </trkpt>
      <trkpt lat="43.15926" lon="-0.63866">
        <ele>410.62</ele>
        <time>2017-05-11T09:23:04Z</time>
      </trkpt>
      <trkpt lat="43.15922" lon="-0.63895">
        <ele>406.77</ele>
        <time>2017-05-11T09:23:07Z</time>
      </trkpt>
      <trkpt lat="43.15911" lon="-0.6393">
        <ele>402.93</ele>
        <time>2017-05-11T09:23:11Z</time>
      </trkpt>
      <trkpt lat="43.15894" lon="-0.63979">
        <ele>397.64</ele>
        <time>2017-05-11T09:23:17Z</time>
      </trkpt>
      <trkpt lat="43.15899" lon="-0.64">
        <ele>396.68</ele>
        <time>2017-05-11T09:23:21Z</time>
      </trkpt>
      <trkpt lat="43.15901" lon="-0.64013">
        <ele>395.24</ele>
        <time>2017-05-11T09:23:23Z</time>
      </trkpt>
      <trkpt lat="43.15905" lon="-0.64041">
        <ele>392.36</ele>
        <time>2017-05-11T09:23:27Z</time>
      </trkpt>
      <trkpt lat="43.15906" lon="-0.64048">
        <ele>390.43</ele>
        <time>2017-05-11T09:23:28Z</time>
      </trkpt>
      <trkpt lat="43.15919" lon="-0.64068">
        <ele>387.55</ele>
        <time>2017-05-11T09:23:32Z</time>
      </trkpt>
      <trkpt lat="43.15922" lon="-0.6407">
        <ele>386.59</ele>
        <time>2017-05-11T09:23:33Z</time>
      </trkpt>
      <trkpt lat="43.15932" lon="-0.64075">
        <ele>384.66</ele>
        <time>2017-05-11T09:23:36Z</time>
      </trkpt>
      <trkpt lat="43.15944" lon="-0.6409">
        <ele>380.34</ele>
        <time>2017-05-11T09:23:40Z</time>
      </trkpt>
      <trkpt lat="43.15948" lon="-0.64094">
        <ele>378.9</ele>
        <time>2017-05-11T09:23:42Z</time>
      </trkpt>
      <trkpt lat="43.15958" lon="-0.64104">
        <ele>375.05</ele>
        <time>2017-05-11T09:23:47Z</time>
      </trkpt>
      <trkpt lat="43.15965" lon="-0.64116">
        <ele>371.69</ele>
        <time>2017-05-11T09:23:51Z</time>
      </trkpt>
      <trkpt lat="43.15967" lon="-0.64118">
        <ele>370.73</ele>
        <time>2017-05-11T09:23:52Z</time>
      </trkpt>
      <trkpt lat="43.15972" lon="-0.64128">
        <ele>366.88</ele>
        <time>2017-05-11T09:23:55Z</time>
      </trkpt>
      <trkpt lat="43.15984" lon="-0.64151">
        <ele>362.07</ele>
        <time>2017-05-11T09:24:01Z</time>
      </trkpt>
      <trkpt lat="43.15994" lon="-0.64175">
        <ele>357.75</ele>
        <time>2017-05-11T09:24:05Z</time>
      </trkpt>
      <trkpt lat="43.15998" lon="-0.64193">
        <ele>355.83</ele>
        <time>2017-05-11T09:24:08Z</time>
      </trkpt>
      <trkpt lat="43.1601" lon="-0.64211">
        <ele>351.98</ele>
        <time>2017-05-11T09:24:12Z</time>
      </trkpt>
      <trkpt lat="43.16026" lon="-0.64237">
        <ele>348.13</ele>
        <time>2017-05-11T09:24:18Z</time>
      </trkpt>
      <trkpt lat="43.16028" lon="-0.64242">
        <ele>348.13</ele>
        <time>2017-05-11T09:24:19Z</time>
      </trkpt>
      <trkpt lat="43.16031" lon="-0.64248">
        <ele>347.65</ele>
        <time>2017-05-11T09:24:20Z</time>
      </trkpt>
      <trkpt lat="43.16039" lon="-0.64272">
        <ele>344.29</ele>
        <time>2017-05-11T09:24:24Z</time>
      </trkpt>
      <trkpt lat="43.1604" lon="-0.64278">
        <ele>343.81</ele>
        <time>2017-05-11T09:24:25Z</time>
      </trkpt>
      <trkpt lat="43.16048" lon="-0.64297">
        <ele>341.89</ele>
        <time>2017-05-11T09:24:29Z</time>
      </trkpt>
      <trkpt lat="43.16043" lon="-0.64317">
        <ele>340.92</ele>
        <time>2017-05-11T09:24:34Z</time>
      </trkpt>
      <trkpt lat="43.16036" lon="-0.64323">
        <ele>340.44</ele>
        <time>2017-05-11T09:24:36Z</time>
      </trkpt>
      <trkpt lat="43.16025" lon="-0.64348">
        <ele>337.08</ele>
        <time>2017-05-11T09:24:40Z</time>
      </trkpt>
      <trkpt lat="43.16023" lon="-0.64355">
        <ele>336.12</ele>
        <time>2017-05-11T09:24:41Z</time>
      </trkpt>
      <trkpt lat="43.16022" lon="-0.64363">
        <ele>334.68</ele>
        <time>2017-05-11T09:24:42Z</time>
      </trkpt>
      <trkpt lat="43.16023" lon="-0.64373">
        <ele>334.2</ele>
        <time>2017-05-11T09:24:43Z</time>
      </trkpt>
      <trkpt lat="43.16027" lon="-0.64393">
        <ele>330.35</ele>
        <time>2017-05-11T09:24:45Z</time>
      </trkpt>
      <trkpt lat="43.16028" lon="-0.64402">
        <ele>329.39</ele>
        <time>2017-05-11T09:24:46Z</time>
      </trkpt>
      <trkpt lat="43.16028" lon="-0.6441">
        <ele>327.95</ele>
        <time>2017-05-11T09:24:47Z</time>
      </trkpt>
      <trkpt lat="43.16026" lon="-0.64419">
        <ele>325.06</ele>
        <time>2017-05-11T09:24:48Z</time>
      </trkpt>
      <trkpt lat="43.16023" lon="-0.64427">
        <ele>324.1</ele>
        <time>2017-05-11T09:24:49Z</time>
      </trkpt>
      <trkpt lat="43.1602" lon="-0.64434">
        <ele>322.66</ele>
        <time>2017-05-11T09:24:50Z</time>
      </trkpt>
      <trkpt lat="43.16018" lon="-0.6444">
        <ele>320.74</ele>
        <time>2017-05-11T09:24:51Z</time>
      </trkpt>
      <trkpt lat="43.16016" lon="-0.64445">
        <ele>319.3</ele>
        <time>2017-05-11T09:24:52Z</time>
      </trkpt>
      <trkpt lat="43.16016" lon="-0.64449">
        <ele>318.81</ele>
        <time>2017-05-11T09:24:53Z</time>
      </trkpt>
      <trkpt lat="43.16018" lon="-0.64452">
        <ele>317.85</ele>
        <time>2017-05-11T09:24:54Z</time>
      </trkpt>
      <trkpt lat="43.16021" lon="-0.64452">
        <ele>317.85</ele>
        <time>2017-05-11T09:24:55Z</time>
      </trkpt>
      <trkpt lat="43.16026" lon="-0.6445">
        <ele>317.85</ele>
        <time>2017-05-11T09:24:57Z</time>
      </trkpt>
      <trkpt lat="43.16059" lon="-0.64454">
        <ele>320.26</ele>
        <time>2017-05-11T09:25:07Z</time>
      </trkpt>
      <trkpt lat="43.16067" lon="-0.64457">
        <ele>320.26</ele>
        <time>2017-05-11T09:25:09Z</time>
      </trkpt>
      <trkpt lat="43.16077" lon="-0.64461">
        <ele>319.78</ele>
        <time>2017-05-11T09:25:11Z</time>
      </trkpt>
      <trkpt lat="43.16082" lon="-0.64462">
        <ele>319.3</ele>
        <time>2017-05-11T09:25:12Z</time>
      </trkpt>
      <trkpt lat="43.16091" lon="-0.64463">
        <ele>319.3</ele>
        <time>2017-05-11T09:25:14Z</time>
      </trkpt>
      <trkpt lat="43.16095" lon="-0.64464">
        <ele>319.78</ele>
        <time>2017-05-11T09:25:15Z</time>
      </trkpt>
      <trkpt lat="43.16099" lon="-0.64464">
        <ele>319.3</ele>
        <time>2017-05-11T09:25:16Z</time>
      </trkpt>
      <trkpt lat="43.16106" lon="-0.64462">
        <ele>318.81</ele>
        <time>2017-05-11T09:25:18Z</time>
      </trkpt>
      <trkpt lat="43.16117" lon="-0.64456">
        <ele>316.89</ele>
        <time>2017-05-11T09:25:23Z</time>
      </trkpt>
      <trkpt lat="43.16121" lon="-0.64459">
        <ele>315.93</ele>
        <time>2017-05-11T09:25:24Z</time>
      </trkpt>
      <trkpt lat="43.16124" lon="-0.6447">
        <ele>313.53</ele>
        <time>2017-05-11T09:25:26Z</time>
      </trkpt>
      <trkpt lat="43.16131" lon="-0.64492">
        <ele>310.64</ele>
        <time>2017-05-11T09:25:29Z</time>
      </trkpt>
      <trkpt lat="43.16143" lon="-0.64517">
        <ele>305.84</ele>
        <time>2017-05-11T09:25:33Z</time>
      </trkpt>
      <trkpt lat="43.16147" lon="-0.64525">
        <ele>303.43</ele>
        <time>2017-05-11T09:25:34Z</time>
      </trkpt>
      <trkpt lat="43.16151" lon="-0.64534">
        <ele>301.99</ele>
        <time>2017-05-11T09:25:35Z</time>
      </trkpt>
      <trkpt lat="43.16161" lon="-0.64555">
        <ele>298.15</ele>
        <time>2017-05-11T09:25:38Z</time>
      </trkpt>
      <trkpt lat="43.16164" lon="-0.64562">
        <ele>296.7</ele>
        <time>2017-05-11T09:25:39Z</time>
      </trkpt>
      <trkpt lat="43.16167" lon="-0.64567">
        <ele>295.74</ele>
        <time>2017-05-11T09:25:40Z</time>
      </trkpt>
      <trkpt lat="43.16178" lon="-0.64583">
        <ele>293.82</ele>
        <time>2017-05-11T09:25:43Z</time>
      </trkpt>
      <trkpt lat="43.16181" lon="-0.64591">
        <ele>292.86</ele>
        <time>2017-05-11T09:25:44Z</time>
      </trkpt>
      <trkpt lat="43.16184" lon="-0.64599">
        <ele>291.9</ele>
        <time>2017-05-11T09:25:45Z</time>
      </trkpt>
      <trkpt lat="43.16186" lon="-0.64606">
        <ele>289.49</ele>
        <time>2017-05-11T09:25:46Z</time>
      </trkpt>
      <trkpt lat="43.16187" lon="-0.64613">
        <ele>289.01</ele>
        <time>2017-05-11T09:25:47Z</time>
      </trkpt>
      <trkpt lat="43.16192" lon="-0.64639">
        <ele>285.17</ele>
        <time>2017-05-11T09:25:50Z</time>
      </trkpt>
      <trkpt lat="43.16195" lon="-0.64655">
        <ele>283.25</ele>
        <time>2017-05-11T09:25:52Z</time>
      </trkpt>
      <trkpt lat="43.16196" lon="-0.64662">
        <ele>282.28</ele>
        <time>2017-05-11T09:25:53Z</time>
      </trkpt>
      <trkpt lat="43.16197" lon="-0.64671">
        <ele>281.32</ele>
        <time>2017-05-11T09:25:54Z</time>
      </trkpt>
      <trkpt lat="43.162" lon="-0.64679">
        <ele>280.36</ele>
        <time>2017-05-11T09:25:55Z</time>
      </trkpt>
      <trkpt lat="43.16203" lon="-0.64686">
        <ele>278.92</ele>
        <time>2017-05-11T09:25:56Z</time>
      </trkpt>
      <trkpt lat="43.16205" lon="-0.64691">
        <ele>278.44</ele>
        <time>2017-05-11T09:25:57Z</time>
      </trkpt>
      <trkpt lat="43.16208" lon="-0.64697">
        <ele>277.96</ele>
        <time>2017-05-11T09:25:58Z</time>
      </trkpt>
      <trkpt lat="43.16217" lon="-0.64709">
        <ele>276.52</ele>
        <time>2017-05-11T09:26:00Z</time>
      </trkpt>
      <trkpt lat="43.16221" lon="-0.64715">
        <ele>275.56</ele>
        <time>2017-05-11T09:26:01Z</time>
      </trkpt>
      <trkpt lat="43.16225" lon="-0.6472">
        <ele>274.59</ele>
        <time>2017-05-11T09:26:02Z</time>
      </trkpt>
      <trkpt lat="43.16228" lon="-0.64725">
        <ele>274.11</ele>
        <time>2017-05-11T09:26:03Z</time>
      </trkpt>
      <trkpt lat="43.16231" lon="-0.64729">
        <ele>273.15</ele>
        <time>2017-05-11T09:26:04Z</time>
      </trkpt>
      <trkpt lat="43.16234" lon="-0.6473">
        <ele>272.67</ele>
        <time>2017-05-11T09:26:05Z</time>
      </trkpt>
      <trkpt lat="43.16245" lon="-0.6473">
        <ele>272.67</ele>
        <time>2017-05-11T09:26:11Z</time>
      </trkpt>
      <trkpt lat="43.16253" lon="-0.64727">
        <ele>272.19</ele>
        <time>2017-05-11T09:26:14Z</time>
      </trkpt>
      <trkpt lat="43.16269" lon="-0.64729">
        <ele>268.83</ele>
        <time>2017-05-11T09:26:21Z</time>
      </trkpt>
      <trkpt lat="43.16273" lon="-0.64729">
        <ele>267.86</ele>
        <time>2017-05-11T09:26:23Z</time>
      </trkpt>
      <trkpt lat="43.16286" lon="-0.6474">
        <ele>264.02</ele>
        <time>2017-05-11T09:26:29Z</time>
      </trkpt>
      <trkpt lat="43.16292" lon="-0.64741">
        <ele>263.54</ele>
        <time>2017-05-11T09:26:31Z</time>
      </trkpt>
      <trkpt lat="43.16295" lon="-0.64744">
        <ele>262.58</ele>
        <time>2017-05-11T09:26:32Z</time>
      </trkpt>
      <trkpt lat="43.16296" lon="-0.64767">
        <ele>262.58</ele>
        <time>2017-05-11T09:26:40Z</time>
      </trkpt>
      <trkpt lat="43.1627" lon="-0.64785">
        <ele>265.46</ele>
        <time>2017-05-11T09:26:53Z</time>
      </trkpt>
      <trkpt lat="43.16264" lon="-0.64786">
        <ele>265.94</ele>
        <time>2017-05-11T09:26:56Z</time>
      </trkpt>
      <trkpt lat="43.16256" lon="-0.64785">
        <ele>266.9</ele>
        <time>2017-05-11T09:27:00Z</time>
      </trkpt>
      <trkpt lat="43.16235" lon="-0.64774">
        <ele>268.83</ele>
        <time>2017-05-11T09:27:11Z</time>
      </trkpt>
      <trkpt lat="43.16231" lon="-0.6477">
        <ele>269.31</ele>
        <time>2017-05-11T09:27:13Z</time>
      </trkpt>
      <trkpt lat="43.16216" lon="-0.64758">
        <ele>270.75</ele>
        <time>2017-05-11T09:27:22Z</time>
      </trkpt>
      <trkpt lat="43.16196" lon="-0.64744">
        <ele>272.67</ele>
        <time>2017-05-11T09:27:31Z</time>
      </trkpt>
      <trkpt lat="43.16171" lon="-0.6472">
        <ele>274.59</ele>
        <time>2017-05-11T09:27:43Z</time>
      </trkpt>
      <trkpt lat="43.16169" lon="-0.64717">
        <ele>275.07</ele>
        <time>2017-05-11T09:27:44Z</time>
      </trkpt>
      <trkpt lat="43.16159" lon="-0.64695">
        <ele>276.04</ele>
        <time>2017-05-11T09:27:52Z</time>
      </trkpt>
      <trkpt lat="43.16146" lon="-0.64678">
        <ele>278.44</ele>
        <time>2017-05-11T09:28:01Z</time>
      </trkpt>
      <trkpt lat="43.16145" lon="-0.64673">
        <ele>278.44</ele>
        <time>2017-05-11T09:28:03Z</time>
      </trkpt>
      <trkpt lat="43.16125" lon="-0.64665">
        <ele>280.36</ele>
        <time>2017-05-11T09:28:14Z</time>
      </trkpt>
      <trkpt lat="43.16113" lon="-0.64667">
        <ele>281.8</ele>
        <time>2017-05-11T09:28:19Z</time>
      </trkpt>
      <trkpt lat="43.16107" lon="-0.64666">
        <ele>282.28</ele>
        <time>2017-05-11T09:28:22Z</time>
      </trkpt>
      <trkpt lat="43.16102" lon="-0.64661">
        <ele>283.25</ele>
        <time>2017-05-11T09:28:26Z</time>
      </trkpt>
      <trkpt lat="43.16097" lon="-0.64661">
        <ele>283.25</ele>
        <time>2017-05-11T09:28:28Z</time>
      </trkpt>
      <trkpt lat="43.16085" lon="-0.64655">
        <ele>285.17</ele>
        <time>2017-05-11T09:28:34Z</time>
      </trkpt>
      <trkpt lat="43.16066" lon="-0.64643">
        <ele>285.65</ele>
        <time>2017-05-11T09:28:41Z</time>
      </trkpt>
      <trkpt lat="43.1605" lon="-0.64629">
        <ele>287.09</ele>
        <time>2017-05-11T09:28:50Z</time>
      </trkpt>
      <trkpt lat="43.16045" lon="-0.64622">
        <ele>288.53</ele>
        <time>2017-05-11T09:28:53Z</time>
      </trkpt>
      <trkpt lat="43.16031" lon="-0.64588">
        <ele>290.46</ele>
        <time>2017-05-11T09:29:04Z</time>
      </trkpt>
      <trkpt lat="43.16029" lon="-0.64586">
        <ele>290.94</ele>
        <time>2017-05-11T09:29:05Z</time>
      </trkpt>
      <trkpt lat="43.16021" lon="-0.64582">
        <ele>291.9</ele>
        <time>2017-05-11T09:29:09Z</time>
      </trkpt>
      <trkpt lat="43.15994" lon="-0.6459">
        <ele>293.82</ele>
        <time>2017-05-11T09:29:20Z</time>
      </trkpt>
      <trkpt lat="43.1597" lon="-0.64599">
        <ele>295.74</ele>
        <time>2017-05-11T09:29:31Z</time>
      </trkpt>
      <trkpt lat="43.15962" lon="-0.64597">
        <ele>296.22</ele>
        <time>2017-05-11T09:29:35Z</time>
      </trkpt>
      <trkpt lat="43.15955" lon="-0.6459">
        <ele>296.7</ele>
        <time>2017-05-11T09:29:39Z</time>
      </trkpt>
      <trkpt lat="43.15947" lon="-0.64571">
        <ele>297.67</ele>
        <time>2017-05-11T09:29:45Z</time>
      </trkpt>
      <trkpt lat="43.15942" lon="-0.64546">
        <ele>298.15</ele>
        <time>2017-05-11T09:29:52Z</time>
      </trkpt>
      <trkpt lat="43.15937" lon="-0.64518">
        <ele>298.63</ele>
        <time>2017-05-11T09:30:01Z</time>
      </trkpt>
      <trkpt lat="43.15937" lon="-0.64497">
        <ele>298.63</ele>
        <time>2017-05-11T09:30:07Z</time>
      </trkpt>
      <trkpt lat="43.15932" lon="-0.64447">
        <ele>298.15</ele>
        <time>2017-05-11T09:30:18Z</time>
      </trkpt>
      <trkpt lat="43.1593" lon="-0.64435">
        <ele>297.67</ele>
        <time>2017-05-11T09:30:21Z</time>
      </trkpt>
      <trkpt lat="43.15922" lon="-0.64399">
        <ele>297.18</ele>
        <time>2017-05-11T09:30:30Z</time>
      </trkpt>
      <trkpt lat="43.15916" lon="-0.644">
        <ele>297.18</ele>
        <time>2017-05-11T09:30:32Z</time>
      </trkpt>
      <trkpt lat="43.15905" lon="-0.64403">
        <ele>296.7</ele>
        <time>2017-05-11T09:30:35Z</time>
      </trkpt>
      <trkpt lat="43.15901" lon="-0.64405">
        <ele>296.22</ele>
        <time>2017-05-11T09:30:37Z</time>
      </trkpt>
      <trkpt lat="43.15893" lon="-0.64407">
        <ele>296.22</ele>
        <time>2017-05-11T09:30:41Z</time>
      </trkpt>
      <trkpt lat="43.15883" lon="-0.64419">
        <ele>295.26</ele>
        <time>2017-05-11T09:30:44Z</time>
      </trkpt>
      <trkpt lat="43.1588" lon="-0.64424">
        <ele>295.26</ele>
        <time>2017-05-11T09:30:45Z</time>
      </trkpt>
      <trkpt lat="43.15877" lon="-0.64429">
        <ele>295.26</ele>
        <time>2017-05-11T09:30:46Z</time>
      </trkpt>
      <trkpt lat="43.15862" lon="-0.64453">
        <ele>293.82</ele>
        <time>2017-05-11T09:30:50Z</time>
      </trkpt>
      <trkpt lat="43.15857" lon="-0.64459">
        <ele>293.82</ele>
        <time>2017-05-11T09:30:51Z</time>
      </trkpt>
      <trkpt lat="43.15852" lon="-0.64465">
        <ele>293.82</ele>
        <time>2017-05-11T09:30:52Z</time>
      </trkpt>
      <trkpt lat="43.1583" lon="-0.64491">
        <ele>292.38</ele>
        <time>2017-05-11T09:30:56Z</time>
      </trkpt>
      <trkpt lat="43.15823" lon="-0.64496">
        <ele>291.9</ele>
        <time>2017-05-11T09:30:57Z</time>
      </trkpt>
      <trkpt lat="43.15817" lon="-0.64499">
        <ele>291.42</ele>
        <time>2017-05-11T09:30:58Z</time>
      </trkpt>
      <trkpt lat="43.15752" lon="-0.64515">
        <ele>289.01</ele>
        <time>2017-05-11T09:31:08Z</time>
      </trkpt>
      <trkpt lat="43.15745" lon="-0.64518">
        <ele>288.53</ele>
        <time>2017-05-11T09:31:09Z</time>
      </trkpt>
      <trkpt lat="43.15739" lon="-0.64521">
        <ele>289.01</ele>
        <time>2017-05-11T09:31:10Z</time>
      </trkpt>
      <trkpt lat="43.15733" lon="-0.64524">
        <ele>289.49</ele>
        <time>2017-05-11T09:31:11Z</time>
      </trkpt>
      <trkpt lat="43.15728" lon="-0.64529">
        <ele>289.01</ele>
        <time>2017-05-11T09:31:12Z</time>
      </trkpt>
      <trkpt lat="43.15724" lon="-0.64533">
        <ele>289.01</ele>
        <time>2017-05-11T09:31:13Z</time>
      </trkpt>
      <trkpt lat="43.1572" lon="-0.64537">
        <ele>289.01</ele>
        <time>2017-05-11T09:31:14Z</time>
      </trkpt>
      <trkpt lat="43.15718" lon="-0.64542">
        <ele>289.49</ele>
        <time>2017-05-11T09:31:15Z</time>
      </trkpt>
      <trkpt lat="43.15716" lon="-0.64547">
        <ele>289.49</ele>
        <time>2017-05-11T09:31:16Z</time>
      </trkpt>
      <trkpt lat="43.15717" lon="-0.64591">
        <ele>289.97</ele>
        <time>2017-05-11T09:31:24Z</time>
      </trkpt>
      <trkpt lat="43.15716" lon="-0.64598">
        <ele>290.46</ele>
        <time>2017-05-11T09:31:25Z</time>
      </trkpt>
      <trkpt lat="43.15714" lon="-0.64605">
        <ele>290.46</ele>
        <time>2017-05-11T09:31:26Z</time>
      </trkpt>
      <trkpt lat="43.15711" lon="-0.6461">
        <ele>290.46</ele>
        <time>2017-05-11T09:31:27Z</time>
      </trkpt>
      <trkpt lat="43.15708" lon="-0.64616">
        <ele>290.94</ele>
        <time>2017-05-11T09:31:28Z</time>
      </trkpt>
      <trkpt lat="43.15674" lon="-0.64641">
        <ele>291.9</ele>
        <time>2017-05-11T09:31:37Z</time>
      </trkpt>
      <trkpt lat="43.15648" lon="-0.64652">
        <ele>292.38</ele>
        <time>2017-05-11T09:31:44Z</time>
      </trkpt>
      <trkpt lat="43.15644" lon="-0.64654">
        <ele>292.38</ele>
        <time>2017-05-11T09:31:45Z</time>
      </trkpt>
      <trkpt lat="43.1564" lon="-0.64656">
        <ele>292.86</ele>
        <time>2017-05-11T09:31:46Z</time>
      </trkpt>
      <trkpt lat="43.15629" lon="-0.64666">
        <ele>293.82</ele>
        <time>2017-05-11T09:31:50Z</time>
      </trkpt>
      <trkpt lat="43.15627" lon="-0.64671">
        <ele>293.82</ele>
        <time>2017-05-11T09:31:51Z</time>
      </trkpt>
      <trkpt lat="43.15624" lon="-0.64675">
        <ele>293.82</ele>
        <time>2017-05-11T09:31:52Z</time>
      </trkpt>
      <trkpt lat="43.15623" lon="-0.64678">
        <ele>293.82</ele>
        <time>2017-05-11T09:31:53Z</time>
      </trkpt>
      <trkpt lat="43.15621" lon="-0.64682">
        <ele>293.82</ele>
        <time>2017-05-11T09:31:54Z</time>
      </trkpt>
      <trkpt lat="43.1562" lon="-0.64687">
        <ele>294.3</ele>
        <time>2017-05-11T09:31:55Z</time>
      </trkpt>
      <trkpt lat="43.15619" lon="-0.64692">
        <ele>293.82</ele>
        <time>2017-05-11T09:31:56Z</time>
      </trkpt>
      <trkpt lat="43.1562" lon="-0.64696">
        <ele>294.3</ele>
        <time>2017-05-11T09:31:57Z</time>
      </trkpt>
      <trkpt lat="43.1562" lon="-0.64701">
        <ele>294.3</ele>
        <time>2017-05-11T09:31:58Z</time>
      </trkpt>
      <trkpt lat="43.1562" lon="-0.64707">
        <ele>294.78</ele>
        <time>2017-05-11T09:31:59Z</time>
      </trkpt>
      <trkpt lat="43.15621" lon="-0.64721">
        <ele>295.26</ele>
        <time>2017-05-11T09:32:02Z</time>
      </trkpt>
      <trkpt lat="43.15622" lon="-0.64724">
        <ele>295.26</ele>
        <time>2017-05-11T09:32:03Z</time>
      </trkpt>
      <trkpt lat="43.15622" lon="-0.64729">
        <ele>295.26</ele>
        <time>2017-05-11T09:32:04Z</time>
      </trkpt>
      <trkpt lat="43.15622" lon="-0.64734">
        <ele>295.26</ele>
        <time>2017-05-11T09:32:05Z</time>
      </trkpt>
      <trkpt lat="43.15623" lon="-0.64739">
        <ele>295.74</ele>
        <time>2017-05-11T09:32:06Z</time>
      </trkpt>
      <trkpt lat="43.15624" lon="-0.64744">
        <ele>295.74</ele>
        <time>2017-05-11T09:32:07Z</time>
      </trkpt>
      <trkpt lat="43.15625" lon="-0.64748">
        <ele>296.22</ele>
        <time>2017-05-11T09:32:08Z</time>
      </trkpt>
      <trkpt lat="43.15625" lon="-0.64752">
        <ele>295.74</ele>
        <time>2017-05-11T09:32:09Z</time>
      </trkpt>
      <trkpt lat="43.15626" lon="-0.64758">
        <ele>296.22</ele>
        <time>2017-05-11T09:32:10Z</time>
      </trkpt>
      <trkpt lat="43.15628" lon="-0.64762">
        <ele>296.22</ele>
        <time>2017-05-11T09:32:11Z</time>
      </trkpt>
      <trkpt lat="43.15628" lon="-0.64768">
        <ele>296.22</ele>
        <time>2017-05-11T09:32:12Z</time>
      </trkpt>
      <trkpt lat="43.15628" lon="-0.64773">
        <ele>296.22</ele>
        <time>2017-05-11T09:32:13Z</time>
      </trkpt>
      <trkpt lat="43.15617" lon="-0.64809">
        <ele>296.7</ele>
        <time>2017-05-11T09:32:22Z</time>
      </trkpt>
      <trkpt lat="43.15617" lon="-0.6481">
        <ele>297.18</ele>
        <time>2017-05-11T09:32:23Z</time>
      </trkpt>
      <trkpt lat="43.15616" lon="-0.64812">
        <ele>297.18</ele>
        <time>2017-05-11T09:32:24Z</time>
      </trkpt>
      <trkpt lat="43.15615" lon="-0.64813">
        <ele>297.67</ele>
        <time>2017-05-11T09:32:25Z</time>
      </trkpt>
      <trkpt lat="43.15613" lon="-0.64814">
        <ele>297.18</ele>
        <time>2017-05-11T09:32:26Z</time>
      </trkpt>
      <trkpt lat="43.15611" lon="-0.64816">
        <ele>297.18</ele>
        <time>2017-05-11T09:32:27Z</time>
      </trkpt>
      <trkpt lat="43.15585" lon="-0.64826">
        <ele>298.15</ele>
        <time>2017-05-11T09:32:37Z</time>
      </trkpt>
      <trkpt lat="43.15559" lon="-0.64835">
        <ele>300.07</ele>
        <time>2017-05-11T09:32:46Z</time>
      </trkpt>
      <trkpt lat="43.15551" lon="-0.64841">
        <ele>300.55</ele>
        <time>2017-05-11T09:32:49Z</time>
      </trkpt>
      <trkpt lat="43.15549" lon="-0.64844">
        <ele>300.55</ele>
        <time>2017-05-11T09:32:50Z</time>
      </trkpt>
      <trkpt lat="43.1554" lon="-0.64888">
        <ele>301.99</ele>
        <time>2017-05-11T09:33:00Z</time>
      </trkpt>
      <trkpt lat="43.15533" lon="-0.64939">
        <ele>302.95</ele>
        <time>2017-05-11T09:33:11Z</time>
      </trkpt>
      <trkpt lat="43.15516" lon="-0.64963">
        <ele>303.91</ele>
        <time>2017-05-11T09:33:19Z</time>
      </trkpt>
      <trkpt lat="43.15516" lon="-0.64966">
        <ele>303.91</ele>
        <time>2017-05-11T09:33:20Z</time>
      </trkpt>
      <trkpt lat="43.15514" lon="-0.64967">
        <ele>303.91</ele>
        <time>2017-05-11T09:33:21Z</time>
      </trkpt>
      <trkpt lat="43.15498" lon="-0.64972">
        <ele>304.88</ele>
        <time>2017-05-11T09:33:30Z</time>
      </trkpt>
      <trkpt lat="43.15472" lon="-0.64979">
        <ele>305.84</ele>
        <time>2017-05-11T09:33:40Z</time>
      </trkpt>
      <trkpt lat="43.15449" lon="-0.6499">
        <ele>307.76</ele>
        <time>2017-05-11T09:33:49Z</time>
      </trkpt>
      <trkpt lat="43.15447" lon="-0.64992">
        <ele>307.76</ele>
        <time>2017-05-11T09:33:50Z</time>
      </trkpt>
      <trkpt lat="43.15445" lon="-0.64993">
        <ele>307.76</ele>
        <time>2017-05-11T09:33:51Z</time>
      </trkpt>
      <trkpt lat="43.15435" lon="-0.65007">
        <ele>309.2</ele>
        <time>2017-05-11T09:33:57Z</time>
      </trkpt>
      <trkpt lat="43.15434" lon="-0.6501">
        <ele>309.2</ele>
        <time>2017-05-11T09:33:58Z</time>
      </trkpt>
      <trkpt lat="43.15434" lon="-0.65012">
        <ele>309.68</ele>
        <time>2017-05-11T09:33:59Z</time>
      </trkpt>
      <trkpt lat="43.15434" lon="-0.65014">
        <ele>309.68</ele>
        <time>2017-05-11T09:34:00Z</time>
      </trkpt>
      <trkpt lat="43.15433" lon="-0.65017">
        <ele>309.68</ele>
        <time>2017-05-11T09:34:01Z</time>
      </trkpt>
      <trkpt lat="43.15431" lon="-0.6502">
        <ele>310.16</ele>
        <time>2017-05-11T09:34:02Z</time>
      </trkpt>
      <trkpt lat="43.15426" lon="-0.65031">
        <ele>310.16</ele>
        <time>2017-05-11T09:34:07Z</time>
      </trkpt>
      <trkpt lat="43.15425" lon="-0.65034">
        <ele>310.64</ele>
        <time>2017-05-11T09:34:08Z</time>
      </trkpt>
      <trkpt lat="43.15425" lon="-0.65036">
        <ele>310.64</ele>
        <time>2017-05-11T09:34:09Z</time>
      </trkpt>
      <trkpt lat="43.15423" lon="-0.65042">
        <ele>311.12</ele>
        <time>2017-05-11T09:34:10Z</time>
      </trkpt>
      <trkpt lat="43.15421" lon="-0.65047">
        <ele>310.64</ele>
        <time>2017-05-11T09:34:11Z</time>
      </trkpt>
      <trkpt lat="43.1542" lon="-0.65053">
        <ele>311.12</ele>
        <time>2017-05-11T09:34:12Z</time>
      </trkpt>
      <trkpt lat="43.15417" lon="-0.65059">
        <ele>311.12</ele>
        <time>2017-05-11T09:34:13Z</time>
      </trkpt>
      <trkpt lat="43.15414" lon="-0.65069">
        <ele>311.12</ele>
        <time>2017-05-11T09:34:15Z</time>
      </trkpt>
      <trkpt lat="43.15413" lon="-0.65073">
        <ele>311.6</ele>
        <time>2017-05-11T09:34:16Z</time>
      </trkpt>
      <trkpt lat="43.15412" lon="-0.65079">
        <ele>311.6</ele>
        <time>2017-05-11T09:34:17Z</time>
      </trkpt>
      <trkpt lat="43.1541" lon="-0.65084">
        <ele>311.6</ele>
        <time>2017-05-11T09:34:18Z</time>
      </trkpt>
      <trkpt lat="43.1541" lon="-0.65087">
        <ele>312.09</ele>
        <time>2017-05-11T09:34:19Z</time>
      </trkpt>
      <trkpt lat="43.15399" lon="-0.65108">
        <ele>312.57</ele>
        <time>2017-05-11T09:34:25Z</time>
      </trkpt>
      <trkpt lat="43.15397" lon="-0.6511">
        <ele>313.05</ele>
        <time>2017-05-11T09:34:26Z</time>
      </trkpt>
      <trkpt lat="43.15396" lon="-0.65112">
        <ele>313.05</ele>
        <time>2017-05-11T09:34:27Z</time>
      </trkpt>
      <trkpt lat="43.15394" lon="-0.65115">
        <ele>313.05</ele>
        <time>2017-05-11T09:34:28Z</time>
      </trkpt>
      <trkpt lat="43.15393" lon="-0.65117">
        <ele>314.01</ele>
        <time>2017-05-11T09:34:29Z</time>
      </trkpt>
      <trkpt lat="43.1537" lon="-0.65147">
        <ele>314.97</ele>
        <time>2017-05-11T09:34:39Z</time>
      </trkpt>
      <trkpt lat="43.15365" lon="-0.65153">
        <ele>314.97</ele>
        <time>2017-05-11T09:34:41Z</time>
      </trkpt>
      <trkpt lat="43.15364" lon="-0.65155">
        <ele>315.45</ele>
        <time>2017-05-11T09:34:42Z</time>
      </trkpt>
      <trkpt lat="43.15362" lon="-0.65158">
        <ele>315.45</ele>
        <time>2017-05-11T09:34:43Z</time>
      </trkpt>
      <trkpt lat="43.15331" lon="-0.65195">
        <ele>316.89</ele>
        <time>2017-05-11T09:34:55Z</time>
      </trkpt>
      <trkpt lat="43.15298" lon="-0.65238">
        <ele>318.33</ele>
        <time>2017-05-11T09:35:08Z</time>
      </trkpt>
      <trkpt lat="43.15297" lon="-0.65239">
        <ele>318.81</ele>
        <time>2017-05-11T09:35:09Z</time>
      </trkpt>
      <trkpt lat="43.15297" lon="-0.65241">
        <ele>318.81</ele>
        <time>2017-05-11T09:35:10Z</time>
      </trkpt>
      <trkpt lat="43.15296" lon="-0.65244">
        <ele>319.3</ele>
        <time>2017-05-11T09:35:11Z</time>
      </trkpt>
      <trkpt lat="43.15297" lon="-0.65247">
        <ele>319.3</ele>
        <time>2017-05-11T09:35:12Z</time>
      </trkpt>
      <trkpt lat="43.15298" lon="-0.65253">
        <ele>319.3</ele>
        <time>2017-05-11T09:35:14Z</time>
      </trkpt>
      <trkpt lat="43.15307" lon="-0.65306">
        <ele>320.74</ele>
        <time>2017-05-11T09:35:24Z</time>
      </trkpt>
      <trkpt lat="43.15315" lon="-0.65323">
        <ele>321.22</ele>
        <time>2017-05-11T09:35:28Z</time>
      </trkpt>
      <trkpt lat="43.15316" lon="-0.65327">
        <ele>321.22</ele>
        <time>2017-05-11T09:35:29Z</time>
      </trkpt>
      <trkpt lat="43.15318" lon="-0.6533">
        <ele>321.22</ele>
        <time>2017-05-11T09:35:30Z</time>
      </trkpt>
      <trkpt lat="43.15341" lon="-0.6537">
        <ele>322.18</ele>
        <time>2017-05-11T09:35:40Z</time>
      </trkpt>
      <trkpt lat="43.15344" lon="-0.65416">
        <ele>323.62</ele>
        <time>2017-05-11T09:35:50Z</time>
      </trkpt>
      <trkpt lat="43.15317" lon="-0.65447">
        <ele>324.58</ele>
        <time>2017-05-11T09:36:00Z</time>
      </trkpt>
      <trkpt lat="43.15286" lon="-0.6546">
        <ele>326.5</ele>
        <time>2017-05-11T09:36:10Z</time>
      </trkpt>
      <trkpt lat="43.15248" lon="-0.65464">
        <ele>327.95</ele>
        <time>2017-05-11T09:36:21Z</time>
      </trkpt>
      <trkpt lat="43.1522" lon="-0.65467">
        <ele>329.39</ele>
        <time>2017-05-11T09:36:30Z</time>
      </trkpt>
      <trkpt lat="43.15217" lon="-0.65467">
        <ele>329.39</ele>
        <time>2017-05-11T09:36:31Z</time>
      </trkpt>
      <trkpt lat="43.15212" lon="-0.65466">
        <ele>329.87</ele>
        <time>2017-05-11T09:36:33Z</time>
      </trkpt>
      <trkpt lat="43.15197" lon="-0.65468">
        <ele>330.35</ele>
        <time>2017-05-11T09:36:38Z</time>
      </trkpt>
      <trkpt lat="43.15193" lon="-0.65467">
        <ele>330.83</ele>
        <time>2017-05-11T09:36:39Z</time>
      </trkpt>
      <trkpt lat="43.1519" lon="-0.65467">
        <ele>331.31</ele>
        <time>2017-05-11T09:36:40Z</time>
      </trkpt>
      <trkpt lat="43.15186" lon="-0.65468">
        <ele>330.83</ele>
        <time>2017-05-11T09:36:41Z</time>
      </trkpt>
      <trkpt lat="43.15183" lon="-0.65468">
        <ele>330.83</ele>
        <time>2017-05-11T09:36:42Z</time>
      </trkpt>
      <trkpt lat="43.15181" lon="-0.65468">
        <ele>331.31</ele>
        <time>2017-05-11T09:36:43Z</time>
      </trkpt>
      <trkpt lat="43.15151" lon="-0.65473">
        <ele>332.27</ele>
        <time>2017-05-11T09:36:52Z</time>
      </trkpt>
      <trkpt lat="43.15147" lon="-0.65476">
        <ele>332.27</ele>
        <time>2017-05-11T09:36:54Z</time>
      </trkpt>
      <trkpt lat="43.15145" lon="-0.65483">
        <ele>332.75</ele>
        <time>2017-05-11T09:36:57Z</time>
      </trkpt>
      <trkpt lat="43.15142" lon="-0.65499">
        <ele>333.23</ele>
        <time>2017-05-11T09:37:01Z</time>
      </trkpt>
      <trkpt lat="43.15131" lon="-0.65521">
        <ele>333.71</ele>
        <time>2017-05-11T09:37:06Z</time>
      </trkpt>
      <trkpt lat="43.15137" lon="-0.65545">
        <ele>334.2</ele>
        <time>2017-05-11T09:37:12Z</time>
      </trkpt>
      <trkpt lat="43.1516" lon="-0.65584">
        <ele>335.16</ele>
        <time>2017-05-11T09:37:22Z</time>
      </trkpt>
      <trkpt lat="43.15163" lon="-0.65602">
        <ele>335.64</ele>
        <time>2017-05-11T09:37:25Z</time>
      </trkpt>
      <trkpt lat="43.15175" lon="-0.6565">
        <ele>336.6</ele>
        <time>2017-05-11T09:37:36Z</time>
      </trkpt>
      <trkpt lat="43.15171" lon="-0.65666">
        <ele>337.08</ele>
        <time>2017-05-11T09:37:47Z</time>
      </trkpt>
      <trkpt lat="43.15171" lon="-0.65666">
        <ele>337.08</ele>
        <time>2017-05-11T09:37:58Z</time>
      </trkpt>
      <trkpt lat="43.1517" lon="-0.65676">
        <ele>336.6</ele>
        <time>2017-05-11T09:38:03Z</time>
      </trkpt>
      <trkpt lat="43.15168" lon="-0.65679">
        <ele>337.08</ele>
        <time>2017-05-11T09:38:06Z</time>
      </trkpt>
      <trkpt lat="43.15171" lon="-0.65671">
        <ele>337.08</ele>
        <time>2017-05-11T09:38:10Z</time>
      </trkpt>
      <trkpt lat="43.15175" lon="-0.65666">
        <ele>336.6</ele>
        <time>2017-05-11T09:38:13Z</time>
      </trkpt>
      <trkpt lat="43.15179" lon="-0.65662">
        <ele>335.16</ele>
        <time>2017-05-11T09:38:15Z</time>
      </trkpt>
      <trkpt lat="43.1518" lon="-0.65658">
        <ele>333.71</ele>
        <time>2017-05-11T09:38:16Z</time>
      </trkpt>
      <trkpt lat="43.15182" lon="-0.65656">
        <ele>333.71</ele>
        <time>2017-05-11T09:38:17Z</time>
      </trkpt>
      <trkpt lat="43.15187" lon="-0.65665">
        <ele>331.79</ele>
        <time>2017-05-11T09:38:21Z</time>
      </trkpt>
      <trkpt lat="43.15192" lon="-0.65673">
        <ele>327.95</ele>
        <time>2017-05-11T09:38:25Z</time>
      </trkpt>
      <trkpt lat="43.15197" lon="-0.65675">
        <ele>325.54</ele>
        <time>2017-05-11T09:38:30Z</time>
      </trkpt>
      <trkpt lat="43.15199" lon="-0.65682">
        <ele>324.1</ele>
        <time>2017-05-11T09:38:33Z</time>
      </trkpt>
      <trkpt lat="43.15199" lon="-0.6568">
        <ele>323.14</ele>
        <time>2017-05-11T09:38:35Z</time>
      </trkpt>
      <trkpt lat="43.15203" lon="-0.65678">
        <ele>320.74</ele>
        <time>2017-05-11T09:38:38Z</time>
      </trkpt>
      <trkpt lat="43.15209" lon="-0.65678">
        <ele>317.37</ele>
        <time>2017-05-11T09:38:43Z</time>
      </trkpt>
      <trkpt lat="43.15213" lon="-0.65681">
        <ele>316.41</ele>
        <time>2017-05-11T09:38:46Z</time>
      </trkpt>
      <trkpt lat="43.15214" lon="-0.65687">
        <ele>315.45</ele>
        <time>2017-05-11T09:38:49Z</time>
      </trkpt>
      <trkpt lat="43.15221" lon="-0.65687">
        <ele>314.01</ele>
        <time>2017-05-11T09:38:53Z</time>
      </trkpt>
      <trkpt lat="43.15227" lon="-0.65682">
        <ele>313.53</ele>
        <time>2017-05-11T09:38:56Z</time>
      </trkpt>
      <trkpt lat="43.15227" lon="-0.65692">
        <ele>309.2</ele>
        <time>2017-05-11T09:39:01Z</time>
      </trkpt>
      <trkpt lat="43.15226" lon="-0.65695">
        <ele>309.2</ele>
        <time>2017-05-11T09:39:02Z</time>
      </trkpt>
      <trkpt lat="43.15227" lon="-0.65701">
        <ele>307.28</ele>
        <time>2017-05-11T09:39:04Z</time>
      </trkpt>
      <trkpt lat="43.15234" lon="-0.65704">
        <ele>303.91</ele>
        <time>2017-05-11T09:39:08Z</time>
      </trkpt>
      <trkpt lat="43.15249" lon="-0.65703">
        <ele>300.07</ele>
        <time>2017-05-11T09:39:13Z</time>
      </trkpt>
      <trkpt lat="43.15257" lon="-0.65704">
        <ele>298.63</ele>
        <time>2017-05-11T09:39:16Z</time>
      </trkpt>
      <trkpt lat="43.15265" lon="-0.65705">
        <ele>297.18</ele>
        <time>2017-05-11T09:39:19Z</time>
      </trkpt>
      <trkpt lat="43.15266" lon="-0.65713">
        <ele>294.78</ele>
        <time>2017-05-11T09:39:23Z</time>
      </trkpt>
      <trkpt lat="43.15264" lon="-0.65716">
        <ele>294.3</ele>
        <time>2017-05-11T09:39:27Z</time>
      </trkpt>
      <trkpt lat="43.1527" lon="-0.65723">
        <ele>292.38</ele>
        <time>2017-05-11T09:39:32Z</time>
      </trkpt>
      <trkpt lat="43.15277" lon="-0.65729">
        <ele>289.01</ele>
        <time>2017-05-11T09:39:35Z</time>
      </trkpt>
      <trkpt lat="43.15294" lon="-0.65739">
        <ele>285.17</ele>
        <time>2017-05-11T09:39:40Z</time>
      </trkpt>
      <trkpt lat="43.1532" lon="-0.65735">
        <ele>281.8</ele>
        <time>2017-05-11T09:39:46Z</time>
      </trkpt>
      <trkpt lat="43.15328" lon="-0.65736">
        <ele>279.88</ele>
        <time>2017-05-11T09:39:48Z</time>
      </trkpt>
      <trkpt lat="43.15335" lon="-0.65734">
        <ele>278.44</ele>
        <time>2017-05-11T09:39:50Z</time>
      </trkpt>
      <trkpt lat="43.15346" lon="-0.65742">
        <ele>276.04</ele>
        <time>2017-05-11T09:39:54Z</time>
      </trkpt>
      <trkpt lat="43.15345" lon="-0.6575">
        <ele>275.07</ele>
        <time>2017-05-11T09:39:58Z</time>
      </trkpt>
      <trkpt lat="43.15349" lon="-0.65752">
        <ele>274.11</ele>
        <time>2017-05-11T09:40:00Z</time>
      </trkpt>
      <trkpt lat="43.15368" lon="-0.65751">
        <ele>270.27</ele>
        <time>2017-05-11T09:40:06Z</time>
      </trkpt>
      <trkpt lat="43.1537" lon="-0.6575">
        <ele>270.27</ele>
        <time>2017-05-11T09:40:07Z</time>
      </trkpt>
      <trkpt lat="43.15373" lon="-0.65751">
        <ele>269.31</ele>
        <time>2017-05-11T09:40:08Z</time>
      </trkpt>
      <trkpt lat="43.15387" lon="-0.65754">
        <ele>267.38</ele>
        <time>2017-05-11T09:40:12Z</time>
      </trkpt>
      <trkpt lat="43.15398" lon="-0.65766">
        <ele>264.98</ele>
        <time>2017-05-11T09:40:15Z</time>
      </trkpt>
      <trkpt lat="43.15399" lon="-0.65767">
        <ele>264.98</ele>
        <time>2017-05-11T09:40:16Z</time>
      </trkpt>
      <trkpt lat="43.15422" lon="-0.65767">
        <ele>262.1</ele>
        <time>2017-05-11T09:40:21Z</time>
      </trkpt>
      <trkpt lat="43.15427" lon="-0.65766">
        <ele>261.62</ele>
        <time>2017-05-11T09:40:22Z</time>
      </trkpt>
      <trkpt lat="43.15437" lon="-0.65762">
        <ele>259.69</ele>
        <time>2017-05-11T09:40:25Z</time>
      </trkpt>
      <trkpt lat="43.15439" lon="-0.65761">
        <ele>258.73</ele>
        <time>2017-05-11T09:40:26Z</time>
      </trkpt>
      <trkpt lat="43.15455" lon="-0.65783">
        <ele>255.37</ele>
        <time>2017-05-11T09:40:35Z</time>
      </trkpt>
      <trkpt lat="43.15466" lon="-0.65788">
        <ele>252</ele>
        <time>2017-05-11T09:40:39Z</time>
      </trkpt>
      <trkpt lat="43.15467" lon="-0.6579">
        <ele>251.52</ele>
        <time>2017-05-11T09:40:41Z</time>
      </trkpt>
      <trkpt lat="43.15473" lon="-0.65799">
        <ele>251.04</ele>
        <time>2017-05-11T09:40:52Z</time>
      </trkpt>
      <trkpt lat="43.15473" lon="-0.65799">
        <ele>251.04</ele>
        <time>2017-05-11T09:40:59Z</time>
      </trkpt>
      <trkpt lat="43.15477" lon="-0.65801">
        <ele>250.56</ele>
        <time>2017-05-11T09:41:03Z</time>
      </trkpt>
      <trkpt lat="43.15476" lon="-0.65807">
        <ele>248.64</ele>
        <time>2017-05-11T09:41:08Z</time>
      </trkpt>
      <trkpt lat="43.15478" lon="-0.65815">
        <ele>245.27</ele>
        <time>2017-05-11T09:41:11Z</time>
      </trkpt>
      <trkpt lat="43.1548" lon="-0.65816">
        <ele>244.79</ele>
        <time>2017-05-11T09:41:17Z</time>
      </trkpt>
      <trkpt lat="43.15481" lon="-0.65814">
        <ele>245.27</ele>
        <time>2017-05-11T09:41:20Z</time>
      </trkpt>
      <trkpt lat="43.15483" lon="-0.65813">
        <ele>245.27</ele>
        <time>2017-05-11T09:41:22Z</time>
      </trkpt>
      <trkpt lat="43.15482" lon="-0.65808">
        <ele>244.79</ele>
        <time>2017-05-11T09:41:26Z</time>
      </trkpt>
      <trkpt lat="43.15482" lon="-0.65806">
        <ele>245.27</ele>
        <time>2017-05-11T09:41:28Z</time>
      </trkpt>
      <trkpt lat="43.15496" lon="-0.65787">
        <ele>244.31</ele>
        <time>2017-05-11T09:41:35Z</time>
      </trkpt>
      <trkpt lat="43.15504" lon="-0.65764">
        <ele>243.35</ele>
        <time>2017-05-11T09:41:41Z</time>
      </trkpt>
      <trkpt lat="43.15507" lon="-0.65742">
        <ele>243.83</ele>
        <time>2017-05-11T09:41:51Z</time>
      </trkpt>
      <trkpt lat="43.15527" lon="-0.65709">
        <ele>244.79</ele>
        <time>2017-05-11T09:42:00Z</time>
      </trkpt>
      <trkpt lat="43.15556" lon="-0.65687">
        <ele>244.31</ele>
        <time>2017-05-11T09:42:09Z</time>
      </trkpt>
      <trkpt lat="43.15615" lon="-0.6565">
        <ele>244.31</ele>
        <time>2017-05-11T09:42:19Z</time>
      </trkpt>
      <trkpt lat="43.15639" lon="-0.65646">
        <ele>241.43</ele>
        <time>2017-05-11T09:42:24Z</time>
      </trkpt>
      <trkpt lat="43.15652" lon="-0.65649">
        <ele>239.99</ele>
        <time>2017-05-11T09:42:28Z</time>
      </trkpt>
      <trkpt lat="43.15652" lon="-0.65653">
        <ele>239.99</ele>
        <time>2017-05-11T09:42:29Z</time>
      </trkpt>
      <trkpt lat="43.15652" lon="-0.65656">
        <ele>239.51</ele>
        <time>2017-05-11T09:42:30Z</time>
      </trkpt>
      <trkpt lat="43.15648" lon="-0.65662">
        <ele>239.99</ele>
        <time>2017-05-11T09:42:32Z</time>
      </trkpt>
      <trkpt lat="43.15645" lon="-0.65663">
        <ele>239.51</ele>
        <time>2017-05-11T09:42:33Z</time>
      </trkpt>
      <trkpt lat="43.15643" lon="-0.65664">
        <ele>239.51</ele>
        <time>2017-05-11T09:42:34Z</time>
      </trkpt>
      <trkpt lat="43.15629" lon="-0.65662">
        <ele>239.51</ele>
        <time>2017-05-11T09:42:42Z</time>
      </trkpt>
      <trkpt lat="43.15627" lon="-0.65663">
        <ele>239.99</ele>
        <time>2017-05-11T09:42:43Z</time>
      </trkpt>
      <trkpt lat="43.15625" lon="-0.65667">
        <ele>240.47</ele>
        <time>2017-05-11T09:42:44Z</time>
      </trkpt>
      <trkpt lat="43.15624" lon="-0.65669">
        <ele>240.95</ele>
        <time>2017-05-11T09:42:45Z</time>
      </trkpt>
      <trkpt lat="43.15623" lon="-0.65673">
        <ele>240.95</ele>
        <time>2017-05-11T09:42:46Z</time>
      </trkpt>
      <trkpt lat="43.15621" lon="-0.65676">
        <ele>241.43</ele>
        <time>2017-05-11T09:42:47Z</time>
      </trkpt>
      <trkpt lat="43.15619" lon="-0.65679">
        <ele>241.91</ele>
        <time>2017-05-11T09:42:48Z</time>
      </trkpt>
      <trkpt lat="43.15618" lon="-0.65681">
        <ele>241.91</ele>
        <time>2017-05-11T09:42:49Z</time>
      </trkpt>
      <trkpt lat="43.15617" lon="-0.65684">
        <ele>242.39</ele>
        <time>2017-05-11T09:42:50Z</time>
      </trkpt>
      <trkpt lat="43.15594" lon="-0.65713">
        <ele>244.79</ele>
        <time>2017-05-11T09:43:02Z</time>
      </trkpt>
      <trkpt lat="43.15591" lon="-0.65735">
        <ele>246.23</ele>
        <time>2017-05-11T09:43:11Z</time>
      </trkpt>
      <trkpt lat="43.15599" lon="-0.65757">
        <ele>248.16</ele>
        <time>2017-05-11T09:43:23Z</time>
      </trkpt>
      <trkpt lat="43.15599" lon="-0.65758">
        <ele>248.64</ele>
        <time>2017-05-11T09:43:25Z</time>
      </trkpt>
      <trkpt lat="43.15604" lon="-0.65769">
        <ele>250.08</ele>
        <time>2017-05-11T09:43:32Z</time>
      </trkpt>
      <trkpt lat="43.15604" lon="-0.65793">
        <ele>252.96</ele>
        <time>2017-05-11T09:43:44Z</time>
      </trkpt>
      <trkpt lat="43.156" lon="-0.658">
        <ele>252.96</ele>
        <time>2017-05-11T09:43:47Z</time>
      </trkpt>
      <trkpt lat="43.15586" lon="-0.65811">
        <ele>256.33</ele>
        <time>2017-05-11T09:43:59Z</time>
      </trkpt>
      <trkpt lat="43.15583" lon="-0.65817">
        <ele>257.29</ele>
        <time>2017-05-11T09:44:03Z</time>
      </trkpt>
      <trkpt lat="43.15583" lon="-0.65823">
        <ele>257.77</ele>
        <time>2017-05-11T09:44:07Z</time>
      </trkpt>
      <trkpt lat="43.15589" lon="-0.65846">
        <ele>259.69</ele>
        <time>2017-05-11T09:44:18Z</time>
      </trkpt>
      <trkpt lat="43.1559" lon="-0.65849">
        <ele>259.21</ele>
        <time>2017-05-11T09:44:19Z</time>
      </trkpt>
      <trkpt lat="43.15591" lon="-0.65854">
        <ele>259.69</ele>
        <time>2017-05-11T09:44:21Z</time>
      </trkpt>
      <trkpt lat="43.15595" lon="-0.65865">
        <ele>260.65</ele>
        <time>2017-05-11T09:44:26Z</time>
      </trkpt>
      <trkpt lat="43.15602" lon="-0.65881">
        <ele>262.58</ele>
        <time>2017-05-11T09:44:34Z</time>
      </trkpt>
      <trkpt lat="43.15605" lon="-0.65888">
        <ele>263.06</ele>
        <time>2017-05-11T09:44:38Z</time>
      </trkpt>
      <trkpt lat="43.1561" lon="-0.65892">
        <ele>263.54</ele>
        <time>2017-05-11T09:44:42Z</time>
      </trkpt>
      <trkpt lat="43.15614" lon="-0.659">
        <ele>264.98</ele>
        <time>2017-05-11T09:44:46Z</time>
      </trkpt>
      <trkpt lat="43.15631" lon="-0.6591">
        <ele>267.38</ele>
        <time>2017-05-11T09:44:58Z</time>
      </trkpt>
      <trkpt lat="43.15638" lon="-0.65919">
        <ele>268.83</ele>
        <time>2017-05-11T09:45:05Z</time>
      </trkpt>
      <trkpt lat="43.15644" lon="-0.65927">
        <ele>269.79</ele>
        <time>2017-05-11T09:45:10Z</time>
      </trkpt>
      <trkpt lat="43.15665" lon="-0.6595">
        <ele>272.67</ele>
        <time>2017-05-11T09:45:23Z</time>
      </trkpt>
      <trkpt lat="43.1568" lon="-0.65963">
        <ele>274.11</ele>
        <time>2017-05-11T09:45:32Z</time>
      </trkpt>
      <trkpt lat="43.15696" lon="-0.65978">
        <ele>275.56</ele>
        <time>2017-05-11T09:45:41Z</time>
      </trkpt>
      <trkpt lat="43.15699" lon="-0.65982">
        <ele>276.04</ele>
        <time>2017-05-11T09:45:43Z</time>
      </trkpt>
      <trkpt lat="43.15706" lon="-0.65985">
        <ele>276.52</ele>
        <time>2017-05-11T09:45:48Z</time>
      </trkpt>
      <trkpt lat="43.15732" lon="-0.66004">
        <ele>277.96</ele>
        <time>2017-05-11T09:46:01Z</time>
      </trkpt>
      <trkpt lat="43.1576" lon="-0.66031">
        <ele>280.84</ele>
        <time>2017-05-11T09:46:15Z</time>
      </trkpt>
      <trkpt lat="43.15777" lon="-0.66052">
        <ele>282.28</ele>
        <time>2017-05-11T09:46:26Z</time>
      </trkpt>
      <trkpt lat="43.15782" lon="-0.66059">
        <ele>282.28</ele>
        <time>2017-05-11T09:46:30Z</time>
      </trkpt>
      <trkpt lat="43.15788" lon="-0.66062">
        <ele>282.77</ele>
        <time>2017-05-11T09:46:34Z</time>
      </trkpt>
      <trkpt lat="43.15789" lon="-0.6606">
        <ele>282.28</ele>
        <time>2017-05-11T09:46:36Z</time>
      </trkpt>
      <trkpt lat="43.15801" lon="-0.66018">
        <ele>282.28</ele>
        <time>2017-05-11T09:46:49Z</time>
      </trkpt>
      <trkpt lat="43.15816" lon="-0.65986">
        <ele>279.4</ele>
        <time>2017-05-11T09:46:56Z</time>
      </trkpt>
      <trkpt lat="43.15819" lon="-0.65978">
        <ele>278.92</ele>
        <time>2017-05-11T09:46:57Z</time>
      </trkpt>
      <trkpt lat="43.15824" lon="-0.65957">
        <ele>278.44</ele>
        <time>2017-05-11T09:47:00Z</time>
      </trkpt>
      <trkpt lat="43.15834" lon="-0.65926">
        <ele>276.04</ele>
        <time>2017-05-11T09:47:05Z</time>
      </trkpt>
      <trkpt lat="43.15837" lon="-0.65914">
        <ele>274.59</ele>
        <time>2017-05-11T09:47:07Z</time>
      </trkpt>
      <trkpt lat="43.1585" lon="-0.65868">
        <ele>272.19</ele>
        <time>2017-05-11T09:47:13Z</time>
      </trkpt>
      <trkpt lat="43.15853" lon="-0.65852">
        <ele>271.23</ele>
        <time>2017-05-11T09:47:15Z</time>
      </trkpt>
      <trkpt lat="43.15866" lon="-0.65829">
        <ele>270.27</ele>
        <time>2017-05-11T09:47:24Z</time>
      </trkpt>
      <trkpt lat="43.15872" lon="-0.6582">
        <ele>270.75</ele>
        <time>2017-05-11T09:47:36Z</time>
      </trkpt>
      <trkpt lat="43.15872" lon="-0.6582">
        <ele>270.27</ele>
        <time>2017-05-11T09:47:37Z</time>
      </trkpt>
      <trkpt lat="43.15872" lon="-0.65817">
        <ele>270.27</ele>
        <time>2017-05-11T09:47:39Z</time>
      </trkpt>
      <trkpt lat="43.15871" lon="-0.65812">
        <ele>270.27</ele>
        <time>2017-05-11T09:47:42Z</time>
      </trkpt>
      <trkpt lat="43.15878" lon="-0.65781">
        <ele>269.79</ele>
        <time>2017-05-11T09:47:53Z</time>
      </trkpt>
      <trkpt lat="43.15887" lon="-0.65749">
        <ele>267.38</ele>
        <time>2017-05-11T09:48:02Z</time>
      </trkpt>
      <trkpt lat="43.1589" lon="-0.65738">
        <ele>265.94</ele>
        <time>2017-05-11T09:48:06Z</time>
      </trkpt>
      <trkpt lat="43.15895" lon="-0.65731">
        <ele>264.5</ele>
        <time>2017-05-11T09:48:10Z</time>
      </trkpt>
      <trkpt lat="43.15897" lon="-0.65722">
        <ele>262.58</ele>
        <time>2017-05-11T09:48:14Z</time>
      </trkpt>
      <trkpt lat="43.15898" lon="-0.65713">
        <ele>261.62</ele>
        <time>2017-05-11T09:48:17Z</time>
      </trkpt>
      <trkpt lat="43.159" lon="-0.65707">
        <ele>260.65</ele>
        <time>2017-05-11T09:48:19Z</time>
      </trkpt>
      <trkpt lat="43.15901" lon="-0.65686">
        <ele>257.29</ele>
        <time>2017-05-11T09:48:24Z</time>
      </trkpt>
      <trkpt lat="43.15893" lon="-0.65655">
        <ele>254.41</ele>
        <time>2017-05-11T09:48:31Z</time>
      </trkpt>
      <trkpt lat="43.15891" lon="-0.65649">
        <ele>253.44</ele>
        <time>2017-05-11T09:48:33Z</time>
      </trkpt>
      <trkpt lat="43.15887" lon="-0.6564">
        <ele>252</ele>
        <time>2017-05-11T09:48:36Z</time>
      </trkpt>
      <trkpt lat="43.15881" lon="-0.65634">
        <ele>250.08</ele>
        <time>2017-05-11T09:48:40Z</time>
      </trkpt>
      <trkpt lat="43.15882" lon="-0.65629">
        <ele>250.08</ele>
        <time>2017-05-11T09:48:42Z</time>
      </trkpt>
      <trkpt lat="43.15887" lon="-0.65613">
        <ele>247.68</ele>
        <time>2017-05-11T09:48:46Z</time>
      </trkpt>
      <trkpt lat="43.15895" lon="-0.65605">
        <ele>243.83</ele>
        <time>2017-05-11T09:48:51Z</time>
      </trkpt>
      <trkpt lat="43.15906" lon="-0.65582">
        <ele>239.51</ele>
        <time>2017-05-11T09:48:57Z</time>
      </trkpt>
      <trkpt lat="43.15907" lon="-0.65579">
        <ele>239.02</ele>
        <time>2017-05-11T09:48:58Z</time>
      </trkpt>
      <trkpt lat="43.15909" lon="-0.65574">
        <ele>238.06</ele>
        <time>2017-05-11T09:49:00Z</time>
      </trkpt>
      <trkpt lat="43.15915" lon="-0.65555">
        <ele>236.14</ele>
        <time>2017-05-11T09:49:06Z</time>
      </trkpt>
      <trkpt lat="43.15922" lon="-0.65552">
        <ele>235.66</ele>
        <time>2017-05-11T09:49:10Z</time>
      </trkpt>
      <trkpt lat="43.15925" lon="-0.6556">
        <ele>235.18</ele>
        <time>2017-05-11T09:49:14Z</time>
      </trkpt>
      <trkpt lat="43.15932" lon="-0.65571">
        <ele>235.66</ele>
        <time>2017-05-11T09:49:19Z</time>
      </trkpt>
      <trkpt lat="43.15938" lon="-0.65583">
        <ele>236.14</ele>
        <time>2017-05-11T09:49:25Z</time>
      </trkpt>
      <trkpt lat="43.15941" lon="-0.65613">
        <ele>236.62</ele>
        <time>2017-05-11T09:49:36Z</time>
      </trkpt>
      <trkpt lat="43.15945" lon="-0.65627">
        <ele>238.06</ele>
        <time>2017-05-11T09:49:42Z</time>
      </trkpt>
      <trkpt lat="43.15946" lon="-0.65628">
        <ele>238.06</ele>
        <time>2017-05-11T09:49:43Z</time>
      </trkpt>
      <trkpt lat="43.15961" lon="-0.65646">
        <ele>239.51</ele>
        <time>2017-05-11T09:49:53Z</time>
      </trkpt>
      <trkpt lat="43.15965" lon="-0.65652">
        <ele>239.99</ele>
        <time>2017-05-11T09:49:56Z</time>
      </trkpt>
      <trkpt lat="43.15976" lon="-0.65667">
        <ele>241.43</ele>
        <time>2017-05-11T09:50:04Z</time>
      </trkpt>
      <trkpt lat="43.15985" lon="-0.65663">
        <ele>244.79</ele>
        <time>2017-05-11T09:50:15Z</time>
      </trkpt>
      <trkpt lat="43.15987" lon="-0.65664">
        <ele>245.27</ele>
        <time>2017-05-11T09:50:20Z</time>
      </trkpt>
      <trkpt lat="43.1599" lon="-0.65663">
        <ele>245.75</ele>
        <time>2017-05-11T09:50:22Z</time>
      </trkpt>
      <trkpt lat="43.15993" lon="-0.65663">
        <ele>246.72</ele>
        <time>2017-05-11T09:50:25Z</time>
      </trkpt>
      <trkpt lat="43.16004" lon="-0.65664">
        <ele>247.68</ele>
        <time>2017-05-11T09:50:32Z</time>
      </trkpt>
      <trkpt lat="43.1601" lon="-0.65663">
        <ele>249.12</ele>
        <time>2017-05-11T09:50:38Z</time>
      </trkpt>
      <trkpt lat="43.16022" lon="-0.65666">
        <ele>250.56</ele>
        <time>2017-05-11T09:50:47Z</time>
      </trkpt>
      <trkpt lat="43.16028" lon="-0.65667">
        <ele>251.52</ele>
        <time>2017-05-11T09:50:51Z</time>
      </trkpt>
      <trkpt lat="43.16033" lon="-0.65668">
        <ele>252</ele>
        <time>2017-05-11T09:50:54Z</time>
      </trkpt>
      <trkpt lat="43.16044" lon="-0.65669">
        <ele>252.96</ele>
        <time>2017-05-11T09:51:02Z</time>
      </trkpt>
      <trkpt lat="43.16055" lon="-0.65663">
        <ele>255.37</ele>
        <time>2017-05-11T09:51:14Z</time>
      </trkpt>
      <trkpt lat="43.16068" lon="-0.65664">
        <ele>256.33</ele>
        <time>2017-05-11T09:51:20Z</time>
      </trkpt>
      <trkpt lat="43.16086" lon="-0.65661">
        <ele>257.77</ele>
        <time>2017-05-11T09:51:31Z</time>
      </trkpt>
      <trkpt lat="43.1611" lon="-0.65654">
        <ele>259.69</ele>
        <time>2017-05-11T09:51:42Z</time>
      </trkpt>
      <trkpt lat="43.16135" lon="-0.65651">
        <ele>262.1</ele>
        <time>2017-05-11T09:51:54Z</time>
      </trkpt>
      <trkpt lat="43.16144" lon="-0.65646">
        <ele>263.54</ele>
        <time>2017-05-11T09:51:59Z</time>
      </trkpt>
      <trkpt lat="43.16157" lon="-0.65646">
        <ele>265.46</ele>
        <time>2017-05-11T09:52:05Z</time>
      </trkpt>
      <trkpt lat="43.16171" lon="-0.65644">
        <ele>266.9</ele>
        <time>2017-05-11T09:52:13Z</time>
      </trkpt>
      <trkpt lat="43.16174" lon="-0.65637">
        <ele>267.38</ele>
        <time>2017-05-11T09:52:17Z</time>
      </trkpt>
      <trkpt lat="43.16178" lon="-0.65623">
        <ele>267.38</ele>
        <time>2017-05-11T09:52:22Z</time>
      </trkpt>
      <trkpt lat="43.16179" lon="-0.65599">
        <ele>266.42</ele>
        <time>2017-05-11T09:52:31Z</time>
      </trkpt>
      <trkpt lat="43.16182" lon="-0.65588">
        <ele>265.94</ele>
        <time>2017-05-11T09:52:34Z</time>
      </trkpt>
      <trkpt lat="43.1618" lon="-0.65572">
        <ele>265.94</ele>
        <time>2017-05-11T09:52:39Z</time>
      </trkpt>
      <trkpt lat="43.16167" lon="-0.65529">
        <ele>266.9</ele>
        <time>2017-05-11T09:52:49Z</time>
      </trkpt>
      <trkpt lat="43.16157" lon="-0.65497">
        <ele>266.9</ele>
        <time>2017-05-11T09:52:58Z</time>
      </trkpt>
      <trkpt lat="43.1617" lon="-0.65464">
        <ele>267.38</ele>
        <time>2017-05-11T09:53:08Z</time>
      </trkpt>
      <trkpt lat="43.16172" lon="-0.65462">
        <ele>266.9</ele>
        <time>2017-05-11T09:53:09Z</time>
      </trkpt>
      <trkpt lat="43.16182" lon="-0.65449">
        <ele>266.42</ele>
        <time>2017-05-11T09:53:13Z</time>
      </trkpt>
      <trkpt lat="43.16218" lon="-0.65444">
        <ele>264.02</ele>
        <time>2017-05-11T09:53:24Z</time>
      </trkpt>
      <trkpt lat="43.16222" lon="-0.65445">
        <ele>264.02</ele>
        <time>2017-05-11T09:53:25Z</time>
      </trkpt>
      <trkpt lat="43.16231" lon="-0.6544">
        <ele>263.06</ele>
        <time>2017-05-11T09:53:29Z</time>
      </trkpt>
      <trkpt lat="43.16234" lon="-0.65436">
        <ele>262.1</ele>
        <time>2017-05-11T09:53:31Z</time>
      </trkpt>
      <trkpt lat="43.16239" lon="-0.6542">
        <ele>262.58</ele>
        <time>2017-05-11T09:53:36Z</time>
      </trkpt>
      <trkpt lat="43.16249" lon="-0.65412">
        <ele>261.62</ele>
        <time>2017-05-11T09:53:41Z</time>
      </trkpt>
      <trkpt lat="43.16261" lon="-0.65404">
        <ele>261.14</ele>
        <time>2017-05-11T09:53:49Z</time>
      </trkpt>
      <trkpt lat="43.16276" lon="-0.65405">
        <ele>259.69</ele>
        <time>2017-05-11T09:53:53Z</time>
      </trkpt>
      <trkpt lat="43.16289" lon="-0.65396">
        <ele>259.21</ele>
        <time>2017-05-11T09:53:58Z</time>
      </trkpt>
      <trkpt lat="43.16303" lon="-0.65381">
        <ele>258.25</ele>
        <time>2017-05-11T09:54:07Z</time>
      </trkpt>
      <trkpt lat="43.16308" lon="-0.65384">
        <ele>256.81</ele>
        <time>2017-05-11T09:54:12Z</time>
      </trkpt>
      <trkpt lat="43.16316" lon="-0.65377">
        <ele>257.29</ele>
        <time>2017-05-11T09:54:17Z</time>
      </trkpt>
      <trkpt lat="43.16319" lon="-0.65376">
        <ele>257.29</ele>
        <time>2017-05-11T09:54:19Z</time>
      </trkpt>
      <trkpt lat="43.16325" lon="-0.65364">
        <ele>256.81</ele>
        <time>2017-05-11T09:54:26Z</time>
      </trkpt>
      <trkpt lat="43.16329" lon="-0.65359">
        <ele>255.85</ele>
        <time>2017-05-11T09:54:29Z</time>
      </trkpt>
      <trkpt lat="43.16335" lon="-0.65355">
        <ele>255.37</ele>
        <time>2017-05-11T09:54:32Z</time>
      </trkpt>
      <trkpt lat="43.16341" lon="-0.65357">
        <ele>254.89</ele>
        <time>2017-05-11T09:54:36Z</time>
      </trkpt>
      <trkpt lat="43.16346" lon="-0.65354">
        <ele>253.44</ele>
        <time>2017-05-11T09:54:39Z</time>
      </trkpt>
      <trkpt lat="43.16355" lon="-0.65356">
        <ele>252.48</ele>
        <time>2017-05-11T09:54:42Z</time>
      </trkpt>
      <trkpt lat="43.16367" lon="-0.65357">
        <ele>249.6</ele>
        <time>2017-05-11T09:54:46Z</time>
      </trkpt>
      <trkpt lat="43.16373" lon="-0.65355">
        <ele>248.64</ele>
        <time>2017-05-11T09:54:48Z</time>
      </trkpt>
      <trkpt lat="43.16383" lon="-0.65346">
        <ele>247.2</ele>
        <time>2017-05-11T09:54:54Z</time>
      </trkpt>
      <trkpt lat="43.16396" lon="-0.65334">
        <ele>244.79</ele>
        <time>2017-05-11T09:54:59Z</time>
      </trkpt>
      <trkpt lat="43.16412" lon="-0.65306">
        <ele>241.43</ele>
        <time>2017-05-11T09:55:07Z</time>
      </trkpt>
      <trkpt lat="43.16422" lon="-0.65296">
        <ele>239.51</ele>
        <time>2017-05-11T09:55:11Z</time>
      </trkpt>
      <trkpt lat="43.16439" lon="-0.65267">
        <ele>236.62</ele>
        <time>2017-05-11T09:55:19Z</time>
      </trkpt>
      <trkpt lat="43.16429" lon="-0.65249">
        <ele>236.62</ele>
        <time>2017-05-11T09:55:28Z</time>
      </trkpt>
      <trkpt lat="43.16423" lon="-0.65242">
        <ele>236.14</ele>
        <time>2017-05-11T09:55:32Z</time>
      </trkpt>
      <trkpt lat="43.16424" lon="-0.65231">
        <ele>234.7</ele>
        <time>2017-05-11T09:55:35Z</time>
      </trkpt>
      <trkpt lat="43.16432" lon="-0.65196">
        <ele>234.7</ele>
        <time>2017-05-11T09:55:44Z</time>
      </trkpt>
      <trkpt lat="43.16436" lon="-0.65186">
        <ele>234.22</ele>
        <time>2017-05-11T09:55:47Z</time>
      </trkpt>
      <trkpt lat="43.16439" lon="-0.65179">
        <ele>234.22</ele>
        <time>2017-05-11T09:55:49Z</time>
      </trkpt>
      <trkpt lat="43.16452" lon="-0.65157">
        <ele>234.22</ele>
        <time>2017-05-11T09:55:57Z</time>
      </trkpt>
      <trkpt lat="43.16466" lon="-0.65144">
        <ele>233.26</ele>
        <time>2017-05-11T09:56:03Z</time>
      </trkpt>
      <trkpt lat="43.16476" lon="-0.65131">
        <ele>232.78</ele>
        <time>2017-05-11T09:56:09Z</time>
      </trkpt>
      <trkpt lat="43.16479" lon="-0.65129">
        <ele>232.78</ele>
        <time>2017-05-11T09:56:10Z</time>
      </trkpt>
      <trkpt lat="43.16492" lon="-0.65098">
        <ele>232.3</ele>
        <time>2017-05-11T09:56:20Z</time>
      </trkpt>
      <trkpt lat="43.16506" lon="-0.65092">
        <ele>232.3</ele>
        <time>2017-05-11T09:56:25Z</time>
      </trkpt>
      <trkpt lat="43.16512" lon="-0.65087">
        <ele>231.81</ele>
        <time>2017-05-11T09:56:27Z</time>
      </trkpt>
      <trkpt lat="43.16521" lon="-0.6508">
        <ele>230.85</ele>
        <time>2017-05-11T09:56:31Z</time>
      </trkpt>
      <trkpt lat="43.16526" lon="-0.65074">
        <ele>230.37</ele>
        <time>2017-05-11T09:56:33Z</time>
      </trkpt>
      <trkpt lat="43.16529" lon="-0.65068">
        <ele>229.41</ele>
        <time>2017-05-11T09:56:34Z</time>
      </trkpt>
      <trkpt lat="43.16534" lon="-0.6506">
        <ele>227.97</ele>
        <time>2017-05-11T09:56:36Z</time>
      </trkpt>
      <trkpt lat="43.16541" lon="-0.65049">
        <ele>225.57</ele>
        <time>2017-05-11T09:56:41Z</time>
      </trkpt>
      <trkpt lat="43.16542" lon="-0.65049">
        <ele>225.57</ele>
        <time>2017-05-11T09:56:42Z</time>
      </trkpt>
      <trkpt lat="43.16544" lon="-0.65048">
        <ele>226.05</ele>
        <time>2017-05-11T09:56:43Z</time>
      </trkpt>
      <trkpt lat="43.1655" lon="-0.65044">
        <ele>226.05</ele>
        <time>2017-05-11T09:56:47Z</time>
      </trkpt>
      <trkpt lat="43.16547" lon="-0.65041">
        <ele>226.05</ele>
        <time>2017-05-11T09:56:49Z</time>
      </trkpt>
      <trkpt lat="43.16547" lon="-0.6502">
        <ele>227.97</ele>
        <time>2017-05-11T09:56:57Z</time>
      </trkpt>
      <trkpt lat="43.16547" lon="-0.65014">
        <ele>229.89</ele>
        <time>2017-05-11T09:57:00Z</time>
      </trkpt>
      <trkpt lat="43.16547" lon="-0.65011">
        <ele>230.37</ele>
        <time>2017-05-11T09:57:02Z</time>
      </trkpt>
      <trkpt lat="43.16546" lon="-0.65007">
        <ele>231.33</ele>
        <time>2017-05-11T09:57:04Z</time>
      </trkpt>
      <trkpt lat="43.16544" lon="-0.65">
        <ele>232.3</ele>
        <time>2017-05-11T09:57:07Z</time>
      </trkpt>
      <trkpt lat="43.16541" lon="-0.64993">
        <ele>233.74</ele>
        <time>2017-05-11T09:57:10Z</time>
      </trkpt>
      <trkpt lat="43.16536" lon="-0.64983">
        <ele>234.7</ele>
        <time>2017-05-11T09:57:14Z</time>
      </trkpt>
      <trkpt lat="43.16532" lon="-0.64964">
        <ele>234.7</ele>
        <time>2017-05-11T09:57:24Z</time>
      </trkpt>
      <trkpt lat="43.16524" lon="-0.64936">
        <ele>235.18</ele>
        <time>2017-05-11T09:57:32Z</time>
      </trkpt>
      <trkpt lat="43.16521" lon="-0.6489">
        <ele>233.74</ele>
        <time>2017-05-11T09:57:42Z</time>
      </trkpt>
      <trkpt lat="43.16511" lon="-0.64862">
        <ele>233.74</ele>
        <time>2017-05-11T09:57:49Z</time>
      </trkpt>
      <trkpt lat="43.16506" lon="-0.64835">
        <ele>232.78</ele>
        <time>2017-05-11T09:57:54Z</time>
      </trkpt>
      <trkpt lat="43.16509" lon="-0.64823">
        <ele>232.3</ele>
        <time>2017-05-11T09:57:56Z</time>
      </trkpt>
      <trkpt lat="43.16515" lon="-0.6481">
        <ele>231.81</ele>
        <time>2017-05-11T09:58:02Z</time>
      </trkpt>
      <trkpt lat="43.16518" lon="-0.6481">
        <ele>231.81</ele>
        <time>2017-05-11T09:58:04Z</time>
      </trkpt>
      <trkpt lat="43.16534" lon="-0.64826">
        <ele>232.3</ele>
        <time>2017-05-11T09:58:13Z</time>
      </trkpt>
      <trkpt lat="43.16546" lon="-0.64853">
        <ele>232.78</ele>
        <time>2017-05-11T09:58:23Z</time>
      </trkpt>
      <trkpt lat="43.16551" lon="-0.64863">
        <ele>232.78</ele>
        <time>2017-05-11T09:58:27Z</time>
      </trkpt>
      <trkpt lat="43.16558" lon="-0.64877">
        <ele>233.26</ele>
        <time>2017-05-11T09:58:33Z</time>
      </trkpt>
      <trkpt lat="43.16566" lon="-0.64888">
        <ele>232.78</ele>
        <time>2017-05-11T09:58:38Z</time>
      </trkpt>
      <trkpt lat="43.16592" lon="-0.64904">
        <ele>230.85</ele>
        <time>2017-05-11T09:58:48Z</time>
      </trkpt>
      <trkpt lat="43.16607" lon="-0.64901">
        <ele>229.89</ele>
        <time>2017-05-11T09:58:54Z</time>
      </trkpt>
      <trkpt lat="43.16641" lon="-0.64882">
        <ele>227.49</ele>
        <time>2017-05-11T09:59:00Z</time>
      </trkpt>
      <trkpt lat="43.1668" lon="-0.64872">
        <ele>226.05</ele>
        <time>2017-05-11T09:59:08Z</time>
      </trkpt>
      <trkpt lat="43.16684" lon="-0.64864">
        <ele>227.97</ele>
        <time>2017-05-11T09:59:13Z</time>
      </trkpt>
      <trkpt lat="43.16685" lon="-0.64862">
        <ele>227.97</ele>
        <time>2017-05-11T09:59:14Z</time>
      </trkpt>
      <trkpt lat="43.16698" lon="-0.64834">
        <ele>228.93</ele>
        <time>2017-05-11T09:59:23Z</time>
      </trkpt>
      <trkpt lat="43.16711" lon="-0.64806">
        <ele>229.89</ele>
        <time>2017-05-11T09:59:32Z</time>
      </trkpt>
      <trkpt lat="43.16729" lon="-0.64785">
        <ele>229.41</ele>
        <time>2017-05-11T09:59:40Z</time>
      </trkpt>
      <trkpt lat="43.16743" lon="-0.64773">
        <ele>229.41</ele>
        <time>2017-05-11T09:59:45Z</time>
      </trkpt>
      <trkpt lat="43.16759" lon="-0.6475">
        <ele>228.93</ele>
        <time>2017-05-11T09:59:55Z</time>
      </trkpt>
      <trkpt lat="43.1677" lon="-0.64729">
        <ele>228.93</ele>
        <time>2017-05-11T10:00:02Z</time>
      </trkpt>
      <trkpt lat="43.16776" lon="-0.64717">
        <ele>228.45</ele>
        <time>2017-05-11T10:00:11Z</time>
      </trkpt>
      <trkpt lat="43.16779" lon="-0.64703">
        <ele>229.41</ele>
        <time>2017-05-11T10:00:15Z</time>
      </trkpt>
      <trkpt lat="43.16792" lon="-0.64678">
        <ele>229.41</ele>
        <time>2017-05-11T10:00:25Z</time>
      </trkpt>
      <trkpt lat="43.16808" lon="-0.64657">
        <ele>229.41</ele>
        <time>2017-05-11T10:00:39Z</time>
      </trkpt>
      <trkpt lat="43.1681" lon="-0.64649">
        <ele>229.41</ele>
        <time>2017-05-11T10:00:43Z</time>
      </trkpt>
      <trkpt lat="43.16814" lon="-0.64641">
        <ele>229.89</ele>
        <time>2017-05-11T10:00:54Z</time>
      </trkpt>
      <trkpt lat="43.16821" lon="-0.64634">
        <ele>228.93</ele>
        <time>2017-05-11T10:01:02Z</time>
      </trkpt>
      <trkpt lat="43.16828" lon="-0.64612">
        <ele>229.41</ele>
        <time>2017-05-11T10:01:12Z</time>
      </trkpt>
      <trkpt lat="43.16846" lon="-0.64589">
        <ele>229.41</ele>
        <time>2017-05-11T10:01:23Z</time>
      </trkpt>
      <trkpt lat="43.1687" lon="-0.64555">
        <ele>229.41</ele>
        <time>2017-05-11T10:01:33Z</time>
      </trkpt>
      <trkpt lat="43.16899" lon="-0.6452">
        <ele>228.45</ele>
        <time>2017-05-11T10:01:43Z</time>
      </trkpt>
      <trkpt lat="43.16914" lon="-0.64513">
        <ele>227.97</ele>
        <time>2017-05-11T10:01:46Z</time>
      </trkpt>
      <trkpt lat="43.16932" lon="-0.64505">
        <ele>227.49</ele>
        <time>2017-05-11T10:01:49Z</time>
      </trkpt>
      <trkpt lat="43.16959" lon="-0.64497">
        <ele>227.01</ele>
        <time>2017-05-11T10:01:56Z</time>
      </trkpt>
      <trkpt lat="43.16991" lon="-0.6448">
        <ele>227.49</ele>
        <time>2017-05-11T10:02:07Z</time>
      </trkpt>
      <trkpt lat="43.17007" lon="-0.64477">
        <ele>227.01</ele>
        <time>2017-05-11T10:02:13Z</time>
      </trkpt>
      <trkpt lat="43.17018" lon="-0.64463">
        <ele>227.49</ele>
        <time>2017-05-11T10:02:18Z</time>
      </trkpt>
      <trkpt lat="43.1704" lon="-0.64443">
        <ele>227.97</ele>
        <time>2017-05-11T10:02:29Z</time>
      </trkpt>
      <trkpt lat="43.17067" lon="-0.64416">
        <ele>229.89</ele>
        <time>2017-05-11T10:02:38Z</time>
      </trkpt>
      <trkpt lat="43.17104" lon="-0.64389">
        <ele>229.89</ele>
        <time>2017-05-11T10:02:49Z</time>
      </trkpt>
      <trkpt lat="43.17139" lon="-0.64361">
        <ele>230.37</ele>
        <time>2017-05-11T10:03:01Z</time>
      </trkpt>
      <trkpt lat="43.17174" lon="-0.6433">
        <ele>229.41</ele>
        <time>2017-05-11T10:03:11Z</time>
      </trkpt>
      <trkpt lat="43.17178" lon="-0.64326">
        <ele>228.93</ele>
        <time>2017-05-11T10:03:12Z</time>
      </trkpt>
      <trkpt lat="43.17182" lon="-0.64321">
        <ele>228.93</ele>
        <time>2017-05-11T10:03:13Z</time>
      </trkpt>
      <trkpt lat="43.17208" lon="-0.64295">
        <ele>227.97</ele>
        <time>2017-05-11T10:03:18Z</time>
      </trkpt>
      <trkpt lat="43.17212" lon="-0.64291">
        <ele>227.97</ele>
        <time>2017-05-11T10:03:19Z</time>
      </trkpt>
      <trkpt lat="43.17216" lon="-0.64289">
        <ele>228.45</ele>
        <time>2017-05-11T10:03:20Z</time>
      </trkpt>
      <trkpt lat="43.17221" lon="-0.64288">
        <ele>228.45</ele>
        <time>2017-05-11T10:03:21Z</time>
      </trkpt>
      <trkpt lat="43.17226" lon="-0.64288">
        <ele>227.97</ele>
        <time>2017-05-11T10:03:22Z</time>
      </trkpt>
      <trkpt lat="43.17231" lon="-0.64287">
        <ele>227.97</ele>
        <time>2017-05-11T10:03:23Z</time>
      </trkpt>
      <trkpt lat="43.17236" lon="-0.64286">
        <ele>227.97</ele>
        <time>2017-05-11T10:03:24Z</time>
      </trkpt>
      <trkpt lat="43.1724" lon="-0.64285">
        <ele>228.45</ele>
        <time>2017-05-11T10:03:25Z</time>
      </trkpt>
      <trkpt lat="43.17245" lon="-0.64283">
        <ele>228.45</ele>
        <time>2017-05-11T10:03:26Z</time>
      </trkpt>
      <trkpt lat="43.17306" lon="-0.64247">
        <ele>228.93</ele>
        <time>2017-05-11T10:03:39Z</time>
      </trkpt>
      <trkpt lat="43.17333" lon="-0.64232">
        <ele>228.93</ele>
        <time>2017-05-11T10:03:45Z</time>
      </trkpt>
      <trkpt lat="43.17369" lon="-0.64218">
        <ele>228.93</ele>
        <time>2017-05-11T10:03:52Z</time>
      </trkpt>
      <trkpt lat="43.17431" lon="-0.64184">
        <ele>229.89</ele>
        <time>2017-05-11T10:04:06Z</time>
      </trkpt>
      <trkpt lat="43.17466" lon="-0.64156">
        <ele>227.97</ele>
        <time>2017-05-11T10:04:13Z</time>
      </trkpt>
      <trkpt lat="43.17472" lon="-0.64152">
        <ele>228.45</ele>
        <time>2017-05-11T10:04:14Z</time>
      </trkpt>
      <trkpt lat="43.17492" lon="-0.64143">
        <ele>227.49</ele>
        <time>2017-05-11T10:04:17Z</time>
      </trkpt>
      <trkpt lat="43.17517" lon="-0.64144">
        <ele>227.01</ele>
        <time>2017-05-11T10:04:21Z</time>
      </trkpt>
      <trkpt lat="43.17524" lon="-0.64147">
        <ele>227.01</ele>
        <time>2017-05-11T10:04:22Z</time>
      </trkpt>
      <trkpt lat="43.17529" lon="-0.6415">
        <ele>227.01</ele>
        <time>2017-05-11T10:04:23Z</time>
      </trkpt>
      <trkpt lat="43.17548" lon="-0.64159">
        <ele>227.97</ele>
        <time>2017-05-11T10:04:27Z</time>
      </trkpt>
      <trkpt lat="43.17557" lon="-0.64163">
        <ele>229.41</ele>
        <time>2017-05-11T10:04:29Z</time>
      </trkpt>
      <trkpt lat="43.17561" lon="-0.64165">
        <ele>229.41</ele>
        <time>2017-05-11T10:04:30Z</time>
      </trkpt>
      <trkpt lat="43.17621" lon="-0.64166">
        <ele>231.33</ele>
        <time>2017-05-11T10:04:44Z</time>
      </trkpt>
      <trkpt lat="43.17633" lon="-0.64164">
        <ele>231.33</ele>
        <time>2017-05-11T10:04:47Z</time>
      </trkpt>
      <trkpt lat="43.17637" lon="-0.64162">
        <ele>231.33</ele>
        <time>2017-05-11T10:04:48Z</time>
      </trkpt>
      <trkpt lat="43.17697" lon="-0.64124">
        <ele>232.3</ele>
        <time>2017-05-11T10:05:02Z</time>
      </trkpt>
      <trkpt lat="43.17735" lon="-0.64108">
        <ele>231.81</ele>
        <time>2017-05-11T10:05:12Z</time>
      </trkpt>
      <trkpt lat="43.17738" lon="-0.64111">
        <ele>231.33</ele>
        <time>2017-05-11T10:05:13Z</time>
      </trkpt>
      <trkpt lat="43.17775" lon="-0.64155">
        <ele>231.33</ele>
        <time>2017-05-11T10:05:26Z</time>
      </trkpt>
      <trkpt lat="43.17779" lon="-0.6416">
        <ele>230.85</ele>
        <time>2017-05-11T10:05:28Z</time>
      </trkpt>
      <trkpt lat="43.1778" lon="-0.64158">
        <ele>230.85</ele>
        <time>2017-05-11T10:05:29Z</time>
      </trkpt>
      <trkpt lat="43.17818" lon="-0.64114">
        <ele>231.81</ele>
        <time>2017-05-11T10:05:41Z</time>
      </trkpt>
      <trkpt lat="43.17834" lon="-0.641">
        <ele>232.3</ele>
        <time>2017-05-11T10:05:45Z</time>
      </trkpt>
      <trkpt lat="43.17909" lon="-0.64053">
        <ele>232.78</ele>
        <time>2017-05-11T10:06:01Z</time>
      </trkpt>
      <trkpt lat="43.17981" lon="-0.64007">
        <ele>234.22</ele>
        <time>2017-05-11T10:06:17Z</time>
      </trkpt>
      <trkpt lat="43.18001" lon="-0.63992">
        <ele>234.22</ele>
        <time>2017-05-11T10:06:23Z</time>
      </trkpt>
      <trkpt lat="43.18002" lon="-0.6399">
        <ele>233.74</ele>
        <time>2017-05-11T10:06:24Z</time>
      </trkpt>
      <trkpt lat="43.18001" lon="-0.63988">
        <ele>234.22</ele>
        <time>2017-05-11T10:06:25Z</time>
      </trkpt>
      <trkpt lat="43.17999" lon="-0.63986">
        <ele>234.7</ele>
        <time>2017-05-11T10:06:26Z</time>
      </trkpt>
      <trkpt lat="43.17998" lon="-0.63985">
        <ele>234.22</ele>
        <time>2017-05-11T10:06:27Z</time>
      </trkpt>
      <trkpt lat="43.17993" lon="-0.63961">
        <ele>231.33</ele>
        <time>2017-05-11T12:03:22Z</time>
      </trkpt>
      <trkpt lat="43.17978" lon="-0.63921">
        <ele>232.78</ele>
        <time>2017-05-11T12:03:26Z</time>
      </trkpt>
      <trkpt lat="43.17926" lon="-0.63809">
        <ele>236.14</ele>
        <time>2017-05-11T12:03:35Z</time>
      </trkpt>
      <trkpt lat="43.17867" lon="-0.63656">
        <ele>237.58</ele>
        <time>2017-05-11T12:03:45Z</time>
      </trkpt>
      <trkpt lat="43.17864" lon="-0.63638">
        <ele>238.06</ele>
        <time>2017-05-11T12:03:46Z</time>
      </trkpt>
      <trkpt lat="43.17855" lon="-0.6357">
        <ele>238.54</ele>
        <time>2017-05-11T12:03:50Z</time>
      </trkpt>
      <trkpt lat="43.1785" lon="-0.63537">
        <ele>239.51</ele>
        <time>2017-05-11T12:03:52Z</time>
      </trkpt>
      <trkpt lat="43.17842" lon="-0.63451">
        <ele>239.99</ele>
        <time>2017-05-11T12:03:57Z</time>
      </trkpt>
      <trkpt lat="43.1784" lon="-0.63433">
        <ele>239.51</ele>
        <time>2017-05-11T12:03:58Z</time>
      </trkpt>
      <trkpt lat="43.17812" lon="-0.63323">
        <ele>239.02</ele>
        <time>2017-05-11T12:04:05Z</time>
      </trkpt>
      <trkpt lat="43.17811" lon="-0.63313">
        <ele>237.58</ele>
        <time>2017-05-11T12:04:06Z</time>
      </trkpt>
      <trkpt lat="43.1781" lon="-0.63294">
        <ele>237.1</ele>
        <time>2017-05-11T12:04:08Z</time>
      </trkpt>
      <trkpt lat="43.17809" lon="-0.63283">
        <ele>238.54</ele>
        <time>2017-05-11T12:04:09Z</time>
      </trkpt>
      <trkpt lat="43.17801" lon="-0.63223">
        <ele>239.51</ele>
        <time>2017-05-11T12:04:13Z</time>
      </trkpt>
      <trkpt lat="43.17779" lon="-0.63148">
        <ele>242.87</ele>
        <time>2017-05-11T12:04:18Z</time>
      </trkpt>
      <trkpt lat="43.17733" lon="-0.63023">
        <ele>240.47</ele>
        <time>2017-05-11T12:04:27Z</time>
      </trkpt>
      <trkpt lat="43.17661" lon="-0.62905">
        <ele>242.39</ele>
        <time>2017-05-11T12:04:36Z</time>
      </trkpt>
      <trkpt lat="43.17632" lon="-0.62851">
        <ele>244.31</ele>
        <time>2017-05-11T12:04:40Z</time>
      </trkpt>
      <trkpt lat="43.17627" lon="-0.62836">
        <ele>244.79</ele>
        <time>2017-05-11T12:04:41Z</time>
      </trkpt>
      <trkpt lat="43.17611" lon="-0.62773">
        <ele>243.35</ele>
        <time>2017-05-11T12:04:46Z</time>
      </trkpt>
      <trkpt lat="43.17609" lon="-0.62762">
        <ele>242.87</ele>
        <time>2017-05-11T12:04:47Z</time>
      </trkpt>
      <trkpt lat="43.17609" lon="-0.62751">
        <ele>242.39</ele>
        <time>2017-05-11T12:04:48Z</time>
      </trkpt>
      <trkpt lat="43.17611" lon="-0.62739">
        <ele>242.87</ele>
        <time>2017-05-11T12:04:49Z</time>
      </trkpt>
      <trkpt lat="43.17614" lon="-0.62727">
        <ele>241.91</ele>
        <time>2017-05-11T12:04:50Z</time>
      </trkpt>
      <trkpt lat="43.17619" lon="-0.62716">
        <ele>242.87</ele>
        <time>2017-05-11T12:04:51Z</time>
      </trkpt>
      <trkpt lat="43.17624" lon="-0.62706">
        <ele>241.91</ele>
        <time>2017-05-11T12:04:52Z</time>
      </trkpt>
      <trkpt lat="43.1763" lon="-0.62697">
        <ele>240.95</ele>
        <time>2017-05-11T12:04:53Z</time>
      </trkpt>
      <trkpt lat="43.17637" lon="-0.62689">
        <ele>240.47</ele>
        <time>2017-05-11T12:04:54Z</time>
      </trkpt>
      <trkpt lat="43.17645" lon="-0.62681">
        <ele>240.95</ele>
        <time>2017-05-11T12:04:55Z</time>
      </trkpt>
      <trkpt lat="43.17702" lon="-0.62617">
        <ele>242.87</ele>
        <time>2017-05-11T12:05:01Z</time>
      </trkpt>
      <trkpt lat="43.17739" lon="-0.62571">
        <ele>239.99</ele>
        <time>2017-05-11T12:05:05Z</time>
      </trkpt>
      <trkpt lat="43.17754" lon="-0.6255">
        <ele>239.51</ele>
        <time>2017-05-11T12:05:07Z</time>
      </trkpt>
      <trkpt lat="43.17759" lon="-0.62539">
        <ele>239.02</ele>
        <time>2017-05-11T12:05:08Z</time>
      </trkpt>
      <trkpt lat="43.17761" lon="-0.62528">
        <ele>239.99</ele>
        <time>2017-05-11T12:05:09Z</time>
      </trkpt>
      <trkpt lat="43.17763" lon="-0.62516">
        <ele>239.99</ele>
        <time>2017-05-11T12:05:10Z</time>
      </trkpt>
      <trkpt lat="43.17766" lon="-0.62504">
        <ele>239.02</ele>
        <time>2017-05-11T12:05:11Z</time>
      </trkpt>
      <trkpt lat="43.17771" lon="-0.62491">
        <ele>239.51</ele>
        <time>2017-05-11T12:05:12Z</time>
      </trkpt>
      <trkpt lat="43.17777" lon="-0.62478">
        <ele>239.51</ele>
        <time>2017-05-11T12:05:13Z</time>
      </trkpt>
      <trkpt lat="43.17784" lon="-0.62465">
        <ele>239.02</ele>
        <time>2017-05-11T12:05:14Z</time>
      </trkpt>
      <trkpt lat="43.17888" lon="-0.62272">
        <ele>239.02</ele>
        <time>2017-05-11T12:05:28Z</time>
      </trkpt>
      <trkpt lat="43.17968" lon="-0.62139">
        <ele>237.58</ele>
        <time>2017-05-11T12:05:40Z</time>
      </trkpt>
      <trkpt lat="43.18036" lon="-0.62073">
        <ele>234.7</ele>
        <time>2017-05-11T12:05:50Z</time>
      </trkpt>
      <trkpt lat="43.1804" lon="-0.62069">
        <ele>235.18</ele>
        <time>2017-05-11T12:05:51Z</time>
      </trkpt>
      <trkpt lat="43.18043" lon="-0.62066">
        <ele>234.22</ele>
        <time>2017-05-11T12:05:52Z</time>
      </trkpt>
      <trkpt lat="43.18047" lon="-0.62065">
        <ele>235.18</ele>
        <time>2017-05-11T12:06:02Z</time>
      </trkpt>
      <trkpt lat="43.18057" lon="-0.62081">
        <ele>239.99</ele>
        <time>2017-05-11T10:21:02Z</time>
      </trkpt>
      <trkpt lat="43.18059" lon="-0.62087">
        <ele>239.99</ele>
        <time>2017-05-11T10:21:03Z</time>
      </trkpt>
      <trkpt lat="43.1806" lon="-0.62092">
        <ele>239.99</ele>
        <time>2017-05-11T10:21:04Z</time>
      </trkpt>
      <trkpt lat="43.18062" lon="-0.62097">
        <ele>240.47</ele>
        <time>2017-05-11T10:21:05Z</time>
      </trkpt>
      <trkpt lat="43.18064" lon="-0.62102">
        <ele>239.99</ele>
        <time>2017-05-11T10:21:06Z</time>
      </trkpt>
      <trkpt lat="43.18065" lon="-0.62107">
        <ele>240.47</ele>
        <time>2017-05-11T10:21:07Z</time>
      </trkpt>
      <trkpt lat="43.18066" lon="-0.62113">
        <ele>240.47</ele>
        <time>2017-05-11T10:21:08Z</time>
      </trkpt>
      <trkpt lat="43.18068" lon="-0.62117">
        <ele>240.47</ele>
        <time>2017-05-11T10:21:09Z</time>
      </trkpt>
      <trkpt lat="43.1807" lon="-0.62121">
        <ele>240.47</ele>
        <time>2017-05-11T10:21:10Z</time>
      </trkpt>
      <trkpt lat="43.18071" lon="-0.62124">
        <ele>240.95</ele>
        <time>2017-05-11T10:21:11Z</time>
      </trkpt>
      <trkpt lat="43.18074" lon="-0.62138">
        <ele>240.47</ele>
        <time>2017-05-11T10:21:21Z</time>
      </trkpt>
      <trkpt lat="43.18072" lon="-0.62139">
        <ele>240.47</ele>
        <time>2017-05-11T10:21:33Z</time>
      </trkpt>
      <trkpt lat="43.18073" lon="-0.62144">
        <ele>240.47</ele>
        <time>2017-05-11T10:21:45Z</time>
      </trkpt>
      <trkpt lat="43.18072" lon="-0.62147">
        <ele>239.99</ele>
        <time>2017-05-11T10:21:46Z</time>
      </trkpt>
      <trkpt lat="43.18053" lon="-0.62197">
        <ele>240.47</ele>
        <time>2017-05-11T10:21:57Z</time>
      </trkpt>
      <trkpt lat="43.1805" lon="-0.62202">
        <ele>240.47</ele>
        <time>2017-05-11T10:21:58Z</time>
      </trkpt>
      <trkpt lat="43.18043" lon="-0.62211">
        <ele>240.95</ele>
        <time>2017-05-11T10:22:00Z</time>
      </trkpt>
      <trkpt lat="43.1804" lon="-0.62216">
        <ele>240.95</ele>
        <time>2017-05-11T10:22:01Z</time>
      </trkpt>
      <trkpt lat="43.18037" lon="-0.62221">
        <ele>240.95</ele>
        <time>2017-05-11T10:22:02Z</time>
      </trkpt>
      <trkpt lat="43.18016" lon="-0.62263">
        <ele>240.47</ele>
        <time>2017-05-11T10:22:10Z</time>
      </trkpt>
      <trkpt lat="43.18004" lon="-0.62286">
        <ele>240.95</ele>
        <time>2017-05-11T10:22:15Z</time>
      </trkpt>
      <trkpt lat="43.18" lon="-0.6229">
        <ele>240.47</ele>
        <time>2017-05-11T10:22:16Z</time>
      </trkpt>
      <trkpt lat="43.17997" lon="-0.62294">
        <ele>240.95</ele>
        <time>2017-05-11T10:22:17Z</time>
      </trkpt>
      <trkpt lat="43.17994" lon="-0.62299">
        <ele>240.95</ele>
        <time>2017-05-11T10:22:18Z</time>
      </trkpt>
      <trkpt lat="43.17992" lon="-0.62304">
        <ele>240.95</ele>
        <time>2017-05-11T10:22:19Z</time>
      </trkpt>
      <trkpt lat="43.17989" lon="-0.62308">
        <ele>241.43</ele>
        <time>2017-05-11T10:22:20Z</time>
      </trkpt>
      <trkpt lat="43.17987" lon="-0.62313">
        <ele>241.43</ele>
        <time>2017-05-11T10:22:21Z</time>
      </trkpt>
      <trkpt lat="43.17975" lon="-0.62332">
        <ele>240.47</ele>
        <time>2017-05-11T10:22:25Z</time>
      </trkpt>
      <trkpt lat="43.17972" lon="-0.62336">
        <ele>240.47</ele>
        <time>2017-05-11T10:22:26Z</time>
      </trkpt>
      <trkpt lat="43.17957" lon="-0.62362">
        <ele>240.95</ele>
        <time>2017-05-11T10:22:32Z</time>
      </trkpt>
      <trkpt lat="43.17955" lon="-0.62366">
        <ele>240.95</ele>
        <time>2017-05-11T10:22:33Z</time>
      </trkpt>
      <trkpt lat="43.17947" lon="-0.62392">
        <ele>240.95</ele>
        <time>2017-05-11T10:22:38Z</time>
      </trkpt>
      <trkpt lat="43.17947" lon="-0.62397">
        <ele>240.47</ele>
        <time>2017-05-11T10:22:39Z</time>
      </trkpt>
      <trkpt lat="43.17947" lon="-0.62403">
        <ele>240.47</ele>
        <time>2017-05-11T10:22:40Z</time>
      </trkpt>
      <trkpt lat="43.17949" lon="-0.62408">
        <ele>240.47</ele>
        <time>2017-05-11T10:22:41Z</time>
      </trkpt>
      <trkpt lat="43.17952" lon="-0.62412">
        <ele>240.95</ele>
        <time>2017-05-11T10:22:42Z</time>
      </trkpt>
      <trkpt lat="43.17954" lon="-0.62417">
        <ele>239.99</ele>
        <time>2017-05-11T10:22:43Z</time>
      </trkpt>
      <trkpt lat="43.17977" lon="-0.6245">
        <ele>239.99</ele>
        <time>2017-05-11T10:22:51Z</time>
      </trkpt>
      <trkpt lat="43.17987" lon="-0.6246">
        <ele>239.99</ele>
        <time>2017-05-11T10:22:54Z</time>
      </trkpt>
      <trkpt lat="43.18054" lon="-0.62519">
        <ele>239.99</ele>
        <time>2017-05-11T10:23:11Z</time>
      </trkpt>
      <trkpt lat="43.18058" lon="-0.62523">
        <ele>239.51</ele>
        <time>2017-05-11T10:23:12Z</time>
      </trkpt>
      <trkpt lat="43.18099" lon="-0.62555">
        <ele>239.51</ele>
        <time>2017-05-11T10:23:22Z</time>
      </trkpt>
      <trkpt lat="43.18103" lon="-0.62558">
        <ele>239.02</ele>
        <time>2017-05-11T10:23:23Z</time>
      </trkpt>
      <trkpt lat="43.18111" lon="-0.62565">
        <ele>239.02</ele>
        <time>2017-05-11T10:23:25Z</time>
      </trkpt>
      <trkpt lat="43.18115" lon="-0.62569">
        <ele>239.02</ele>
        <time>2017-05-11T10:23:26Z</time>
      </trkpt>
      <trkpt lat="43.18127" lon="-0.6258">
        <ele>238.54</ele>
        <time>2017-05-11T10:23:29Z</time>
      </trkpt>
      <trkpt lat="43.1813" lon="-0.62584">
        <ele>238.54</ele>
        <time>2017-05-11T10:23:30Z</time>
      </trkpt>
      <trkpt lat="43.18132" lon="-0.62589">
        <ele>238.06</ele>
        <time>2017-05-11T10:23:31Z</time>
      </trkpt>
      <trkpt lat="43.18132" lon="-0.62595">
        <ele>239.02</ele>
        <time>2017-05-11T10:23:32Z</time>
      </trkpt>
      <trkpt lat="43.18131" lon="-0.62601">
        <ele>238.54</ele>
        <time>2017-05-11T10:23:33Z</time>
      </trkpt>
      <trkpt lat="43.1813" lon="-0.62608">
        <ele>238.54</ele>
        <time>2017-05-11T10:23:34Z</time>
      </trkpt>
      <trkpt lat="43.18128" lon="-0.62625">
        <ele>239.02</ele>
        <time>2017-05-11T10:23:37Z</time>
      </trkpt>
      <trkpt lat="43.18128" lon="-0.62631">
        <ele>239.02</ele>
        <time>2017-05-11T10:23:38Z</time>
      </trkpt>
      <trkpt lat="43.18128" lon="-0.62636">
        <ele>239.02</ele>
        <time>2017-05-11T10:23:39Z</time>
      </trkpt>
      <trkpt lat="43.1813" lon="-0.62641">
        <ele>239.02</ele>
        <time>2017-05-11T10:23:40Z</time>
      </trkpt>
      <trkpt lat="43.18133" lon="-0.62645">
        <ele>239.51</ele>
        <time>2017-05-11T10:23:41Z</time>
      </trkpt>
      <trkpt lat="43.18138" lon="-0.62654">
        <ele>238.54</ele>
        <time>2017-05-11T10:23:43Z</time>
      </trkpt>
      <trkpt lat="43.18142" lon="-0.62657">
        <ele>238.54</ele>
        <time>2017-05-11T10:23:44Z</time>
      </trkpt>
      <trkpt lat="43.18158" lon="-0.62668">
        <ele>238.54</ele>
        <time>2017-05-11T10:23:48Z</time>
      </trkpt>
      <trkpt lat="43.18181" lon="-0.62671">
        <ele>238.06</ele>
        <time>2017-05-11T10:23:54Z</time>
      </trkpt>
      <trkpt lat="43.18189" lon="-0.62659">
        <ele>237.58</ele>
        <time>2017-05-11T10:23:57Z</time>
      </trkpt>
      <trkpt lat="43.18195" lon="-0.62631">
        <ele>237.58</ele>
        <time>2017-05-11T10:24:02Z</time>
      </trkpt>
      <trkpt lat="43.18207" lon="-0.62603">
        <ele>237.58</ele>
        <time>2017-05-11T10:24:07Z</time>
      </trkpt>
      <trkpt lat="43.18218" lon="-0.62592">
        <ele>237.58</ele>
        <time>2017-05-11T10:24:10Z</time>
      </trkpt>
      <trkpt lat="43.18245" lon="-0.62582">
        <ele>238.54</ele>
        <time>2017-05-11T10:24:16Z</time>
      </trkpt>
      <trkpt lat="43.18258" lon="-0.62584">
        <ele>239.51</ele>
        <time>2017-05-11T10:24:19Z</time>
      </trkpt>
      <trkpt lat="43.1832" lon="-0.62616">
        <ele>238.54</ele>
        <time>2017-05-11T10:24:33Z</time>
      </trkpt>
      <trkpt lat="43.18333" lon="-0.62627">
        <ele>238.06</ele>
        <time>2017-05-11T10:24:36Z</time>
      </trkpt>
      <trkpt lat="43.18351" lon="-0.62651">
        <ele>238.06</ele>
        <time>2017-05-11T10:24:41Z</time>
      </trkpt>
      <trkpt lat="43.18352" lon="-0.62656">
        <ele>238.06</ele>
        <time>2017-05-11T10:24:42Z</time>
      </trkpt>
      <trkpt lat="43.18354" lon="-0.62662">
        <ele>237.58</ele>
        <time>2017-05-11T10:24:43Z</time>
      </trkpt>
      <trkpt lat="43.18356" lon="-0.62673">
        <ele>237.1</ele>
        <time>2017-05-11T10:24:45Z</time>
      </trkpt>
      <trkpt lat="43.18356" lon="-0.62678">
        <ele>237.1</ele>
        <time>2017-05-11T10:24:46Z</time>
      </trkpt>
      <trkpt lat="43.18356" lon="-0.62684">
        <ele>237.1</ele>
        <time>2017-05-11T10:24:47Z</time>
      </trkpt>
      <trkpt lat="43.18348" lon="-0.62738">
        <ele>237.58</ele>
        <time>2017-05-11T10:24:58Z</time>
      </trkpt>
      <trkpt lat="43.18349" lon="-0.62741">
        <ele>237.1</ele>
        <time>2017-05-11T10:24:59Z</time>
      </trkpt>
      <trkpt lat="43.1835" lon="-0.62742">
        <ele>237.1</ele>
        <time>2017-05-11T10:25:00Z</time>
      </trkpt>
      <trkpt lat="43.18351" lon="-0.62741">
        <ele>237.1</ele>
        <time>2017-05-11T10:25:12Z</time>
      </trkpt>
      <trkpt lat="43.18352" lon="-0.62741">
        <ele>236.62</ele>
        <time>2017-05-11T10:25:33Z</time>
      </trkpt>
    </trkseg>
  </trk>
</gpx>